<?xml version="1.0" encoding="UTF-8" standalone="no" ?>
<gpx xmlns="http://www.topografix.com/GPX/1/1" xmlns:xsi="http://www.w3.org/2001/XMLSchema-instance" xsi:schemaLocation="http://www.topografix.com/GPX/1/1 http://www.topografix.com/GPX/1/1/gpx.xsd" version="1.1" creator="VisuGPX - https://www.visugpx.com">
  <metadata>
    <name>46 - Porte-du-Quercy : boucles au départ du Domaine des Terres Blanches</name>
    <desc><![CDATA[Cet itinéraire fait partie de la collection de EquiLiberté : www.equiliberte.org Circuit NON ACCESSIBLE aux attelages
Ces circuits ont été élaborés par le gîte équestre Domaine des Terres Blanches https://domainedesterresblanches.com/]]></desc>
  </metadata>
  <wpt lat="44.41706" lon="1.15834">
    <ele>172</ele>
    <name><![CDATA[Domaine des Terres Blanches]]></name>
    <type><![CDATA[hotel]]></type>
  </wpt>
  <trk>
    <name><![CDATA[46 - Porte-du-Quercy : Boucle Terres blanches : Le Boulve - Creyssens 8 km]]></name>
    <trkseg>
      <trkpt lat="44.41634" lon="1.15819">
        <ele>181</ele>
        <time>2021-02-08T13:24:43Z</time>
      </trkpt>
      <trkpt lat="44.41629" lon="1.15838">
        <ele>171</ele>
        <time>2021-02-08T13:30:14Z</time>
      </trkpt>
      <trkpt lat="44.41623" lon="1.15849">
        <ele>173</ele>
        <time>2021-02-08T13:30:21Z</time>
      </trkpt>
      <trkpt lat="44.41626" lon="1.15853">
        <ele>174</ele>
        <time>2021-02-08T13:30:23Z</time>
      </trkpt>
      <trkpt lat="44.41627" lon="1.15857">
        <ele>174</ele>
        <time>2021-02-08T13:30:25Z</time>
      </trkpt>
      <trkpt lat="44.41631" lon="1.1586">
        <ele>175</ele>
        <time>2021-02-08T13:30:28Z</time>
      </trkpt>
      <trkpt lat="44.41636" lon="1.15862">
        <ele>174</ele>
        <time>2021-02-08T13:30:32Z</time>
      </trkpt>
      <trkpt lat="44.41646" lon="1.15856">
        <ele>172</ele>
        <time>2021-02-08T13:30:38Z</time>
      </trkpt>
      <trkpt lat="44.41657" lon="1.15851">
        <ele>171</ele>
        <time>2021-02-08T13:30:46Z</time>
      </trkpt>
      <trkpt lat="44.41664" lon="1.15849">
        <ele>170</ele>
        <time>2021-02-08T13:30:52Z</time>
      </trkpt>
      <trkpt lat="44.41667" lon="1.15849">
        <ele>170</ele>
        <time>2021-02-08T13:30:54Z</time>
      </trkpt>
      <trkpt lat="44.41672" lon="1.15852">
        <ele>171</ele>
        <time>2021-02-08T13:31:00Z</time>
      </trkpt>
      <trkpt lat="44.41677" lon="1.15854">
        <ele>171</ele>
        <time>2021-02-08T13:31:04Z</time>
      </trkpt>
      <trkpt lat="44.41697" lon="1.15869">
        <ele>173</ele>
        <time>2021-02-08T13:31:22Z</time>
      </trkpt>
      <trkpt lat="44.41701" lon="1.15871">
        <ele>172</ele>
        <time>2021-02-08T13:31:25Z</time>
      </trkpt>
      <trkpt lat="44.41707" lon="1.15878">
        <ele>172</ele>
        <time>2021-02-08T13:31:30Z</time>
      </trkpt>
      <trkpt lat="44.41714" lon="1.15883">
        <ele>174</ele>
        <time>2021-02-08T13:31:36Z</time>
      </trkpt>
      <trkpt lat="44.41717" lon="1.15884">
        <ele>174</ele>
        <time>2021-02-08T13:31:39Z</time>
      </trkpt>
      <trkpt lat="44.41719" lon="1.15881">
        <ele>174</ele>
        <time>2021-02-08T13:31:42Z</time>
      </trkpt>
      <trkpt lat="44.41718" lon="1.15877">
        <ele>174</ele>
        <time>2021-02-08T13:31:45Z</time>
      </trkpt>
      <trkpt lat="44.41711" lon="1.15868">
        <ele>171</ele>
        <time>2021-02-08T13:32:06Z</time>
      </trkpt>
      <trkpt lat="44.41707" lon="1.15861">
        <ele>170</ele>
        <time>2021-02-08T13:32:12Z</time>
      </trkpt>
      <trkpt lat="44.41706" lon="1.15857">
        <ele>170</ele>
        <time>2021-02-08T13:32:15Z</time>
      </trkpt>
      <trkpt lat="44.41706" lon="1.15853">
        <ele>170</ele>
        <time>2021-02-08T13:32:19Z</time>
      </trkpt>
      <trkpt lat="44.41698" lon="1.15836">
        <ele>167</ele>
        <time>2021-02-08T13:32:37Z</time>
      </trkpt>
      <trkpt lat="44.41692" lon="1.1583">
        <ele>166</ele>
        <time>2021-02-08T13:32:43Z</time>
      </trkpt>
      <trkpt lat="44.41689" lon="1.15827">
        <ele>165</ele>
        <time>2021-02-08T13:32:46Z</time>
      </trkpt>
      <trkpt lat="44.41688" lon="1.15823">
        <ele>164</ele>
        <time>2021-02-08T13:32:49Z</time>
      </trkpt>
      <trkpt lat="44.41686" lon="1.15819">
        <ele>164</ele>
        <time>2021-02-08T13:32:52Z</time>
      </trkpt>
      <trkpt lat="44.41681" lon="1.1581">
        <ele>165</ele>
        <time>2021-02-08T13:33:00Z</time>
      </trkpt>
      <trkpt lat="44.41679" lon="1.15806">
        <ele>166</ele>
        <time>2021-02-08T13:33:03Z</time>
      </trkpt>
      <trkpt lat="44.41677" lon="1.15803">
        <ele>166</ele>
        <time>2021-02-08T13:33:06Z</time>
      </trkpt>
      <trkpt lat="44.41676" lon="1.15799">
        <ele>167</ele>
        <time>2021-02-08T13:33:09Z</time>
      </trkpt>
      <trkpt lat="44.41675" lon="1.15795">
        <ele>167</ele>
        <time>2021-02-08T13:33:12Z</time>
      </trkpt>
      <trkpt lat="44.41673" lon="1.15789">
        <ele>167</ele>
        <time>2021-02-08T13:33:19Z</time>
      </trkpt>
      <trkpt lat="44.41671" lon="1.15779">
        <ele>167</ele>
        <time>2021-02-08T13:33:31Z</time>
      </trkpt>
      <trkpt lat="44.41671" lon="1.15775">
        <ele>167</ele>
        <time>2021-02-08T13:33:34Z</time>
      </trkpt>
      <trkpt lat="44.41669" lon="1.15765">
        <ele>167</ele>
        <time>2021-02-08T13:33:40Z</time>
      </trkpt>
      <trkpt lat="44.41663" lon="1.15757">
        <ele>166</ele>
        <time>2021-02-08T13:33:47Z</time>
      </trkpt>
      <trkpt lat="44.4166" lon="1.15747">
        <ele>166</ele>
        <time>2021-02-08T13:34:04Z</time>
      </trkpt>
      <trkpt lat="44.4166" lon="1.15742">
        <ele>166</ele>
        <time>2021-02-08T13:34:06Z</time>
      </trkpt>
      <trkpt lat="44.4166" lon="1.15737">
        <ele>165</ele>
        <time>2021-02-08T13:34:09Z</time>
      </trkpt>
      <trkpt lat="44.41659" lon="1.15725">
        <ele>164</ele>
        <time>2021-02-08T13:34:17Z</time>
      </trkpt>
      <trkpt lat="44.41658" lon="1.15719">
        <ele>164</ele>
        <time>2021-02-08T13:34:20Z</time>
      </trkpt>
      <trkpt lat="44.41655" lon="1.15699">
        <ele>163</ele>
        <time>2021-02-08T13:34:32Z</time>
      </trkpt>
      <trkpt lat="44.41654" lon="1.15693">
        <ele>163</ele>
        <time>2021-02-08T13:34:36Z</time>
      </trkpt>
      <trkpt lat="44.41653" lon="1.15682">
        <ele>162</ele>
        <time>2021-02-08T13:34:43Z</time>
      </trkpt>
      <trkpt lat="44.41651" lon="1.15675">
        <ele>161</ele>
        <time>2021-02-08T13:34:48Z</time>
      </trkpt>
      <trkpt lat="44.41649" lon="1.15669">
        <ele>160</ele>
        <time>2021-02-08T13:34:51Z</time>
      </trkpt>
      <trkpt lat="44.41645" lon="1.15664">
        <ele>160</ele>
        <time>2021-02-08T13:34:54Z</time>
      </trkpt>
      <trkpt lat="44.41643" lon="1.1566">
        <ele>160</ele>
        <time>2021-02-08T13:34:56Z</time>
      </trkpt>
      <trkpt lat="44.41642" lon="1.15656">
        <ele>161</ele>
        <time>2021-02-08T13:34:58Z</time>
      </trkpt>
      <trkpt lat="44.41641" lon="1.15645">
        <ele>162</ele>
        <time>2021-02-08T13:35:04Z</time>
      </trkpt>
      <trkpt lat="44.41635" lon="1.15613">
        <ele>164</ele>
        <time>2021-02-08T13:35:18Z</time>
      </trkpt>
      <trkpt lat="44.41634" lon="1.15609">
        <ele>165</ele>
        <time>2021-02-08T13:35:20Z</time>
      </trkpt>
      <trkpt lat="44.41631" lon="1.15594">
        <ele>170</ele>
        <time>2021-02-08T13:35:28Z</time>
      </trkpt>
      <trkpt lat="44.4163" lon="1.1559">
        <ele>171</ele>
        <time>2021-02-08T13:35:30Z</time>
      </trkpt>
      <trkpt lat="44.41626" lon="1.15578">
        <ele>174</ele>
        <time>2021-02-08T13:35:37Z</time>
      </trkpt>
      <trkpt lat="44.41624" lon="1.15569">
        <ele>174</ele>
        <time>2021-02-08T13:35:41Z</time>
      </trkpt>
      <trkpt lat="44.41623" lon="1.15563">
        <ele>174</ele>
        <time>2021-02-08T13:35:44Z</time>
      </trkpt>
      <trkpt lat="44.41616" lon="1.1554">
        <ele>176</ele>
        <time>2021-02-08T13:35:55Z</time>
      </trkpt>
      <trkpt lat="44.41616" lon="1.15533">
        <ele>177</ele>
        <time>2021-02-08T13:35:59Z</time>
      </trkpt>
      <trkpt lat="44.41601" lon="1.15473">
        <ele>182</ele>
        <time>2021-02-08T13:36:28Z</time>
      </trkpt>
      <trkpt lat="44.41601" lon="1.15468">
        <ele>182</ele>
        <time>2021-02-08T13:36:30Z</time>
      </trkpt>
      <trkpt lat="44.41602" lon="1.15462">
        <ele>182</ele>
        <time>2021-02-08T13:36:34Z</time>
      </trkpt>
      <trkpt lat="44.41605" lon="1.15457">
        <ele>182</ele>
        <time>2021-02-08T13:36:42Z</time>
      </trkpt>
      <trkpt lat="44.41606" lon="1.15445">
        <ele>180</ele>
        <time>2021-02-08T13:36:51Z</time>
      </trkpt>
      <trkpt lat="44.41608" lon="1.15438">
        <ele>179</ele>
        <time>2021-02-08T13:36:54Z</time>
      </trkpt>
      <trkpt lat="44.41612" lon="1.15424">
        <ele>178</ele>
        <time>2021-02-08T13:37:00Z</time>
      </trkpt>
      <trkpt lat="44.41616" lon="1.15412">
        <ele>179</ele>
        <time>2021-02-08T13:37:06Z</time>
      </trkpt>
      <trkpt lat="44.41616" lon="1.15401">
        <ele>181</ele>
        <time>2021-02-08T13:37:11Z</time>
      </trkpt>
      <trkpt lat="44.41617" lon="1.15387">
        <ele>184</ele>
        <time>2021-02-08T13:37:19Z</time>
      </trkpt>
      <trkpt lat="44.41619" lon="1.15384">
        <ele>185</ele>
        <time>2021-02-08T13:37:22Z</time>
      </trkpt>
      <trkpt lat="44.4162" lon="1.1538">
        <ele>185</ele>
        <time>2021-02-08T13:37:24Z</time>
      </trkpt>
      <trkpt lat="44.41622" lon="1.15376">
        <ele>184</ele>
        <time>2021-02-08T13:37:27Z</time>
      </trkpt>
      <trkpt lat="44.41623" lon="1.15372">
        <ele>185</ele>
        <time>2021-02-08T13:37:30Z</time>
      </trkpt>
      <trkpt lat="44.41625" lon="1.15369">
        <ele>185</ele>
        <time>2021-02-08T13:37:33Z</time>
      </trkpt>
      <trkpt lat="44.4163" lon="1.15364">
        <ele>185</ele>
        <time>2021-02-08T13:37:37Z</time>
      </trkpt>
      <trkpt lat="44.41652" lon="1.15353">
        <ele>184</ele>
        <time>2021-02-08T13:37:56Z</time>
      </trkpt>
      <trkpt lat="44.41655" lon="1.1535">
        <ele>183</ele>
        <time>2021-02-08T13:37:59Z</time>
      </trkpt>
      <trkpt lat="44.41657" lon="1.15347">
        <ele>183</ele>
        <time>2021-02-08T13:38:01Z</time>
      </trkpt>
      <trkpt lat="44.41663" lon="1.15346">
        <ele>183</ele>
        <time>2021-02-08T13:38:07Z</time>
      </trkpt>
      <trkpt lat="44.41667" lon="1.15342">
        <ele>183</ele>
        <time>2021-02-08T13:38:10Z</time>
      </trkpt>
      <trkpt lat="44.4167" lon="1.1534">
        <ele>183</ele>
        <time>2021-02-08T13:38:12Z</time>
      </trkpt>
      <trkpt lat="44.41673" lon="1.15338">
        <ele>182</ele>
        <time>2021-02-08T13:38:14Z</time>
      </trkpt>
      <trkpt lat="44.41675" lon="1.15335">
        <ele>182</ele>
        <time>2021-02-08T13:38:17Z</time>
      </trkpt>
      <trkpt lat="44.41679" lon="1.15335">
        <ele>182</ele>
        <time>2021-02-08T13:38:20Z</time>
      </trkpt>
      <trkpt lat="44.41684" lon="1.15333">
        <ele>181</ele>
        <time>2021-02-08T13:38:24Z</time>
      </trkpt>
      <trkpt lat="44.41687" lon="1.15329">
        <ele>180</ele>
        <time>2021-02-08T13:38:27Z</time>
      </trkpt>
      <trkpt lat="44.41696" lon="1.15326">
        <ele>178</ele>
        <time>2021-02-08T13:38:33Z</time>
      </trkpt>
      <trkpt lat="44.41702" lon="1.15322">
        <ele>177</ele>
        <time>2021-02-08T13:38:37Z</time>
      </trkpt>
      <trkpt lat="44.41715" lon="1.15313">
        <ele>174</ele>
        <time>2021-02-08T13:38:45Z</time>
      </trkpt>
      <trkpt lat="44.41718" lon="1.15311">
        <ele>174</ele>
        <time>2021-02-08T13:38:47Z</time>
      </trkpt>
      <trkpt lat="44.41732" lon="1.15303">
        <ele>170</ele>
        <time>2021-02-08T13:38:56Z</time>
      </trkpt>
      <trkpt lat="44.41735" lon="1.15301">
        <ele>169</ele>
        <time>2021-02-08T13:38:58Z</time>
      </trkpt>
      <trkpt lat="44.41744" lon="1.15296">
        <ele>167</ele>
        <time>2021-02-08T13:39:04Z</time>
      </trkpt>
      <trkpt lat="44.41755" lon="1.15288">
        <ele>167</ele>
        <time>2021-02-08T13:39:12Z</time>
      </trkpt>
      <trkpt lat="44.41761" lon="1.15286">
        <ele>166</ele>
        <time>2021-02-08T13:39:16Z</time>
      </trkpt>
      <trkpt lat="44.41764" lon="1.15284">
        <ele>166</ele>
        <time>2021-02-08T13:39:18Z</time>
      </trkpt>
      <trkpt lat="44.41766" lon="1.15282">
        <ele>166</ele>
        <time>2021-02-08T13:39:20Z</time>
      </trkpt>
      <trkpt lat="44.41768" lon="1.15279">
        <ele>165</ele>
        <time>2021-02-08T13:39:22Z</time>
      </trkpt>
      <trkpt lat="44.4177" lon="1.15274">
        <ele>165</ele>
        <time>2021-02-08T13:39:25Z</time>
      </trkpt>
      <trkpt lat="44.41779" lon="1.15253">
        <ele>167</ele>
        <time>2021-02-08T13:39:38Z</time>
      </trkpt>
      <trkpt lat="44.41782" lon="1.15249">
        <ele>167</ele>
        <time>2021-02-08T13:39:41Z</time>
      </trkpt>
      <trkpt lat="44.41784" lon="1.15247">
        <ele>167</ele>
        <time>2021-02-08T13:39:43Z</time>
      </trkpt>
      <trkpt lat="44.41795" lon="1.15228">
        <ele>165</ele>
        <time>2021-02-08T13:39:56Z</time>
      </trkpt>
      <trkpt lat="44.418" lon="1.15219">
        <ele>163</ele>
        <time>2021-02-08T13:40:03Z</time>
      </trkpt>
      <trkpt lat="44.41802" lon="1.15214">
        <ele>164</ele>
        <time>2021-02-08T13:40:06Z</time>
      </trkpt>
      <trkpt lat="44.41819" lon="1.15179">
        <ele>164</ele>
        <time>2021-02-08T13:40:29Z</time>
      </trkpt>
      <trkpt lat="44.41821" lon="1.15176">
        <ele>164</ele>
        <time>2021-02-08T13:40:32Z</time>
      </trkpt>
      <trkpt lat="44.41823" lon="1.15173">
        <ele>164</ele>
        <time>2021-02-08T13:40:35Z</time>
      </trkpt>
      <trkpt lat="44.41824" lon="1.15169">
        <ele>164</ele>
        <time>2021-02-08T13:40:38Z</time>
      </trkpt>
      <trkpt lat="44.41826" lon="1.1516">
        <ele>165</ele>
        <time>2021-02-08T13:40:44Z</time>
      </trkpt>
      <trkpt lat="44.41856" lon="1.15109">
        <ele>157</ele>
        <time>2021-02-08T13:41:15Z</time>
      </trkpt>
      <trkpt lat="44.41869" lon="1.15086">
        <ele>158</ele>
        <time>2021-02-08T13:41:29Z</time>
      </trkpt>
      <trkpt lat="44.41884" lon="1.1507">
        <ele>157</ele>
        <time>2021-02-08T13:41:43Z</time>
      </trkpt>
      <trkpt lat="44.41896" lon="1.15049">
        <ele>156</ele>
        <time>2021-02-08T13:42:00Z</time>
      </trkpt>
      <trkpt lat="44.41931" lon="1.15013">
        <ele>154</ele>
        <time>2021-02-08T13:42:30Z</time>
      </trkpt>
      <trkpt lat="44.41937" lon="1.15007">
        <ele>154</ele>
        <time>2021-02-08T13:42:35Z</time>
      </trkpt>
      <trkpt lat="44.41941" lon="1.15004">
        <ele>155</ele>
        <time>2021-02-08T13:42:38Z</time>
      </trkpt>
      <trkpt lat="44.41944" lon="1.14951">
        <ele>156</ele>
        <time>2021-02-08T13:43:08Z</time>
      </trkpt>
      <trkpt lat="44.41948" lon="1.14921">
        <ele>154</ele>
        <time>2021-02-08T13:43:23Z</time>
      </trkpt>
      <trkpt lat="44.41949" lon="1.14915">
        <ele>154</ele>
        <time>2021-02-08T13:43:26Z</time>
      </trkpt>
      <trkpt lat="44.41949" lon="1.14909">
        <ele>154</ele>
        <time>2021-02-08T13:43:29Z</time>
      </trkpt>
      <trkpt lat="44.4195" lon="1.14904">
        <ele>154</ele>
        <time>2021-02-08T13:43:32Z</time>
      </trkpt>
      <trkpt lat="44.41951" lon="1.14881">
        <ele>155</ele>
        <time>2021-02-08T13:43:45Z</time>
      </trkpt>
      <trkpt lat="44.41952" lon="1.14876">
        <ele>155</ele>
        <time>2021-02-08T13:43:48Z</time>
      </trkpt>
      <trkpt lat="44.41953" lon="1.1487">
        <ele>155</ele>
        <time>2021-02-08T13:43:51Z</time>
      </trkpt>
      <trkpt lat="44.41952" lon="1.14865">
        <ele>155</ele>
        <time>2021-02-08T13:43:55Z</time>
      </trkpt>
      <trkpt lat="44.41962" lon="1.14814">
        <ele>151</ele>
        <time>2021-02-08T13:44:27Z</time>
      </trkpt>
      <trkpt lat="44.41964" lon="1.1481">
        <ele>151</ele>
        <time>2021-02-08T13:44:30Z</time>
      </trkpt>
      <trkpt lat="44.41965" lon="1.14807">
        <ele>151</ele>
        <time>2021-02-08T13:44:40Z</time>
      </trkpt>
      <trkpt lat="44.41966" lon="1.14796">
        <ele>153</ele>
        <time>2021-02-08T13:44:46Z</time>
      </trkpt>
      <trkpt lat="44.41969" lon="1.14776">
        <ele>152</ele>
        <time>2021-02-08T13:44:56Z</time>
      </trkpt>
      <trkpt lat="44.41969" lon="1.14763">
        <ele>152</ele>
        <time>2021-02-08T13:45:04Z</time>
      </trkpt>
      <trkpt lat="44.41968" lon="1.14759">
        <ele>152</ele>
        <time>2021-02-08T13:45:06Z</time>
      </trkpt>
      <trkpt lat="44.41967" lon="1.14755">
        <ele>152</ele>
        <time>2021-02-08T13:45:09Z</time>
      </trkpt>
      <trkpt lat="44.41963" lon="1.14729">
        <ele>151</ele>
        <time>2021-02-08T13:45:25Z</time>
      </trkpt>
      <trkpt lat="44.41963" lon="1.14724">
        <ele>151</ele>
        <time>2021-02-08T13:45:29Z</time>
      </trkpt>
      <trkpt lat="44.41961" lon="1.14719">
        <ele>151</ele>
        <time>2021-02-08T13:45:33Z</time>
      </trkpt>
      <trkpt lat="44.4194" lon="1.14705">
        <ele>154</ele>
        <time>2021-02-08T13:45:49Z</time>
      </trkpt>
      <trkpt lat="44.41938" lon="1.14703">
        <ele>153</ele>
        <time>2021-02-08T13:45:51Z</time>
      </trkpt>
      <trkpt lat="44.41937" lon="1.147">
        <ele>153</ele>
        <time>2021-02-08T13:45:53Z</time>
      </trkpt>
      <trkpt lat="44.41935" lon="1.14664">
        <ele>149</ele>
        <time>2021-02-08T13:46:11Z</time>
      </trkpt>
      <trkpt lat="44.41935" lon="1.1466">
        <ele>148</ele>
        <time>2021-02-08T13:46:13Z</time>
      </trkpt>
      <trkpt lat="44.41935" lon="1.1465">
        <ele>147</ele>
        <time>2021-02-08T13:46:18Z</time>
      </trkpt>
      <trkpt lat="44.41937" lon="1.14629">
        <ele>146</ele>
        <time>2021-02-08T13:46:28Z</time>
      </trkpt>
      <trkpt lat="44.41938" lon="1.14625">
        <ele>145</ele>
        <time>2021-02-08T13:46:31Z</time>
      </trkpt>
      <trkpt lat="44.41937" lon="1.14599">
        <ele>145</ele>
        <time>2021-02-08T13:46:50Z</time>
      </trkpt>
      <trkpt lat="44.41938" lon="1.14594">
        <ele>145</ele>
        <time>2021-02-08T13:46:52Z</time>
      </trkpt>
      <trkpt lat="44.41937" lon="1.14582">
        <ele>145</ele>
        <time>2021-02-08T13:46:58Z</time>
      </trkpt>
      <trkpt lat="44.41937" lon="1.14578">
        <ele>146</ele>
        <time>2021-02-08T13:47:00Z</time>
      </trkpt>
      <trkpt lat="44.41934" lon="1.14562">
        <ele>147</ele>
        <time>2021-02-08T13:47:08Z</time>
      </trkpt>
      <trkpt lat="44.41931" lon="1.14479">
        <ele>143</ele>
        <time>2021-02-08T13:47:36Z</time>
      </trkpt>
      <trkpt lat="44.4193" lon="1.14472">
        <ele>144</ele>
        <time>2021-02-08T13:47:39Z</time>
      </trkpt>
      <trkpt lat="44.41928" lon="1.14468">
        <ele>144</ele>
        <time>2021-02-08T13:47:42Z</time>
      </trkpt>
      <trkpt lat="44.41925" lon="1.14466">
        <ele>145</ele>
        <time>2021-02-08T13:47:44Z</time>
      </trkpt>
      <trkpt lat="44.41922" lon="1.14465">
        <ele>145</ele>
        <time>2021-02-08T13:47:46Z</time>
      </trkpt>
      <trkpt lat="44.41901" lon="1.14444">
        <ele>144</ele>
        <time>2021-02-08T13:48:05Z</time>
      </trkpt>
      <trkpt lat="44.41898" lon="1.14444">
        <ele>144</ele>
        <time>2021-02-08T13:48:07Z</time>
      </trkpt>
      <trkpt lat="44.41895" lon="1.14442">
        <ele>144</ele>
        <time>2021-02-08T13:48:09Z</time>
      </trkpt>
      <trkpt lat="44.41885" lon="1.14432">
        <ele>145</ele>
        <time>2021-02-08T13:48:18Z</time>
      </trkpt>
      <trkpt lat="44.41882" lon="1.1443">
        <ele>144</ele>
        <time>2021-02-08T13:48:20Z</time>
      </trkpt>
      <trkpt lat="44.4188" lon="1.14428">
        <ele>144</ele>
        <time>2021-02-08T13:48:22Z</time>
      </trkpt>
      <trkpt lat="44.41879" lon="1.14425">
        <ele>144</ele>
        <time>2021-02-08T13:48:24Z</time>
      </trkpt>
      <trkpt lat="44.4187" lon="1.14415">
        <ele>145</ele>
        <time>2021-02-08T13:48:33Z</time>
      </trkpt>
      <trkpt lat="44.41845" lon="1.14368">
        <ele>147</ele>
        <time>2021-02-08T13:49:02Z</time>
      </trkpt>
      <trkpt lat="44.41842" lon="1.14364">
        <ele>146</ele>
        <time>2021-02-08T13:49:05Z</time>
      </trkpt>
      <trkpt lat="44.41841" lon="1.14359">
        <ele>146</ele>
        <time>2021-02-08T13:49:08Z</time>
      </trkpt>
      <trkpt lat="44.41812" lon="1.14306">
        <ele>148</ele>
        <time>2021-02-08T13:49:39Z</time>
      </trkpt>
      <trkpt lat="44.41786" lon="1.14257">
        <ele>152</ele>
        <time>2021-02-08T13:50:09Z</time>
      </trkpt>
      <trkpt lat="44.41783" lon="1.14253">
        <ele>151</ele>
        <time>2021-02-08T13:50:12Z</time>
      </trkpt>
      <trkpt lat="44.41777" lon="1.1424">
        <ele>150</ele>
        <time>2021-02-08T13:50:22Z</time>
      </trkpt>
      <trkpt lat="44.41775" lon="1.14236">
        <ele>150</ele>
        <time>2021-02-08T13:50:25Z</time>
      </trkpt>
      <trkpt lat="44.41752" lon="1.14195">
        <ele>155</ele>
        <time>2021-02-08T13:50:52Z</time>
      </trkpt>
      <trkpt lat="44.4175" lon="1.14189">
        <ele>156</ele>
        <time>2021-02-08T13:50:56Z</time>
      </trkpt>
      <trkpt lat="44.41743" lon="1.14176">
        <ele>156</ele>
        <time>2021-02-08T13:51:05Z</time>
      </trkpt>
      <trkpt lat="44.4174" lon="1.14173">
        <ele>155</ele>
        <time>2021-02-08T13:51:08Z</time>
      </trkpt>
      <trkpt lat="44.41723" lon="1.14144">
        <ele>154</ele>
        <time>2021-02-08T13:51:38Z</time>
      </trkpt>
      <trkpt lat="44.4171" lon="1.14119">
        <ele>156</ele>
        <time>2021-02-08T13:51:53Z</time>
      </trkpt>
      <trkpt lat="44.41704" lon="1.14103">
        <ele>155</ele>
        <time>2021-02-08T13:52:04Z</time>
      </trkpt>
      <trkpt lat="44.41697" lon="1.14093">
        <ele>154</ele>
        <time>2021-02-08T13:52:10Z</time>
      </trkpt>
      <trkpt lat="44.41687" lon="1.1409">
        <ele>157</ele>
        <time>2021-02-08T13:52:19Z</time>
      </trkpt>
      <trkpt lat="44.4165" lon="1.14102">
        <ele>160</ele>
        <time>2021-02-08T13:52:58Z</time>
      </trkpt>
      <trkpt lat="44.41643" lon="1.14105">
        <ele>161</ele>
        <time>2021-02-08T13:53:05Z</time>
      </trkpt>
      <trkpt lat="44.41636" lon="1.1411">
        <ele>161</ele>
        <time>2021-02-08T13:53:11Z</time>
      </trkpt>
      <trkpt lat="44.41633" lon="1.14112">
        <ele>162</ele>
        <time>2021-02-08T13:53:14Z</time>
      </trkpt>
      <trkpt lat="44.41626" lon="1.14115">
        <ele>162</ele>
        <time>2021-02-08T13:53:20Z</time>
      </trkpt>
      <trkpt lat="44.4162" lon="1.14117">
        <ele>163</ele>
        <time>2021-02-08T13:53:26Z</time>
      </trkpt>
      <trkpt lat="44.41603" lon="1.14125">
        <ele>162</ele>
        <time>2021-02-08T13:53:39Z</time>
      </trkpt>
      <trkpt lat="44.41594" lon="1.14127">
        <ele>162</ele>
        <time>2021-02-08T13:53:45Z</time>
      </trkpt>
      <trkpt lat="44.41576" lon="1.14138">
        <ele>159</ele>
        <time>2021-02-08T13:53:59Z</time>
      </trkpt>
      <trkpt lat="44.41572" lon="1.1414">
        <ele>157</ele>
        <time>2021-02-08T13:54:02Z</time>
      </trkpt>
      <trkpt lat="44.41538" lon="1.14163">
        <ele>156</ele>
        <time>2021-02-08T13:54:28Z</time>
      </trkpt>
      <trkpt lat="44.41531" lon="1.14168">
        <ele>154</ele>
        <time>2021-02-08T13:54:35Z</time>
      </trkpt>
      <trkpt lat="44.41522" lon="1.14174">
        <ele>153</ele>
        <time>2021-02-08T13:54:43Z</time>
      </trkpt>
      <trkpt lat="44.41518" lon="1.14176">
        <ele>153</ele>
        <time>2021-02-08T13:54:46Z</time>
      </trkpt>
      <trkpt lat="44.41515" lon="1.14176">
        <ele>153</ele>
        <time>2021-02-08T13:54:49Z</time>
      </trkpt>
      <trkpt lat="44.41474" lon="1.14173">
        <ele>155</ele>
        <time>2021-02-08T13:55:20Z</time>
      </trkpt>
      <trkpt lat="44.4143" lon="1.14165">
        <ele>151</ele>
        <time>2021-02-08T13:55:51Z</time>
      </trkpt>
      <trkpt lat="44.41407" lon="1.14165">
        <ele>149</ele>
        <time>2021-02-08T13:56:08Z</time>
      </trkpt>
      <trkpt lat="44.41404" lon="1.14165">
        <ele>148</ele>
        <time>2021-02-08T13:56:10Z</time>
      </trkpt>
      <trkpt lat="44.4137" lon="1.14175">
        <ele>149</ele>
        <time>2021-02-08T13:56:35Z</time>
      </trkpt>
      <trkpt lat="44.41341" lon="1.14175">
        <ele>149</ele>
        <time>2021-02-08T13:56:55Z</time>
      </trkpt>
      <trkpt lat="44.41336" lon="1.14176">
        <ele>150</ele>
        <time>2021-02-08T13:56:57Z</time>
      </trkpt>
      <trkpt lat="44.41332" lon="1.14178">
        <ele>150</ele>
        <time>2021-02-08T13:57:00Z</time>
      </trkpt>
      <trkpt lat="44.41267" lon="1.14209">
        <ele>154</ele>
        <time>2021-02-08T13:57:25Z</time>
      </trkpt>
      <trkpt lat="44.41214" lon="1.14251">
        <ele>154</ele>
        <time>2021-02-08T13:57:45Z</time>
      </trkpt>
      <trkpt lat="44.41198" lon="1.14267">
        <ele>155</ele>
        <time>2021-02-08T13:57:55Z</time>
      </trkpt>
      <trkpt lat="44.41195" lon="1.14273">
        <ele>155</ele>
        <time>2021-02-08T13:58:00Z</time>
      </trkpt>
      <trkpt lat="44.41187" lon="1.14281">
        <ele>154</ele>
        <time>2021-02-08T13:58:06Z</time>
      </trkpt>
      <trkpt lat="44.41183" lon="1.14284">
        <ele>155</ele>
        <time>2021-02-08T13:58:10Z</time>
      </trkpt>
      <trkpt lat="44.4118" lon="1.1429">
        <ele>155</ele>
        <time>2021-02-08T13:58:15Z</time>
      </trkpt>
      <trkpt lat="44.41176" lon="1.14296">
        <ele>156</ele>
        <time>2021-02-08T13:58:19Z</time>
      </trkpt>
      <trkpt lat="44.41167" lon="1.14309">
        <ele>158</ele>
        <time>2021-02-08T13:58:26Z</time>
      </trkpt>
      <trkpt lat="44.41163" lon="1.14313">
        <ele>158</ele>
        <time>2021-02-08T13:58:28Z</time>
      </trkpt>
      <trkpt lat="44.41149" lon="1.14335">
        <ele>156</ele>
        <time>2021-02-08T13:58:43Z</time>
      </trkpt>
      <trkpt lat="44.41139" lon="1.1435">
        <ele>154</ele>
        <time>2021-02-08T13:58:55Z</time>
      </trkpt>
      <trkpt lat="44.41136" lon="1.14353">
        <ele>154</ele>
        <time>2021-02-08T13:58:58Z</time>
      </trkpt>
      <trkpt lat="44.41128" lon="1.14364">
        <ele>148</ele>
        <time>2021-02-08T13:59:06Z</time>
      </trkpt>
      <trkpt lat="44.41123" lon="1.14383">
        <ele>149</ele>
        <time>2021-02-08T13:59:14Z</time>
      </trkpt>
      <trkpt lat="44.41117" lon="1.14398">
        <ele>151</ele>
        <time>2021-02-08T13:59:21Z</time>
      </trkpt>
      <trkpt lat="44.41116" lon="1.14403">
        <ele>152</ele>
        <time>2021-02-08T13:59:24Z</time>
      </trkpt>
      <trkpt lat="44.41114" lon="1.14409">
        <ele>153</ele>
        <time>2021-02-08T13:59:29Z</time>
      </trkpt>
      <trkpt lat="44.41115" lon="1.14415">
        <ele>154</ele>
        <time>2021-02-08T13:59:32Z</time>
      </trkpt>
      <trkpt lat="44.41115" lon="1.14421">
        <ele>155</ele>
        <time>2021-02-08T13:59:35Z</time>
      </trkpt>
      <trkpt lat="44.41112" lon="1.14432">
        <ele>156</ele>
        <time>2021-02-08T13:59:41Z</time>
      </trkpt>
      <trkpt lat="44.41112" lon="1.14438">
        <ele>156</ele>
        <time>2021-02-08T13:59:44Z</time>
      </trkpt>
      <trkpt lat="44.41109" lon="1.14442">
        <ele>157</ele>
        <time>2021-02-08T13:59:47Z</time>
      </trkpt>
      <trkpt lat="44.41102" lon="1.14464">
        <ele>159</ele>
        <time>2021-02-08T14:00:00Z</time>
      </trkpt>
      <trkpt lat="44.41103" lon="1.14477">
        <ele>158</ele>
        <time>2021-02-08T14:00:07Z</time>
      </trkpt>
      <trkpt lat="44.41121" lon="1.14507">
        <ele>160</ele>
        <time>2021-02-08T14:00:31Z</time>
      </trkpt>
      <trkpt lat="44.41128" lon="1.14515">
        <ele>160</ele>
        <time>2021-02-08T14:00:38Z</time>
      </trkpt>
      <trkpt lat="44.41137" lon="1.14529">
        <ele>162</ele>
        <time>2021-02-08T14:00:46Z</time>
      </trkpt>
      <trkpt lat="44.41141" lon="1.14532">
        <ele>163</ele>
        <time>2021-02-08T14:00:49Z</time>
      </trkpt>
      <trkpt lat="44.41156" lon="1.1453">
        <ele>168</ele>
        <time>2021-02-08T14:00:58Z</time>
      </trkpt>
      <trkpt lat="44.41226" lon="1.14506">
        <ele>170</ele>
        <time>2021-02-08T14:01:28Z</time>
      </trkpt>
      <trkpt lat="44.41249" lon="1.14499">
        <ele>169</ele>
        <time>2021-02-08T14:01:35Z</time>
      </trkpt>
      <trkpt lat="44.41256" lon="1.145">
        <ele>170</ele>
        <time>2021-02-08T14:01:37Z</time>
      </trkpt>
      <trkpt lat="44.41268" lon="1.14507">
        <ele>171</ele>
        <time>2021-02-08T14:01:41Z</time>
      </trkpt>
      <trkpt lat="44.41273" lon="1.14514">
        <ele>171</ele>
        <time>2021-02-08T14:01:43Z</time>
      </trkpt>
      <trkpt lat="44.41278" lon="1.14521">
        <ele>171</ele>
        <time>2021-02-08T14:01:45Z</time>
      </trkpt>
      <trkpt lat="44.41313" lon="1.14557">
        <ele>171</ele>
        <time>2021-02-08T14:01:55Z</time>
      </trkpt>
      <trkpt lat="44.41325" lon="1.14563">
        <ele>171</ele>
        <time>2021-02-08T14:01:59Z</time>
      </trkpt>
      <trkpt lat="44.41354" lon="1.14569">
        <ele>173</ele>
        <time>2021-02-08T14:02:07Z</time>
      </trkpt>
      <trkpt lat="44.41365" lon="1.14568">
        <ele>174</ele>
        <time>2021-02-08T14:02:13Z</time>
      </trkpt>
      <trkpt lat="44.41369" lon="1.14568">
        <ele>174</ele>
        <time>2021-02-08T14:02:16Z</time>
      </trkpt>
      <trkpt lat="44.41382" lon="1.14576">
        <ele>177</ele>
        <time>2021-02-08T14:02:25Z</time>
      </trkpt>
      <trkpt lat="44.41389" lon="1.14584">
        <ele>176</ele>
        <time>2021-02-08T14:02:42Z</time>
      </trkpt>
      <trkpt lat="44.41392" lon="1.14588">
        <ele>176</ele>
        <time>2021-02-08T14:02:45Z</time>
      </trkpt>
      <trkpt lat="44.41398" lon="1.14603">
        <ele>176</ele>
        <time>2021-02-08T14:02:56Z</time>
      </trkpt>
      <trkpt lat="44.41399" lon="1.14609">
        <ele>176</ele>
        <time>2021-02-08T14:02:59Z</time>
      </trkpt>
      <trkpt lat="44.41408" lon="1.1462">
        <ele>174</ele>
        <time>2021-02-08T14:03:06Z</time>
      </trkpt>
      <trkpt lat="44.41409" lon="1.14624">
        <ele>174</ele>
        <time>2021-02-08T14:03:08Z</time>
      </trkpt>
      <trkpt lat="44.41411" lon="1.14627">
        <ele>174</ele>
        <time>2021-02-08T14:03:11Z</time>
      </trkpt>
      <trkpt lat="44.41412" lon="1.14631">
        <ele>174</ele>
        <time>2021-02-08T14:03:23Z</time>
      </trkpt>
      <trkpt lat="44.4142" lon="1.14649">
        <ele>173</ele>
        <time>2021-02-08T14:03:35Z</time>
      </trkpt>
      <trkpt lat="44.41427" lon="1.14665">
        <ele>173</ele>
        <time>2021-02-08T14:03:42Z</time>
      </trkpt>
      <trkpt lat="44.41431" lon="1.14673">
        <ele>172</ele>
        <time>2021-02-08T14:03:46Z</time>
      </trkpt>
      <trkpt lat="44.41436" lon="1.14691">
        <ele>171</ele>
        <time>2021-02-08T14:03:55Z</time>
      </trkpt>
      <trkpt lat="44.41442" lon="1.14712">
        <ele>172</ele>
        <time>2021-02-08T14:04:02Z</time>
      </trkpt>
      <trkpt lat="44.41467" lon="1.14808">
        <ele>170</ele>
        <time>2021-02-08T14:04:16Z</time>
      </trkpt>
      <trkpt lat="44.41481" lon="1.14884">
        <ele>169</ele>
        <time>2021-02-08T14:04:26Z</time>
      </trkpt>
      <trkpt lat="44.41487" lon="1.14904">
        <ele>170</ele>
        <time>2021-02-08T14:04:30Z</time>
      </trkpt>
      <trkpt lat="44.41489" lon="1.14912">
        <ele>171</ele>
        <time>2021-02-08T14:04:32Z</time>
      </trkpt>
      <trkpt lat="44.41492" lon="1.14921">
        <ele>172</ele>
        <time>2021-02-08T14:04:35Z</time>
      </trkpt>
      <trkpt lat="44.41503" lon="1.14959">
        <ele>176</ele>
        <time>2021-02-08T14:04:54Z</time>
      </trkpt>
      <trkpt lat="44.41503" lon="1.14964">
        <ele>176</ele>
        <time>2021-02-08T14:04:57Z</time>
      </trkpt>
      <trkpt lat="44.41502" lon="1.1497">
        <ele>176</ele>
        <time>2021-02-08T14:05:00Z</time>
      </trkpt>
      <trkpt lat="44.41499" lon="1.14975">
        <ele>176</ele>
        <time>2021-02-08T14:05:03Z</time>
      </trkpt>
      <trkpt lat="44.41495" lon="1.14977">
        <ele>177</ele>
        <time>2021-02-08T14:05:07Z</time>
      </trkpt>
      <trkpt lat="44.41485" lon="1.14985">
        <ele>179</ele>
        <time>2021-02-08T14:05:15Z</time>
      </trkpt>
      <trkpt lat="44.41478" lon="1.14991">
        <ele>180</ele>
        <time>2021-02-08T14:05:20Z</time>
      </trkpt>
      <trkpt lat="44.41472" lon="1.15001">
        <ele>181</ele>
        <time>2021-02-08T14:05:24Z</time>
      </trkpt>
      <trkpt lat="44.4147" lon="1.15006">
        <ele>181</ele>
        <time>2021-02-08T14:05:26Z</time>
      </trkpt>
      <trkpt lat="44.41458" lon="1.15026">
        <ele>179</ele>
        <time>2021-02-08T14:05:39Z</time>
      </trkpt>
      <trkpt lat="44.41442" lon="1.15041">
        <ele>178</ele>
        <time>2021-02-08T14:05:51Z</time>
      </trkpt>
      <trkpt lat="44.41437" lon="1.15051">
        <ele>176</ele>
        <time>2021-02-08T14:05:57Z</time>
      </trkpt>
      <trkpt lat="44.41438" lon="1.15063">
        <ele>174</ele>
        <time>2021-02-08T14:06:03Z</time>
      </trkpt>
      <trkpt lat="44.41439" lon="1.15069">
        <ele>173</ele>
        <time>2021-02-08T14:06:06Z</time>
      </trkpt>
      <trkpt lat="44.4144" lon="1.15075">
        <ele>172</ele>
        <time>2021-02-08T14:06:09Z</time>
      </trkpt>
      <trkpt lat="44.41441" lon="1.15081">
        <ele>171</ele>
        <time>2021-02-08T14:06:13Z</time>
      </trkpt>
      <trkpt lat="44.41442" lon="1.15086">
        <ele>170</ele>
        <time>2021-02-08T14:06:16Z</time>
      </trkpt>
      <trkpt lat="44.41438" lon="1.15095">
        <ele>171</ele>
        <time>2021-02-08T14:06:21Z</time>
      </trkpt>
      <trkpt lat="44.41435" lon="1.15106">
        <ele>171</ele>
        <time>2021-02-08T14:06:28Z</time>
      </trkpt>
      <trkpt lat="44.41433" lon="1.15114">
        <ele>171</ele>
        <time>2021-02-08T14:06:32Z</time>
      </trkpt>
      <trkpt lat="44.41428" lon="1.15127">
        <ele>172</ele>
        <time>2021-02-08T14:06:39Z</time>
      </trkpt>
      <trkpt lat="44.41427" lon="1.15131">
        <ele>173</ele>
        <time>2021-02-08T14:06:41Z</time>
      </trkpt>
      <trkpt lat="44.41421" lon="1.15136">
        <ele>173</ele>
        <time>2021-02-08T14:06:45Z</time>
      </trkpt>
      <trkpt lat="44.41402" lon="1.15175">
        <ele>175</ele>
        <time>2021-02-08T14:07:06Z</time>
      </trkpt>
      <trkpt lat="44.41391" lon="1.15201">
        <ele>175</ele>
        <time>2021-02-08T14:07:20Z</time>
      </trkpt>
      <trkpt lat="44.41352" lon="1.1526">
        <ele>175</ele>
        <time>2021-02-08T14:07:49Z</time>
      </trkpt>
      <trkpt lat="44.41349" lon="1.15266">
        <ele>175</ele>
        <time>2021-02-08T14:07:51Z</time>
      </trkpt>
      <trkpt lat="44.4134" lon="1.15276">
        <ele>175</ele>
        <time>2021-02-08T14:07:55Z</time>
      </trkpt>
      <trkpt lat="44.41324" lon="1.153">
        <ele>176</ele>
        <time>2021-02-08T14:08:03Z</time>
      </trkpt>
      <trkpt lat="44.41307" lon="1.15318">
        <ele>179</ele>
        <time>2021-02-08T14:08:09Z</time>
      </trkpt>
      <trkpt lat="44.41296" lon="1.15327">
        <ele>179</ele>
        <time>2021-02-08T14:08:13Z</time>
      </trkpt>
      <trkpt lat="44.41292" lon="1.15332">
        <ele>179</ele>
        <time>2021-02-08T14:08:15Z</time>
      </trkpt>
      <trkpt lat="44.41273" lon="1.15343">
        <ele>182</ele>
        <time>2021-02-08T14:08:27Z</time>
      </trkpt>
      <trkpt lat="44.41269" lon="1.15346">
        <ele>183</ele>
        <time>2021-02-08T14:08:31Z</time>
      </trkpt>
      <trkpt lat="44.41261" lon="1.15351">
        <ele>185</ele>
        <time>2021-02-08T14:08:37Z</time>
      </trkpt>
      <trkpt lat="44.41257" lon="1.15356">
        <ele>185</ele>
        <time>2021-02-08T14:08:40Z</time>
      </trkpt>
      <trkpt lat="44.41232" lon="1.15379">
        <ele>186</ele>
        <time>2021-02-08T14:08:52Z</time>
      </trkpt>
      <trkpt lat="44.41223" lon="1.15387">
        <ele>186</ele>
        <time>2021-02-08T14:08:55Z</time>
      </trkpt>
      <trkpt lat="44.4122" lon="1.1539">
        <ele>186</ele>
        <time>2021-02-08T14:08:56Z</time>
      </trkpt>
      <trkpt lat="44.41196" lon="1.1542">
        <ele>183</ele>
        <time>2021-02-08T14:09:06Z</time>
      </trkpt>
      <trkpt lat="44.41192" lon="1.15422">
        <ele>184</ele>
        <time>2021-02-08T14:09:08Z</time>
      </trkpt>
      <trkpt lat="44.41188" lon="1.15425">
        <ele>185</ele>
        <time>2021-02-08T14:09:10Z</time>
      </trkpt>
      <trkpt lat="44.41151" lon="1.15459">
        <ele>192</ele>
        <time>2021-02-08T14:09:40Z</time>
      </trkpt>
      <trkpt lat="44.41131" lon="1.1547">
        <ele>196</ele>
        <time>2021-02-08T14:09:57Z</time>
      </trkpt>
      <trkpt lat="44.41126" lon="1.15471">
        <ele>197</ele>
        <time>2021-02-08T14:10:01Z</time>
      </trkpt>
      <trkpt lat="44.41119" lon="1.15477">
        <ele>198</ele>
        <time>2021-02-08T14:10:08Z</time>
      </trkpt>
      <trkpt lat="44.41116" lon="1.15479">
        <ele>199</ele>
        <time>2021-02-08T14:10:12Z</time>
      </trkpt>
      <trkpt lat="44.41104" lon="1.15495">
        <ele>202</ele>
        <time>2021-02-08T14:10:27Z</time>
      </trkpt>
      <trkpt lat="44.41098" lon="1.15499">
        <ele>207</ele>
        <time>2021-02-08T14:10:32Z</time>
      </trkpt>
      <trkpt lat="44.41076" lon="1.15512">
        <ele>213</ele>
        <time>2021-02-08T14:10:50Z</time>
      </trkpt>
      <trkpt lat="44.41068" lon="1.15514">
        <ele>215</ele>
        <time>2021-02-08T14:10:56Z</time>
      </trkpt>
      <trkpt lat="44.41066" lon="1.15515">
        <ele>214</ele>
        <time>2021-02-08T14:10:58Z</time>
      </trkpt>
      <trkpt lat="44.41035" lon="1.15533">
        <ele>220</ele>
        <time>2021-02-08T14:11:30Z</time>
      </trkpt>
      <trkpt lat="44.41032" lon="1.15534">
        <ele>221</ele>
        <time>2021-02-08T14:11:35Z</time>
      </trkpt>
      <trkpt lat="44.41029" lon="1.15535">
        <ele>221</ele>
        <time>2021-02-08T14:11:37Z</time>
      </trkpt>
      <trkpt lat="44.41021" lon="1.15536">
        <ele>221</ele>
        <time>2021-02-08T14:11:45Z</time>
      </trkpt>
      <trkpt lat="44.41018" lon="1.15535">
        <ele>221</ele>
        <time>2021-02-08T14:11:51Z</time>
      </trkpt>
      <trkpt lat="44.41013" lon="1.1554">
        <ele>222</ele>
        <time>2021-02-08T14:11:57Z</time>
      </trkpt>
      <trkpt lat="44.4101" lon="1.1554">
        <ele>224</ele>
        <time>2021-02-08T14:11:59Z</time>
      </trkpt>
      <trkpt lat="44.41004" lon="1.15542">
        <ele>224</ele>
        <time>2021-02-08T14:12:06Z</time>
      </trkpt>
      <trkpt lat="44.40998" lon="1.15542">
        <ele>224</ele>
        <time>2021-02-08T14:12:11Z</time>
      </trkpt>
      <trkpt lat="44.40994" lon="1.15543">
        <ele>224</ele>
        <time>2021-02-08T14:12:15Z</time>
      </trkpt>
      <trkpt lat="44.40982" lon="1.15545">
        <ele>225</ele>
        <time>2021-02-08T14:12:26Z</time>
      </trkpt>
      <trkpt lat="44.40971" lon="1.15549">
        <ele>227</ele>
        <time>2021-02-08T14:12:37Z</time>
      </trkpt>
      <trkpt lat="44.40969" lon="1.1555">
        <ele>227</ele>
        <time>2021-02-08T14:12:40Z</time>
      </trkpt>
      <trkpt lat="44.40966" lon="1.15552">
        <ele>227</ele>
        <time>2021-02-08T14:12:43Z</time>
      </trkpt>
      <trkpt lat="44.40955" lon="1.15561">
        <ele>227</ele>
        <time>2021-02-08T14:12:56Z</time>
      </trkpt>
      <trkpt lat="44.40952" lon="1.15562">
        <ele>227</ele>
        <time>2021-02-08T14:12:59Z</time>
      </trkpt>
      <trkpt lat="44.40931" lon="1.15575">
        <ele>232</ele>
        <time>2021-02-08T14:13:22Z</time>
      </trkpt>
      <trkpt lat="44.40929" lon="1.15578">
        <ele>233</ele>
        <time>2021-02-08T14:13:25Z</time>
      </trkpt>
      <trkpt lat="44.40915" lon="1.1559">
        <ele>237</ele>
        <time>2021-02-08T14:13:53Z</time>
      </trkpt>
      <trkpt lat="44.40913" lon="1.15594">
        <ele>238</ele>
        <time>2021-02-08T14:13:56Z</time>
      </trkpt>
      <trkpt lat="44.40908" lon="1.15601">
        <ele>240</ele>
        <time>2021-02-08T14:14:01Z</time>
      </trkpt>
      <trkpt lat="44.40903" lon="1.15606">
        <ele>242</ele>
        <time>2021-02-08T14:14:06Z</time>
      </trkpt>
      <trkpt lat="44.40891" lon="1.15625">
        <ele>245</ele>
        <time>2021-02-08T14:14:21Z</time>
      </trkpt>
      <trkpt lat="44.40888" lon="1.15628">
        <ele>246</ele>
        <time>2021-02-08T14:14:24Z</time>
      </trkpt>
      <trkpt lat="44.40885" lon="1.15632">
        <ele>246</ele>
        <time>2021-02-08T14:14:27Z</time>
      </trkpt>
      <trkpt lat="44.40883" lon="1.15635">
        <ele>247</ele>
        <time>2021-02-08T14:14:30Z</time>
      </trkpt>
      <trkpt lat="44.40881" lon="1.15637">
        <ele>247</ele>
        <time>2021-02-08T14:14:32Z</time>
      </trkpt>
      <trkpt lat="44.40876" lon="1.15641">
        <ele>248</ele>
        <time>2021-02-08T14:14:37Z</time>
      </trkpt>
      <trkpt lat="44.40873" lon="1.15644">
        <ele>248</ele>
        <time>2021-02-08T14:14:40Z</time>
      </trkpt>
      <trkpt lat="44.40872" lon="1.15646">
        <ele>250</ele>
        <time>2021-02-08T14:14:44Z</time>
      </trkpt>
      <trkpt lat="44.40871" lon="1.15651">
        <ele>251</ele>
        <time>2021-02-08T14:14:47Z</time>
      </trkpt>
      <trkpt lat="44.40867" lon="1.15664">
        <ele>254</ele>
        <time>2021-02-08T14:14:59Z</time>
      </trkpt>
      <trkpt lat="44.40866" lon="1.1567">
        <ele>255</ele>
        <time>2021-02-08T14:15:04Z</time>
      </trkpt>
      <trkpt lat="44.40866" lon="1.15677">
        <ele>255</ele>
        <time>2021-02-08T14:15:12Z</time>
      </trkpt>
      <trkpt lat="44.40865" lon="1.15684">
        <ele>255</ele>
        <time>2021-02-08T14:15:17Z</time>
      </trkpt>
      <trkpt lat="44.40866" lon="1.15695">
        <ele>253</ele>
        <time>2021-02-08T14:15:24Z</time>
      </trkpt>
      <trkpt lat="44.40866" lon="1.15701">
        <ele>252</ele>
        <time>2021-02-08T14:15:28Z</time>
      </trkpt>
      <trkpt lat="44.40867" lon="1.15706">
        <ele>253</ele>
        <time>2021-02-08T14:15:31Z</time>
      </trkpt>
      <trkpt lat="44.40867" lon="1.1571">
        <ele>254</ele>
        <time>2021-02-08T14:15:33Z</time>
      </trkpt>
      <trkpt lat="44.40873" lon="1.15718">
        <ele>256</ele>
        <time>2021-02-08T14:15:39Z</time>
      </trkpt>
      <trkpt lat="44.40874" lon="1.15723">
        <ele>256</ele>
        <time>2021-02-08T14:15:42Z</time>
      </trkpt>
      <trkpt lat="44.40874" lon="1.15727">
        <ele>257</ele>
        <time>2021-02-08T14:15:45Z</time>
      </trkpt>
      <trkpt lat="44.40873" lon="1.15733">
        <ele>258</ele>
        <time>2021-02-08T14:15:48Z</time>
      </trkpt>
      <trkpt lat="44.40871" lon="1.15736">
        <ele>259</ele>
        <time>2021-02-08T14:15:51Z</time>
      </trkpt>
      <trkpt lat="44.40859" lon="1.15764">
        <ele>261</ele>
        <time>2021-02-08T14:16:12Z</time>
      </trkpt>
      <trkpt lat="44.40853" lon="1.15786">
        <ele>260</ele>
        <time>2021-02-08T14:16:26Z</time>
      </trkpt>
      <trkpt lat="44.4085" lon="1.15794">
        <ele>261</ele>
        <time>2021-02-08T14:16:33Z</time>
      </trkpt>
      <trkpt lat="44.40847" lon="1.15798">
        <ele>261</ele>
        <time>2021-02-08T14:16:37Z</time>
      </trkpt>
      <trkpt lat="44.40845" lon="1.15802">
        <ele>262</ele>
        <time>2021-02-08T14:16:40Z</time>
      </trkpt>
      <trkpt lat="44.40842" lon="1.15805">
        <ele>262</ele>
        <time>2021-02-08T14:16:42Z</time>
      </trkpt>
      <trkpt lat="44.40832" lon="1.15819">
        <ele>261</ele>
        <time>2021-02-08T14:16:55Z</time>
      </trkpt>
      <trkpt lat="44.4083" lon="1.15822">
        <ele>261</ele>
        <time>2021-02-08T14:16:57Z</time>
      </trkpt>
      <trkpt lat="44.40827" lon="1.15829">
        <ele>261</ele>
        <time>2021-02-08T14:17:01Z</time>
      </trkpt>
      <trkpt lat="44.40825" lon="1.15835">
        <ele>262</ele>
        <time>2021-02-08T14:17:04Z</time>
      </trkpt>
      <trkpt lat="44.40821" lon="1.15842">
        <ele>265</ele>
        <time>2021-02-08T14:17:08Z</time>
      </trkpt>
      <trkpt lat="44.40818" lon="1.15849">
        <ele>265</ele>
        <time>2021-02-08T14:17:12Z</time>
      </trkpt>
      <trkpt lat="44.40811" lon="1.15874">
        <ele>266</ele>
        <time>2021-02-08T14:17:29Z</time>
      </trkpt>
      <trkpt lat="44.40807" lon="1.1588">
        <ele>264</ele>
        <time>2021-02-08T14:17:33Z</time>
      </trkpt>
      <trkpt lat="44.40806" lon="1.15884">
        <ele>263</ele>
        <time>2021-02-08T14:17:36Z</time>
      </trkpt>
      <trkpt lat="44.40803" lon="1.1589">
        <ele>262</ele>
        <time>2021-02-08T14:17:49Z</time>
      </trkpt>
      <trkpt lat="44.408" lon="1.15899">
        <ele>262</ele>
        <time>2021-02-08T14:17:55Z</time>
      </trkpt>
      <trkpt lat="44.40796" lon="1.1591">
        <ele>260</ele>
        <time>2021-02-08T14:18:04Z</time>
      </trkpt>
      <trkpt lat="44.40791" lon="1.15922">
        <ele>258</ele>
        <time>2021-02-08T14:18:12Z</time>
      </trkpt>
      <trkpt lat="44.40789" lon="1.15925">
        <ele>258</ele>
        <time>2021-02-08T14:18:15Z</time>
      </trkpt>
      <trkpt lat="44.40784" lon="1.15935">
        <ele>256</ele>
        <time>2021-02-08T14:18:22Z</time>
      </trkpt>
      <trkpt lat="44.40783" lon="1.1594">
        <ele>256</ele>
        <time>2021-02-08T14:18:26Z</time>
      </trkpt>
      <trkpt lat="44.40764" lon="1.15969">
        <ele>256</ele>
        <time>2021-02-08T14:18:46Z</time>
      </trkpt>
      <trkpt lat="44.40755" lon="1.15979">
        <ele>256</ele>
        <time>2021-02-08T14:18:55Z</time>
      </trkpt>
      <trkpt lat="44.40747" lon="1.15984">
        <ele>256</ele>
        <time>2021-02-08T14:19:01Z</time>
      </trkpt>
      <trkpt lat="44.40733" lon="1.15988">
        <ele>257</ele>
        <time>2021-02-08T14:19:07Z</time>
      </trkpt>
      <trkpt lat="44.40724" lon="1.15995">
        <ele>258</ele>
        <time>2021-02-08T14:19:11Z</time>
      </trkpt>
      <trkpt lat="44.40604" lon="1.16042">
        <ele>263</ele>
        <time>2021-02-08T14:19:41Z</time>
      </trkpt>
      <trkpt lat="44.40579" lon="1.16045">
        <ele>263</ele>
        <time>2021-02-08T14:19:48Z</time>
      </trkpt>
      <trkpt lat="44.40576" lon="1.16046">
        <ele>263</ele>
        <time>2021-02-08T14:19:49Z</time>
      </trkpt>
      <trkpt lat="44.40572" lon="1.1605">
        <ele>263</ele>
        <time>2021-02-08T14:19:51Z</time>
      </trkpt>
      <trkpt lat="44.40541" lon="1.16094">
        <ele>261</ele>
        <time>2021-02-08T14:20:21Z</time>
      </trkpt>
      <trkpt lat="44.40535" lon="1.16111">
        <ele>260</ele>
        <time>2021-02-08T14:20:24Z</time>
      </trkpt>
      <trkpt lat="44.4053" lon="1.16129">
        <ele>260</ele>
        <time>2021-02-08T14:20:27Z</time>
      </trkpt>
      <trkpt lat="44.4051" lon="1.16181">
        <ele>260</ele>
        <time>2021-02-08T14:20:36Z</time>
      </trkpt>
      <trkpt lat="44.4049" lon="1.16265">
        <ele>259</ele>
        <time>2021-02-08T14:20:49Z</time>
      </trkpt>
      <trkpt lat="44.40447" lon="1.16327">
        <ele>261</ele>
        <time>2021-02-08T14:21:04Z</time>
      </trkpt>
      <trkpt lat="44.40369" lon="1.16494">
        <ele>264</ele>
        <time>2021-02-08T14:21:34Z</time>
      </trkpt>
      <trkpt lat="44.40313" lon="1.16605">
        <ele>265</ele>
        <time>2021-02-08T14:21:58Z</time>
      </trkpt>
      <trkpt lat="44.40307" lon="1.16627">
        <ele>265</ele>
        <time>2021-02-08T14:22:03Z</time>
      </trkpt>
      <trkpt lat="44.40304" lon="1.16633">
        <ele>265</ele>
        <time>2021-02-08T14:22:05Z</time>
      </trkpt>
      <trkpt lat="44.40288" lon="1.1666">
        <ele>265</ele>
        <time>2021-02-08T14:22:13Z</time>
      </trkpt>
      <trkpt lat="44.40286" lon="1.16664">
        <ele>265</ele>
        <time>2021-02-08T14:22:14Z</time>
      </trkpt>
      <trkpt lat="44.40283" lon="1.16674">
        <ele>265</ele>
        <time>2021-02-08T14:22:16Z</time>
      </trkpt>
      <trkpt lat="44.40283" lon="1.16678">
        <ele>265</ele>
        <time>2021-02-08T14:22:17Z</time>
      </trkpt>
      <trkpt lat="44.40284" lon="1.16682">
        <ele>265</ele>
        <time>2021-02-08T14:22:18Z</time>
      </trkpt>
      <trkpt lat="44.40291" lon="1.16713">
        <ele>266</ele>
        <time>2021-02-08T14:22:27Z</time>
      </trkpt>
      <trkpt lat="44.40299" lon="1.16726">
        <ele>266</ele>
        <time>2021-02-08T14:22:31Z</time>
      </trkpt>
      <trkpt lat="44.40305" lon="1.16735">
        <ele>267</ele>
        <time>2021-02-08T14:22:34Z</time>
      </trkpt>
      <trkpt lat="44.40332" lon="1.16752">
        <ele>268</ele>
        <time>2021-02-08T14:22:54Z</time>
      </trkpt>
      <trkpt lat="44.40334" lon="1.16753">
        <ele>268</ele>
        <time>2021-02-08T14:22:56Z</time>
      </trkpt>
      <trkpt lat="44.40337" lon="1.16755">
        <ele>268</ele>
        <time>2021-02-08T14:22:58Z</time>
      </trkpt>
      <trkpt lat="44.4036" lon="1.16768">
        <ele>265</ele>
        <time>2021-02-08T14:23:22Z</time>
      </trkpt>
      <trkpt lat="44.40364" lon="1.16767">
        <ele>265</ele>
        <time>2021-02-08T14:23:26Z</time>
      </trkpt>
      <trkpt lat="44.40367" lon="1.16765">
        <ele>263</ele>
        <time>2021-02-08T14:23:30Z</time>
      </trkpt>
      <trkpt lat="44.40373" lon="1.1676">
        <ele>259</ele>
        <time>2021-02-08T14:23:39Z</time>
      </trkpt>
      <trkpt lat="44.40375" lon="1.16759">
        <ele>259</ele>
        <time>2021-02-08T14:23:42Z</time>
      </trkpt>
      <trkpt lat="44.40379" lon="1.16757">
        <ele>259</ele>
        <time>2021-02-08T14:23:45Z</time>
      </trkpt>
      <trkpt lat="44.40382" lon="1.16755">
        <ele>258</ele>
        <time>2021-02-08T14:23:49Z</time>
      </trkpt>
      <trkpt lat="44.40385" lon="1.16752">
        <ele>257</ele>
        <time>2021-02-08T14:23:53Z</time>
      </trkpt>
      <trkpt lat="44.40389" lon="1.16751">
        <ele>256</ele>
        <time>2021-02-08T14:23:57Z</time>
      </trkpt>
      <trkpt lat="44.40392" lon="1.16748">
        <ele>257</ele>
        <time>2021-02-08T14:24:01Z</time>
      </trkpt>
      <trkpt lat="44.40399" lon="1.16743">
        <ele>257</ele>
        <time>2021-02-08T14:24:07Z</time>
      </trkpt>
      <trkpt lat="44.40402" lon="1.16742">
        <ele>258</ele>
        <time>2021-02-08T14:24:10Z</time>
      </trkpt>
      <trkpt lat="44.40411" lon="1.1674">
        <ele>256</ele>
        <time>2021-02-08T14:24:15Z</time>
      </trkpt>
      <trkpt lat="44.40417" lon="1.16737">
        <ele>254</ele>
        <time>2021-02-08T14:24:21Z</time>
      </trkpt>
      <trkpt lat="44.40419" lon="1.16734">
        <ele>254</ele>
        <time>2021-02-08T14:24:24Z</time>
      </trkpt>
      <trkpt lat="44.40422" lon="1.1673">
        <ele>253</ele>
        <time>2021-02-08T14:24:27Z</time>
      </trkpt>
      <trkpt lat="44.40425" lon="1.1672">
        <ele>251</ele>
        <time>2021-02-08T14:24:35Z</time>
      </trkpt>
      <trkpt lat="44.40436" lon="1.16702">
        <ele>247</ele>
        <time>2021-02-08T14:24:49Z</time>
      </trkpt>
      <trkpt lat="44.4046" lon="1.16681">
        <ele>248</ele>
        <time>2021-02-08T14:25:03Z</time>
      </trkpt>
      <trkpt lat="44.40467" lon="1.16677">
        <ele>250</ele>
        <time>2021-02-08T14:25:08Z</time>
      </trkpt>
      <trkpt lat="44.40497" lon="1.16665">
        <ele>248</ele>
        <time>2021-02-08T14:25:33Z</time>
      </trkpt>
      <trkpt lat="44.40516" lon="1.16654">
        <ele>245</ele>
        <time>2021-02-08T14:25:49Z</time>
      </trkpt>
      <trkpt lat="44.40523" lon="1.16649">
        <ele>241</ele>
        <time>2021-02-08T14:25:55Z</time>
      </trkpt>
      <trkpt lat="44.40563" lon="1.16634">
        <ele>227</ele>
        <time>2021-02-08T14:26:27Z</time>
      </trkpt>
      <trkpt lat="44.40572" lon="1.1663">
        <ele>226</ele>
        <time>2021-02-08T14:26:58Z</time>
      </trkpt>
      <trkpt lat="44.40616" lon="1.1662">
        <ele>227</ele>
        <time>2021-02-08T14:27:29Z</time>
      </trkpt>
      <trkpt lat="44.4063" lon="1.16618">
        <ele>226</ele>
        <time>2021-02-08T14:27:41Z</time>
      </trkpt>
      <trkpt lat="44.40633" lon="1.16615">
        <ele>226</ele>
        <time>2021-02-08T14:27:45Z</time>
      </trkpt>
      <trkpt lat="44.40637" lon="1.16614">
        <ele>226</ele>
        <time>2021-02-08T14:27:48Z</time>
      </trkpt>
      <trkpt lat="44.4064" lon="1.16611">
        <ele>226</ele>
        <time>2021-02-08T14:27:51Z</time>
      </trkpt>
      <trkpt lat="44.40683" lon="1.16597">
        <ele>221</ele>
        <time>2021-02-08T14:28:23Z</time>
      </trkpt>
      <trkpt lat="44.40687" lon="1.16596">
        <ele>220</ele>
        <time>2021-02-08T14:28:26Z</time>
      </trkpt>
      <trkpt lat="44.40701" lon="1.16588">
        <ele>217</ele>
        <time>2021-02-08T14:28:37Z</time>
      </trkpt>
      <trkpt lat="44.40717" lon="1.16585">
        <ele>214</ele>
        <time>2021-02-08T14:28:49Z</time>
      </trkpt>
      <trkpt lat="44.40727" lon="1.16585">
        <ele>212</ele>
        <time>2021-02-08T14:29:10Z</time>
      </trkpt>
      <trkpt lat="44.40741" lon="1.16581">
        <ele>212</ele>
        <time>2021-02-08T14:29:21Z</time>
      </trkpt>
      <trkpt lat="44.40754" lon="1.16577">
        <ele>212</ele>
        <time>2021-02-08T14:29:32Z</time>
      </trkpt>
      <trkpt lat="44.40777" lon="1.16559">
        <ele>211</ele>
        <time>2021-02-08T14:29:52Z</time>
      </trkpt>
      <trkpt lat="44.40786" lon="1.16548">
        <ele>211</ele>
        <time>2021-02-08T14:30:01Z</time>
      </trkpt>
      <trkpt lat="44.40789" lon="1.16545">
        <ele>211</ele>
        <time>2021-02-08T14:30:04Z</time>
      </trkpt>
      <trkpt lat="44.40802" lon="1.16525">
        <ele>209</ele>
        <time>2021-02-08T14:30:16Z</time>
      </trkpt>
      <trkpt lat="44.40805" lon="1.16517">
        <ele>209</ele>
        <time>2021-02-08T14:30:20Z</time>
      </trkpt>
      <trkpt lat="44.40808" lon="1.16512">
        <ele>209</ele>
        <time>2021-02-08T14:30:23Z</time>
      </trkpt>
      <trkpt lat="44.40814" lon="1.1651">
        <ele>208</ele>
        <time>2021-02-08T14:30:29Z</time>
      </trkpt>
      <trkpt lat="44.40818" lon="1.16509">
        <ele>208</ele>
        <time>2021-02-08T14:31:35Z</time>
      </trkpt>
      <trkpt lat="44.4082" lon="1.16506">
        <ele>207</ele>
        <time>2021-02-08T14:31:41Z</time>
      </trkpt>
      <trkpt lat="44.40821" lon="1.16501">
        <ele>205</ele>
        <time>2021-02-08T14:31:44Z</time>
      </trkpt>
      <trkpt lat="44.40826" lon="1.16491">
        <ele>202</ele>
        <time>2021-02-08T14:31:50Z</time>
      </trkpt>
      <trkpt lat="44.40827" lon="1.16485">
        <ele>202</ele>
        <time>2021-02-08T14:31:54Z</time>
      </trkpt>
      <trkpt lat="44.40829" lon="1.16481">
        <ele>203</ele>
        <time>2021-02-08T14:31:58Z</time>
      </trkpt>
      <trkpt lat="44.40835" lon="1.16472">
        <ele>204</ele>
        <time>2021-02-08T14:32:05Z</time>
      </trkpt>
      <trkpt lat="44.40839" lon="1.16463">
        <ele>203</ele>
        <time>2021-02-08T14:32:12Z</time>
      </trkpt>
      <trkpt lat="44.40842" lon="1.16459">
        <ele>203</ele>
        <time>2021-02-08T14:32:15Z</time>
      </trkpt>
      <trkpt lat="44.40846" lon="1.16451">
        <ele>203</ele>
        <time>2021-02-08T14:32:21Z</time>
      </trkpt>
      <trkpt lat="44.40849" lon="1.16441">
        <ele>204</ele>
        <time>2021-02-08T14:32:29Z</time>
      </trkpt>
      <trkpt lat="44.40851" lon="1.16436">
        <ele>204</ele>
        <time>2021-02-08T14:32:32Z</time>
      </trkpt>
      <trkpt lat="44.40854" lon="1.16433">
        <ele>203</ele>
        <time>2021-02-08T14:32:38Z</time>
      </trkpt>
      <trkpt lat="44.4087" lon="1.16395">
        <ele>203</ele>
        <time>2021-02-08T14:33:04Z</time>
      </trkpt>
      <trkpt lat="44.40871" lon="1.1639">
        <ele>203</ele>
        <time>2021-02-08T14:33:08Z</time>
      </trkpt>
      <trkpt lat="44.40882" lon="1.16363">
        <ele>203</ele>
        <time>2021-02-08T14:33:26Z</time>
      </trkpt>
      <trkpt lat="44.40887" lon="1.16349">
        <ele>203</ele>
        <time>2021-02-08T14:33:35Z</time>
      </trkpt>
      <trkpt lat="44.4089" lon="1.16345">
        <ele>203</ele>
        <time>2021-02-08T14:33:37Z</time>
      </trkpt>
      <trkpt lat="44.40896" lon="1.16336">
        <ele>201</ele>
        <time>2021-02-08T14:33:44Z</time>
      </trkpt>
      <trkpt lat="44.40899" lon="1.16336">
        <ele>201</ele>
        <time>2021-02-08T14:34:00Z</time>
      </trkpt>
      <trkpt lat="44.40911" lon="1.16331">
        <ele>202</ele>
        <time>2021-02-08T14:34:17Z</time>
      </trkpt>
      <trkpt lat="44.40915" lon="1.16326">
        <ele>201</ele>
        <time>2021-02-08T14:34:25Z</time>
      </trkpt>
      <trkpt lat="44.40917" lon="1.16324">
        <ele>200</ele>
        <time>2021-02-08T14:34:34Z</time>
      </trkpt>
      <trkpt lat="44.40925" lon="1.16316">
        <ele>199</ele>
        <time>2021-02-08T14:34:46Z</time>
      </trkpt>
      <trkpt lat="44.40928" lon="1.16308">
        <ele>199</ele>
        <time>2021-02-08T14:34:52Z</time>
      </trkpt>
      <trkpt lat="44.40933" lon="1.16302">
        <ele>199</ele>
        <time>2021-02-08T14:34:58Z</time>
      </trkpt>
      <trkpt lat="44.40936" lon="1.16298">
        <ele>199</ele>
        <time>2021-02-08T14:35:02Z</time>
      </trkpt>
      <trkpt lat="44.40939" lon="1.1629">
        <ele>199</ele>
        <time>2021-02-08T14:35:08Z</time>
      </trkpt>
      <trkpt lat="44.40942" lon="1.16286">
        <ele>199</ele>
        <time>2021-02-08T14:35:12Z</time>
      </trkpt>
      <trkpt lat="44.40945" lon="1.16278">
        <ele>199</ele>
        <time>2021-02-08T14:35:19Z</time>
      </trkpt>
      <trkpt lat="44.40948" lon="1.16263">
        <ele>200</ele>
        <time>2021-02-08T14:35:33Z</time>
      </trkpt>
      <trkpt lat="44.40953" lon="1.16254">
        <ele>202</ele>
        <time>2021-02-08T14:35:41Z</time>
      </trkpt>
      <trkpt lat="44.40963" lon="1.16241">
        <ele>197</ele>
        <time>2021-02-08T14:35:50Z</time>
      </trkpt>
      <trkpt lat="44.40968" lon="1.1624">
        <ele>195</ele>
        <time>2021-02-08T14:35:55Z</time>
      </trkpt>
      <trkpt lat="44.40973" lon="1.1624">
        <ele>194</ele>
        <time>2021-02-08T14:36:20Z</time>
      </trkpt>
      <trkpt lat="44.40983" lon="1.16237">
        <ele>191</ele>
        <time>2021-02-08T14:36:56Z</time>
      </trkpt>
      <trkpt lat="44.40991" lon="1.16234">
        <ele>190</ele>
        <time>2021-02-08T14:37:21Z</time>
      </trkpt>
      <trkpt lat="44.40995" lon="1.16235">
        <ele>190</ele>
        <time>2021-02-08T14:37:27Z</time>
      </trkpt>
      <trkpt lat="44.40996" lon="1.16231">
        <ele>189</ele>
        <time>2021-02-08T14:37:32Z</time>
      </trkpt>
      <trkpt lat="44.40999" lon="1.1623">
        <ele>189</ele>
        <time>2021-02-08T14:37:53Z</time>
      </trkpt>
      <trkpt lat="44.4101" lon="1.16229">
        <ele>189</ele>
        <time>2021-02-08T14:38:05Z</time>
      </trkpt>
      <trkpt lat="44.41013" lon="1.16227">
        <ele>190</ele>
        <time>2021-02-08T14:38:09Z</time>
      </trkpt>
      <trkpt lat="44.41033" lon="1.16219">
        <ele>190</ele>
        <time>2021-02-08T14:38:31Z</time>
      </trkpt>
      <trkpt lat="44.41037" lon="1.16217">
        <ele>190</ele>
        <time>2021-02-08T14:38:36Z</time>
      </trkpt>
      <trkpt lat="44.4104" lon="1.16214">
        <ele>191</ele>
        <time>2021-02-08T14:38:41Z</time>
      </trkpt>
      <trkpt lat="44.41082" lon="1.16205">
        <ele>186</ele>
        <time>2021-02-08T14:39:12Z</time>
      </trkpt>
      <trkpt lat="44.41124" lon="1.16194">
        <ele>182</ele>
        <time>2021-02-08T14:39:36Z</time>
      </trkpt>
      <trkpt lat="44.41134" lon="1.16194">
        <ele>181</ele>
        <time>2021-02-08T14:39:42Z</time>
      </trkpt>
      <trkpt lat="44.41141" lon="1.16191">
        <ele>180</ele>
        <time>2021-02-08T14:39:47Z</time>
      </trkpt>
      <trkpt lat="44.41144" lon="1.16188">
        <ele>179</ele>
        <time>2021-02-08T14:39:52Z</time>
      </trkpt>
      <trkpt lat="44.41148" lon="1.16189">
        <ele>180</ele>
        <time>2021-02-08T14:39:56Z</time>
      </trkpt>
      <trkpt lat="44.41151" lon="1.16186">
        <ele>179</ele>
        <time>2021-02-08T14:40:02Z</time>
      </trkpt>
      <trkpt lat="44.41154" lon="1.16183">
        <ele>179</ele>
        <time>2021-02-08T14:40:04Z</time>
      </trkpt>
      <trkpt lat="44.41158" lon="1.16183">
        <ele>179</ele>
        <time>2021-02-08T14:40:07Z</time>
      </trkpt>
      <trkpt lat="44.41162" lon="1.16181">
        <ele>179</ele>
        <time>2021-02-08T14:40:12Z</time>
      </trkpt>
      <trkpt lat="44.41164" lon="1.16176">
        <ele>178</ele>
        <time>2021-02-08T14:40:17Z</time>
      </trkpt>
      <trkpt lat="44.4117" lon="1.16169">
        <ele>177</ele>
        <time>2021-02-08T14:40:29Z</time>
      </trkpt>
      <trkpt lat="44.41173" lon="1.16167">
        <ele>177</ele>
        <time>2021-02-08T14:40:32Z</time>
      </trkpt>
      <trkpt lat="44.41182" lon="1.16163">
        <ele>176</ele>
        <time>2021-02-08T14:40:39Z</time>
      </trkpt>
      <trkpt lat="44.41192" lon="1.1616">
        <ele>176</ele>
        <time>2021-02-08T14:40:46Z</time>
      </trkpt>
      <trkpt lat="44.41219" lon="1.16164">
        <ele>176</ele>
        <time>2021-02-08T14:41:13Z</time>
      </trkpt>
      <trkpt lat="44.41223" lon="1.16165">
        <ele>175</ele>
        <time>2021-02-08T14:41:15Z</time>
      </trkpt>
      <trkpt lat="44.41267" lon="1.16179">
        <ele>175</ele>
        <time>2021-02-08T14:41:46Z</time>
      </trkpt>
      <trkpt lat="44.4129" lon="1.16193">
        <ele>173</ele>
        <time>2021-02-08T14:42:04Z</time>
      </trkpt>
      <trkpt lat="44.41302" lon="1.16197">
        <ele>172</ele>
        <time>2021-02-08T14:42:14Z</time>
      </trkpt>
      <trkpt lat="44.41306" lon="1.16198">
        <ele>172</ele>
        <time>2021-02-08T14:42:17Z</time>
      </trkpt>
      <trkpt lat="44.4131" lon="1.16198">
        <ele>173</ele>
        <time>2021-02-08T14:42:20Z</time>
      </trkpt>
      <trkpt lat="44.41341" lon="1.16205">
        <ele>170</ele>
        <time>2021-02-08T14:42:51Z</time>
      </trkpt>
      <trkpt lat="44.41363" lon="1.16206">
        <ele>169</ele>
        <time>2021-02-08T14:43:21Z</time>
      </trkpt>
      <trkpt lat="44.41375" lon="1.16207">
        <ele>170</ele>
        <time>2021-02-08T14:43:30Z</time>
      </trkpt>
      <trkpt lat="44.41379" lon="1.16207">
        <ele>170</ele>
        <time>2021-02-08T14:43:34Z</time>
      </trkpt>
      <trkpt lat="44.41394" lon="1.16208">
        <ele>171</ele>
        <time>2021-02-08T14:43:48Z</time>
      </trkpt>
      <trkpt lat="44.41401" lon="1.1621">
        <ele>170</ele>
        <time>2021-02-08T14:43:52Z</time>
      </trkpt>
      <trkpt lat="44.41404" lon="1.16208">
        <ele>169</ele>
        <time>2021-02-08T14:43:55Z</time>
      </trkpt>
      <trkpt lat="44.41407" lon="1.16207">
        <ele>168</ele>
        <time>2021-02-08T14:43:58Z</time>
      </trkpt>
      <trkpt lat="44.41429" lon="1.16211">
        <ele>170</ele>
        <time>2021-02-08T14:44:15Z</time>
      </trkpt>
      <trkpt lat="44.41437" lon="1.1621">
        <ele>173</ele>
        <time>2021-02-08T14:44:21Z</time>
      </trkpt>
      <trkpt lat="44.41443" lon="1.16207">
        <ele>175</ele>
        <time>2021-02-08T14:44:27Z</time>
      </trkpt>
      <trkpt lat="44.41445" lon="1.16203">
        <ele>176</ele>
        <time>2021-02-08T14:44:30Z</time>
      </trkpt>
      <trkpt lat="44.41449" lon="1.16196">
        <ele>177</ele>
        <time>2021-02-08T14:44:35Z</time>
      </trkpt>
      <trkpt lat="44.41452" lon="1.16194">
        <ele>177</ele>
        <time>2021-02-08T14:44:37Z</time>
      </trkpt>
      <trkpt lat="44.41466" lon="1.16179">
        <ele>179</ele>
        <time>2021-02-08T14:44:50Z</time>
      </trkpt>
      <trkpt lat="44.41469" lon="1.16175">
        <ele>180</ele>
        <time>2021-02-08T14:45:07Z</time>
      </trkpt>
      <trkpt lat="44.41472" lon="1.16171">
        <ele>179</ele>
        <time>2021-02-08T14:45:12Z</time>
      </trkpt>
      <trkpt lat="44.41492" lon="1.16135">
        <ele>179</ele>
        <time>2021-02-08T14:45:40Z</time>
      </trkpt>
      <trkpt lat="44.41493" lon="1.1613">
        <ele>179</ele>
        <time>2021-02-08T14:45:44Z</time>
      </trkpt>
      <trkpt lat="44.41495" lon="1.16125">
        <ele>178</ele>
        <time>2021-02-08T14:45:48Z</time>
      </trkpt>
      <trkpt lat="44.41501" lon="1.16117">
        <ele>178</ele>
        <time>2021-02-08T14:45:54Z</time>
      </trkpt>
      <trkpt lat="44.41519" lon="1.16097">
        <ele>181</ele>
        <time>2021-02-08T14:46:09Z</time>
      </trkpt>
      <trkpt lat="44.41522" lon="1.16094">
        <ele>180</ele>
        <time>2021-02-08T14:46:13Z</time>
      </trkpt>
      <trkpt lat="44.41524" lon="1.1609">
        <ele>181</ele>
        <time>2021-02-08T14:46:23Z</time>
      </trkpt>
      <trkpt lat="44.41496" lon="1.16057">
        <ele>184</ele>
        <time>2021-02-08T14:46:54Z</time>
      </trkpt>
      <trkpt lat="44.41493" lon="1.16057">
        <ele>184</ele>
        <time>2021-02-08T14:46:56Z</time>
      </trkpt>
      <trkpt lat="44.41489" lon="1.16055">
        <ele>183</ele>
        <time>2021-02-08T14:47:00Z</time>
      </trkpt>
      <trkpt lat="44.41481" lon="1.16047">
        <ele>182</ele>
        <time>2021-02-08T14:47:07Z</time>
      </trkpt>
      <trkpt lat="44.41478" lon="1.16043">
        <ele>181</ele>
        <time>2021-02-08T14:47:11Z</time>
      </trkpt>
      <trkpt lat="44.41475" lon="1.16043">
        <ele>181</ele>
        <time>2021-02-08T14:47:13Z</time>
      </trkpt>
      <trkpt lat="44.41458" lon="1.16013">
        <ele>181</ele>
        <time>2021-02-08T14:47:35Z</time>
      </trkpt>
      <trkpt lat="44.41456" lon="1.1601">
        <ele>185</ele>
        <time>2021-02-08T14:48:09Z</time>
      </trkpt>
      <trkpt lat="44.41453" lon="1.16002">
        <ele>187</ele>
        <time>2021-02-08T14:48:14Z</time>
      </trkpt>
      <trkpt lat="44.41446" lon="1.15982">
        <ele>188</ele>
        <time>2021-02-08T14:48:27Z</time>
      </trkpt>
      <trkpt lat="44.41444" lon="1.15976">
        <ele>188</ele>
        <time>2021-02-08T14:48:33Z</time>
      </trkpt>
      <trkpt lat="44.41421" lon="1.1594">
        <ele>188</ele>
        <time>2021-02-08T14:49:03Z</time>
      </trkpt>
      <trkpt lat="44.41414" lon="1.15932">
        <ele>188</ele>
        <time>2021-02-08T14:49:10Z</time>
      </trkpt>
      <trkpt lat="44.41411" lon="1.15929">
        <ele>188</ele>
        <time>2021-02-08T14:49:13Z</time>
      </trkpt>
      <trkpt lat="44.41409" lon="1.15925">
        <ele>187</ele>
        <time>2021-02-08T14:49:16Z</time>
      </trkpt>
      <trkpt lat="44.41397" lon="1.15911">
        <ele>189</ele>
        <time>2021-02-08T14:49:28Z</time>
      </trkpt>
      <trkpt lat="44.41393" lon="1.15902">
        <ele>189</ele>
        <time>2021-02-08T14:49:34Z</time>
      </trkpt>
      <trkpt lat="44.41392" lon="1.15896">
        <ele>190</ele>
        <time>2021-02-08T14:49:37Z</time>
      </trkpt>
      <trkpt lat="44.41403" lon="1.1588">
        <ele>192</ele>
        <time>2021-02-08T14:49:48Z</time>
      </trkpt>
      <trkpt lat="44.41416" lon="1.15867">
        <ele>193</ele>
        <time>2021-02-08T14:50:01Z</time>
      </trkpt>
      <trkpt lat="44.41419" lon="1.15863">
        <ele>192</ele>
        <time>2021-02-08T14:50:05Z</time>
      </trkpt>
      <trkpt lat="44.41421" lon="1.15861">
        <ele>192</ele>
        <time>2021-02-08T14:50:08Z</time>
      </trkpt>
      <trkpt lat="44.41424" lon="1.15859">
        <ele>191</ele>
        <time>2021-02-08T14:50:11Z</time>
      </trkpt>
      <trkpt lat="44.41427" lon="1.15859">
        <ele>190</ele>
        <time>2021-02-08T14:50:14Z</time>
      </trkpt>
      <trkpt lat="44.41431" lon="1.15864">
        <ele>191</ele>
        <time>2021-02-08T14:50:18Z</time>
      </trkpt>
      <trkpt lat="44.41433" lon="1.15866">
        <ele>190</ele>
        <time>2021-02-08T14:50:27Z</time>
      </trkpt>
      <trkpt lat="44.41463" lon="1.1588">
        <ele>187</ele>
        <time>2021-02-08T14:50:56Z</time>
      </trkpt>
      <trkpt lat="44.41465" lon="1.1588">
        <ele>186</ele>
        <time>2021-02-08T14:50:59Z</time>
      </trkpt>
      <trkpt lat="44.41467" lon="1.1588">
        <ele>187</ele>
        <time>2021-02-08T14:51:16Z</time>
      </trkpt>
      <trkpt lat="44.41471" lon="1.15877">
        <ele>187</ele>
        <time>2021-02-08T14:51:23Z</time>
      </trkpt>
      <trkpt lat="44.41483" lon="1.15865">
        <ele>183</ele>
        <time>2021-02-08T14:51:36Z</time>
      </trkpt>
      <trkpt lat="44.41493" lon="1.15857">
        <ele>182</ele>
        <time>2021-02-08T14:51:44Z</time>
      </trkpt>
      <trkpt lat="44.41504" lon="1.15846">
        <ele>181</ele>
        <time>2021-02-08T14:51:56Z</time>
      </trkpt>
      <trkpt lat="44.41522" lon="1.1583">
        <ele>177</ele>
        <time>2021-02-08T14:52:13Z</time>
      </trkpt>
      <trkpt lat="44.41529" lon="1.15824">
        <ele>177</ele>
        <time>2021-02-08T14:52:20Z</time>
      </trkpt>
      <trkpt lat="44.41532" lon="1.15822">
        <ele>177</ele>
        <time>2021-02-08T14:52:23Z</time>
      </trkpt>
      <trkpt lat="44.41538" lon="1.15818">
        <ele>175</ele>
        <time>2021-02-08T14:52:30Z</time>
      </trkpt>
      <trkpt lat="44.41553" lon="1.15809">
        <ele>175</ele>
        <time>2021-02-08T14:52:44Z</time>
      </trkpt>
      <trkpt lat="44.41562" lon="1.15802">
        <ele>175</ele>
        <time>2021-02-08T14:52:52Z</time>
      </trkpt>
      <trkpt lat="44.41567" lon="1.15797">
        <ele>174</ele>
        <time>2021-02-08T14:53:00Z</time>
      </trkpt>
      <trkpt lat="44.41568" lon="1.15794">
        <ele>174</ele>
        <time>2021-02-08T14:53:03Z</time>
      </trkpt>
      <trkpt lat="44.41585" lon="1.15771">
        <ele>172</ele>
        <time>2021-02-08T14:53:24Z</time>
      </trkpt>
      <trkpt lat="44.41587" lon="1.15767">
        <ele>172</ele>
        <time>2021-02-08T14:53:27Z</time>
      </trkpt>
      <trkpt lat="44.4159" lon="1.15757">
        <ele>171</ele>
        <time>2021-02-08T14:53:33Z</time>
      </trkpt>
      <trkpt lat="44.41594" lon="1.15749">
        <ele>171</ele>
        <time>2021-02-08T14:53:38Z</time>
      </trkpt>
      <trkpt lat="44.41598" lon="1.1574">
        <ele>171</ele>
        <time>2021-02-08T14:53:44Z</time>
      </trkpt>
      <trkpt lat="44.4161" lon="1.15724">
        <ele>172</ele>
        <time>2021-02-08T14:53:56Z</time>
      </trkpt>
      <trkpt lat="44.4161" lon="1.15719">
        <ele>174</ele>
        <time>2021-02-08T14:54:01Z</time>
      </trkpt>
      <trkpt lat="44.41613" lon="1.15713">
        <ele>174</ele>
        <time>2021-02-08T14:54:05Z</time>
      </trkpt>
      <trkpt lat="44.41629" lon="1.15684">
        <ele>173</ele>
        <time>2021-02-08T14:54:24Z</time>
      </trkpt>
      <trkpt lat="44.4163" lon="1.1568">
        <ele>174</ele>
        <time>2021-02-08T14:54:27Z</time>
      </trkpt>
      <trkpt lat="44.41632" lon="1.15675">
        <ele>174</ele>
        <time>2021-02-08T14:54:30Z</time>
      </trkpt>
      <trkpt lat="44.41635" lon="1.15673">
        <ele>174</ele>
        <time>2021-02-08T14:54:32Z</time>
      </trkpt>
      <trkpt lat="44.41643" lon="1.15662">
        <ele>174</ele>
        <time>2021-02-08T14:54:41Z</time>
      </trkpt>
      <trkpt lat="44.41646" lon="1.15661">
        <ele>174</ele>
        <time>2021-02-08T14:54:44Z</time>
      </trkpt>
      <trkpt lat="44.41649" lon="1.15664">
        <ele>174</ele>
        <time>2021-02-08T14:54:47Z</time>
      </trkpt>
      <trkpt lat="44.41651" lon="1.15669">
        <ele>173</ele>
        <time>2021-02-08T14:54:50Z</time>
      </trkpt>
      <trkpt lat="44.4165" lon="1.15674">
        <ele>172</ele>
        <time>2021-02-08T14:55:01Z</time>
      </trkpt>
      <trkpt lat="44.41655" lon="1.157">
        <ele>166</ele>
        <time>2021-02-08T14:55:15Z</time>
      </trkpt>
      <trkpt lat="44.4166" lon="1.1572">
        <ele>163</ele>
        <time>2021-02-08T14:55:24Z</time>
      </trkpt>
      <trkpt lat="44.41661" lon="1.15729">
        <ele>161</ele>
        <time>2021-02-08T14:55:28Z</time>
      </trkpt>
      <trkpt lat="44.41661" lon="1.15733">
        <ele>161</ele>
        <time>2021-02-08T14:55:30Z</time>
      </trkpt>
      <trkpt lat="44.41661" lon="1.15741">
        <ele>160</ele>
        <time>2021-02-08T14:55:35Z</time>
      </trkpt>
      <trkpt lat="44.4166" lon="1.15745">
        <ele>160</ele>
        <time>2021-02-08T14:55:38Z</time>
      </trkpt>
      <trkpt lat="44.41659" lon="1.15748">
        <ele>160</ele>
        <time>2021-02-08T14:55:40Z</time>
      </trkpt>
      <trkpt lat="44.41659" lon="1.15752">
        <ele>161</ele>
        <time>2021-02-08T14:55:42Z</time>
      </trkpt>
      <trkpt lat="44.41658" lon="1.15755">
        <ele>161</ele>
        <time>2021-02-08T14:55:44Z</time>
      </trkpt>
      <trkpt lat="44.41655" lon="1.15762">
        <ele>161</ele>
        <time>2021-02-08T14:55:48Z</time>
      </trkpt>
      <trkpt lat="44.41655" lon="1.15766">
        <ele>162</ele>
        <time>2021-02-08T14:55:51Z</time>
      </trkpt>
      <trkpt lat="44.41645" lon="1.15783">
        <ele>167</ele>
        <time>2021-02-08T14:56:05Z</time>
      </trkpt>
      <trkpt lat="44.41643" lon="1.15782">
        <ele>168</ele>
        <time>2021-02-08T14:56:13Z</time>
      </trkpt>
      <trkpt lat="44.4164" lon="1.15782">
        <ele>169</ele>
        <time>2021-02-08T14:56:25Z</time>
      </trkpt>
    </trkseg>
  </trk>
  <trk>
    <name><![CDATA[46 - Porte-du-Quercy : Les Terres Blanches - boucle sud  25 km]]></name>
    <trkseg>
      <trkpt lat="44.41668" lon="1.1585">
        <ele>171</ele>
        <time>2021-02-09T08:26:07Z</time>
      </trkpt>
      <trkpt lat="44.41676" lon="1.15851">
        <ele>171</ele>
        <time>2021-02-09T08:26:13Z</time>
      </trkpt>
      <trkpt lat="44.41686" lon="1.15861">
        <ele>172</ele>
        <time>2021-02-09T08:26:27Z</time>
      </trkpt>
      <trkpt lat="44.4169" lon="1.15864">
        <ele>173</ele>
        <time>2021-02-09T08:26:31Z</time>
      </trkpt>
      <trkpt lat="44.41694" lon="1.15866">
        <ele>174</ele>
        <time>2021-02-09T08:26:35Z</time>
      </trkpt>
      <trkpt lat="44.41717" lon="1.15887">
        <ele>175</ele>
        <time>2021-02-09T08:26:55Z</time>
      </trkpt>
      <trkpt lat="44.41718" lon="1.1589">
        <ele>175</ele>
        <time>2021-02-09T08:26:57Z</time>
      </trkpt>
      <trkpt lat="44.41719" lon="1.15894">
        <ele>175</ele>
        <time>2021-02-09T08:27:00Z</time>
      </trkpt>
      <trkpt lat="44.41714" lon="1.15901">
        <ele>174</ele>
        <time>2021-02-09T08:27:07Z</time>
      </trkpt>
      <trkpt lat="44.41683" lon="1.15926">
        <ele>175</ele>
        <time>2021-02-09T08:27:34Z</time>
      </trkpt>
      <trkpt lat="44.41677" lon="1.15929">
        <ele>176</ele>
        <time>2021-02-09T08:27:39Z</time>
      </trkpt>
      <trkpt lat="44.41674" lon="1.15931">
        <ele>176</ele>
        <time>2021-02-09T08:27:41Z</time>
      </trkpt>
      <trkpt lat="44.41671" lon="1.15934">
        <ele>177</ele>
        <time>2021-02-09T08:27:44Z</time>
      </trkpt>
      <trkpt lat="44.41661" lon="1.15948">
        <ele>177</ele>
        <time>2021-02-09T08:27:54Z</time>
      </trkpt>
      <trkpt lat="44.41646" lon="1.15963">
        <ele>179</ele>
        <time>2021-02-09T08:28:07Z</time>
      </trkpt>
      <trkpt lat="44.41638" lon="1.15975">
        <ele>180</ele>
        <time>2021-02-09T08:28:17Z</time>
      </trkpt>
      <trkpt lat="44.41636" lon="1.15977">
        <ele>180</ele>
        <time>2021-02-09T08:28:19Z</time>
      </trkpt>
      <trkpt lat="44.41631" lon="1.15981">
        <ele>181</ele>
        <time>2021-02-09T08:28:23Z</time>
      </trkpt>
      <trkpt lat="44.41602" lon="1.16021">
        <ele>184</ele>
        <time>2021-02-09T08:28:55Z</time>
      </trkpt>
      <trkpt lat="44.41598" lon="1.16024">
        <ele>184</ele>
        <time>2021-02-09T08:28:58Z</time>
      </trkpt>
      <trkpt lat="44.4159" lon="1.16035">
        <ele>185</ele>
        <time>2021-02-09T08:29:07Z</time>
      </trkpt>
      <trkpt lat="44.41577" lon="1.16045">
        <ele>184</ele>
        <time>2021-02-09T08:29:18Z</time>
      </trkpt>
      <trkpt lat="44.41574" lon="1.16049">
        <ele>184</ele>
        <time>2021-02-09T08:29:22Z</time>
      </trkpt>
      <trkpt lat="44.41571" lon="1.16051">
        <ele>183</ele>
        <time>2021-02-09T08:29:25Z</time>
      </trkpt>
      <trkpt lat="44.41566" lon="1.16055">
        <ele>183</ele>
        <time>2021-02-09T08:29:29Z</time>
      </trkpt>
      <trkpt lat="44.41532" lon="1.16094">
        <ele>183</ele>
        <time>2021-02-09T08:30:00Z</time>
      </trkpt>
      <trkpt lat="44.4153" lon="1.16097">
        <ele>182</ele>
        <time>2021-02-09T08:30:03Z</time>
      </trkpt>
      <trkpt lat="44.41527" lon="1.16098">
        <ele>182</ele>
        <time>2021-02-09T08:30:05Z</time>
      </trkpt>
      <trkpt lat="44.41491" lon="1.16149">
        <ele>180</ele>
        <time>2021-02-09T08:30:35Z</time>
      </trkpt>
      <trkpt lat="44.41459" lon="1.16194">
        <ele>179</ele>
        <time>2021-02-09T08:30:49Z</time>
      </trkpt>
      <trkpt lat="44.41449" lon="1.16205">
        <ele>179</ele>
        <time>2021-02-09T08:30:55Z</time>
      </trkpt>
      <trkpt lat="44.41448" lon="1.16208">
        <ele>178</ele>
        <time>2021-02-09T08:30:58Z</time>
      </trkpt>
      <trkpt lat="44.41444" lon="1.16211">
        <ele>178</ele>
        <time>2021-02-09T08:31:18Z</time>
      </trkpt>
      <trkpt lat="44.41417" lon="1.16216">
        <ele>174</ele>
        <time>2021-02-09T08:31:31Z</time>
      </trkpt>
      <trkpt lat="44.41354" lon="1.16211">
        <ele>167</ele>
        <time>2021-02-09T08:31:49Z</time>
      </trkpt>
      <trkpt lat="44.41347" lon="1.16213">
        <ele>167</ele>
        <time>2021-02-09T08:31:51Z</time>
      </trkpt>
      <trkpt lat="44.41248" lon="1.16187">
        <ele>163</ele>
        <time>2021-02-09T08:32:21Z</time>
      </trkpt>
      <trkpt lat="44.41223" lon="1.16178">
        <ele>163</ele>
        <time>2021-02-09T08:32:27Z</time>
      </trkpt>
      <trkpt lat="44.41219" lon="1.16178">
        <ele>162</ele>
        <time>2021-02-09T08:32:28Z</time>
      </trkpt>
      <trkpt lat="44.41215" lon="1.16179">
        <ele>162</ele>
        <time>2021-02-09T08:32:29Z</time>
      </trkpt>
      <trkpt lat="44.41204" lon="1.16182">
        <ele>161</ele>
        <time>2021-02-09T08:32:33Z</time>
      </trkpt>
      <trkpt lat="44.412" lon="1.16181">
        <ele>161</ele>
        <time>2021-02-09T08:32:35Z</time>
      </trkpt>
      <trkpt lat="44.41193" lon="1.16181">
        <ele>161</ele>
        <time>2021-02-09T08:32:39Z</time>
      </trkpt>
      <trkpt lat="44.41189" lon="1.16183">
        <ele>161</ele>
        <time>2021-02-09T08:32:43Z</time>
      </trkpt>
      <trkpt lat="44.41184" lon="1.16186">
        <ele>162</ele>
        <time>2021-02-09T08:32:46Z</time>
      </trkpt>
      <trkpt lat="44.4118" lon="1.16186">
        <ele>162</ele>
        <time>2021-02-09T08:32:49Z</time>
      </trkpt>
      <trkpt lat="44.41174" lon="1.16187">
        <ele>162</ele>
        <time>2021-02-09T08:32:52Z</time>
      </trkpt>
      <trkpt lat="44.41099" lon="1.16213">
        <ele>164</ele>
        <time>2021-02-09T08:33:14Z</time>
      </trkpt>
      <trkpt lat="44.41093" lon="1.16217">
        <ele>164</ele>
        <time>2021-02-09T08:33:16Z</time>
      </trkpt>
      <trkpt lat="44.41028" lon="1.16236">
        <ele>161</ele>
        <time>2021-02-09T08:33:36Z</time>
      </trkpt>
      <trkpt lat="44.40956" lon="1.16303">
        <ele>163</ele>
        <time>2021-02-09T08:33:59Z</time>
      </trkpt>
      <trkpt lat="44.40933" lon="1.16335">
        <ele>165</ele>
        <time>2021-02-09T08:34:06Z</time>
      </trkpt>
      <trkpt lat="44.40866" lon="1.16443">
        <ele>180</ele>
        <time>2021-02-09T08:34:31Z</time>
      </trkpt>
      <trkpt lat="44.40864" lon="1.16451">
        <ele>180</ele>
        <time>2021-02-09T08:34:33Z</time>
      </trkpt>
      <trkpt lat="44.40841" lon="1.16487">
        <ele>182</ele>
        <time>2021-02-09T08:34:43Z</time>
      </trkpt>
      <trkpt lat="44.4083" lon="1.16499">
        <ele>185</ele>
        <time>2021-02-09T08:34:51Z</time>
      </trkpt>
      <trkpt lat="44.40827" lon="1.16502">
        <ele>186</ele>
        <time>2021-02-09T08:34:54Z</time>
      </trkpt>
      <trkpt lat="44.40818" lon="1.16513">
        <ele>189</ele>
        <time>2021-02-09T08:35:01Z</time>
      </trkpt>
      <trkpt lat="44.40812" lon="1.16522">
        <ele>189</ele>
        <time>2021-02-09T08:35:05Z</time>
      </trkpt>
      <trkpt lat="44.40804" lon="1.16532">
        <ele>195</ele>
        <time>2021-02-09T08:35:11Z</time>
      </trkpt>
      <trkpt lat="44.40797" lon="1.16543">
        <ele>198</ele>
        <time>2021-02-09T08:35:17Z</time>
      </trkpt>
      <trkpt lat="44.40796" lon="1.16547">
        <ele>199</ele>
        <time>2021-02-09T08:35:19Z</time>
      </trkpt>
      <trkpt lat="44.4079" lon="1.16557">
        <ele>203</ele>
        <time>2021-02-09T08:35:26Z</time>
      </trkpt>
      <trkpt lat="44.40785" lon="1.16564">
        <ele>203</ele>
        <time>2021-02-09T08:35:32Z</time>
      </trkpt>
      <trkpt lat="44.40724" lon="1.16595">
        <ele>198</ele>
        <time>2021-02-09T08:35:54Z</time>
      </trkpt>
      <trkpt lat="44.40721" lon="1.16597">
        <ele>198</ele>
        <time>2021-02-09T08:35:55Z</time>
      </trkpt>
      <trkpt lat="44.40693" lon="1.16611">
        <ele>201</ele>
        <time>2021-02-09T08:36:03Z</time>
      </trkpt>
      <trkpt lat="44.40607" lon="1.16632">
        <ele>212</ele>
        <time>2021-02-09T08:36:34Z</time>
      </trkpt>
      <trkpt lat="44.40586" lon="1.16637">
        <ele>218</ele>
        <time>2021-02-09T08:36:48Z</time>
      </trkpt>
      <trkpt lat="44.4058" lon="1.16639">
        <ele>220</ele>
        <time>2021-02-09T08:36:53Z</time>
      </trkpt>
      <trkpt lat="44.40574" lon="1.16641">
        <ele>221</ele>
        <time>2021-02-09T08:36:58Z</time>
      </trkpt>
      <trkpt lat="44.40567" lon="1.16643">
        <ele>221</ele>
        <time>2021-02-09T08:37:03Z</time>
      </trkpt>
      <trkpt lat="44.40565" lon="1.16643">
        <ele>221</ele>
        <time>2021-02-09T08:37:05Z</time>
      </trkpt>
      <trkpt lat="44.40533" lon="1.16657">
        <ele>224</ele>
        <time>2021-02-09T08:37:31Z</time>
      </trkpt>
      <trkpt lat="44.40528" lon="1.1666">
        <ele>225</ele>
        <time>2021-02-09T08:37:36Z</time>
      </trkpt>
      <trkpt lat="44.40526" lon="1.1666">
        <ele>225</ele>
        <time>2021-02-09T08:37:38Z</time>
      </trkpt>
      <trkpt lat="44.40521" lon="1.16661">
        <ele>226</ele>
        <time>2021-02-09T08:37:41Z</time>
      </trkpt>
      <trkpt lat="44.40513" lon="1.16664">
        <ele>227</ele>
        <time>2021-02-09T08:37:48Z</time>
      </trkpt>
      <trkpt lat="44.40509" lon="1.16667">
        <ele>227</ele>
        <time>2021-02-09T08:37:51Z</time>
      </trkpt>
      <trkpt lat="44.40499" lon="1.16671">
        <ele>229</ele>
        <time>2021-02-09T08:38:00Z</time>
      </trkpt>
      <trkpt lat="44.40491" lon="1.16677">
        <ele>229</ele>
        <time>2021-02-09T08:38:08Z</time>
      </trkpt>
      <trkpt lat="44.40476" lon="1.16685">
        <ele>230</ele>
        <time>2021-02-09T08:38:19Z</time>
      </trkpt>
      <trkpt lat="44.40472" lon="1.16689">
        <ele>231</ele>
        <time>2021-02-09T08:38:23Z</time>
      </trkpt>
      <trkpt lat="44.4047" lon="1.16693">
        <ele>232</ele>
        <time>2021-02-09T08:38:27Z</time>
      </trkpt>
      <trkpt lat="44.40463" lon="1.16699">
        <ele>234</ele>
        <time>2021-02-09T08:38:32Z</time>
      </trkpt>
      <trkpt lat="44.4046" lon="1.167">
        <ele>236</ele>
        <time>2021-02-09T08:38:34Z</time>
      </trkpt>
      <trkpt lat="44.40444" lon="1.16721">
        <ele>243</ele>
        <time>2021-02-09T08:38:53Z</time>
      </trkpt>
      <trkpt lat="44.40441" lon="1.16725">
        <ele>245</ele>
        <time>2021-02-09T08:38:57Z</time>
      </trkpt>
      <trkpt lat="44.40431" lon="1.16736">
        <ele>247</ele>
        <time>2021-02-09T08:39:06Z</time>
      </trkpt>
      <trkpt lat="44.40426" lon="1.16739">
        <ele>247</ele>
        <time>2021-02-09T08:39:09Z</time>
      </trkpt>
      <trkpt lat="44.40419" lon="1.16742">
        <ele>246</ele>
        <time>2021-02-09T08:39:14Z</time>
      </trkpt>
      <trkpt lat="44.40416" lon="1.16744">
        <ele>246</ele>
        <time>2021-02-09T08:39:17Z</time>
      </trkpt>
      <trkpt lat="44.40409" lon="1.16752">
        <ele>247</ele>
        <time>2021-02-09T08:39:23Z</time>
      </trkpt>
      <trkpt lat="44.40401" lon="1.16754">
        <ele>248</ele>
        <time>2021-02-09T08:39:29Z</time>
      </trkpt>
      <trkpt lat="44.40396" lon="1.16757">
        <ele>249</ele>
        <time>2021-02-09T08:39:34Z</time>
      </trkpt>
      <trkpt lat="44.40391" lon="1.16759">
        <ele>250</ele>
        <time>2021-02-09T08:39:37Z</time>
      </trkpt>
      <trkpt lat="44.40381" lon="1.16765">
        <ele>252</ele>
        <time>2021-02-09T08:39:47Z</time>
      </trkpt>
      <trkpt lat="44.40365" lon="1.16771">
        <ele>256</ele>
        <time>2021-02-09T08:39:59Z</time>
      </trkpt>
      <trkpt lat="44.40362" lon="1.16774">
        <ele>260</ele>
        <time>2021-02-09T08:40:03Z</time>
      </trkpt>
      <trkpt lat="44.40359" lon="1.16779">
        <ele>262</ele>
        <time>2021-02-09T08:40:07Z</time>
      </trkpt>
      <trkpt lat="44.40355" lon="1.1679">
        <ele>262</ele>
        <time>2021-02-09T08:40:13Z</time>
      </trkpt>
      <trkpt lat="44.4034" lon="1.16808">
        <ele>266</ele>
        <time>2021-02-09T08:40:27Z</time>
      </trkpt>
      <trkpt lat="44.40322" lon="1.16828">
        <ele>269</ele>
        <time>2021-02-09T08:40:47Z</time>
      </trkpt>
      <trkpt lat="44.40295" lon="1.16838">
        <ele>272</ele>
        <time>2021-02-09T08:41:17Z</time>
      </trkpt>
      <trkpt lat="44.40292" lon="1.16839">
        <ele>272</ele>
        <time>2021-02-09T08:41:19Z</time>
      </trkpt>
      <trkpt lat="44.40268" lon="1.16853">
        <ele>270</ele>
        <time>2021-02-09T08:41:39Z</time>
      </trkpt>
      <trkpt lat="44.40233" lon="1.16868">
        <ele>272</ele>
        <time>2021-02-09T08:41:56Z</time>
      </trkpt>
      <trkpt lat="44.40202" lon="1.16885">
        <ele>273</ele>
        <time>2021-02-09T08:42:05Z</time>
      </trkpt>
      <trkpt lat="44.40151" lon="1.16908">
        <ele>272</ele>
        <time>2021-02-09T08:42:17Z</time>
      </trkpt>
      <trkpt lat="44.40132" lon="1.16917">
        <ele>271</ele>
        <time>2021-02-09T08:42:22Z</time>
      </trkpt>
      <trkpt lat="44.40124" lon="1.16917">
        <ele>271</ele>
        <time>2021-02-09T08:42:24Z</time>
      </trkpt>
      <trkpt lat="44.40121" lon="1.16916">
        <ele>271</ele>
        <time>2021-02-09T08:42:25Z</time>
      </trkpt>
      <trkpt lat="44.40116" lon="1.16911">
        <ele>271</ele>
        <time>2021-02-09T08:42:27Z</time>
      </trkpt>
      <trkpt lat="44.40114" lon="1.16908">
        <ele>271</ele>
        <time>2021-02-09T08:42:28Z</time>
      </trkpt>
      <trkpt lat="44.40113" lon="1.16905">
        <ele>271</ele>
        <time>2021-02-09T08:42:31Z</time>
      </trkpt>
      <trkpt lat="44.40116" lon="1.16894">
        <ele>271</ele>
        <time>2021-02-09T08:42:41Z</time>
      </trkpt>
      <trkpt lat="44.40115" lon="1.16862">
        <ele>269</ele>
        <time>2021-02-09T08:42:47Z</time>
      </trkpt>
      <trkpt lat="44.4011" lon="1.16829">
        <ele>268</ele>
        <time>2021-02-09T08:42:53Z</time>
      </trkpt>
      <trkpt lat="44.40108" lon="1.16821">
        <ele>268</ele>
        <time>2021-02-09T08:42:55Z</time>
      </trkpt>
      <trkpt lat="44.40099" lon="1.1676">
        <ele>267</ele>
        <time>2021-02-09T08:43:06Z</time>
      </trkpt>
      <trkpt lat="44.40092" lon="1.16743">
        <ele>267</ele>
        <time>2021-02-09T08:43:11Z</time>
      </trkpt>
      <trkpt lat="44.40087" lon="1.16733">
        <ele>266</ele>
        <time>2021-02-09T08:43:15Z</time>
      </trkpt>
      <trkpt lat="44.40072" lon="1.16686">
        <ele>261</ele>
        <time>2021-02-09T08:43:40Z</time>
      </trkpt>
      <trkpt lat="44.4007" lon="1.16678">
        <ele>261</ele>
        <time>2021-02-09T08:43:44Z</time>
      </trkpt>
      <trkpt lat="44.40069" lon="1.16675">
        <ele>262</ele>
        <time>2021-02-09T08:43:59Z</time>
      </trkpt>
      <trkpt lat="44.40069" lon="1.16671">
        <ele>261</ele>
        <time>2021-02-09T08:44:07Z</time>
      </trkpt>
      <trkpt lat="44.40068" lon="1.16656">
        <ele>259</ele>
        <time>2021-02-09T08:44:13Z</time>
      </trkpt>
      <trkpt lat="44.40068" lon="1.16646">
        <ele>258</ele>
        <time>2021-02-09T08:44:17Z</time>
      </trkpt>
      <trkpt lat="44.40067" lon="1.16605">
        <ele>257</ele>
        <time>2021-02-09T08:44:49Z</time>
      </trkpt>
      <trkpt lat="44.40064" lon="1.16592">
        <ele>255</ele>
        <time>2021-02-09T08:45:10Z</time>
      </trkpt>
      <trkpt lat="44.40064" lon="1.16584">
        <ele>253</ele>
        <time>2021-02-09T08:45:19Z</time>
      </trkpt>
      <trkpt lat="44.40061" lon="1.16569">
        <ele>250</ele>
        <time>2021-02-09T08:45:29Z</time>
      </trkpt>
      <trkpt lat="44.40052" lon="1.16551">
        <ele>249</ele>
        <time>2021-02-09T08:45:43Z</time>
      </trkpt>
      <trkpt lat="44.40049" lon="1.16548">
        <ele>249</ele>
        <time>2021-02-09T08:45:47Z</time>
      </trkpt>
      <trkpt lat="44.40046" lon="1.16537">
        <ele>247</ele>
        <time>2021-02-09T08:45:54Z</time>
      </trkpt>
      <trkpt lat="44.40046" lon="1.16533">
        <ele>246</ele>
        <time>2021-02-09T08:46:00Z</time>
      </trkpt>
      <trkpt lat="44.40046" lon="1.16529">
        <ele>247</ele>
        <time>2021-02-09T08:46:04Z</time>
      </trkpt>
      <trkpt lat="44.40045" lon="1.16524">
        <ele>247</ele>
        <time>2021-02-09T08:46:07Z</time>
      </trkpt>
      <trkpt lat="44.40043" lon="1.16507">
        <ele>244</ele>
        <time>2021-02-09T08:46:16Z</time>
      </trkpt>
      <trkpt lat="44.40042" lon="1.16502">
        <ele>243</ele>
        <time>2021-02-09T08:46:18Z</time>
      </trkpt>
      <trkpt lat="44.40041" lon="1.16497">
        <ele>242</ele>
        <time>2021-02-09T08:46:21Z</time>
      </trkpt>
      <trkpt lat="44.40042" lon="1.16487">
        <ele>239</ele>
        <time>2021-02-09T08:46:27Z</time>
      </trkpt>
      <trkpt lat="44.4004" lon="1.16467">
        <ele>237</ele>
        <time>2021-02-09T08:46:37Z</time>
      </trkpt>
      <trkpt lat="44.40042" lon="1.16445">
        <ele>235</ele>
        <time>2021-02-09T08:46:45Z</time>
      </trkpt>
      <trkpt lat="44.40043" lon="1.1644">
        <ele>235</ele>
        <time>2021-02-09T08:46:47Z</time>
      </trkpt>
      <trkpt lat="44.40043" lon="1.16435">
        <ele>235</ele>
        <time>2021-02-09T08:46:49Z</time>
      </trkpt>
      <trkpt lat="44.40044" lon="1.16426">
        <ele>234</ele>
        <time>2021-02-09T08:46:55Z</time>
      </trkpt>
      <trkpt lat="44.40047" lon="1.16421">
        <ele>234</ele>
        <time>2021-02-09T08:46:59Z</time>
      </trkpt>
      <trkpt lat="44.40059" lon="1.16393">
        <ele>233</ele>
        <time>2021-02-09T08:47:15Z</time>
      </trkpt>
      <trkpt lat="44.40064" lon="1.16384">
        <ele>232</ele>
        <time>2021-02-09T08:47:19Z</time>
      </trkpt>
      <trkpt lat="44.40068" lon="1.16378">
        <ele>231</ele>
        <time>2021-02-09T08:47:21Z</time>
      </trkpt>
      <trkpt lat="44.40076" lon="1.16349">
        <ele>229</ele>
        <time>2021-02-09T08:47:29Z</time>
      </trkpt>
      <trkpt lat="44.40088" lon="1.16331">
        <ele>228</ele>
        <time>2021-02-09T08:47:39Z</time>
      </trkpt>
      <trkpt lat="44.40109" lon="1.16293">
        <ele>227</ele>
        <time>2021-02-09T08:48:15Z</time>
      </trkpt>
      <trkpt lat="44.40116" lon="1.16278">
        <ele>226</ele>
        <time>2021-02-09T08:48:25Z</time>
      </trkpt>
      <trkpt lat="44.4012" lon="1.1627">
        <ele>224</ele>
        <time>2021-02-09T08:48:30Z</time>
      </trkpt>
      <trkpt lat="44.40122" lon="1.16266">
        <ele>224</ele>
        <time>2021-02-09T08:48:33Z</time>
      </trkpt>
      <trkpt lat="44.40127" lon="1.16258">
        <ele>223</ele>
        <time>2021-02-09T08:48:38Z</time>
      </trkpt>
      <trkpt lat="44.4016" lon="1.16226">
        <ele>219</ele>
        <time>2021-02-09T08:49:06Z</time>
      </trkpt>
      <trkpt lat="44.4017" lon="1.1622">
        <ele>217</ele>
        <time>2021-02-09T08:49:12Z</time>
      </trkpt>
      <trkpt lat="44.40189" lon="1.16198">
        <ele>214</ele>
        <time>2021-02-09T08:49:30Z</time>
      </trkpt>
      <trkpt lat="44.40197" lon="1.16189">
        <ele>213</ele>
        <time>2021-02-09T08:49:37Z</time>
      </trkpt>
      <trkpt lat="44.402" lon="1.16186">
        <ele>214</ele>
        <time>2021-02-09T08:49:39Z</time>
      </trkpt>
      <trkpt lat="44.40202" lon="1.16183">
        <ele>215</ele>
        <time>2021-02-09T08:49:41Z</time>
      </trkpt>
      <trkpt lat="44.40203" lon="1.16181">
        <ele>215</ele>
        <time>2021-02-09T08:49:46Z</time>
      </trkpt>
      <trkpt lat="44.402" lon="1.16168">
        <ele>212</ele>
        <time>2021-02-09T08:49:58Z</time>
      </trkpt>
      <trkpt lat="44.40199" lon="1.16164">
        <ele>212</ele>
        <time>2021-02-09T08:50:01Z</time>
      </trkpt>
      <trkpt lat="44.40199" lon="1.16158">
        <ele>211</ele>
        <time>2021-02-09T08:50:06Z</time>
      </trkpt>
      <trkpt lat="44.402" lon="1.16139">
        <ele>209</ele>
        <time>2021-02-09T08:50:17Z</time>
      </trkpt>
      <trkpt lat="44.40201" lon="1.16123">
        <ele>208</ele>
        <time>2021-02-09T08:50:25Z</time>
      </trkpt>
      <trkpt lat="44.402" lon="1.16116">
        <ele>210</ele>
        <time>2021-02-09T08:50:31Z</time>
      </trkpt>
      <trkpt lat="44.40199" lon="1.16113">
        <ele>212</ele>
        <time>2021-02-09T08:50:34Z</time>
      </trkpt>
      <trkpt lat="44.40201" lon="1.16111">
        <ele>212</ele>
        <time>2021-02-09T08:50:41Z</time>
      </trkpt>
      <trkpt lat="44.40202" lon="1.16111">
        <ele>212</ele>
        <time>2021-02-09T08:50:45Z</time>
      </trkpt>
      <trkpt lat="44.40203" lon="1.16108">
        <ele>212</ele>
        <time>2021-02-09T08:50:47Z</time>
      </trkpt>
      <trkpt lat="44.40207" lon="1.16098">
        <ele>213</ele>
        <time>2021-02-09T08:50:53Z</time>
      </trkpt>
      <trkpt lat="44.40211" lon="1.16089">
        <ele>214</ele>
        <time>2021-02-09T08:50:59Z</time>
      </trkpt>
      <trkpt lat="44.40212" lon="1.1608">
        <ele>216</ele>
        <time>2021-02-09T08:51:03Z</time>
      </trkpt>
      <trkpt lat="44.40212" lon="1.16077">
        <ele>216</ele>
        <time>2021-02-09T08:51:04Z</time>
      </trkpt>
      <trkpt lat="44.40213" lon="1.16073">
        <ele>216</ele>
        <time>2021-02-09T08:51:06Z</time>
      </trkpt>
      <trkpt lat="44.40213" lon="1.16071">
        <ele>218</ele>
        <time>2021-02-09T08:51:10Z</time>
      </trkpt>
      <trkpt lat="44.40203" lon="1.16083">
        <ele>218</ele>
        <time>2021-02-09T08:51:18Z</time>
      </trkpt>
      <trkpt lat="44.40192" lon="1.1609">
        <ele>216</ele>
        <time>2021-02-09T08:51:24Z</time>
      </trkpt>
      <trkpt lat="44.40169" lon="1.16091">
        <ele>214</ele>
        <time>2021-02-09T08:51:29Z</time>
      </trkpt>
      <trkpt lat="44.40079" lon="1.16107">
        <ele>216</ele>
        <time>2021-02-09T08:51:54Z</time>
      </trkpt>
      <trkpt lat="44.40038" lon="1.16128">
        <ele>222</ele>
        <time>2021-02-09T08:52:14Z</time>
      </trkpt>
      <trkpt lat="44.40032" lon="1.16132">
        <ele>224</ele>
        <time>2021-02-09T08:52:19Z</time>
      </trkpt>
      <trkpt lat="44.40008" lon="1.16155">
        <ele>227</ele>
        <time>2021-02-09T08:52:43Z</time>
      </trkpt>
      <trkpt lat="44.39995" lon="1.1617">
        <ele>230</ele>
        <time>2021-02-09T08:52:55Z</time>
      </trkpt>
      <trkpt lat="44.39985" lon="1.16176">
        <ele>230</ele>
        <time>2021-02-09T08:53:04Z</time>
      </trkpt>
      <trkpt lat="44.39982" lon="1.16177">
        <ele>231</ele>
        <time>2021-02-09T08:53:12Z</time>
      </trkpt>
      <trkpt lat="44.39964" lon="1.16192">
        <ele>235</ele>
        <time>2021-02-09T08:53:24Z</time>
      </trkpt>
      <trkpt lat="44.3996" lon="1.16199">
        <ele>236</ele>
        <time>2021-02-09T08:53:29Z</time>
      </trkpt>
      <trkpt lat="44.39953" lon="1.16206">
        <ele>239</ele>
        <time>2021-02-09T08:53:35Z</time>
      </trkpt>
      <trkpt lat="44.3995" lon="1.16209">
        <ele>240</ele>
        <time>2021-02-09T08:53:38Z</time>
      </trkpt>
      <trkpt lat="44.39938" lon="1.16211">
        <ele>241</ele>
        <time>2021-02-09T08:53:46Z</time>
      </trkpt>
      <trkpt lat="44.39934" lon="1.16215">
        <ele>242</ele>
        <time>2021-02-09T08:53:50Z</time>
      </trkpt>
      <trkpt lat="44.39898" lon="1.16221">
        <ele>247</ele>
        <time>2021-02-09T08:54:18Z</time>
      </trkpt>
      <trkpt lat="44.39889" lon="1.16225">
        <ele>247</ele>
        <time>2021-02-09T08:54:26Z</time>
      </trkpt>
      <trkpt lat="44.39865" lon="1.16226">
        <ele>250</ele>
        <time>2021-02-09T08:54:45Z</time>
      </trkpt>
      <trkpt lat="44.39862" lon="1.16225">
        <ele>251</ele>
        <time>2021-02-09T08:54:47Z</time>
      </trkpt>
      <trkpt lat="44.39839" lon="1.16225">
        <ele>255</ele>
        <time>2021-02-09T08:55:06Z</time>
      </trkpt>
      <trkpt lat="44.39835" lon="1.16225">
        <ele>257</ele>
        <time>2021-02-09T08:55:09Z</time>
      </trkpt>
      <trkpt lat="44.39832" lon="1.16223">
        <ele>257</ele>
        <time>2021-02-09T08:55:11Z</time>
      </trkpt>
      <trkpt lat="44.39828" lon="1.16224">
        <ele>258</ele>
        <time>2021-02-09T08:55:15Z</time>
      </trkpt>
      <trkpt lat="44.39824" lon="1.16224">
        <ele>261</ele>
        <time>2021-02-09T08:55:17Z</time>
      </trkpt>
      <trkpt lat="44.39821" lon="1.16224">
        <ele>262</ele>
        <time>2021-02-09T08:55:19Z</time>
      </trkpt>
      <trkpt lat="44.39817" lon="1.16224">
        <ele>264</ele>
        <time>2021-02-09T08:55:33Z</time>
      </trkpt>
      <trkpt lat="44.39806" lon="1.16224">
        <ele>264</ele>
        <time>2021-02-09T08:55:41Z</time>
      </trkpt>
      <trkpt lat="44.39799" lon="1.16227">
        <ele>266</ele>
        <time>2021-02-09T08:55:47Z</time>
      </trkpt>
      <trkpt lat="44.39755" lon="1.16231">
        <ele>269</ele>
        <time>2021-02-09T08:56:17Z</time>
      </trkpt>
      <trkpt lat="44.39752" lon="1.16233">
        <ele>270</ele>
        <time>2021-02-09T08:56:19Z</time>
      </trkpt>
      <trkpt lat="44.39739" lon="1.16245">
        <ele>273</ele>
        <time>2021-02-09T08:56:32Z</time>
      </trkpt>
      <trkpt lat="44.39737" lon="1.16246">
        <ele>274</ele>
        <time>2021-02-09T08:56:34Z</time>
      </trkpt>
      <trkpt lat="44.39734" lon="1.16248">
        <ele>274</ele>
        <time>2021-02-09T08:56:36Z</time>
      </trkpt>
      <trkpt lat="44.39729" lon="1.16251">
        <ele>273</ele>
        <time>2021-02-09T08:56:40Z</time>
      </trkpt>
      <trkpt lat="44.39722" lon="1.16257">
        <ele>273</ele>
        <time>2021-02-09T08:56:47Z</time>
      </trkpt>
      <trkpt lat="44.39707" lon="1.16273">
        <ele>274</ele>
        <time>2021-02-09T08:57:01Z</time>
      </trkpt>
      <trkpt lat="44.39699" lon="1.16285">
        <ele>275</ele>
        <time>2021-02-09T08:57:06Z</time>
      </trkpt>
      <trkpt lat="44.39689" lon="1.16297">
        <ele>275</ele>
        <time>2021-02-09T08:57:10Z</time>
      </trkpt>
      <trkpt lat="44.39681" lon="1.16311">
        <ele>275</ele>
        <time>2021-02-09T08:57:14Z</time>
      </trkpt>
      <trkpt lat="44.39651" lon="1.16344">
        <ele>278</ele>
        <time>2021-02-09T08:57:24Z</time>
      </trkpt>
      <trkpt lat="44.39627" lon="1.16373">
        <ele>279</ele>
        <time>2021-02-09T08:57:33Z</time>
      </trkpt>
      <trkpt lat="44.39534" lon="1.1645">
        <ele>283</ele>
        <time>2021-02-09T08:58:03Z</time>
      </trkpt>
      <trkpt lat="44.39518" lon="1.16463">
        <ele>283</ele>
        <time>2021-02-09T08:58:08Z</time>
      </trkpt>
      <trkpt lat="44.39429" lon="1.16544">
        <ele>279</ele>
        <time>2021-02-09T08:58:38Z</time>
      </trkpt>
      <trkpt lat="44.39338" lon="1.16633">
        <ele>276</ele>
        <time>2021-02-09T08:59:08Z</time>
      </trkpt>
      <trkpt lat="44.39317" lon="1.16655">
        <ele>274</ele>
        <time>2021-02-09T08:59:15Z</time>
      </trkpt>
      <trkpt lat="44.39314" lon="1.16656">
        <ele>274</ele>
        <time>2021-02-09T08:59:16Z</time>
      </trkpt>
      <trkpt lat="44.3922" lon="1.16585">
        <ele>269</ele>
        <time>2021-02-09T08:59:47Z</time>
      </trkpt>
      <trkpt lat="44.39197" lon="1.16543">
        <ele>267</ele>
        <time>2021-02-09T08:59:57Z</time>
      </trkpt>
      <trkpt lat="44.39189" lon="1.16526">
        <ele>264</ele>
        <time>2021-02-09T09:00:01Z</time>
      </trkpt>
      <trkpt lat="44.39183" lon="1.16501">
        <ele>261</ele>
        <time>2021-02-09T09:00:13Z</time>
      </trkpt>
      <trkpt lat="44.39174" lon="1.16474">
        <ele>260</ele>
        <time>2021-02-09T09:00:28Z</time>
      </trkpt>
      <trkpt lat="44.39173" lon="1.1647">
        <ele>260</ele>
        <time>2021-02-09T09:00:31Z</time>
      </trkpt>
      <trkpt lat="44.39164" lon="1.16438">
        <ele>261</ele>
        <time>2021-02-09T09:00:48Z</time>
      </trkpt>
      <trkpt lat="44.39163" lon="1.16433">
        <ele>261</ele>
        <time>2021-02-09T09:00:51Z</time>
      </trkpt>
      <trkpt lat="44.39163" lon="1.16429">
        <ele>260</ele>
        <time>2021-02-09T09:00:53Z</time>
      </trkpt>
      <trkpt lat="44.3916" lon="1.1642">
        <ele>260</ele>
        <time>2021-02-09T09:00:57Z</time>
      </trkpt>
      <trkpt lat="44.39157" lon="1.16416">
        <ele>259</ele>
        <time>2021-02-09T09:01:00Z</time>
      </trkpt>
      <trkpt lat="44.39145" lon="1.16398">
        <ele>257</ele>
        <time>2021-02-09T09:01:14Z</time>
      </trkpt>
      <trkpt lat="44.39136" lon="1.1638">
        <ele>258</ele>
        <time>2021-02-09T09:01:26Z</time>
      </trkpt>
      <trkpt lat="44.3912" lon="1.16364">
        <ele>256</ele>
        <time>2021-02-09T09:01:39Z</time>
      </trkpt>
      <trkpt lat="44.39108" lon="1.16357">
        <ele>252</ele>
        <time>2021-02-09T09:01:49Z</time>
      </trkpt>
      <trkpt lat="44.39103" lon="1.16357">
        <ele>251</ele>
        <time>2021-02-09T09:01:53Z</time>
      </trkpt>
      <trkpt lat="44.3909" lon="1.16355">
        <ele>246</ele>
        <time>2021-02-09T09:02:00Z</time>
      </trkpt>
      <trkpt lat="44.3908" lon="1.16354">
        <ele>243</ele>
        <time>2021-02-09T09:02:03Z</time>
      </trkpt>
      <trkpt lat="44.39058" lon="1.16358">
        <ele>244</ele>
        <time>2021-02-09T09:02:07Z</time>
      </trkpt>
      <trkpt lat="44.39027" lon="1.16353">
        <ele>246</ele>
        <time>2021-02-09T09:02:13Z</time>
      </trkpt>
      <trkpt lat="44.38996" lon="1.16337">
        <ele>250</ele>
        <time>2021-02-09T09:02:20Z</time>
      </trkpt>
      <trkpt lat="44.38882" lon="1.16238">
        <ele>256</ele>
        <time>2021-02-09T09:02:45Z</time>
      </trkpt>
      <trkpt lat="44.38814" lon="1.16172">
        <ele>259</ele>
        <time>2021-02-09T09:03:03Z</time>
      </trkpt>
      <trkpt lat="44.38812" lon="1.16169">
        <ele>259</ele>
        <time>2021-02-09T09:03:05Z</time>
      </trkpt>
      <trkpt lat="44.38812" lon="1.16165">
        <ele>259</ele>
        <time>2021-02-09T09:03:07Z</time>
      </trkpt>
      <trkpt lat="44.38792" lon="1.1614">
        <ele>261</ele>
        <time>2021-02-09T09:03:26Z</time>
      </trkpt>
      <trkpt lat="44.38789" lon="1.16139">
        <ele>261</ele>
        <time>2021-02-09T09:03:28Z</time>
      </trkpt>
      <trkpt lat="44.38787" lon="1.16138">
        <ele>261</ele>
        <time>2021-02-09T09:03:38Z</time>
      </trkpt>
      <trkpt lat="44.38784" lon="1.16134">
        <ele>261</ele>
        <time>2021-02-09T09:03:41Z</time>
      </trkpt>
      <trkpt lat="44.38777" lon="1.16123">
        <ele>262</ele>
        <time>2021-02-09T09:03:49Z</time>
      </trkpt>
      <trkpt lat="44.38776" lon="1.16122">
        <ele>262</ele>
        <time>2021-02-09T09:03:50Z</time>
      </trkpt>
      <trkpt lat="44.38774" lon="1.16119">
        <ele>262</ele>
        <time>2021-02-09T09:03:52Z</time>
      </trkpt>
      <trkpt lat="44.38772" lon="1.16119">
        <ele>261</ele>
        <time>2021-02-09T09:03:53Z</time>
      </trkpt>
      <trkpt lat="44.38743" lon="1.16072">
        <ele>261</ele>
        <time>2021-02-09T09:04:23Z</time>
      </trkpt>
      <trkpt lat="44.38663" lon="1.15948">
        <ele>256</ele>
        <time>2021-02-09T09:04:53Z</time>
      </trkpt>
      <trkpt lat="44.38653" lon="1.15934">
        <ele>255</ele>
        <time>2021-02-09T09:04:58Z</time>
      </trkpt>
      <trkpt lat="44.38649" lon="1.15928">
        <ele>255</ele>
        <time>2021-02-09T09:05:00Z</time>
      </trkpt>
      <trkpt lat="44.38648" lon="1.15922">
        <ele>253</ele>
        <time>2021-02-09T09:05:02Z</time>
      </trkpt>
      <trkpt lat="44.38648" lon="1.15917">
        <ele>253</ele>
        <time>2021-02-09T09:05:04Z</time>
      </trkpt>
      <trkpt lat="44.38649" lon="1.15913">
        <ele>253</ele>
        <time>2021-02-09T09:05:07Z</time>
      </trkpt>
      <trkpt lat="44.38649" lon="1.15908">
        <ele>253</ele>
        <time>2021-02-09T09:05:10Z</time>
      </trkpt>
      <trkpt lat="44.3865" lon="1.15901">
        <ele>252</ele>
        <time>2021-02-09T09:05:15Z</time>
      </trkpt>
      <trkpt lat="44.3865" lon="1.15897">
        <ele>252</ele>
        <time>2021-02-09T09:05:17Z</time>
      </trkpt>
      <trkpt lat="44.38647" lon="1.15896">
        <ele>252</ele>
        <time>2021-02-09T09:05:19Z</time>
      </trkpt>
      <trkpt lat="44.38643" lon="1.15895">
        <ele>251</ele>
        <time>2021-02-09T09:05:21Z</time>
      </trkpt>
      <trkpt lat="44.3864" lon="1.15896">
        <ele>250</ele>
        <time>2021-02-09T09:05:23Z</time>
      </trkpt>
      <trkpt lat="44.38635" lon="1.15903">
        <ele>249</ele>
        <time>2021-02-09T09:05:27Z</time>
      </trkpt>
      <trkpt lat="44.38628" lon="1.15912">
        <ele>246</ele>
        <time>2021-02-09T09:05:33Z</time>
      </trkpt>
      <trkpt lat="44.38626" lon="1.15915">
        <ele>246</ele>
        <time>2021-02-09T09:05:35Z</time>
      </trkpt>
      <trkpt lat="44.38623" lon="1.15917">
        <ele>246</ele>
        <time>2021-02-09T09:05:38Z</time>
      </trkpt>
      <trkpt lat="44.38621" lon="1.15919">
        <ele>246</ele>
        <time>2021-02-09T09:05:40Z</time>
      </trkpt>
      <trkpt lat="44.3862" lon="1.15921">
        <ele>245</ele>
        <time>2021-02-09T09:05:42Z</time>
      </trkpt>
      <trkpt lat="44.3862" lon="1.15918">
        <ele>244</ele>
        <time>2021-02-09T09:05:49Z</time>
      </trkpt>
      <trkpt lat="44.38627" lon="1.1589">
        <ele>244</ele>
        <time>2021-02-09T09:06:05Z</time>
      </trkpt>
      <trkpt lat="44.38647" lon="1.15845">
        <ele>237</ele>
        <time>2021-02-09T09:06:28Z</time>
      </trkpt>
      <trkpt lat="44.38648" lon="1.15837">
        <ele>236</ele>
        <time>2021-02-09T09:06:30Z</time>
      </trkpt>
      <trkpt lat="44.38647" lon="1.15832">
        <ele>235</ele>
        <time>2021-02-09T09:06:31Z</time>
      </trkpt>
      <trkpt lat="44.3865" lon="1.15816">
        <ele>241</ele>
        <time>2021-02-09T09:09:01Z</time>
      </trkpt>
      <trkpt lat="44.3866" lon="1.15802">
        <ele>240</ele>
        <time>2021-02-09T09:09:12Z</time>
      </trkpt>
      <trkpt lat="44.38673" lon="1.15779">
        <ele>239</ele>
        <time>2021-02-09T09:09:28Z</time>
      </trkpt>
      <trkpt lat="44.38694" lon="1.15731">
        <ele>242</ele>
        <time>2021-02-09T09:09:59Z</time>
      </trkpt>
      <trkpt lat="44.38702" lon="1.15708">
        <ele>245</ele>
        <time>2021-02-09T09:10:12Z</time>
      </trkpt>
      <trkpt lat="44.38702" lon="1.15704">
        <ele>245</ele>
        <time>2021-02-09T09:10:14Z</time>
      </trkpt>
      <trkpt lat="44.3871" lon="1.15688">
        <ele>243</ele>
        <time>2021-02-09T09:10:24Z</time>
      </trkpt>
      <trkpt lat="44.38721" lon="1.15669">
        <ele>248</ele>
        <time>2021-02-09T09:10:39Z</time>
      </trkpt>
      <trkpt lat="44.38726" lon="1.15664">
        <ele>248</ele>
        <time>2021-02-09T09:10:44Z</time>
      </trkpt>
      <trkpt lat="44.38728" lon="1.15662">
        <ele>248</ele>
        <time>2021-02-09T09:10:47Z</time>
      </trkpt>
      <trkpt lat="44.38736" lon="1.15648">
        <ele>250</ele>
        <time>2021-02-09T09:11:07Z</time>
      </trkpt>
      <trkpt lat="44.38752" lon="1.15615">
        <ele>253</ele>
        <time>2021-02-09T09:11:31Z</time>
      </trkpt>
      <trkpt lat="44.38765" lon="1.15595">
        <ele>252</ele>
        <time>2021-02-09T09:11:47Z</time>
      </trkpt>
      <trkpt lat="44.38769" lon="1.1559">
        <ele>252</ele>
        <time>2021-02-09T09:11:51Z</time>
      </trkpt>
      <trkpt lat="44.38788" lon="1.15556">
        <ele>256</ele>
        <time>2021-02-09T09:12:16Z</time>
      </trkpt>
      <trkpt lat="44.38831" lon="1.15462">
        <ele>259</ele>
        <time>2021-02-09T09:12:42Z</time>
      </trkpt>
      <trkpt lat="44.38835" lon="1.15457">
        <ele>259</ele>
        <time>2021-02-09T09:12:44Z</time>
      </trkpt>
      <trkpt lat="44.3884" lon="1.15453">
        <ele>259</ele>
        <time>2021-02-09T09:12:46Z</time>
      </trkpt>
      <trkpt lat="44.38843" lon="1.1545">
        <ele>260</ele>
        <time>2021-02-09T09:12:48Z</time>
      </trkpt>
      <trkpt lat="44.38861" lon="1.15397">
        <ele>266</ele>
        <time>2021-02-09T09:13:19Z</time>
      </trkpt>
      <trkpt lat="44.38868" lon="1.15367">
        <ele>267</ele>
        <time>2021-02-09T09:13:39Z</time>
      </trkpt>
      <trkpt lat="44.38869" lon="1.15364">
        <ele>267</ele>
        <time>2021-02-09T09:13:44Z</time>
      </trkpt>
      <trkpt lat="44.3887" lon="1.15361">
        <ele>268</ele>
        <time>2021-02-09T09:14:31Z</time>
      </trkpt>
      <trkpt lat="44.38878" lon="1.15324">
        <ele>271</ele>
        <time>2021-02-09T09:14:52Z</time>
      </trkpt>
      <trkpt lat="44.38896" lon="1.15273">
        <ele>271</ele>
        <time>2021-02-09T09:15:22Z</time>
      </trkpt>
      <trkpt lat="44.38898" lon="1.15266">
        <ele>271</ele>
        <time>2021-02-09T09:15:26Z</time>
      </trkpt>
      <trkpt lat="44.38898" lon="1.15261">
        <ele>271</ele>
        <time>2021-02-09T09:15:29Z</time>
      </trkpt>
      <trkpt lat="44.3891" lon="1.1521">
        <ele>269</ele>
        <time>2021-02-09T09:15:59Z</time>
      </trkpt>
      <trkpt lat="44.38912" lon="1.15206">
        <ele>269</ele>
        <time>2021-02-09T09:16:02Z</time>
      </trkpt>
      <trkpt lat="44.38913" lon="1.15201">
        <ele>269</ele>
        <time>2021-02-09T09:16:05Z</time>
      </trkpt>
      <trkpt lat="44.38919" lon="1.15177">
        <ele>270</ele>
        <time>2021-02-09T09:16:20Z</time>
      </trkpt>
      <trkpt lat="44.3892" lon="1.15172">
        <ele>270</ele>
        <time>2021-02-09T09:16:24Z</time>
      </trkpt>
      <trkpt lat="44.3892" lon="1.15166">
        <ele>269</ele>
        <time>2021-02-09T09:16:27Z</time>
      </trkpt>
      <trkpt lat="44.38922" lon="1.15155">
        <ele>269</ele>
        <time>2021-02-09T09:16:32Z</time>
      </trkpt>
      <trkpt lat="44.38927" lon="1.15134">
        <ele>275</ele>
        <time>2021-02-09T09:16:42Z</time>
      </trkpt>
      <trkpt lat="44.38927" lon="1.15126">
        <ele>276</ele>
        <time>2021-02-09T09:16:46Z</time>
      </trkpt>
      <trkpt lat="44.38926" lon="1.15122">
        <ele>276</ele>
        <time>2021-02-09T09:16:48Z</time>
      </trkpt>
      <trkpt lat="44.38922" lon="1.15108">
        <ele>276</ele>
        <time>2021-02-09T09:16:58Z</time>
      </trkpt>
      <trkpt lat="44.38923" lon="1.15099">
        <ele>276</ele>
        <time>2021-02-09T09:17:03Z</time>
      </trkpt>
      <trkpt lat="44.3893" lon="1.15069">
        <ele>278</ele>
        <time>2021-02-09T09:17:20Z</time>
      </trkpt>
      <trkpt lat="44.38931" lon="1.15062">
        <ele>279</ele>
        <time>2021-02-09T09:17:25Z</time>
      </trkpt>
      <trkpt lat="44.3893" lon="1.15054">
        <ele>279</ele>
        <time>2021-02-09T09:17:31Z</time>
      </trkpt>
      <trkpt lat="44.38928" lon="1.1505">
        <ele>279</ele>
        <time>2021-02-09T09:17:34Z</time>
      </trkpt>
      <trkpt lat="44.38927" lon="1.15048">
        <ele>280</ele>
        <time>2021-02-09T09:17:36Z</time>
      </trkpt>
      <trkpt lat="44.38924" lon="1.15045">
        <ele>281</ele>
        <time>2021-02-09T09:17:38Z</time>
      </trkpt>
      <trkpt lat="44.38921" lon="1.15043">
        <ele>281</ele>
        <time>2021-02-09T09:17:40Z</time>
      </trkpt>
      <trkpt lat="44.38917" lon="1.15042">
        <ele>281</ele>
        <time>2021-02-09T09:17:43Z</time>
      </trkpt>
      <trkpt lat="44.38911" lon="1.15036">
        <ele>280</ele>
        <time>2021-02-09T09:17:49Z</time>
      </trkpt>
      <trkpt lat="44.38905" lon="1.15029">
        <ele>279</ele>
        <time>2021-02-09T09:17:55Z</time>
      </trkpt>
      <trkpt lat="44.38868" lon="1.15002">
        <ele>275</ele>
        <time>2021-02-09T09:18:27Z</time>
      </trkpt>
      <trkpt lat="44.38865" lon="1.15001">
        <ele>275</ele>
        <time>2021-02-09T09:18:29Z</time>
      </trkpt>
      <trkpt lat="44.38829" lon="1.14984">
        <ele>274</ele>
        <time>2021-02-09T09:20:23Z</time>
      </trkpt>
      <trkpt lat="44.38833" lon="1.14985">
        <ele>275</ele>
        <time>2021-02-09T09:20:27Z</time>
      </trkpt>
      <trkpt lat="44.38836" lon="1.14981">
        <ele>275</ele>
        <time>2021-02-09T09:20:31Z</time>
      </trkpt>
      <trkpt lat="44.38837" lon="1.14978">
        <ele>275</ele>
        <time>2021-02-09T09:20:33Z</time>
      </trkpt>
      <trkpt lat="44.3884" lon="1.14975">
        <ele>275</ele>
        <time>2021-02-09T09:20:36Z</time>
      </trkpt>
      <trkpt lat="44.38845" lon="1.14966">
        <ele>274</ele>
        <time>2021-02-09T09:20:43Z</time>
      </trkpt>
      <trkpt lat="44.38847" lon="1.14961">
        <ele>274</ele>
        <time>2021-02-09T09:20:46Z</time>
      </trkpt>
      <trkpt lat="44.3885" lon="1.14956">
        <ele>275</ele>
        <time>2021-02-09T09:20:49Z</time>
      </trkpt>
      <trkpt lat="44.38868" lon="1.14918">
        <ele>275</ele>
        <time>2021-02-09T09:21:04Z</time>
      </trkpt>
      <trkpt lat="44.38884" lon="1.14875">
        <ele>275</ele>
        <time>2021-02-09T09:21:16Z</time>
      </trkpt>
      <trkpt lat="44.38891" lon="1.14862">
        <ele>276</ele>
        <time>2021-02-09T09:21:22Z</time>
      </trkpt>
      <trkpt lat="44.38901" lon="1.14848">
        <ele>279</ele>
        <time>2021-02-09T09:21:31Z</time>
      </trkpt>
      <trkpt lat="44.38903" lon="1.14844">
        <ele>280</ele>
        <time>2021-02-09T09:21:34Z</time>
      </trkpt>
      <trkpt lat="44.38907" lon="1.1483">
        <ele>279</ele>
        <time>2021-02-09T09:21:42Z</time>
      </trkpt>
      <trkpt lat="44.38908" lon="1.14824">
        <ele>278</ele>
        <time>2021-02-09T09:21:45Z</time>
      </trkpt>
      <trkpt lat="44.3891" lon="1.14818">
        <ele>278</ele>
        <time>2021-02-09T09:21:48Z</time>
      </trkpt>
      <trkpt lat="44.38911" lon="1.14814">
        <ele>278</ele>
        <time>2021-02-09T09:21:50Z</time>
      </trkpt>
      <trkpt lat="44.38912" lon="1.1481">
        <ele>278</ele>
        <time>2021-02-09T09:21:52Z</time>
      </trkpt>
      <trkpt lat="44.38913" lon="1.14806">
        <ele>278</ele>
        <time>2021-02-09T09:21:55Z</time>
      </trkpt>
      <trkpt lat="44.3892" lon="1.14786">
        <ele>281</ele>
        <time>2021-02-09T09:22:05Z</time>
      </trkpt>
      <trkpt lat="44.3892" lon="1.14782">
        <ele>281</ele>
        <time>2021-02-09T09:22:07Z</time>
      </trkpt>
      <trkpt lat="44.38922" lon="1.14779">
        <ele>282</ele>
        <time>2021-02-09T09:22:09Z</time>
      </trkpt>
      <trkpt lat="44.38932" lon="1.14753">
        <ele>285</ele>
        <time>2021-02-09T09:22:25Z</time>
      </trkpt>
      <trkpt lat="44.38938" lon="1.14739">
        <ele>284</ele>
        <time>2021-02-09T09:22:34Z</time>
      </trkpt>
      <trkpt lat="44.38941" lon="1.14729">
        <ele>284</ele>
        <time>2021-02-09T09:22:41Z</time>
      </trkpt>
      <trkpt lat="44.38944" lon="1.14708">
        <ele>286</ele>
        <time>2021-02-09T09:22:52Z</time>
      </trkpt>
      <trkpt lat="44.38958" lon="1.14682">
        <ele>285</ele>
        <time>2021-02-09T09:23:10Z</time>
      </trkpt>
      <trkpt lat="44.38959" lon="1.14676">
        <ele>286</ele>
        <time>2021-02-09T09:23:13Z</time>
      </trkpt>
      <trkpt lat="44.3897" lon="1.14656">
        <ele>287</ele>
        <time>2021-02-09T09:23:27Z</time>
      </trkpt>
      <trkpt lat="44.3897" lon="1.14651">
        <ele>286</ele>
        <time>2021-02-09T09:23:31Z</time>
      </trkpt>
      <trkpt lat="44.38966" lon="1.14645">
        <ele>286</ele>
        <time>2021-02-09T09:23:36Z</time>
      </trkpt>
      <trkpt lat="44.38927" lon="1.14618">
        <ele>282</ele>
        <time>2021-02-09T09:24:06Z</time>
      </trkpt>
      <trkpt lat="44.38919" lon="1.14614">
        <ele>282</ele>
        <time>2021-02-09T09:24:12Z</time>
      </trkpt>
      <trkpt lat="44.3891" lon="1.14607">
        <ele>281</ele>
        <time>2021-02-09T09:24:21Z</time>
      </trkpt>
      <trkpt lat="44.38895" lon="1.14597">
        <ele>282</ele>
        <time>2021-02-09T09:24:34Z</time>
      </trkpt>
      <trkpt lat="44.38889" lon="1.14594">
        <ele>284</ele>
        <time>2021-02-09T09:24:38Z</time>
      </trkpt>
      <trkpt lat="44.38886" lon="1.14593">
        <ele>285</ele>
        <time>2021-02-09T09:24:41Z</time>
      </trkpt>
      <trkpt lat="44.38872" lon="1.14588">
        <ele>287</ele>
        <time>2021-02-09T09:24:51Z</time>
      </trkpt>
      <trkpt lat="44.38869" lon="1.14587">
        <ele>287</ele>
        <time>2021-02-09T09:24:53Z</time>
      </trkpt>
      <trkpt lat="44.38867" lon="1.14584">
        <ele>287</ele>
        <time>2021-02-09T09:24:55Z</time>
      </trkpt>
      <trkpt lat="44.38866" lon="1.14581">
        <ele>287</ele>
        <time>2021-02-09T09:24:57Z</time>
      </trkpt>
      <trkpt lat="44.38865" lon="1.14578">
        <ele>287</ele>
        <time>2021-02-09T09:24:59Z</time>
      </trkpt>
      <trkpt lat="44.38865" lon="1.14569">
        <ele>286</ele>
        <time>2021-02-09T09:25:05Z</time>
      </trkpt>
      <trkpt lat="44.38863" lon="1.14555">
        <ele>286</ele>
        <time>2021-02-09T09:25:12Z</time>
      </trkpt>
      <trkpt lat="44.38863" lon="1.14526">
        <ele>288</ele>
        <time>2021-02-09T09:25:26Z</time>
      </trkpt>
      <trkpt lat="44.38862" lon="1.14518">
        <ele>287</ele>
        <time>2021-02-09T09:25:30Z</time>
      </trkpt>
      <trkpt lat="44.38864" lon="1.14482">
        <ele>289</ele>
        <time>2021-02-09T09:25:48Z</time>
      </trkpt>
      <trkpt lat="44.38865" lon="1.14474">
        <ele>290</ele>
        <time>2021-02-09T09:25:53Z</time>
      </trkpt>
      <trkpt lat="44.38865" lon="1.14469">
        <ele>290</ele>
        <time>2021-02-09T09:25:57Z</time>
      </trkpt>
      <trkpt lat="44.38867" lon="1.14465">
        <ele>289</ele>
        <time>2021-02-09T09:26:02Z</time>
      </trkpt>
      <trkpt lat="44.38869" lon="1.14456">
        <ele>287</ele>
        <time>2021-02-09T09:26:08Z</time>
      </trkpt>
      <trkpt lat="44.38872" lon="1.1445">
        <ele>287</ele>
        <time>2021-02-09T09:26:19Z</time>
      </trkpt>
      <trkpt lat="44.38868" lon="1.14424">
        <ele>286</ele>
        <time>2021-02-09T09:26:35Z</time>
      </trkpt>
      <trkpt lat="44.38868" lon="1.14418">
        <ele>285</ele>
        <time>2021-02-09T09:26:38Z</time>
      </trkpt>
      <trkpt lat="44.38875" lon="1.14358">
        <ele>285</ele>
        <time>2021-02-09T09:27:09Z</time>
      </trkpt>
      <trkpt lat="44.38875" lon="1.14348">
        <ele>286</ele>
        <time>2021-02-09T09:27:13Z</time>
      </trkpt>
      <trkpt lat="44.38876" lon="1.14343">
        <ele>285</ele>
        <time>2021-02-09T09:27:16Z</time>
      </trkpt>
      <trkpt lat="44.38878" lon="1.14333">
        <ele>284</ele>
        <time>2021-02-09T09:27:23Z</time>
      </trkpt>
      <trkpt lat="44.38883" lon="1.14309">
        <ele>285</ele>
        <time>2021-02-09T09:27:35Z</time>
      </trkpt>
      <trkpt lat="44.38881" lon="1.14253">
        <ele>280</ele>
        <time>2021-02-09T09:27:47Z</time>
      </trkpt>
      <trkpt lat="44.38846" lon="1.14049">
        <ele>288</ele>
        <time>2021-02-09T09:28:17Z</time>
      </trkpt>
      <trkpt lat="44.38843" lon="1.1397">
        <ele>287</ele>
        <time>2021-02-09T09:28:28Z</time>
      </trkpt>
      <trkpt lat="44.38837" lon="1.1395">
        <ele>288</ele>
        <time>2021-02-09T09:28:32Z</time>
      </trkpt>
      <trkpt lat="44.38831" lon="1.13939">
        <ele>288</ele>
        <time>2021-02-09T09:28:35Z</time>
      </trkpt>
      <trkpt lat="44.38824" lon="1.1393">
        <ele>288</ele>
        <time>2021-02-09T09:28:38Z</time>
      </trkpt>
      <trkpt lat="44.38818" lon="1.13924">
        <ele>288</ele>
        <time>2021-02-09T09:28:40Z</time>
      </trkpt>
      <trkpt lat="44.38749" lon="1.13897">
        <ele>288</ele>
        <time>2021-02-09T09:29:01Z</time>
      </trkpt>
      <trkpt lat="44.38738" lon="1.139">
        <ele>288</ele>
        <time>2021-02-09T09:29:05Z</time>
      </trkpt>
      <trkpt lat="44.3873" lon="1.13904">
        <ele>288</ele>
        <time>2021-02-09T09:29:08Z</time>
      </trkpt>
      <trkpt lat="44.38643" lon="1.13969">
        <ele>286</ele>
        <time>2021-02-09T09:29:38Z</time>
      </trkpt>
      <trkpt lat="44.3859" lon="1.14009">
        <ele>283</ele>
        <time>2021-02-09T09:29:58Z</time>
      </trkpt>
      <trkpt lat="44.38524" lon="1.14098">
        <ele>288</ele>
        <time>2021-02-09T09:30:28Z</time>
      </trkpt>
      <trkpt lat="44.38479" lon="1.14169">
        <ele>290</ele>
        <time>2021-02-09T09:30:50Z</time>
      </trkpt>
      <trkpt lat="44.38472" lon="1.14175">
        <ele>289</ele>
        <time>2021-02-09T09:30:53Z</time>
      </trkpt>
      <trkpt lat="44.38449" lon="1.14201">
        <ele>287</ele>
        <time>2021-02-09T09:31:02Z</time>
      </trkpt>
      <trkpt lat="44.38374" lon="1.14294">
        <ele>286</ele>
        <time>2021-02-09T09:31:32Z</time>
      </trkpt>
      <trkpt lat="44.38316" lon="1.14351">
        <ele>285</ele>
        <time>2021-02-09T09:31:53Z</time>
      </trkpt>
      <trkpt lat="44.38277" lon="1.14381">
        <ele>283</ele>
        <time>2021-02-09T09:32:07Z</time>
      </trkpt>
      <trkpt lat="44.38273" lon="1.14386">
        <ele>283</ele>
        <time>2021-02-09T09:32:09Z</time>
      </trkpt>
      <trkpt lat="44.38245" lon="1.14468">
        <ele>283</ele>
        <time>2021-02-09T09:32:31Z</time>
      </trkpt>
      <trkpt lat="44.3819" lon="1.14564">
        <ele>286</ele>
        <time>2021-02-09T09:33:01Z</time>
      </trkpt>
      <trkpt lat="44.38187" lon="1.14574">
        <ele>288</ele>
        <time>2021-02-09T09:33:08Z</time>
      </trkpt>
      <trkpt lat="44.38184" lon="1.1458">
        <ele>289</ele>
        <time>2021-02-09T09:33:12Z</time>
      </trkpt>
      <trkpt lat="44.38182" lon="1.14586">
        <ele>290</ele>
        <time>2021-02-09T09:33:21Z</time>
      </trkpt>
      <trkpt lat="44.38174" lon="1.14595">
        <ele>290</ele>
        <time>2021-02-09T09:33:29Z</time>
      </trkpt>
      <trkpt lat="44.38172" lon="1.14602">
        <ele>289</ele>
        <time>2021-02-09T09:33:38Z</time>
      </trkpt>
      <trkpt lat="44.38164" lon="1.14615">
        <ele>289</ele>
        <time>2021-02-09T09:33:46Z</time>
      </trkpt>
      <trkpt lat="44.38156" lon="1.14642">
        <ele>289</ele>
        <time>2021-02-09T09:33:57Z</time>
      </trkpt>
      <trkpt lat="44.38149" lon="1.14675">
        <ele>289</ele>
        <time>2021-02-09T09:34:06Z</time>
      </trkpt>
      <trkpt lat="44.38115" lon="1.14788">
        <ele>286</ele>
        <time>2021-02-09T09:34:31Z</time>
      </trkpt>
      <trkpt lat="44.38112" lon="1.14876">
        <ele>282</ele>
        <time>2021-02-09T09:34:51Z</time>
      </trkpt>
      <trkpt lat="44.38094" lon="1.14928">
        <ele>281</ele>
        <time>2021-02-09T09:35:05Z</time>
      </trkpt>
      <trkpt lat="44.38086" lon="1.14949">
        <ele>281</ele>
        <time>2021-02-09T09:35:11Z</time>
      </trkpt>
      <trkpt lat="44.38047" lon="1.15082">
        <ele>282</ele>
        <time>2021-02-09T09:35:41Z</time>
      </trkpt>
      <trkpt lat="44.38029" lon="1.15122">
        <ele>281</ele>
        <time>2021-02-09T09:35:51Z</time>
      </trkpt>
      <trkpt lat="44.38015" lon="1.15142">
        <ele>282</ele>
        <time>2021-02-09T09:35:57Z</time>
      </trkpt>
      <trkpt lat="44.38011" lon="1.15148">
        <ele>281</ele>
        <time>2021-02-09T09:35:59Z</time>
      </trkpt>
      <trkpt lat="44.37965" lon="1.15241">
        <ele>275</ele>
        <time>2021-02-09T09:36:22Z</time>
      </trkpt>
      <trkpt lat="44.37963" lon="1.15243">
        <ele>275</ele>
        <time>2021-02-09T09:36:23Z</time>
      </trkpt>
      <trkpt lat="44.37961" lon="1.15245">
        <ele>275</ele>
        <time>2021-02-09T09:36:24Z</time>
      </trkpt>
      <trkpt lat="44.37958" lon="1.15245">
        <ele>275</ele>
        <time>2021-02-09T09:36:25Z</time>
      </trkpt>
      <trkpt lat="44.37956" lon="1.15248">
        <ele>273</ele>
        <time>2021-02-09T09:36:28Z</time>
      </trkpt>
      <trkpt lat="44.37953" lon="1.15251">
        <ele>272</ele>
        <time>2021-02-09T09:36:32Z</time>
      </trkpt>
      <trkpt lat="44.37933" lon="1.15296">
        <ele>270</ele>
        <time>2021-02-09T09:37:02Z</time>
      </trkpt>
      <trkpt lat="44.37914" lon="1.15348">
        <ele>266</ele>
        <time>2021-02-09T09:37:33Z</time>
      </trkpt>
      <trkpt lat="44.37901" lon="1.15375">
        <ele>264</ele>
        <time>2021-02-09T09:38:04Z</time>
      </trkpt>
      <trkpt lat="44.37898" lon="1.15382">
        <ele>264</ele>
        <time>2021-02-09T09:38:08Z</time>
      </trkpt>
      <trkpt lat="44.37881" lon="1.15426">
        <ele>268</ele>
        <time>2021-02-09T09:38:37Z</time>
      </trkpt>
      <trkpt lat="44.37871" lon="1.15442">
        <ele>267</ele>
        <time>2021-02-09T09:38:47Z</time>
      </trkpt>
      <trkpt lat="44.37863" lon="1.15458">
        <ele>266</ele>
        <time>2021-02-09T09:38:55Z</time>
      </trkpt>
      <trkpt lat="44.37835" lon="1.15494">
        <ele>263</ele>
        <time>2021-02-09T09:39:05Z</time>
      </trkpt>
      <trkpt lat="44.37739" lon="1.15567">
        <ele>258</ele>
        <time>2021-02-09T09:39:35Z</time>
      </trkpt>
      <trkpt lat="44.37703" lon="1.15595">
        <ele>257</ele>
        <time>2021-02-09T09:39:48Z</time>
      </trkpt>
      <trkpt lat="44.377" lon="1.156">
        <ele>257</ele>
        <time>2021-02-09T09:39:50Z</time>
      </trkpt>
      <trkpt lat="44.37698" lon="1.15604">
        <ele>257</ele>
        <time>2021-02-09T09:39:52Z</time>
      </trkpt>
      <trkpt lat="44.37699" lon="1.15606">
        <ele>257</ele>
        <time>2021-02-09T09:39:54Z</time>
      </trkpt>
      <trkpt lat="44.377" lon="1.15608">
        <ele>258</ele>
        <time>2021-02-09T09:40:05Z</time>
      </trkpt>
      <trkpt lat="44.377" lon="1.15612">
        <ele>258</ele>
        <time>2021-02-09T09:40:24Z</time>
      </trkpt>
      <trkpt lat="44.37725" lon="1.15655">
        <ele>258</ele>
        <time>2021-02-09T09:40:54Z</time>
      </trkpt>
      <trkpt lat="44.37729" lon="1.15665">
        <ele>257</ele>
        <time>2021-02-09T09:41:00Z</time>
      </trkpt>
      <trkpt lat="44.37733" lon="1.15681">
        <ele>258</ele>
        <time>2021-02-09T09:41:08Z</time>
      </trkpt>
      <trkpt lat="44.37733" lon="1.15692">
        <ele>257</ele>
        <time>2021-02-09T09:41:14Z</time>
      </trkpt>
      <trkpt lat="44.37734" lon="1.15699">
        <ele>255</ele>
        <time>2021-02-09T09:41:18Z</time>
      </trkpt>
      <trkpt lat="44.37734" lon="1.15702">
        <ele>255</ele>
        <time>2021-02-09T09:41:20Z</time>
      </trkpt>
      <trkpt lat="44.37735" lon="1.15704">
        <ele>256</ele>
        <time>2021-02-09T09:41:22Z</time>
      </trkpt>
      <trkpt lat="44.37734" lon="1.15723">
        <ele>257</ele>
        <time>2021-02-09T09:41:33Z</time>
      </trkpt>
      <trkpt lat="44.37744" lon="1.15768">
        <ele>257</ele>
        <time>2021-02-09T09:41:58Z</time>
      </trkpt>
      <trkpt lat="44.37746" lon="1.15788">
        <ele>258</ele>
        <time>2021-02-09T09:42:08Z</time>
      </trkpt>
      <trkpt lat="44.37748" lon="1.15795">
        <ele>258</ele>
        <time>2021-02-09T09:42:12Z</time>
      </trkpt>
      <trkpt lat="44.3775" lon="1.15823">
        <ele>257</ele>
        <time>2021-02-09T09:42:26Z</time>
      </trkpt>
      <trkpt lat="44.37751" lon="1.15827">
        <ele>257</ele>
        <time>2021-02-09T09:42:28Z</time>
      </trkpt>
      <trkpt lat="44.3775" lon="1.1583">
        <ele>255</ele>
        <time>2021-02-09T09:42:30Z</time>
      </trkpt>
      <trkpt lat="44.37751" lon="1.15834">
        <ele>255</ele>
        <time>2021-02-09T09:42:32Z</time>
      </trkpt>
      <trkpt lat="44.37754" lon="1.1584">
        <ele>256</ele>
        <time>2021-02-09T09:42:36Z</time>
      </trkpt>
      <trkpt lat="44.37757" lon="1.1585">
        <ele>255</ele>
        <time>2021-02-09T09:42:42Z</time>
      </trkpt>
      <trkpt lat="44.3778" lon="1.15898">
        <ele>250</ele>
        <time>2021-02-09T09:43:12Z</time>
      </trkpt>
      <trkpt lat="44.37783" lon="1.15904">
        <ele>250</ele>
        <time>2021-02-09T09:43:16Z</time>
      </trkpt>
      <trkpt lat="44.37785" lon="1.15906">
        <ele>250</ele>
        <time>2021-02-09T09:43:18Z</time>
      </trkpt>
      <trkpt lat="44.37787" lon="1.15907">
        <ele>250</ele>
        <time>2021-02-09T09:43:21Z</time>
      </trkpt>
      <trkpt lat="44.3779" lon="1.15907">
        <ele>250</ele>
        <time>2021-02-09T09:43:24Z</time>
      </trkpt>
      <trkpt lat="44.37794" lon="1.15907">
        <ele>249</ele>
        <time>2021-02-09T09:43:27Z</time>
      </trkpt>
      <trkpt lat="44.378" lon="1.15907">
        <ele>249</ele>
        <time>2021-02-09T09:43:33Z</time>
      </trkpt>
      <trkpt lat="44.37807" lon="1.15902">
        <ele>246</ele>
        <time>2021-02-09T09:43:39Z</time>
      </trkpt>
      <trkpt lat="44.37815" lon="1.159">
        <ele>245</ele>
        <time>2021-02-09T09:43:44Z</time>
      </trkpt>
      <trkpt lat="44.37818" lon="1.15901">
        <ele>245</ele>
        <time>2021-02-09T09:43:47Z</time>
      </trkpt>
      <trkpt lat="44.37821" lon="1.15903">
        <ele>244</ele>
        <time>2021-02-09T09:43:51Z</time>
      </trkpt>
      <trkpt lat="44.37824" lon="1.15907">
        <ele>244</ele>
        <time>2021-02-09T09:43:55Z</time>
      </trkpt>
      <trkpt lat="44.37824" lon="1.15912">
        <ele>244</ele>
        <time>2021-02-09T09:43:58Z</time>
      </trkpt>
      <trkpt lat="44.37819" lon="1.1593">
        <ele>245</ele>
        <time>2021-02-09T09:44:10Z</time>
      </trkpt>
      <trkpt lat="44.37816" lon="1.15938">
        <ele>244</ele>
        <time>2021-02-09T09:44:16Z</time>
      </trkpt>
      <trkpt lat="44.3781" lon="1.15954">
        <ele>244</ele>
        <time>2021-02-09T09:44:26Z</time>
      </trkpt>
      <trkpt lat="44.37801" lon="1.15981">
        <ele>241</ele>
        <time>2021-02-09T09:44:36Z</time>
      </trkpt>
      <trkpt lat="44.37749" lon="1.161">
        <ele>227</ele>
        <time>2021-02-09T09:45:06Z</time>
      </trkpt>
      <trkpt lat="44.37726" lon="1.16165">
        <ele>225</ele>
        <time>2021-02-09T09:45:21Z</time>
      </trkpt>
      <trkpt lat="44.37679" lon="1.1629">
        <ele>223</ele>
        <time>2021-02-09T09:45:51Z</time>
      </trkpt>
      <trkpt lat="44.37639" lon="1.16394">
        <ele>216</ele>
        <time>2021-02-09T09:46:21Z</time>
      </trkpt>
      <trkpt lat="44.37632" lon="1.16425">
        <ele>210</ele>
        <time>2021-02-09T09:46:51Z</time>
      </trkpt>
      <trkpt lat="44.37612" lon="1.16477">
        <ele>210</ele>
        <time>2021-02-09T09:47:22Z</time>
      </trkpt>
      <trkpt lat="44.37608" lon="1.16485">
        <ele>211</ele>
        <time>2021-02-09T09:47:27Z</time>
      </trkpt>
      <trkpt lat="44.37606" lon="1.1649">
        <ele>210</ele>
        <time>2021-02-09T09:47:30Z</time>
      </trkpt>
      <trkpt lat="44.37602" lon="1.16499">
        <ele>210</ele>
        <time>2021-02-09T09:47:36Z</time>
      </trkpt>
      <trkpt lat="44.37602" lon="1.16504">
        <ele>208</ele>
        <time>2021-02-09T09:47:51Z</time>
      </trkpt>
      <trkpt lat="44.37599" lon="1.16507">
        <ele>208</ele>
        <time>2021-02-09T09:47:54Z</time>
      </trkpt>
      <trkpt lat="44.37596" lon="1.16515">
        <ele>207</ele>
        <time>2021-02-09T09:47:59Z</time>
      </trkpt>
      <trkpt lat="44.37593" lon="1.16519">
        <ele>206</ele>
        <time>2021-02-09T09:48:01Z</time>
      </trkpt>
      <trkpt lat="44.37569" lon="1.16556">
        <ele>205</ele>
        <time>2021-02-09T09:48:24Z</time>
      </trkpt>
      <trkpt lat="44.37568" lon="1.16557">
        <ele>204</ele>
        <time>2021-02-09T09:48:40Z</time>
      </trkpt>
      <trkpt lat="44.37566" lon="1.1656">
        <ele>206</ele>
        <time>2021-02-09T09:49:07Z</time>
      </trkpt>
      <trkpt lat="44.37562" lon="1.16564">
        <ele>206</ele>
        <time>2021-02-09T09:49:12Z</time>
      </trkpt>
      <trkpt lat="44.37556" lon="1.16571">
        <ele>206</ele>
        <time>2021-02-09T09:49:18Z</time>
      </trkpt>
      <trkpt lat="44.3755" lon="1.16578">
        <ele>205</ele>
        <time>2021-02-09T09:49:24Z</time>
      </trkpt>
      <trkpt lat="44.37545" lon="1.16583">
        <ele>205</ele>
        <time>2021-02-09T09:49:29Z</time>
      </trkpt>
      <trkpt lat="44.37533" lon="1.166">
        <ele>203</ele>
        <time>2021-02-09T09:49:41Z</time>
      </trkpt>
      <trkpt lat="44.3753" lon="1.16604">
        <ele>203</ele>
        <time>2021-02-09T09:49:45Z</time>
      </trkpt>
      <trkpt lat="44.37496" lon="1.16644">
        <ele>201</ele>
        <time>2021-02-09T09:50:17Z</time>
      </trkpt>
      <trkpt lat="44.37494" lon="1.16646">
        <ele>200</ele>
        <time>2021-02-09T09:50:19Z</time>
      </trkpt>
      <trkpt lat="44.37464" lon="1.16688">
        <ele>203</ele>
        <time>2021-02-09T09:50:50Z</time>
      </trkpt>
      <trkpt lat="44.37462" lon="1.16691">
        <ele>203</ele>
        <time>2021-02-09T09:50:52Z</time>
      </trkpt>
      <trkpt lat="44.37459" lon="1.16694">
        <ele>202</ele>
        <time>2021-02-09T09:50:55Z</time>
      </trkpt>
      <trkpt lat="44.37457" lon="1.16697">
        <ele>202</ele>
        <time>2021-02-09T09:50:58Z</time>
      </trkpt>
      <trkpt lat="44.37427" lon="1.16738">
        <ele>204</ele>
        <time>2021-02-09T09:51:29Z</time>
      </trkpt>
      <trkpt lat="44.37418" lon="1.16749">
        <ele>205</ele>
        <time>2021-02-09T09:51:37Z</time>
      </trkpt>
      <trkpt lat="44.37417" lon="1.16752">
        <ele>204</ele>
        <time>2021-02-09T09:51:39Z</time>
      </trkpt>
      <trkpt lat="44.37404" lon="1.16771">
        <ele>205</ele>
        <time>2021-02-09T09:51:53Z</time>
      </trkpt>
      <trkpt lat="44.37399" lon="1.16777">
        <ele>205</ele>
        <time>2021-02-09T09:51:57Z</time>
      </trkpt>
      <trkpt lat="44.37375" lon="1.16817">
        <ele>208</ele>
        <time>2021-02-09T09:52:26Z</time>
      </trkpt>
      <trkpt lat="44.37374" lon="1.16821">
        <ele>208</ele>
        <time>2021-02-09T09:52:29Z</time>
      </trkpt>
      <trkpt lat="44.37375" lon="1.16828">
        <ele>207</ele>
        <time>2021-02-09T09:52:33Z</time>
      </trkpt>
      <trkpt lat="44.37407" lon="1.16875">
        <ele>208</ele>
        <time>2021-02-09T09:52:50Z</time>
      </trkpt>
      <trkpt lat="44.37427" lon="1.16899">
        <ele>207</ele>
        <time>2021-02-09T09:52:59Z</time>
      </trkpt>
      <trkpt lat="44.37432" lon="1.16904">
        <ele>206</ele>
        <time>2021-02-09T09:53:01Z</time>
      </trkpt>
      <trkpt lat="44.37443" lon="1.16919">
        <ele>207</ele>
        <time>2021-02-09T09:53:06Z</time>
      </trkpt>
      <trkpt lat="44.37506" lon="1.1701">
        <ele>209</ele>
        <time>2021-02-09T09:53:36Z</time>
      </trkpt>
      <trkpt lat="44.37513" lon="1.17019">
        <ele>210</ele>
        <time>2021-02-09T09:53:39Z</time>
      </trkpt>
      <trkpt lat="44.37529" lon="1.17039">
        <ele>209</ele>
        <time>2021-02-09T09:53:46Z</time>
      </trkpt>
      <trkpt lat="44.37547" lon="1.17062">
        <ele>209</ele>
        <time>2021-02-09T09:53:55Z</time>
      </trkpt>
      <trkpt lat="44.37562" lon="1.17073">
        <ele>210</ele>
        <time>2021-02-09T09:54:18Z</time>
      </trkpt>
      <trkpt lat="44.37567" lon="1.17079">
        <ele>210</ele>
        <time>2021-02-09T09:54:23Z</time>
      </trkpt>
      <trkpt lat="44.37576" lon="1.17087">
        <ele>210</ele>
        <time>2021-02-09T09:54:32Z</time>
      </trkpt>
      <trkpt lat="44.37582" lon="1.1709">
        <ele>210</ele>
        <time>2021-02-09T09:54:37Z</time>
      </trkpt>
      <trkpt lat="44.37585" lon="1.17094">
        <ele>211</ele>
        <time>2021-02-09T09:54:40Z</time>
      </trkpt>
      <trkpt lat="44.37589" lon="1.17101">
        <ele>210</ele>
        <time>2021-02-09T09:54:46Z</time>
      </trkpt>
      <trkpt lat="44.37598" lon="1.17108">
        <ele>210</ele>
        <time>2021-02-09T09:54:53Z</time>
      </trkpt>
      <trkpt lat="44.37604" lon="1.17112">
        <ele>210</ele>
        <time>2021-02-09T09:54:58Z</time>
      </trkpt>
      <trkpt lat="44.37609" lon="1.17115">
        <ele>210</ele>
        <time>2021-02-09T09:55:03Z</time>
      </trkpt>
      <trkpt lat="44.37612" lon="1.17122">
        <ele>210</ele>
        <time>2021-02-09T09:55:08Z</time>
      </trkpt>
      <trkpt lat="44.37619" lon="1.17132">
        <ele>209</ele>
        <time>2021-02-09T09:55:16Z</time>
      </trkpt>
      <trkpt lat="44.37628" lon="1.17139">
        <ele>210</ele>
        <time>2021-02-09T09:55:23Z</time>
      </trkpt>
      <trkpt lat="44.37657" lon="1.17184">
        <ele>212</ele>
        <time>2021-02-09T09:55:55Z</time>
      </trkpt>
      <trkpt lat="44.37659" lon="1.17187">
        <ele>211</ele>
        <time>2021-02-09T09:55:57Z</time>
      </trkpt>
      <trkpt lat="44.3766" lon="1.1719">
        <ele>211</ele>
        <time>2021-02-09T09:56:00Z</time>
      </trkpt>
      <trkpt lat="44.37669" lon="1.17213">
        <ele>211</ele>
        <time>2021-02-09T09:56:22Z</time>
      </trkpt>
      <trkpt lat="44.37672" lon="1.17229">
        <ele>211</ele>
        <time>2021-02-09T09:56:31Z</time>
      </trkpt>
      <trkpt lat="44.37671" lon="1.17232">
        <ele>211</ele>
        <time>2021-02-09T09:56:33Z</time>
      </trkpt>
      <trkpt lat="44.37669" lon="1.17234">
        <ele>211</ele>
        <time>2021-02-09T09:56:35Z</time>
      </trkpt>
      <trkpt lat="44.37647" lon="1.17271">
        <ele>209</ele>
        <time>2021-02-09T09:57:05Z</time>
      </trkpt>
      <trkpt lat="44.37633" lon="1.17293">
        <ele>210</ele>
        <time>2021-02-09T09:57:25Z</time>
      </trkpt>
      <trkpt lat="44.3763" lon="1.17302">
        <ele>213</ele>
        <time>2021-02-09T09:57:30Z</time>
      </trkpt>
      <trkpt lat="44.37628" lon="1.17307">
        <ele>213</ele>
        <time>2021-02-09T09:57:33Z</time>
      </trkpt>
      <trkpt lat="44.37627" lon="1.1731">
        <ele>213</ele>
        <time>2021-02-09T09:57:36Z</time>
      </trkpt>
      <trkpt lat="44.37626" lon="1.17315">
        <ele>214</ele>
        <time>2021-02-09T09:57:39Z</time>
      </trkpt>
      <trkpt lat="44.3762" lon="1.17351">
        <ele>222</ele>
        <time>2021-02-09T09:57:59Z</time>
      </trkpt>
      <trkpt lat="44.37616" lon="1.17361">
        <ele>222</ele>
        <time>2021-02-09T09:58:05Z</time>
      </trkpt>
      <trkpt lat="44.37616" lon="1.17367">
        <ele>223</ele>
        <time>2021-02-09T09:58:09Z</time>
      </trkpt>
      <trkpt lat="44.37616" lon="1.17372">
        <ele>224</ele>
        <time>2021-02-09T09:58:13Z</time>
      </trkpt>
      <trkpt lat="44.37615" lon="1.17377">
        <ele>224</ele>
        <time>2021-02-09T09:58:16Z</time>
      </trkpt>
      <trkpt lat="44.37612" lon="1.17381">
        <ele>224</ele>
        <time>2021-02-09T09:58:19Z</time>
      </trkpt>
      <trkpt lat="44.3761" lon="1.17387">
        <ele>224</ele>
        <time>2021-02-09T09:58:23Z</time>
      </trkpt>
      <trkpt lat="44.3761" lon="1.17391">
        <ele>226</ele>
        <time>2021-02-09T09:58:26Z</time>
      </trkpt>
      <trkpt lat="44.37605" lon="1.17398">
        <ele>227</ele>
        <time>2021-02-09T09:58:32Z</time>
      </trkpt>
      <trkpt lat="44.37603" lon="1.17403">
        <ele>227</ele>
        <time>2021-02-09T09:58:36Z</time>
      </trkpt>
      <trkpt lat="44.37602" lon="1.17407">
        <ele>228</ele>
        <time>2021-02-09T09:58:40Z</time>
      </trkpt>
      <trkpt lat="44.37589" lon="1.17426">
        <ele>228</ele>
        <time>2021-02-09T09:58:59Z</time>
      </trkpt>
      <trkpt lat="44.37565" lon="1.17451">
        <ele>232</ele>
        <time>2021-02-09T09:59:25Z</time>
      </trkpt>
      <trkpt lat="44.37542" lon="1.17489">
        <ele>243</ele>
        <time>2021-02-09T09:59:55Z</time>
      </trkpt>
      <trkpt lat="44.37539" lon="1.17492">
        <ele>244</ele>
        <time>2021-02-09T09:59:58Z</time>
      </trkpt>
      <trkpt lat="44.37537" lon="1.17494">
        <ele>245</ele>
        <time>2021-02-09T10:00:01Z</time>
      </trkpt>
      <trkpt lat="44.37526" lon="1.17504">
        <ele>245</ele>
        <time>2021-02-09T10:00:12Z</time>
      </trkpt>
      <trkpt lat="44.37524" lon="1.17507">
        <ele>246</ele>
        <time>2021-02-09T10:00:15Z</time>
      </trkpt>
      <trkpt lat="44.3751" lon="1.17526">
        <ele>250</ele>
        <time>2021-02-09T10:00:33Z</time>
      </trkpt>
      <trkpt lat="44.375" lon="1.17531">
        <ele>253</ele>
        <time>2021-02-09T10:00:44Z</time>
      </trkpt>
      <trkpt lat="44.37495" lon="1.17535">
        <ele>251</ele>
        <time>2021-02-09T10:00:49Z</time>
      </trkpt>
      <trkpt lat="44.37494" lon="1.17538">
        <ele>250</ele>
        <time>2021-02-09T10:00:54Z</time>
      </trkpt>
      <trkpt lat="44.37478" lon="1.1755">
        <ele>250</ele>
        <time>2021-02-09T10:01:15Z</time>
      </trkpt>
      <trkpt lat="44.3745" lon="1.17578">
        <ele>257</ele>
        <time>2021-02-09T10:01:41Z</time>
      </trkpt>
      <trkpt lat="44.37444" lon="1.17584">
        <ele>258</ele>
        <time>2021-02-09T10:01:47Z</time>
      </trkpt>
      <trkpt lat="44.37417" lon="1.17618">
        <ele>261</ele>
        <time>2021-02-09T10:02:18Z</time>
      </trkpt>
      <trkpt lat="44.37415" lon="1.17619">
        <ele>260</ele>
        <time>2021-02-09T10:02:20Z</time>
      </trkpt>
      <trkpt lat="44.37414" lon="1.17622">
        <ele>260</ele>
        <time>2021-02-09T10:02:52Z</time>
      </trkpt>
      <trkpt lat="44.374" lon="1.1763">
        <ele>262</ele>
        <time>2021-02-09T10:03:03Z</time>
      </trkpt>
      <trkpt lat="44.37388" lon="1.17636">
        <ele>261</ele>
        <time>2021-02-09T10:03:13Z</time>
      </trkpt>
      <trkpt lat="44.37346" lon="1.17641">
        <ele>260</ele>
        <time>2021-02-09T10:03:43Z</time>
      </trkpt>
      <trkpt lat="44.37309" lon="1.17653">
        <ele>257</ele>
        <time>2021-02-09T10:04:13Z</time>
      </trkpt>
      <trkpt lat="44.3729" lon="1.17654">
        <ele>256</ele>
        <time>2021-02-09T10:04:26Z</time>
      </trkpt>
      <trkpt lat="44.37283" lon="1.17653">
        <ele>256</ele>
        <time>2021-02-09T10:04:33Z</time>
      </trkpt>
      <trkpt lat="44.3728" lon="1.17653">
        <ele>257</ele>
        <time>2021-02-09T10:04:40Z</time>
      </trkpt>
      <trkpt lat="44.37278" lon="1.17655">
        <ele>258</ele>
        <time>2021-02-09T10:04:43Z</time>
      </trkpt>
      <trkpt lat="44.37276" lon="1.17658">
        <ele>258</ele>
        <time>2021-02-09T10:04:45Z</time>
      </trkpt>
      <trkpt lat="44.37235" lon="1.17676">
        <ele>259</ele>
        <time>2021-02-09T10:05:15Z</time>
      </trkpt>
      <trkpt lat="44.3723" lon="1.1768">
        <ele>260</ele>
        <time>2021-02-09T10:05:19Z</time>
      </trkpt>
      <trkpt lat="44.37227" lon="1.17682">
        <ele>260</ele>
        <time>2021-02-09T10:05:21Z</time>
      </trkpt>
      <trkpt lat="44.37224" lon="1.17684">
        <ele>260</ele>
        <time>2021-02-09T10:05:24Z</time>
      </trkpt>
      <trkpt lat="44.37208" lon="1.17685">
        <ele>259</ele>
        <time>2021-02-09T10:05:36Z</time>
      </trkpt>
      <trkpt lat="44.37166" lon="1.17699">
        <ele>260</ele>
        <time>2021-02-09T10:06:07Z</time>
      </trkpt>
      <trkpt lat="44.37157" lon="1.17702">
        <ele>258</ele>
        <time>2021-02-09T10:06:22Z</time>
      </trkpt>
      <trkpt lat="44.37152" lon="1.17705">
        <ele>257</ele>
        <time>2021-02-09T10:06:26Z</time>
      </trkpt>
      <trkpt lat="44.37118" lon="1.17718">
        <ele>256</ele>
        <time>2021-02-09T10:07:04Z</time>
      </trkpt>
      <trkpt lat="44.37113" lon="1.1772">
        <ele>254</ele>
        <time>2021-02-09T10:07:08Z</time>
      </trkpt>
      <trkpt lat="44.3711" lon="1.1772">
        <ele>254</ele>
        <time>2021-02-09T10:07:10Z</time>
      </trkpt>
      <trkpt lat="44.37108" lon="1.1772">
        <ele>253</ele>
        <time>2021-02-09T10:07:12Z</time>
      </trkpt>
      <trkpt lat="44.37097" lon="1.17723">
        <ele>252</ele>
        <time>2021-02-09T10:07:20Z</time>
      </trkpt>
      <trkpt lat="44.37093" lon="1.17727">
        <ele>252</ele>
        <time>2021-02-09T10:07:24Z</time>
      </trkpt>
      <trkpt lat="44.37086" lon="1.17732">
        <ele>251</ele>
        <time>2021-02-09T10:07:29Z</time>
      </trkpt>
      <trkpt lat="44.37083" lon="1.17732">
        <ele>251</ele>
        <time>2021-02-09T10:07:31Z</time>
      </trkpt>
      <trkpt lat="44.3708" lon="1.17734">
        <ele>251</ele>
        <time>2021-02-09T10:07:33Z</time>
      </trkpt>
      <trkpt lat="44.37075" lon="1.17733">
        <ele>251</ele>
        <time>2021-02-09T10:07:37Z</time>
      </trkpt>
      <trkpt lat="44.37072" lon="1.17733">
        <ele>250</ele>
        <time>2021-02-09T10:07:39Z</time>
      </trkpt>
      <trkpt lat="44.37052" lon="1.17746">
        <ele>251</ele>
        <time>2021-02-09T10:07:57Z</time>
      </trkpt>
      <trkpt lat="44.3705" lon="1.17748">
        <ele>251</ele>
        <time>2021-02-09T10:07:59Z</time>
      </trkpt>
      <trkpt lat="44.37048" lon="1.17748">
        <ele>251</ele>
        <time>2021-02-09T10:08:01Z</time>
      </trkpt>
      <trkpt lat="44.37043" lon="1.17747">
        <ele>250</ele>
        <time>2021-02-09T10:08:05Z</time>
      </trkpt>
      <trkpt lat="44.37034" lon="1.17739">
        <ele>250</ele>
        <time>2021-02-09T10:08:13Z</time>
      </trkpt>
      <trkpt lat="44.37028" lon="1.17735">
        <ele>249</ele>
        <time>2021-02-09T10:08:22Z</time>
      </trkpt>
      <trkpt lat="44.37024" lon="1.17737">
        <ele>252</ele>
        <time>2021-02-09T10:13:57Z</time>
      </trkpt>
      <trkpt lat="44.37021" lon="1.17739">
        <ele>252</ele>
        <time>2021-02-09T10:14:00Z</time>
      </trkpt>
      <trkpt lat="44.37017" lon="1.17739">
        <ele>251</ele>
        <time>2021-02-09T10:14:05Z</time>
      </trkpt>
      <trkpt lat="44.37009" lon="1.17739">
        <ele>247</ele>
        <time>2021-02-09T10:14:18Z</time>
      </trkpt>
      <trkpt lat="44.37003" lon="1.17735">
        <ele>245</ele>
        <time>2021-02-09T10:14:21Z</time>
      </trkpt>
      <trkpt lat="44.36998" lon="1.17733">
        <ele>245</ele>
        <time>2021-02-09T10:14:26Z</time>
      </trkpt>
      <trkpt lat="44.36997" lon="1.17736">
        <ele>245</ele>
        <time>2021-02-09T10:14:28Z</time>
      </trkpt>
      <trkpt lat="44.36995" lon="1.17739">
        <ele>245</ele>
        <time>2021-02-09T10:14:31Z</time>
      </trkpt>
      <trkpt lat="44.36992" lon="1.17741">
        <ele>244</ele>
        <time>2021-02-09T10:14:34Z</time>
      </trkpt>
      <trkpt lat="44.3699" lon="1.17748">
        <ele>244</ele>
        <time>2021-02-09T10:14:46Z</time>
      </trkpt>
      <trkpt lat="44.36988" lon="1.17751">
        <ele>245</ele>
        <time>2021-02-09T10:14:49Z</time>
      </trkpt>
      <trkpt lat="44.36977" lon="1.17766">
        <ele>245</ele>
        <time>2021-02-09T10:15:00Z</time>
      </trkpt>
      <trkpt lat="44.36973" lon="1.17773">
        <ele>243</ele>
        <time>2021-02-09T10:15:04Z</time>
      </trkpt>
      <trkpt lat="44.36971" lon="1.17775">
        <ele>242</ele>
        <time>2021-02-09T10:15:06Z</time>
      </trkpt>
      <trkpt lat="44.36968" lon="1.17781">
        <ele>242</ele>
        <time>2021-02-09T10:15:12Z</time>
      </trkpt>
      <trkpt lat="44.36961" lon="1.17791">
        <ele>241</ele>
        <time>2021-02-09T10:15:22Z</time>
      </trkpt>
      <trkpt lat="44.36957" lon="1.17803">
        <ele>240</ele>
        <time>2021-02-09T10:15:28Z</time>
      </trkpt>
      <trkpt lat="44.36949" lon="1.17821">
        <ele>239</ele>
        <time>2021-02-09T10:15:41Z</time>
      </trkpt>
      <trkpt lat="44.36938" lon="1.17833">
        <ele>238</ele>
        <time>2021-02-09T10:15:51Z</time>
      </trkpt>
      <trkpt lat="44.3693" lon="1.17839">
        <ele>236</ele>
        <time>2021-02-09T10:15:57Z</time>
      </trkpt>
      <trkpt lat="44.36924" lon="1.17842">
        <ele>234</ele>
        <time>2021-02-09T10:16:01Z</time>
      </trkpt>
      <trkpt lat="44.36917" lon="1.17844">
        <ele>233</ele>
        <time>2021-02-09T10:16:07Z</time>
      </trkpt>
      <trkpt lat="44.36896" lon="1.17846">
        <ele>228</ele>
        <time>2021-02-09T10:16:18Z</time>
      </trkpt>
      <trkpt lat="44.36882" lon="1.17851">
        <ele>227</ele>
        <time>2021-02-09T10:16:23Z</time>
      </trkpt>
      <trkpt lat="44.36875" lon="1.17856">
        <ele>228</ele>
        <time>2021-02-09T10:16:27Z</time>
      </trkpt>
      <trkpt lat="44.3687" lon="1.17865">
        <ele>229</ele>
        <time>2021-02-09T10:16:33Z</time>
      </trkpt>
      <trkpt lat="44.36869" lon="1.17868">
        <ele>229</ele>
        <time>2021-02-09T10:16:35Z</time>
      </trkpt>
      <trkpt lat="44.36869" lon="1.17873">
        <ele>229</ele>
        <time>2021-02-09T10:16:38Z</time>
      </trkpt>
      <trkpt lat="44.36871" lon="1.17882">
        <ele>228</ele>
        <time>2021-02-09T10:16:48Z</time>
      </trkpt>
      <trkpt lat="44.36876" lon="1.17912">
        <ele>227</ele>
        <time>2021-02-09T10:17:04Z</time>
      </trkpt>
      <trkpt lat="44.36879" lon="1.17923">
        <ele>227</ele>
        <time>2021-02-09T10:17:10Z</time>
      </trkpt>
      <trkpt lat="44.36879" lon="1.17927">
        <ele>227</ele>
        <time>2021-02-09T10:17:13Z</time>
      </trkpt>
      <trkpt lat="44.36879" lon="1.17931">
        <ele>227</ele>
        <time>2021-02-09T10:17:15Z</time>
      </trkpt>
      <trkpt lat="44.36873" lon="1.17942">
        <ele>226</ele>
        <time>2021-02-09T10:17:21Z</time>
      </trkpt>
      <trkpt lat="44.36862" lon="1.17952">
        <ele>225</ele>
        <time>2021-02-09T10:17:30Z</time>
      </trkpt>
      <trkpt lat="44.36858" lon="1.17952">
        <ele>225</ele>
        <time>2021-02-09T10:17:34Z</time>
      </trkpt>
      <trkpt lat="44.36854" lon="1.17955">
        <ele>225</ele>
        <time>2021-02-09T10:17:40Z</time>
      </trkpt>
      <trkpt lat="44.36851" lon="1.17957">
        <ele>225</ele>
        <time>2021-02-09T10:17:45Z</time>
      </trkpt>
      <trkpt lat="44.36825" lon="1.17973">
        <ele>224</ele>
        <time>2021-02-09T10:18:06Z</time>
      </trkpt>
      <trkpt lat="44.36818" lon="1.17981">
        <ele>224</ele>
        <time>2021-02-09T10:18:12Z</time>
      </trkpt>
      <trkpt lat="44.36813" lon="1.17988">
        <ele>224</ele>
        <time>2021-02-09T10:18:18Z</time>
      </trkpt>
      <trkpt lat="44.36806" lon="1.17993">
        <ele>225</ele>
        <time>2021-02-09T10:18:26Z</time>
      </trkpt>
      <trkpt lat="44.368" lon="1.18002">
        <ele>227</ele>
        <time>2021-02-09T10:18:34Z</time>
      </trkpt>
      <trkpt lat="44.36792" lon="1.18021">
        <ele>229</ele>
        <time>2021-02-09T10:18:46Z</time>
      </trkpt>
      <trkpt lat="44.3679" lon="1.18026">
        <ele>229</ele>
        <time>2021-02-09T10:18:49Z</time>
      </trkpt>
      <trkpt lat="44.36788" lon="1.18032">
        <ele>230</ele>
        <time>2021-02-09T10:18:53Z</time>
      </trkpt>
      <trkpt lat="44.36785" lon="1.18042">
        <ele>232</ele>
        <time>2021-02-09T10:18:59Z</time>
      </trkpt>
      <trkpt lat="44.36781" lon="1.18065">
        <ele>233</ele>
        <time>2021-02-09T10:19:12Z</time>
      </trkpt>
      <trkpt lat="44.36772" lon="1.18096">
        <ele>232</ele>
        <time>2021-02-09T10:19:30Z</time>
      </trkpt>
      <trkpt lat="44.3677" lon="1.18101">
        <ele>233</ele>
        <time>2021-02-09T10:19:33Z</time>
      </trkpt>
      <trkpt lat="44.36768" lon="1.18105">
        <ele>233</ele>
        <time>2021-02-09T10:19:36Z</time>
      </trkpt>
      <trkpt lat="44.36767" lon="1.1811">
        <ele>234</ele>
        <time>2021-02-09T10:19:40Z</time>
      </trkpt>
      <trkpt lat="44.36764" lon="1.1812">
        <ele>235</ele>
        <time>2021-02-09T10:19:46Z</time>
      </trkpt>
      <trkpt lat="44.36758" lon="1.1813">
        <ele>236</ele>
        <time>2021-02-09T10:19:53Z</time>
      </trkpt>
      <trkpt lat="44.36749" lon="1.18152">
        <ele>238</ele>
        <time>2021-02-09T10:20:07Z</time>
      </trkpt>
      <trkpt lat="44.36743" lon="1.18161">
        <ele>239</ele>
        <time>2021-02-09T10:20:15Z</time>
      </trkpt>
      <trkpt lat="44.36742" lon="1.18167">
        <ele>240</ele>
        <time>2021-02-09T10:20:19Z</time>
      </trkpt>
      <trkpt lat="44.3674" lon="1.18171">
        <ele>240</ele>
        <time>2021-02-09T10:20:22Z</time>
      </trkpt>
      <trkpt lat="44.36738" lon="1.18175">
        <ele>241</ele>
        <time>2021-02-09T10:20:25Z</time>
      </trkpt>
      <trkpt lat="44.36736" lon="1.1818">
        <ele>241</ele>
        <time>2021-02-09T10:20:28Z</time>
      </trkpt>
      <trkpt lat="44.36728" lon="1.18198">
        <ele>243</ele>
        <time>2021-02-09T10:20:42Z</time>
      </trkpt>
      <trkpt lat="44.36725" lon="1.18203">
        <ele>244</ele>
        <time>2021-02-09T10:20:46Z</time>
      </trkpt>
      <trkpt lat="44.36697" lon="1.18227">
        <ele>252</ele>
        <time>2021-02-09T10:21:17Z</time>
      </trkpt>
      <trkpt lat="44.36695" lon="1.18229">
        <ele>252</ele>
        <time>2021-02-09T10:21:19Z</time>
      </trkpt>
      <trkpt lat="44.36693" lon="1.1823">
        <ele>253</ele>
        <time>2021-02-09T10:21:21Z</time>
      </trkpt>
      <trkpt lat="44.36688" lon="1.18237">
        <ele>256</ele>
        <time>2021-02-09T10:21:27Z</time>
      </trkpt>
      <trkpt lat="44.3666" lon="1.18261">
        <ele>261</ele>
        <time>2021-02-09T10:21:55Z</time>
      </trkpt>
      <trkpt lat="44.36649" lon="1.18278">
        <ele>259</ele>
        <time>2021-02-09T10:22:07Z</time>
      </trkpt>
      <trkpt lat="44.3661" lon="1.18361">
        <ele>258</ele>
        <time>2021-02-09T10:22:36Z</time>
      </trkpt>
      <trkpt lat="44.36603" lon="1.18369">
        <ele>258</ele>
        <time>2021-02-09T10:22:39Z</time>
      </trkpt>
      <trkpt lat="44.36595" lon="1.18377">
        <ele>258</ele>
        <time>2021-02-09T10:22:42Z</time>
      </trkpt>
      <trkpt lat="44.36465" lon="1.18406">
        <ele>263</ele>
        <time>2021-02-09T10:23:11Z</time>
      </trkpt>
      <trkpt lat="44.36413" lon="1.18417">
        <ele>264</ele>
        <time>2021-02-09T10:23:23Z</time>
      </trkpt>
      <trkpt lat="44.36408" lon="1.1842">
        <ele>264</ele>
        <time>2021-02-09T10:23:25Z</time>
      </trkpt>
      <trkpt lat="44.36407" lon="1.18422">
        <ele>265</ele>
        <time>2021-02-09T10:23:27Z</time>
      </trkpt>
      <trkpt lat="44.36404" lon="1.18424">
        <ele>264</ele>
        <time>2021-02-09T10:23:30Z</time>
      </trkpt>
      <trkpt lat="44.36369" lon="1.18443">
        <ele>265</ele>
        <time>2021-02-09T10:24:01Z</time>
      </trkpt>
      <trkpt lat="44.36336" lon="1.18465">
        <ele>269</ele>
        <time>2021-02-09T10:24:31Z</time>
      </trkpt>
      <trkpt lat="44.36332" lon="1.18467">
        <ele>269</ele>
        <time>2021-02-09T10:24:34Z</time>
      </trkpt>
      <trkpt lat="44.36329" lon="1.1847">
        <ele>270</ele>
        <time>2021-02-09T10:24:37Z</time>
      </trkpt>
      <trkpt lat="44.36326" lon="1.18473">
        <ele>271</ele>
        <time>2021-02-09T10:24:40Z</time>
      </trkpt>
      <trkpt lat="44.36319" lon="1.18476">
        <ele>271</ele>
        <time>2021-02-09T10:24:47Z</time>
      </trkpt>
      <trkpt lat="44.36316" lon="1.18477">
        <ele>271</ele>
        <time>2021-02-09T10:24:49Z</time>
      </trkpt>
      <trkpt lat="44.36313" lon="1.18478">
        <ele>271</ele>
        <time>2021-02-09T10:24:51Z</time>
      </trkpt>
      <trkpt lat="44.36313" lon="1.18482">
        <ele>271</ele>
        <time>2021-02-09T10:24:54Z</time>
      </trkpt>
      <trkpt lat="44.36327" lon="1.18499">
        <ele>272</ele>
        <time>2021-02-09T10:25:20Z</time>
      </trkpt>
      <trkpt lat="44.3636" lon="1.1853">
        <ele>272</ele>
        <time>2021-02-09T10:25:50Z</time>
      </trkpt>
      <trkpt lat="44.36379" lon="1.18543">
        <ele>269</ele>
        <time>2021-02-09T10:26:06Z</time>
      </trkpt>
      <trkpt lat="44.36383" lon="1.18546">
        <ele>268</ele>
        <time>2021-02-09T10:26:51Z</time>
      </trkpt>
      <trkpt lat="44.36395" lon="1.18559">
        <ele>268</ele>
        <time>2021-02-09T10:27:03Z</time>
      </trkpt>
      <trkpt lat="44.36455" lon="1.18643">
        <ele>264</ele>
        <time>2021-02-09T10:27:33Z</time>
      </trkpt>
      <trkpt lat="44.36553" lon="1.18754">
        <ele>263</ele>
        <time>2021-02-09T10:28:03Z</time>
      </trkpt>
      <trkpt lat="44.3664" lon="1.18853">
        <ele>265</ele>
        <time>2021-02-09T10:28:28Z</time>
      </trkpt>
      <trkpt lat="44.36658" lon="1.1887">
        <ele>264</ele>
        <time>2021-02-09T10:28:45Z</time>
      </trkpt>
      <trkpt lat="44.36667" lon="1.18886">
        <ele>265</ele>
        <time>2021-02-09T10:28:58Z</time>
      </trkpt>
      <trkpt lat="44.3667" lon="1.1889">
        <ele>265</ele>
        <time>2021-02-09T10:29:01Z</time>
      </trkpt>
      <trkpt lat="44.3668" lon="1.18912">
        <ele>267</ele>
        <time>2021-02-09T10:29:17Z</time>
      </trkpt>
      <trkpt lat="44.36682" lon="1.18916">
        <ele>267</ele>
        <time>2021-02-09T10:29:20Z</time>
      </trkpt>
      <trkpt lat="44.36683" lon="1.18929">
        <ele>267</ele>
        <time>2021-02-09T10:29:27Z</time>
      </trkpt>
      <trkpt lat="44.36689" lon="1.18952">
        <ele>268</ele>
        <time>2021-02-09T10:29:40Z</time>
      </trkpt>
      <trkpt lat="44.36697" lon="1.18967">
        <ele>267</ele>
        <time>2021-02-09T10:29:50Z</time>
      </trkpt>
      <trkpt lat="44.36701" lon="1.18971">
        <ele>267</ele>
        <time>2021-02-09T10:29:54Z</time>
      </trkpt>
      <trkpt lat="44.36707" lon="1.18984">
        <ele>267</ele>
        <time>2021-02-09T10:30:02Z</time>
      </trkpt>
      <trkpt lat="44.36728" lon="1.19034">
        <ele>267</ele>
        <time>2021-02-09T10:30:32Z</time>
      </trkpt>
      <trkpt lat="44.36731" lon="1.19039">
        <ele>268</ele>
        <time>2021-02-09T10:30:36Z</time>
      </trkpt>
      <trkpt lat="44.36757" lon="1.19115">
        <ele>266</ele>
        <time>2021-02-09T10:31:06Z</time>
      </trkpt>
      <trkpt lat="44.36771" lon="1.19168">
        <ele>267</ele>
        <time>2021-02-09T10:31:21Z</time>
      </trkpt>
      <trkpt lat="44.36772" lon="1.19173">
        <ele>267</ele>
        <time>2021-02-09T10:31:23Z</time>
      </trkpt>
      <trkpt lat="44.36774" lon="1.19201">
        <ele>266</ele>
        <time>2021-02-09T10:31:30Z</time>
      </trkpt>
      <trkpt lat="44.36767" lon="1.19257">
        <ele>268</ele>
        <time>2021-02-09T10:31:39Z</time>
      </trkpt>
      <trkpt lat="44.36761" lon="1.19289">
        <ele>270</ele>
        <time>2021-02-09T10:31:53Z</time>
      </trkpt>
      <trkpt lat="44.36757" lon="1.19341">
        <ele>269</ele>
        <time>2021-02-09T10:32:21Z</time>
      </trkpt>
      <trkpt lat="44.36758" lon="1.19353">
        <ele>268</ele>
        <time>2021-02-09T10:32:27Z</time>
      </trkpt>
      <trkpt lat="44.36761" lon="1.1936">
        <ele>268</ele>
        <time>2021-02-09T10:32:31Z</time>
      </trkpt>
      <trkpt lat="44.36764" lon="1.19362">
        <ele>267</ele>
        <time>2021-02-09T10:32:34Z</time>
      </trkpt>
      <trkpt lat="44.36776" lon="1.19376">
        <ele>265</ele>
        <time>2021-02-09T10:32:46Z</time>
      </trkpt>
      <trkpt lat="44.3682" lon="1.19434">
        <ele>266</ele>
        <time>2021-02-09T10:33:09Z</time>
      </trkpt>
      <trkpt lat="44.3684" lon="1.19449">
        <ele>269</ele>
        <time>2021-02-09T10:33:16Z</time>
      </trkpt>
      <trkpt lat="44.36852" lon="1.19454">
        <ele>270</ele>
        <time>2021-02-09T10:33:20Z</time>
      </trkpt>
      <trkpt lat="44.36854" lon="1.19457">
        <ele>271</ele>
        <time>2021-02-09T10:33:22Z</time>
      </trkpt>
      <trkpt lat="44.36856" lon="1.19459">
        <ele>272</ele>
        <time>2021-02-09T10:33:24Z</time>
      </trkpt>
      <trkpt lat="44.36872" lon="1.19474">
        <ele>277</ele>
        <time>2021-02-09T10:33:40Z</time>
      </trkpt>
      <trkpt lat="44.36882" lon="1.19485">
        <ele>280</ele>
        <time>2021-02-09T10:33:51Z</time>
      </trkpt>
      <trkpt lat="44.36888" lon="1.19486">
        <ele>281</ele>
        <time>2021-02-09T10:33:56Z</time>
      </trkpt>
      <trkpt lat="44.36891" lon="1.19487">
        <ele>281</ele>
        <time>2021-02-09T10:33:59Z</time>
      </trkpt>
      <trkpt lat="44.36893" lon="1.19487">
        <ele>281</ele>
        <time>2021-02-09T10:34:01Z</time>
      </trkpt>
      <trkpt lat="44.36898" lon="1.19486">
        <ele>281</ele>
        <time>2021-02-09T10:34:05Z</time>
      </trkpt>
      <trkpt lat="44.369" lon="1.19487">
        <ele>282</ele>
        <time>2021-02-09T10:34:08Z</time>
      </trkpt>
      <trkpt lat="44.36908" lon="1.19493">
        <ele>283</ele>
        <time>2021-02-09T10:34:16Z</time>
      </trkpt>
      <trkpt lat="44.36936" lon="1.195">
        <ele>285</ele>
        <time>2021-02-09T10:34:40Z</time>
      </trkpt>
      <trkpt lat="44.36939" lon="1.19499">
        <ele>285</ele>
        <time>2021-02-09T10:34:43Z</time>
      </trkpt>
      <trkpt lat="44.36959" lon="1.19505">
        <ele>284</ele>
        <time>2021-02-09T10:35:02Z</time>
      </trkpt>
      <trkpt lat="44.36967" lon="1.19509">
        <ele>284</ele>
        <time>2021-02-09T10:35:09Z</time>
      </trkpt>
      <trkpt lat="44.37009" lon="1.19519">
        <ele>284</ele>
        <time>2021-02-09T10:35:41Z</time>
      </trkpt>
      <trkpt lat="44.37026" lon="1.19522">
        <ele>286</ele>
        <time>2021-02-09T10:35:52Z</time>
      </trkpt>
      <trkpt lat="44.37029" lon="1.19523">
        <ele>285</ele>
        <time>2021-02-09T10:35:54Z</time>
      </trkpt>
      <trkpt lat="44.37055" lon="1.19526">
        <ele>283</ele>
        <time>2021-02-09T10:36:11Z</time>
      </trkpt>
      <trkpt lat="44.37062" lon="1.1953">
        <ele>284</ele>
        <time>2021-02-09T10:36:17Z</time>
      </trkpt>
      <trkpt lat="44.37065" lon="1.19531">
        <ele>283</ele>
        <time>2021-02-09T10:36:19Z</time>
      </trkpt>
      <trkpt lat="44.37087" lon="1.19539">
        <ele>285</ele>
        <time>2021-02-09T10:36:37Z</time>
      </trkpt>
      <trkpt lat="44.37095" lon="1.1954">
        <ele>285</ele>
        <time>2021-02-09T10:36:43Z</time>
      </trkpt>
      <trkpt lat="44.37097" lon="1.19542">
        <ele>285</ele>
        <time>2021-02-09T10:36:45Z</time>
      </trkpt>
      <trkpt lat="44.37122" lon="1.1956">
        <ele>283</ele>
        <time>2021-02-09T10:37:07Z</time>
      </trkpt>
      <trkpt lat="44.37127" lon="1.19564">
        <ele>282</ele>
        <time>2021-02-09T10:37:11Z</time>
      </trkpt>
      <trkpt lat="44.37132" lon="1.19572">
        <ele>282</ele>
        <time>2021-02-09T10:37:16Z</time>
      </trkpt>
      <trkpt lat="44.37155" lon="1.19599">
        <ele>279</ele>
        <time>2021-02-09T10:37:39Z</time>
      </trkpt>
      <trkpt lat="44.37165" lon="1.19613">
        <ele>278</ele>
        <time>2021-02-09T10:37:52Z</time>
      </trkpt>
      <trkpt lat="44.37172" lon="1.1963">
        <ele>276</ele>
        <time>2021-02-09T10:38:01Z</time>
      </trkpt>
      <trkpt lat="44.37174" lon="1.19641">
        <ele>274</ele>
        <time>2021-02-09T10:38:07Z</time>
      </trkpt>
      <trkpt lat="44.37175" lon="1.19647">
        <ele>274</ele>
        <time>2021-02-09T10:38:10Z</time>
      </trkpt>
      <trkpt lat="44.3718" lon="1.1968">
        <ele>273</ele>
        <time>2021-02-09T10:38:28Z</time>
      </trkpt>
      <trkpt lat="44.37183" lon="1.19707">
        <ele>274</ele>
        <time>2021-02-09T10:38:41Z</time>
      </trkpt>
      <trkpt lat="44.37186" lon="1.19717">
        <ele>276</ele>
        <time>2021-02-09T10:38:47Z</time>
      </trkpt>
      <trkpt lat="44.37193" lon="1.19726">
        <ele>277</ele>
        <time>2021-02-09T10:38:56Z</time>
      </trkpt>
      <trkpt lat="44.37199" lon="1.19742">
        <ele>276</ele>
        <time>2021-02-09T10:39:06Z</time>
      </trkpt>
      <trkpt lat="44.37201" lon="1.19747">
        <ele>276</ele>
        <time>2021-02-09T10:39:09Z</time>
      </trkpt>
      <trkpt lat="44.37203" lon="1.19753">
        <ele>274</ele>
        <time>2021-02-09T10:39:12Z</time>
      </trkpt>
      <trkpt lat="44.37207" lon="1.19761">
        <ele>273</ele>
        <time>2021-02-09T10:39:17Z</time>
      </trkpt>
      <trkpt lat="44.37221" lon="1.19799">
        <ele>269</ele>
        <time>2021-02-09T10:39:41Z</time>
      </trkpt>
      <trkpt lat="44.37224" lon="1.19805">
        <ele>269</ele>
        <time>2021-02-09T10:39:46Z</time>
      </trkpt>
      <trkpt lat="44.37231" lon="1.19816">
        <ele>269</ele>
        <time>2021-02-09T10:39:54Z</time>
      </trkpt>
      <trkpt lat="44.37233" lon="1.19835">
        <ele>268</ele>
        <time>2021-02-09T10:40:05Z</time>
      </trkpt>
      <trkpt lat="44.37234" lon="1.19838">
        <ele>269</ele>
        <time>2021-02-09T10:40:07Z</time>
      </trkpt>
      <trkpt lat="44.3724" lon="1.19846">
        <ele>268</ele>
        <time>2021-02-09T10:40:13Z</time>
      </trkpt>
      <trkpt lat="44.37244" lon="1.19856">
        <ele>267</ele>
        <time>2021-02-09T10:40:20Z</time>
      </trkpt>
      <trkpt lat="44.37248" lon="1.19866">
        <ele>268</ele>
        <time>2021-02-09T10:40:27Z</time>
      </trkpt>
      <trkpt lat="44.37254" lon="1.19872">
        <ele>269</ele>
        <time>2021-02-09T10:40:33Z</time>
      </trkpt>
      <trkpt lat="44.37264" lon="1.19897">
        <ele>267</ele>
        <time>2021-02-09T10:40:49Z</time>
      </trkpt>
      <trkpt lat="44.37269" lon="1.19903">
        <ele>266</ele>
        <time>2021-02-09T10:40:54Z</time>
      </trkpt>
      <trkpt lat="44.37277" lon="1.19915">
        <ele>265</ele>
        <time>2021-02-09T10:41:02Z</time>
      </trkpt>
      <trkpt lat="44.37292" lon="1.1993">
        <ele>264</ele>
        <time>2021-02-09T10:41:17Z</time>
      </trkpt>
      <trkpt lat="44.37299" lon="1.19939">
        <ele>263</ele>
        <time>2021-02-09T10:41:24Z</time>
      </trkpt>
      <trkpt lat="44.373" lon="1.19945">
        <ele>263</ele>
        <time>2021-02-09T10:41:27Z</time>
      </trkpt>
      <trkpt lat="44.37327" lon="1.19967">
        <ele>263</ele>
        <time>2021-02-09T10:41:39Z</time>
      </trkpt>
      <trkpt lat="44.37341" lon="1.19974">
        <ele>264</ele>
        <time>2021-02-09T10:41:44Z</time>
      </trkpt>
      <trkpt lat="44.37352" lon="1.19987">
        <ele>263</ele>
        <time>2021-02-09T10:41:49Z</time>
      </trkpt>
      <trkpt lat="44.37356" lon="1.19993">
        <ele>263</ele>
        <time>2021-02-09T10:41:51Z</time>
      </trkpt>
      <trkpt lat="44.37403" lon="1.20097">
        <ele>259</ele>
        <time>2021-02-09T10:42:22Z</time>
      </trkpt>
      <trkpt lat="44.37448" lon="1.20194">
        <ele>259</ele>
        <time>2021-02-09T10:42:52Z</time>
      </trkpt>
      <trkpt lat="44.37455" lon="1.20207">
        <ele>258</ele>
        <time>2021-02-09T10:43:09Z</time>
      </trkpt>
      <trkpt lat="44.37456" lon="1.20211">
        <ele>258</ele>
        <time>2021-02-09T10:43:12Z</time>
      </trkpt>
      <trkpt lat="44.37458" lon="1.20213">
        <ele>258</ele>
        <time>2021-02-09T10:43:16Z</time>
      </trkpt>
      <trkpt lat="44.3746" lon="1.20217">
        <ele>258</ele>
        <time>2021-02-09T10:43:19Z</time>
      </trkpt>
      <trkpt lat="44.37463" lon="1.20219">
        <ele>258</ele>
        <time>2021-02-09T10:43:22Z</time>
      </trkpt>
      <trkpt lat="44.37479" lon="1.2025">
        <ele>259</ele>
        <time>2021-02-09T10:43:43Z</time>
      </trkpt>
      <trkpt lat="44.3749" lon="1.20263">
        <ele>258</ele>
        <time>2021-02-09T10:43:55Z</time>
      </trkpt>
      <trkpt lat="44.37504" lon="1.20283">
        <ele>258</ele>
        <time>2021-02-09T10:44:09Z</time>
      </trkpt>
      <trkpt lat="44.37506" lon="1.20286">
        <ele>258</ele>
        <time>2021-02-09T10:44:11Z</time>
      </trkpt>
      <trkpt lat="44.37532" lon="1.20318">
        <ele>258</ele>
        <time>2021-02-09T10:44:33Z</time>
      </trkpt>
      <trkpt lat="44.37541" lon="1.20326">
        <ele>257</ele>
        <time>2021-02-09T10:44:41Z</time>
      </trkpt>
      <trkpt lat="44.37545" lon="1.20332">
        <ele>257</ele>
        <time>2021-02-09T10:44:45Z</time>
      </trkpt>
      <trkpt lat="44.37583" lon="1.20356">
        <ele>257</ele>
        <time>2021-02-09T10:45:16Z</time>
      </trkpt>
      <trkpt lat="44.37588" lon="1.20359">
        <ele>258</ele>
        <time>2021-02-09T10:45:20Z</time>
      </trkpt>
      <trkpt lat="44.37598" lon="1.20363">
        <ele>258</ele>
        <time>2021-02-09T10:45:27Z</time>
      </trkpt>
      <trkpt lat="44.37613" lon="1.20368">
        <ele>258</ele>
        <time>2021-02-09T10:45:38Z</time>
      </trkpt>
      <trkpt lat="44.3763" lon="1.20384">
        <ele>257</ele>
        <time>2021-02-09T10:45:54Z</time>
      </trkpt>
      <trkpt lat="44.3766" lon="1.20429">
        <ele>259</ele>
        <time>2021-02-09T10:46:25Z</time>
      </trkpt>
      <trkpt lat="44.37662" lon="1.20432">
        <ele>259</ele>
        <time>2021-02-09T10:46:27Z</time>
      </trkpt>
      <trkpt lat="44.37677" lon="1.20459">
        <ele>258</ele>
        <time>2021-02-09T10:46:45Z</time>
      </trkpt>
      <trkpt lat="44.37691" lon="1.20479">
        <ele>257</ele>
        <time>2021-02-09T10:47:00Z</time>
      </trkpt>
      <trkpt lat="44.37701" lon="1.20494">
        <ele>257</ele>
        <time>2021-02-09T10:47:10Z</time>
      </trkpt>
      <trkpt lat="44.37703" lon="1.20495">
        <ele>257</ele>
        <time>2021-02-09T10:47:13Z</time>
      </trkpt>
      <trkpt lat="44.37706" lon="1.20494">
        <ele>256</ele>
        <time>2021-02-09T10:47:15Z</time>
      </trkpt>
      <trkpt lat="44.37711" lon="1.20494">
        <ele>255</ele>
        <time>2021-02-09T10:47:19Z</time>
      </trkpt>
      <trkpt lat="44.37714" lon="1.20491">
        <ele>255</ele>
        <time>2021-02-09T10:47:22Z</time>
      </trkpt>
      <trkpt lat="44.37724" lon="1.2047">
        <ele>252</ele>
        <time>2021-02-09T10:47:31Z</time>
      </trkpt>
      <trkpt lat="44.37746" lon="1.2043">
        <ele>249</ele>
        <time>2021-02-09T10:47:43Z</time>
      </trkpt>
      <trkpt lat="44.37772" lon="1.20383">
        <ele>245</ele>
        <time>2021-02-09T10:47:59Z</time>
      </trkpt>
      <trkpt lat="44.37815" lon="1.20329">
        <ele>239</ele>
        <time>2021-02-09T10:48:17Z</time>
      </trkpt>
      <trkpt lat="44.37826" lon="1.20308">
        <ele>239</ele>
        <time>2021-02-09T10:48:23Z</time>
      </trkpt>
      <trkpt lat="44.37832" lon="1.20299">
        <ele>238</ele>
        <time>2021-02-09T10:48:26Z</time>
      </trkpt>
      <trkpt lat="44.37847" lon="1.20267">
        <ele>237</ele>
        <time>2021-02-09T10:48:35Z</time>
      </trkpt>
      <trkpt lat="44.37916" lon="1.20163">
        <ele>235</ele>
        <time>2021-02-09T10:48:57Z</time>
      </trkpt>
      <trkpt lat="44.37965" lon="1.20101">
        <ele>236</ele>
        <time>2021-02-09T10:49:21Z</time>
      </trkpt>
      <trkpt lat="44.37972" lon="1.20089">
        <ele>237</ele>
        <time>2021-02-09T10:49:29Z</time>
      </trkpt>
      <trkpt lat="44.3798" lon="1.20027">
        <ele>237</ele>
        <time>2021-02-09T10:49:45Z</time>
      </trkpt>
      <trkpt lat="44.37982" lon="1.20019">
        <ele>237</ele>
        <time>2021-02-09T10:49:47Z</time>
      </trkpt>
      <trkpt lat="44.37985" lon="1.20014">
        <ele>238</ele>
        <time>2021-02-09T10:49:49Z</time>
      </trkpt>
      <trkpt lat="44.38002" lon="1.19995">
        <ele>239</ele>
        <time>2021-02-09T10:49:57Z</time>
      </trkpt>
      <trkpt lat="44.38011" lon="1.19982">
        <ele>240</ele>
        <time>2021-02-09T10:50:01Z</time>
      </trkpt>
      <trkpt lat="44.38015" lon="1.19978">
        <ele>240</ele>
        <time>2021-02-09T10:50:03Z</time>
      </trkpt>
      <trkpt lat="44.38019" lon="1.19975">
        <ele>242</ele>
        <time>2021-02-09T10:50:05Z</time>
      </trkpt>
      <trkpt lat="44.38023" lon="1.19967">
        <ele>247</ele>
        <time>2021-02-09T10:50:16Z</time>
      </trkpt>
      <trkpt lat="44.38025" lon="1.1996">
        <ele>249</ele>
        <time>2021-02-09T10:50:20Z</time>
      </trkpt>
      <trkpt lat="44.38027" lon="1.19947">
        <ele>252</ele>
        <time>2021-02-09T10:50:29Z</time>
      </trkpt>
      <trkpt lat="44.38027" lon="1.19944">
        <ele>252</ele>
        <time>2021-02-09T10:50:31Z</time>
      </trkpt>
      <trkpt lat="44.38028" lon="1.19941">
        <ele>252</ele>
        <time>2021-02-09T10:50:33Z</time>
      </trkpt>
      <trkpt lat="44.3803" lon="1.19917">
        <ele>252</ele>
        <time>2021-02-09T10:50:45Z</time>
      </trkpt>
      <trkpt lat="44.38044" lon="1.19865">
        <ele>255</ele>
        <time>2021-02-09T10:51:15Z</time>
      </trkpt>
      <trkpt lat="44.38056" lon="1.19815">
        <ele>256</ele>
        <time>2021-02-09T10:51:45Z</time>
      </trkpt>
      <trkpt lat="44.38057" lon="1.19812">
        <ele>256</ele>
        <time>2021-02-09T10:51:48Z</time>
      </trkpt>
      <trkpt lat="44.38061" lon="1.19794">
        <ele>257</ele>
        <time>2021-02-09T10:52:00Z</time>
      </trkpt>
      <trkpt lat="44.38065" lon="1.19781">
        <ele>257</ele>
        <time>2021-02-09T10:52:08Z</time>
      </trkpt>
      <trkpt lat="44.38067" lon="1.19779">
        <ele>258</ele>
        <time>2021-02-09T10:52:10Z</time>
      </trkpt>
      <trkpt lat="44.38068" lon="1.19776">
        <ele>258</ele>
        <time>2021-02-09T10:52:12Z</time>
      </trkpt>
      <trkpt lat="44.38069" lon="1.19772">
        <ele>259</ele>
        <time>2021-02-09T10:52:14Z</time>
      </trkpt>
      <trkpt lat="44.3807" lon="1.19768">
        <ele>259</ele>
        <time>2021-02-09T10:52:16Z</time>
      </trkpt>
      <trkpt lat="44.38072" lon="1.19766">
        <ele>259</ele>
        <time>2021-02-09T10:52:18Z</time>
      </trkpt>
      <trkpt lat="44.38074" lon="1.19758">
        <ele>260</ele>
        <time>2021-02-09T10:52:22Z</time>
      </trkpt>
      <trkpt lat="44.38074" lon="1.19752">
        <ele>260</ele>
        <time>2021-02-09T10:52:25Z</time>
      </trkpt>
      <trkpt lat="44.38074" lon="1.19748">
        <ele>260</ele>
        <time>2021-02-09T10:52:29Z</time>
      </trkpt>
      <trkpt lat="44.38072" lon="1.19745">
        <ele>260</ele>
        <time>2021-02-09T10:52:32Z</time>
      </trkpt>
      <trkpt lat="44.38074" lon="1.19741">
        <ele>260</ele>
        <time>2021-02-09T10:52:43Z</time>
      </trkpt>
      <trkpt lat="44.38072" lon="1.19739">
        <ele>260</ele>
        <time>2021-02-09T10:52:46Z</time>
      </trkpt>
      <trkpt lat="44.38069" lon="1.19739">
        <ele>260</ele>
        <time>2021-02-09T10:52:48Z</time>
      </trkpt>
      <trkpt lat="44.38067" lon="1.19737">
        <ele>260</ele>
        <time>2021-02-09T10:52:50Z</time>
      </trkpt>
      <trkpt lat="44.38063" lon="1.19731">
        <ele>259</ele>
        <time>2021-02-09T10:52:54Z</time>
      </trkpt>
      <trkpt lat="44.38056" lon="1.19707">
        <ele>258</ele>
        <time>2021-02-09T10:53:09Z</time>
      </trkpt>
      <trkpt lat="44.38055" lon="1.19678">
        <ele>260</ele>
        <time>2021-02-09T10:53:23Z</time>
      </trkpt>
      <trkpt lat="44.38055" lon="1.19674">
        <ele>260</ele>
        <time>2021-02-09T10:53:25Z</time>
      </trkpt>
      <trkpt lat="44.38054" lon="1.1967">
        <ele>260</ele>
        <time>2021-02-09T10:53:27Z</time>
      </trkpt>
      <trkpt lat="44.38055" lon="1.19667">
        <ele>260</ele>
        <time>2021-02-09T10:53:34Z</time>
      </trkpt>
      <trkpt lat="44.38054" lon="1.19664">
        <ele>259</ele>
        <time>2021-02-09T10:53:36Z</time>
      </trkpt>
      <trkpt lat="44.38053" lon="1.19661">
        <ele>259</ele>
        <time>2021-02-09T10:53:39Z</time>
      </trkpt>
      <trkpt lat="44.38052" lon="1.19647">
        <ele>260</ele>
        <time>2021-02-09T10:53:49Z</time>
      </trkpt>
      <trkpt lat="44.38052" lon="1.19643">
        <ele>260</ele>
        <time>2021-02-09T10:53:51Z</time>
      </trkpt>
      <trkpt lat="44.38056" lon="1.19639">
        <ele>260</ele>
        <time>2021-02-09T10:53:55Z</time>
      </trkpt>
      <trkpt lat="44.38062" lon="1.19637">
        <ele>259</ele>
        <time>2021-02-09T10:54:00Z</time>
      </trkpt>
      <trkpt lat="44.38075" lon="1.19629">
        <ele>261</ele>
        <time>2021-02-09T10:54:12Z</time>
      </trkpt>
      <trkpt lat="44.38079" lon="1.19628">
        <ele>261</ele>
        <time>2021-02-09T10:54:15Z</time>
      </trkpt>
      <trkpt lat="44.38083" lon="1.19629">
        <ele>260</ele>
        <time>2021-02-09T10:54:18Z</time>
      </trkpt>
      <trkpt lat="44.38086" lon="1.1963">
        <ele>260</ele>
        <time>2021-02-09T10:54:20Z</time>
      </trkpt>
      <trkpt lat="44.38098" lon="1.19626">
        <ele>259</ele>
        <time>2021-02-09T10:54:32Z</time>
      </trkpt>
      <trkpt lat="44.38119" lon="1.1963">
        <ele>259</ele>
        <time>2021-02-09T10:54:50Z</time>
      </trkpt>
      <trkpt lat="44.38132" lon="1.19636">
        <ele>258</ele>
        <time>2021-02-09T10:55:03Z</time>
      </trkpt>
      <trkpt lat="44.38135" lon="1.19636">
        <ele>256</ele>
        <time>2021-02-09T10:55:11Z</time>
      </trkpt>
      <trkpt lat="44.38147" lon="1.1964">
        <ele>256</ele>
        <time>2021-02-09T10:55:21Z</time>
      </trkpt>
      <trkpt lat="44.38159" lon="1.19646">
        <ele>257</ele>
        <time>2021-02-09T10:55:31Z</time>
      </trkpt>
      <trkpt lat="44.38163" lon="1.19653">
        <ele>256</ele>
        <time>2021-02-09T10:55:36Z</time>
      </trkpt>
      <trkpt lat="44.38178" lon="1.19689">
        <ele>252</ele>
        <time>2021-02-09T10:55:59Z</time>
      </trkpt>
      <trkpt lat="44.38186" lon="1.1972">
        <ele>250</ele>
        <time>2021-02-09T10:56:17Z</time>
      </trkpt>
      <trkpt lat="44.38186" lon="1.19731">
        <ele>250</ele>
        <time>2021-02-09T10:56:23Z</time>
      </trkpt>
      <trkpt lat="44.38187" lon="1.19736">
        <ele>250</ele>
        <time>2021-02-09T10:56:26Z</time>
      </trkpt>
      <trkpt lat="44.38188" lon="1.19747">
        <ele>252</ele>
        <time>2021-02-09T10:56:39Z</time>
      </trkpt>
      <trkpt lat="44.38189" lon="1.19753">
        <ele>252</ele>
        <time>2021-02-09T10:56:43Z</time>
      </trkpt>
      <trkpt lat="44.3819" lon="1.19769">
        <ele>250</ele>
        <time>2021-02-09T10:56:53Z</time>
      </trkpt>
      <trkpt lat="44.38194" lon="1.1978">
        <ele>250</ele>
        <time>2021-02-09T10:57:01Z</time>
      </trkpt>
      <trkpt lat="44.382" lon="1.19785">
        <ele>248</ele>
        <time>2021-02-09T10:57:07Z</time>
      </trkpt>
      <trkpt lat="44.38203" lon="1.19786">
        <ele>248</ele>
        <time>2021-02-09T10:57:09Z</time>
      </trkpt>
      <trkpt lat="44.38209" lon="1.19786">
        <ele>248</ele>
        <time>2021-02-09T10:57:13Z</time>
      </trkpt>
      <trkpt lat="44.38215" lon="1.19783">
        <ele>247</ele>
        <time>2021-02-09T10:57:17Z</time>
      </trkpt>
      <trkpt lat="44.38222" lon="1.19776">
        <ele>246</ele>
        <time>2021-02-09T10:57:23Z</time>
      </trkpt>
      <trkpt lat="44.38243" lon="1.1975">
        <ele>247</ele>
        <time>2021-02-09T10:57:42Z</time>
      </trkpt>
      <trkpt lat="44.38255" lon="1.19723">
        <ele>244</ele>
        <time>2021-02-09T10:57:59Z</time>
      </trkpt>
      <trkpt lat="44.38257" lon="1.19717">
        <ele>244</ele>
        <time>2021-02-09T10:58:02Z</time>
      </trkpt>
      <trkpt lat="44.38262" lon="1.19711">
        <ele>243</ele>
        <time>2021-02-09T10:58:07Z</time>
      </trkpt>
      <trkpt lat="44.38272" lon="1.19707">
        <ele>242</ele>
        <time>2021-02-09T10:58:14Z</time>
      </trkpt>
      <trkpt lat="44.38293" lon="1.1972">
        <ele>239</ele>
        <time>2021-02-09T10:58:33Z</time>
      </trkpt>
      <trkpt lat="44.38297" lon="1.19721">
        <ele>238</ele>
        <time>2021-02-09T10:58:36Z</time>
      </trkpt>
      <trkpt lat="44.38319" lon="1.19719">
        <ele>238</ele>
        <time>2021-02-09T10:58:53Z</time>
      </trkpt>
      <trkpt lat="44.38321" lon="1.19717">
        <ele>238</ele>
        <time>2021-02-09T10:58:55Z</time>
      </trkpt>
      <trkpt lat="44.38339" lon="1.19711">
        <ele>237</ele>
        <time>2021-02-09T10:59:09Z</time>
      </trkpt>
      <trkpt lat="44.38344" lon="1.1971">
        <ele>237</ele>
        <time>2021-02-09T10:59:13Z</time>
      </trkpt>
      <trkpt lat="44.38351" lon="1.19708">
        <ele>237</ele>
        <time>2021-02-09T10:59:18Z</time>
      </trkpt>
      <trkpt lat="44.38353" lon="1.19707">
        <ele>237</ele>
        <time>2021-02-09T10:59:21Z</time>
      </trkpt>
      <trkpt lat="44.38355" lon="1.19705">
        <ele>237</ele>
        <time>2021-02-09T11:00:03Z</time>
      </trkpt>
      <trkpt lat="44.38357" lon="1.19705">
        <ele>236</ele>
        <time>2021-02-09T11:00:06Z</time>
      </trkpt>
      <trkpt lat="44.38372" lon="1.19703">
        <ele>235</ele>
        <time>2021-02-09T11:00:17Z</time>
      </trkpt>
      <trkpt lat="44.38381" lon="1.19704">
        <ele>234</ele>
        <time>2021-02-09T11:00:23Z</time>
      </trkpt>
      <trkpt lat="44.38389" lon="1.19704">
        <ele>233</ele>
        <time>2021-02-09T11:00:27Z</time>
      </trkpt>
      <trkpt lat="44.38436" lon="1.19703">
        <ele>227</ele>
        <time>2021-02-09T11:00:43Z</time>
      </trkpt>
      <trkpt lat="44.3847" lon="1.19702">
        <ele>226</ele>
        <time>2021-02-09T11:00:52Z</time>
      </trkpt>
      <trkpt lat="44.38516" lon="1.19686">
        <ele>223</ele>
        <time>2021-02-09T11:01:06Z</time>
      </trkpt>
      <trkpt lat="44.38536" lon="1.19675">
        <ele>220</ele>
        <time>2021-02-09T11:01:13Z</time>
      </trkpt>
      <trkpt lat="44.38543" lon="1.19669">
        <ele>220</ele>
        <time>2021-02-09T11:01:16Z</time>
      </trkpt>
      <trkpt lat="44.38546" lon="1.19666">
        <ele>220</ele>
        <time>2021-02-09T11:01:18Z</time>
      </trkpt>
      <trkpt lat="44.38555" lon="1.19667">
        <ele>220</ele>
        <time>2021-02-09T11:01:25Z</time>
      </trkpt>
      <trkpt lat="44.38558" lon="1.19668">
        <ele>220</ele>
        <time>2021-02-09T11:01:27Z</time>
      </trkpt>
      <trkpt lat="44.38588" lon="1.19668">
        <ele>217</ele>
        <time>2021-02-09T11:01:41Z</time>
      </trkpt>
      <trkpt lat="44.38614" lon="1.19653">
        <ele>219</ele>
        <time>2021-02-09T11:01:49Z</time>
      </trkpt>
      <trkpt lat="44.38633" lon="1.19636">
        <ele>218</ele>
        <time>2021-02-09T11:02:00Z</time>
      </trkpt>
      <trkpt lat="44.38636" lon="1.19634">
        <ele>218</ele>
        <time>2021-02-09T11:02:03Z</time>
      </trkpt>
      <trkpt lat="44.38639" lon="1.19631">
        <ele>218</ele>
        <time>2021-02-09T11:02:07Z</time>
      </trkpt>
      <trkpt lat="44.3865" lon="1.19608">
        <ele>217</ele>
        <time>2021-02-09T11:02:18Z</time>
      </trkpt>
      <trkpt lat="44.38672" lon="1.19572">
        <ele>215</ele>
        <time>2021-02-09T11:02:30Z</time>
      </trkpt>
      <trkpt lat="44.38682" lon="1.1956">
        <ele>214</ele>
        <time>2021-02-09T11:02:36Z</time>
      </trkpt>
      <trkpt lat="44.38689" lon="1.19551">
        <ele>213</ele>
        <time>2021-02-09T11:02:41Z</time>
      </trkpt>
      <trkpt lat="44.38695" lon="1.19544">
        <ele>212</ele>
        <time>2021-02-09T11:02:45Z</time>
      </trkpt>
      <trkpt lat="44.38704" lon="1.19532">
        <ele>210</ele>
        <time>2021-02-09T11:02:50Z</time>
      </trkpt>
      <trkpt lat="44.38718" lon="1.19513">
        <ele>206</ele>
        <time>2021-02-09T11:02:56Z</time>
      </trkpt>
      <trkpt lat="44.38732" lon="1.1949">
        <ele>204</ele>
        <time>2021-02-09T11:03:02Z</time>
      </trkpt>
      <trkpt lat="44.38795" lon="1.19424">
        <ele>198</ele>
        <time>2021-02-09T11:03:23Z</time>
      </trkpt>
      <trkpt lat="44.38836" lon="1.19405">
        <ele>195</ele>
        <time>2021-02-09T11:03:32Z</time>
      </trkpt>
      <trkpt lat="44.3889" lon="1.19376">
        <ele>194</ele>
        <time>2021-02-09T11:03:43Z</time>
      </trkpt>
      <trkpt lat="44.38903" lon="1.19368">
        <ele>196</ele>
        <time>2021-02-09T11:03:46Z</time>
      </trkpt>
      <trkpt lat="44.38936" lon="1.19333">
        <ele>201</ele>
        <time>2021-02-09T11:03:55Z</time>
      </trkpt>
      <trkpt lat="44.38941" lon="1.1933">
        <ele>201</ele>
        <time>2021-02-09T11:03:56Z</time>
      </trkpt>
      <trkpt lat="44.39097" lon="1.19255">
        <ele>217</ele>
        <time>2021-02-09T11:04:21Z</time>
      </trkpt>
      <trkpt lat="44.39128" lon="1.19251">
        <ele>221</ele>
        <time>2021-02-09T11:04:27Z</time>
      </trkpt>
      <trkpt lat="44.39165" lon="1.19246">
        <ele>229</ele>
        <time>2021-02-09T11:04:48Z</time>
      </trkpt>
      <trkpt lat="44.39172" lon="1.19245">
        <ele>229</ele>
        <time>2021-02-09T11:04:53Z</time>
      </trkpt>
      <trkpt lat="44.39176" lon="1.19245">
        <ele>229</ele>
        <time>2021-02-09T11:04:56Z</time>
      </trkpt>
      <trkpt lat="44.39206" lon="1.19238">
        <ele>231</ele>
        <time>2021-02-09T11:05:16Z</time>
      </trkpt>
      <trkpt lat="44.39208" lon="1.19239">
        <ele>232</ele>
        <time>2021-02-09T11:05:18Z</time>
      </trkpt>
      <trkpt lat="44.39211" lon="1.1924">
        <ele>232</ele>
        <time>2021-02-09T11:05:20Z</time>
      </trkpt>
      <trkpt lat="44.39231" lon="1.19235">
        <ele>235</ele>
        <time>2021-02-09T11:05:34Z</time>
      </trkpt>
      <trkpt lat="44.39237" lon="1.1923">
        <ele>233</ele>
        <time>2021-02-09T11:05:40Z</time>
      </trkpt>
      <trkpt lat="44.3924" lon="1.19227">
        <ele>233</ele>
        <time>2021-02-09T11:05:44Z</time>
      </trkpt>
      <trkpt lat="44.39245" lon="1.19217">
        <ele>234</ele>
        <time>2021-02-09T11:05:50Z</time>
      </trkpt>
      <trkpt lat="44.39264" lon="1.1919">
        <ele>243</ele>
        <time>2021-02-09T11:06:10Z</time>
      </trkpt>
      <trkpt lat="44.39266" lon="1.19186">
        <ele>244</ele>
        <time>2021-02-09T11:06:13Z</time>
      </trkpt>
      <trkpt lat="44.39273" lon="1.19177">
        <ele>246</ele>
        <time>2021-02-09T11:06:22Z</time>
      </trkpt>
      <trkpt lat="44.39278" lon="1.19168">
        <ele>246</ele>
        <time>2021-02-09T11:06:28Z</time>
      </trkpt>
      <trkpt lat="44.3928" lon="1.19164">
        <ele>245</ele>
        <time>2021-02-09T11:06:31Z</time>
      </trkpt>
      <trkpt lat="44.39288" lon="1.19156">
        <ele>245</ele>
        <time>2021-02-09T11:06:40Z</time>
      </trkpt>
      <trkpt lat="44.39291" lon="1.19157">
        <ele>247</ele>
        <time>2021-02-09T11:06:44Z</time>
      </trkpt>
      <trkpt lat="44.39296" lon="1.19162">
        <ele>248</ele>
        <time>2021-02-09T11:06:49Z</time>
      </trkpt>
      <trkpt lat="44.39296" lon="1.19165">
        <ele>248</ele>
        <time>2021-02-09T11:06:51Z</time>
      </trkpt>
      <trkpt lat="44.39299" lon="1.19166">
        <ele>248</ele>
        <time>2021-02-09T11:06:54Z</time>
      </trkpt>
      <trkpt lat="44.39301" lon="1.19164">
        <ele>249</ele>
        <time>2021-02-09T11:06:56Z</time>
      </trkpt>
      <trkpt lat="44.39303" lon="1.19161">
        <ele>250</ele>
        <time>2021-02-09T11:06:59Z</time>
      </trkpt>
      <trkpt lat="44.39315" lon="1.19119">
        <ele>255</ele>
        <time>2021-02-09T11:07:23Z</time>
      </trkpt>
      <trkpt lat="44.39324" lon="1.19103">
        <ele>257</ele>
        <time>2021-02-09T11:07:34Z</time>
      </trkpt>
      <trkpt lat="44.39331" lon="1.19092">
        <ele>257</ele>
        <time>2021-02-09T11:07:42Z</time>
      </trkpt>
      <trkpt lat="44.39341" lon="1.19069">
        <ele>259</ele>
        <time>2021-02-09T11:07:56Z</time>
      </trkpt>
      <trkpt lat="44.3935" lon="1.19059">
        <ele>259</ele>
        <time>2021-02-09T11:08:05Z</time>
      </trkpt>
      <trkpt lat="44.39366" lon="1.19046">
        <ele>259</ele>
        <time>2021-02-09T11:08:18Z</time>
      </trkpt>
      <trkpt lat="44.39385" lon="1.19028">
        <ele>260</ele>
        <time>2021-02-09T11:08:36Z</time>
      </trkpt>
      <trkpt lat="44.39403" lon="1.19016">
        <ele>260</ele>
        <time>2021-02-09T11:08:52Z</time>
      </trkpt>
      <trkpt lat="44.39406" lon="1.19014">
        <ele>261</ele>
        <time>2021-02-09T11:08:54Z</time>
      </trkpt>
      <trkpt lat="44.39408" lon="1.19011">
        <ele>261</ele>
        <time>2021-02-09T11:08:56Z</time>
      </trkpt>
      <trkpt lat="44.39414" lon="1.19006">
        <ele>260</ele>
        <time>2021-02-09T11:09:02Z</time>
      </trkpt>
      <trkpt lat="44.39416" lon="1.19005">
        <ele>260</ele>
        <time>2021-02-09T11:09:06Z</time>
      </trkpt>
      <trkpt lat="44.39431" lon="1.18985">
        <ele>261</ele>
        <time>2021-02-09T11:09:23Z</time>
      </trkpt>
      <trkpt lat="44.39434" lon="1.1898">
        <ele>262</ele>
        <time>2021-02-09T11:09:27Z</time>
      </trkpt>
      <trkpt lat="44.3944" lon="1.18971">
        <ele>262</ele>
        <time>2021-02-09T11:09:33Z</time>
      </trkpt>
      <trkpt lat="44.39444" lon="1.18964">
        <ele>262</ele>
        <time>2021-02-09T11:09:36Z</time>
      </trkpt>
      <trkpt lat="44.39466" lon="1.18928">
        <ele>261</ele>
        <time>2021-02-09T11:09:47Z</time>
      </trkpt>
      <trkpt lat="44.39522" lon="1.1883">
        <ele>261</ele>
        <time>2021-02-09T11:10:17Z</time>
      </trkpt>
      <trkpt lat="44.39586" lon="1.18738">
        <ele>265</ele>
        <time>2021-02-09T11:10:47Z</time>
      </trkpt>
      <trkpt lat="44.39645" lon="1.18646">
        <ele>265</ele>
        <time>2021-02-09T11:11:18Z</time>
      </trkpt>
      <trkpt lat="44.397" lon="1.18571">
        <ele>265</ele>
        <time>2021-02-09T11:11:44Z</time>
      </trkpt>
      <trkpt lat="44.39748" lon="1.18479">
        <ele>271</ele>
        <time>2021-02-09T11:12:14Z</time>
      </trkpt>
      <trkpt lat="44.39754" lon="1.18459">
        <ele>274</ele>
        <time>2021-02-09T11:12:24Z</time>
      </trkpt>
      <trkpt lat="44.39754" lon="1.18456">
        <ele>275</ele>
        <time>2021-02-09T11:12:26Z</time>
      </trkpt>
      <trkpt lat="44.3976" lon="1.18432">
        <ele>277</ele>
        <time>2021-02-09T11:12:38Z</time>
      </trkpt>
      <trkpt lat="44.39765" lon="1.18422">
        <ele>278</ele>
        <time>2021-02-09T11:12:44Z</time>
      </trkpt>
      <trkpt lat="44.3977" lon="1.18417">
        <ele>279</ele>
        <time>2021-02-09T11:12:48Z</time>
      </trkpt>
      <trkpt lat="44.39776" lon="1.18407">
        <ele>280</ele>
        <time>2021-02-09T11:12:54Z</time>
      </trkpt>
      <trkpt lat="44.39804" lon="1.1837">
        <ele>281</ele>
        <time>2021-02-09T11:13:20Z</time>
      </trkpt>
      <trkpt lat="44.39827" lon="1.18319">
        <ele>284</ele>
        <time>2021-02-09T11:13:48Z</time>
      </trkpt>
      <trkpt lat="44.39845" lon="1.18265">
        <ele>283</ele>
        <time>2021-02-09T11:14:18Z</time>
      </trkpt>
      <trkpt lat="44.39848" lon="1.18258">
        <ele>284</ele>
        <time>2021-02-09T11:14:22Z</time>
      </trkpt>
      <trkpt lat="44.39857" lon="1.18233">
        <ele>282</ele>
        <time>2021-02-09T11:14:37Z</time>
      </trkpt>
      <trkpt lat="44.39858" lon="1.1823">
        <ele>283</ele>
        <time>2021-02-09T11:14:40Z</time>
      </trkpt>
      <trkpt lat="44.39859" lon="1.18225">
        <ele>283</ele>
        <time>2021-02-09T11:14:43Z</time>
      </trkpt>
      <trkpt lat="44.3986" lon="1.18218">
        <ele>284</ele>
        <time>2021-02-09T11:14:48Z</time>
      </trkpt>
      <trkpt lat="44.39858" lon="1.18219">
        <ele>284</ele>
        <time>2021-02-09T11:14:52Z</time>
      </trkpt>
      <trkpt lat="44.39856" lon="1.18222">
        <ele>284</ele>
        <time>2021-02-09T11:14:55Z</time>
      </trkpt>
      <trkpt lat="44.39855" lon="1.18225">
        <ele>287</ele>
        <time>2021-02-09T11:15:30Z</time>
      </trkpt>
      <trkpt lat="44.39857" lon="1.18225">
        <ele>287</ele>
        <time>2021-02-09T11:15:33Z</time>
      </trkpt>
      <trkpt lat="44.39858" lon="1.18222">
        <ele>287</ele>
        <time>2021-02-09T11:15:35Z</time>
      </trkpt>
      <trkpt lat="44.39859" lon="1.1821">
        <ele>283</ele>
        <time>2021-02-09T11:15:42Z</time>
      </trkpt>
      <trkpt lat="44.39859" lon="1.18205">
        <ele>283</ele>
        <time>2021-02-09T11:15:45Z</time>
      </trkpt>
      <trkpt lat="44.39858" lon="1.18198">
        <ele>283</ele>
        <time>2021-02-09T11:15:50Z</time>
      </trkpt>
      <trkpt lat="44.39859" lon="1.18192">
        <ele>283</ele>
        <time>2021-02-09T11:15:54Z</time>
      </trkpt>
      <trkpt lat="44.39856" lon="1.18183">
        <ele>283</ele>
        <time>2021-02-09T11:15:59Z</time>
      </trkpt>
      <trkpt lat="44.39857" lon="1.18167">
        <ele>281</ele>
        <time>2021-02-09T11:16:08Z</time>
      </trkpt>
      <trkpt lat="44.39859" lon="1.18163">
        <ele>281</ele>
        <time>2021-02-09T11:16:10Z</time>
      </trkpt>
      <trkpt lat="44.39864" lon="1.18137">
        <ele>285</ele>
        <time>2021-02-09T11:16:24Z</time>
      </trkpt>
      <trkpt lat="44.39866" lon="1.18134">
        <ele>285</ele>
        <time>2021-02-09T11:16:26Z</time>
      </trkpt>
      <trkpt lat="44.39868" lon="1.18131">
        <ele>285</ele>
        <time>2021-02-09T11:16:28Z</time>
      </trkpt>
      <trkpt lat="44.39869" lon="1.18129">
        <ele>285</ele>
        <time>2021-02-09T11:16:30Z</time>
      </trkpt>
      <trkpt lat="44.39871" lon="1.18123">
        <ele>285</ele>
        <time>2021-02-09T11:16:34Z</time>
      </trkpt>
      <trkpt lat="44.39872" lon="1.18119">
        <ele>285</ele>
        <time>2021-02-09T11:16:36Z</time>
      </trkpt>
      <trkpt lat="44.39876" lon="1.18114">
        <ele>284</ele>
        <time>2021-02-09T11:16:41Z</time>
      </trkpt>
      <trkpt lat="44.39882" lon="1.18104">
        <ele>283</ele>
        <time>2021-02-09T11:16:49Z</time>
      </trkpt>
      <trkpt lat="44.3989" lon="1.18096">
        <ele>282</ele>
        <time>2021-02-09T11:16:57Z</time>
      </trkpt>
      <trkpt lat="44.39899" lon="1.18089">
        <ele>280</ele>
        <time>2021-02-09T11:17:05Z</time>
      </trkpt>
      <trkpt lat="44.39902" lon="1.18085">
        <ele>279</ele>
        <time>2021-02-09T11:17:09Z</time>
      </trkpt>
      <trkpt lat="44.39908" lon="1.18084">
        <ele>278</ele>
        <time>2021-02-09T11:17:14Z</time>
      </trkpt>
      <trkpt lat="44.39912" lon="1.1808">
        <ele>277</ele>
        <time>2021-02-09T11:17:18Z</time>
      </trkpt>
      <trkpt lat="44.39915" lon="1.18079">
        <ele>277</ele>
        <time>2021-02-09T11:17:21Z</time>
      </trkpt>
      <trkpt lat="44.39917" lon="1.18078">
        <ele>277</ele>
        <time>2021-02-09T11:17:23Z</time>
      </trkpt>
      <trkpt lat="44.39919" lon="1.18075">
        <ele>276</ele>
        <time>2021-02-09T11:17:25Z</time>
      </trkpt>
      <trkpt lat="44.39921" lon="1.1807">
        <ele>276</ele>
        <time>2021-02-09T11:17:28Z</time>
      </trkpt>
      <trkpt lat="44.39922" lon="1.18066">
        <ele>275</ele>
        <time>2021-02-09T11:17:30Z</time>
      </trkpt>
      <trkpt lat="44.39921" lon="1.18056">
        <ele>276</ele>
        <time>2021-02-09T11:17:36Z</time>
      </trkpt>
      <trkpt lat="44.39921" lon="1.18052">
        <ele>276</ele>
        <time>2021-02-09T11:17:38Z</time>
      </trkpt>
      <trkpt lat="44.39913" lon="1.18036">
        <ele>276</ele>
        <time>2021-02-09T11:17:48Z</time>
      </trkpt>
      <trkpt lat="44.39911" lon="1.18021">
        <ele>274</ele>
        <time>2021-02-09T11:17:56Z</time>
      </trkpt>
      <trkpt lat="44.39912" lon="1.18018">
        <ele>274</ele>
        <time>2021-02-09T11:17:58Z</time>
      </trkpt>
      <trkpt lat="44.39913" lon="1.18014">
        <ele>274</ele>
        <time>2021-02-09T11:18:00Z</time>
      </trkpt>
      <trkpt lat="44.39916" lon="1.18012">
        <ele>274</ele>
        <time>2021-02-09T11:18:02Z</time>
      </trkpt>
      <trkpt lat="44.39935" lon="1.17998">
        <ele>273</ele>
        <time>2021-02-09T11:18:18Z</time>
      </trkpt>
      <trkpt lat="44.39948" lon="1.17992">
        <ele>273</ele>
        <time>2021-02-09T11:18:28Z</time>
      </trkpt>
      <trkpt lat="44.39983" lon="1.17965">
        <ele>270</ele>
        <time>2021-02-09T11:18:59Z</time>
      </trkpt>
      <trkpt lat="44.39998" lon="1.17958">
        <ele>271</ele>
        <time>2021-02-09T11:19:10Z</time>
      </trkpt>
      <trkpt lat="44.40004" lon="1.17957">
        <ele>271</ele>
        <time>2021-02-09T11:19:15Z</time>
      </trkpt>
      <trkpt lat="44.40009" lon="1.17954">
        <ele>271</ele>
        <time>2021-02-09T11:19:19Z</time>
      </trkpt>
      <trkpt lat="44.40016" lon="1.17946">
        <ele>272</ele>
        <time>2021-02-09T11:19:26Z</time>
      </trkpt>
      <trkpt lat="44.40045" lon="1.17928">
        <ele>270</ele>
        <time>2021-02-09T11:19:51Z</time>
      </trkpt>
      <trkpt lat="44.40061" lon="1.17924">
        <ele>267</ele>
        <time>2021-02-09T11:20:04Z</time>
      </trkpt>
      <trkpt lat="44.40064" lon="1.17924">
        <ele>268</ele>
        <time>2021-02-09T11:20:06Z</time>
      </trkpt>
      <trkpt lat="44.40068" lon="1.17925">
        <ele>268</ele>
        <time>2021-02-09T11:20:08Z</time>
      </trkpt>
      <trkpt lat="44.40072" lon="1.17924">
        <ele>269</ele>
        <time>2021-02-09T11:20:10Z</time>
      </trkpt>
      <trkpt lat="44.40074" lon="1.17923">
        <ele>269</ele>
        <time>2021-02-09T11:20:12Z</time>
      </trkpt>
      <trkpt lat="44.40077" lon="1.17923">
        <ele>270</ele>
        <time>2021-02-09T11:20:14Z</time>
      </trkpt>
      <trkpt lat="44.40082" lon="1.17922">
        <ele>271</ele>
        <time>2021-02-09T11:20:18Z</time>
      </trkpt>
      <trkpt lat="44.40085" lon="1.17922">
        <ele>272</ele>
        <time>2021-02-09T11:20:20Z</time>
      </trkpt>
      <trkpt lat="44.40088" lon="1.17922">
        <ele>272</ele>
        <time>2021-02-09T11:20:22Z</time>
      </trkpt>
      <trkpt lat="44.40088" lon="1.17918">
        <ele>272</ele>
        <time>2021-02-09T11:20:27Z</time>
      </trkpt>
      <trkpt lat="44.40086" lon="1.17918">
        <ele>273</ele>
        <time>2021-02-09T11:20:30Z</time>
      </trkpt>
      <trkpt lat="44.40085" lon="1.17921">
        <ele>273</ele>
        <time>2021-02-09T11:20:32Z</time>
      </trkpt>
      <trkpt lat="44.40087" lon="1.17923">
        <ele>273</ele>
        <time>2021-02-09T11:20:34Z</time>
      </trkpt>
      <trkpt lat="44.40092" lon="1.17925">
        <ele>273</ele>
        <time>2021-02-09T11:20:38Z</time>
      </trkpt>
      <trkpt lat="44.40111" lon="1.17928">
        <ele>272</ele>
        <time>2021-02-09T11:20:54Z</time>
      </trkpt>
      <trkpt lat="44.40113" lon="1.17928">
        <ele>272</ele>
        <time>2021-02-09T11:20:56Z</time>
      </trkpt>
      <trkpt lat="44.40115" lon="1.17928">
        <ele>271</ele>
        <time>2021-02-09T11:21:11Z</time>
      </trkpt>
      <trkpt lat="44.40117" lon="1.17929">
        <ele>270</ele>
        <time>2021-02-09T11:21:13Z</time>
      </trkpt>
      <trkpt lat="44.40125" lon="1.1793">
        <ele>269</ele>
        <time>2021-02-09T11:21:19Z</time>
      </trkpt>
      <trkpt lat="44.40155" lon="1.17933">
        <ele>270</ele>
        <time>2021-02-09T11:31:52Z</time>
      </trkpt>
      <trkpt lat="44.4017" lon="1.17932">
        <ele>270</ele>
        <time>2021-02-09T11:32:04Z</time>
      </trkpt>
      <trkpt lat="44.40178" lon="1.17933">
        <ele>271</ele>
        <time>2021-02-09T11:32:10Z</time>
      </trkpt>
      <trkpt lat="44.40191" lon="1.17933">
        <ele>271</ele>
        <time>2021-02-09T11:32:18Z</time>
      </trkpt>
      <trkpt lat="44.40212" lon="1.17939">
        <ele>270</ele>
        <time>2021-02-09T11:32:34Z</time>
      </trkpt>
      <trkpt lat="44.40242" lon="1.1794">
        <ele>268</ele>
        <time>2021-02-09T11:32:56Z</time>
      </trkpt>
      <trkpt lat="44.40285" lon="1.1795">
        <ele>268</ele>
        <time>2021-02-09T11:33:26Z</time>
      </trkpt>
      <trkpt lat="44.40328" lon="1.17966">
        <ele>268</ele>
        <time>2021-02-09T11:33:58Z</time>
      </trkpt>
      <trkpt lat="44.4037" lon="1.17986">
        <ele>267</ele>
        <time>2021-02-09T11:34:31Z</time>
      </trkpt>
      <trkpt lat="44.40384" lon="1.17989">
        <ele>267</ele>
        <time>2021-02-09T11:34:41Z</time>
      </trkpt>
      <trkpt lat="44.40389" lon="1.1799">
        <ele>267</ele>
        <time>2021-02-09T11:34:45Z</time>
      </trkpt>
      <trkpt lat="44.40398" lon="1.17988">
        <ele>267</ele>
        <time>2021-02-09T11:34:51Z</time>
      </trkpt>
      <trkpt lat="44.40444" lon="1.1798">
        <ele>266</ele>
        <time>2021-02-09T11:35:21Z</time>
      </trkpt>
      <trkpt lat="44.40499" lon="1.17965">
        <ele>261</ele>
        <time>2021-02-09T11:35:41Z</time>
      </trkpt>
      <trkpt lat="44.40503" lon="1.17964">
        <ele>261</ele>
        <time>2021-02-09T11:35:43Z</time>
      </trkpt>
      <trkpt lat="44.40516" lon="1.17944">
        <ele>266</ele>
        <time>2021-02-09T11:35:56Z</time>
      </trkpt>
      <trkpt lat="44.40521" lon="1.17938">
        <ele>266</ele>
        <time>2021-02-09T11:36:02Z</time>
      </trkpt>
      <trkpt lat="44.40523" lon="1.17936">
        <ele>265</ele>
        <time>2021-02-09T11:36:04Z</time>
      </trkpt>
      <trkpt lat="44.40537" lon="1.17931">
        <ele>265</ele>
        <time>2021-02-09T11:36:16Z</time>
      </trkpt>
      <trkpt lat="44.4054" lon="1.1793">
        <ele>265</ele>
        <time>2021-02-09T11:36:18Z</time>
      </trkpt>
      <trkpt lat="44.40543" lon="1.1793">
        <ele>265</ele>
        <time>2021-02-09T11:36:21Z</time>
      </trkpt>
      <trkpt lat="44.40546" lon="1.17928">
        <ele>265</ele>
        <time>2021-02-09T11:36:23Z</time>
      </trkpt>
      <trkpt lat="44.40548" lon="1.17929">
        <ele>265</ele>
        <time>2021-02-09T11:36:25Z</time>
      </trkpt>
      <trkpt lat="44.40551" lon="1.17928">
        <ele>265</ele>
        <time>2021-02-09T11:36:29Z</time>
      </trkpt>
      <trkpt lat="44.40556" lon="1.17925">
        <ele>265</ele>
        <time>2021-02-09T11:36:31Z</time>
      </trkpt>
      <trkpt lat="44.4056" lon="1.17924">
        <ele>266</ele>
        <time>2021-02-09T11:36:33Z</time>
      </trkpt>
      <trkpt lat="44.40564" lon="1.17923">
        <ele>265</ele>
        <time>2021-02-09T11:36:35Z</time>
      </trkpt>
      <trkpt lat="44.4057" lon="1.17922">
        <ele>265</ele>
        <time>2021-02-09T11:36:37Z</time>
      </trkpt>
      <trkpt lat="44.40577" lon="1.1792">
        <ele>265</ele>
        <time>2021-02-09T11:36:49Z</time>
      </trkpt>
      <trkpt lat="44.40593" lon="1.17913">
        <ele>264</ele>
        <time>2021-02-09T11:36:53Z</time>
      </trkpt>
      <trkpt lat="44.40616" lon="1.17894">
        <ele>263</ele>
        <time>2021-02-09T11:37:03Z</time>
      </trkpt>
      <trkpt lat="44.40628" lon="1.17884">
        <ele>265</ele>
        <time>2021-02-09T11:37:10Z</time>
      </trkpt>
      <trkpt lat="44.40632" lon="1.17881">
        <ele>265</ele>
        <time>2021-02-09T11:37:12Z</time>
      </trkpt>
      <trkpt lat="44.40635" lon="1.1788">
        <ele>267</ele>
        <time>2021-02-09T11:37:15Z</time>
      </trkpt>
      <trkpt lat="44.40638" lon="1.17878">
        <ele>268</ele>
        <time>2021-02-09T11:37:18Z</time>
      </trkpt>
      <trkpt lat="44.40641" lon="1.17877">
        <ele>268</ele>
        <time>2021-02-09T11:37:20Z</time>
      </trkpt>
      <trkpt lat="44.40643" lon="1.17877">
        <ele>268</ele>
        <time>2021-02-09T11:37:22Z</time>
      </trkpt>
      <trkpt lat="44.40645" lon="1.17876">
        <ele>269</ele>
        <time>2021-02-09T11:37:24Z</time>
      </trkpt>
      <trkpt lat="44.40646" lon="1.17873">
        <ele>269</ele>
        <time>2021-02-09T11:37:26Z</time>
      </trkpt>
      <trkpt lat="44.40664" lon="1.17859">
        <ele>266</ele>
        <time>2021-02-09T11:37:37Z</time>
      </trkpt>
      <trkpt lat="44.40671" lon="1.17851">
        <ele>267</ele>
        <time>2021-02-09T11:37:40Z</time>
      </trkpt>
      <trkpt lat="44.4069" lon="1.17837">
        <ele>267</ele>
        <time>2021-02-09T11:37:47Z</time>
      </trkpt>
      <trkpt lat="44.40698" lon="1.17827">
        <ele>267</ele>
        <time>2021-02-09T11:37:50Z</time>
      </trkpt>
      <trkpt lat="44.40719" lon="1.17773">
        <ele>269</ele>
        <time>2021-02-09T11:38:04Z</time>
      </trkpt>
      <trkpt lat="44.40727" lon="1.17752">
        <ele>270</ele>
        <time>2021-02-09T11:38:09Z</time>
      </trkpt>
      <trkpt lat="44.40747" lon="1.17713">
        <ele>272</ele>
        <time>2021-02-09T11:38:20Z</time>
      </trkpt>
      <trkpt lat="44.40755" lon="1.17702">
        <ele>272</ele>
        <time>2021-02-09T11:38:24Z</time>
      </trkpt>
      <trkpt lat="44.40787" lon="1.17682">
        <ele>275</ele>
        <time>2021-02-09T11:38:36Z</time>
      </trkpt>
      <trkpt lat="44.40827" lon="1.17645">
        <ele>275</ele>
        <time>2021-02-09T11:38:53Z</time>
      </trkpt>
      <trkpt lat="44.4083" lon="1.17642">
        <ele>276</ele>
        <time>2021-02-09T11:38:55Z</time>
      </trkpt>
      <trkpt lat="44.40831" lon="1.17638">
        <ele>277</ele>
        <time>2021-02-09T11:38:57Z</time>
      </trkpt>
      <trkpt lat="44.40847" lon="1.17604">
        <ele>279</ele>
        <time>2021-02-09T11:39:27Z</time>
      </trkpt>
      <trkpt lat="44.40851" lon="1.17598">
        <ele>277</ele>
        <time>2021-02-09T11:39:31Z</time>
      </trkpt>
      <trkpt lat="44.40852" lon="1.17595">
        <ele>276</ele>
        <time>2021-02-09T11:39:33Z</time>
      </trkpt>
      <trkpt lat="44.40854" lon="1.17592">
        <ele>276</ele>
        <time>2021-02-09T11:39:35Z</time>
      </trkpt>
      <trkpt lat="44.4086" lon="1.17576">
        <ele>276</ele>
        <time>2021-02-09T11:39:46Z</time>
      </trkpt>
      <trkpt lat="44.40864" lon="1.1757">
        <ele>275</ele>
        <time>2021-02-09T11:39:50Z</time>
      </trkpt>
      <trkpt lat="44.40868" lon="1.17566">
        <ele>275</ele>
        <time>2021-02-09T11:39:54Z</time>
      </trkpt>
      <trkpt lat="44.40873" lon="1.17561">
        <ele>277</ele>
        <time>2021-02-09T11:39:59Z</time>
      </trkpt>
      <trkpt lat="44.40879" lon="1.17555">
        <ele>277</ele>
        <time>2021-02-09T11:40:04Z</time>
      </trkpt>
      <trkpt lat="44.40884" lon="1.17554">
        <ele>277</ele>
        <time>2021-02-09T11:40:08Z</time>
      </trkpt>
      <trkpt lat="44.40886" lon="1.17553">
        <ele>277</ele>
        <time>2021-02-09T11:40:10Z</time>
      </trkpt>
      <trkpt lat="44.4089" lon="1.17544">
        <ele>277</ele>
        <time>2021-02-09T11:40:16Z</time>
      </trkpt>
      <trkpt lat="44.40907" lon="1.17466">
        <ele>273</ele>
        <time>2021-02-09T11:40:40Z</time>
      </trkpt>
      <trkpt lat="44.40912" lon="1.17458">
        <ele>272</ele>
        <time>2021-02-09T11:40:43Z</time>
      </trkpt>
      <trkpt lat="44.40912" lon="1.17454">
        <ele>272</ele>
        <time>2021-02-09T11:40:44Z</time>
      </trkpt>
      <trkpt lat="44.40914" lon="1.17451">
        <ele>271</ele>
        <time>2021-02-09T11:40:45Z</time>
      </trkpt>
      <trkpt lat="44.40915" lon="1.1745">
        <ele>271</ele>
        <time>2021-02-09T11:40:46Z</time>
      </trkpt>
      <trkpt lat="44.40921" lon="1.17451">
        <ele>272</ele>
        <time>2021-02-09T11:40:50Z</time>
      </trkpt>
      <trkpt lat="44.40926" lon="1.17466">
        <ele>274</ele>
        <time>2021-02-09T11:41:00Z</time>
      </trkpt>
      <trkpt lat="44.40931" lon="1.17472">
        <ele>273</ele>
        <time>2021-02-09T11:41:05Z</time>
      </trkpt>
      <trkpt lat="44.40936" lon="1.17477">
        <ele>272</ele>
        <time>2021-02-09T11:41:10Z</time>
      </trkpt>
      <trkpt lat="44.40948" lon="1.17492">
        <ele>271</ele>
        <time>2021-02-09T11:41:25Z</time>
      </trkpt>
      <trkpt lat="44.40954" lon="1.17502">
        <ele>271</ele>
        <time>2021-02-09T11:41:32Z</time>
      </trkpt>
      <trkpt lat="44.40956" lon="1.17509">
        <ele>270</ele>
        <time>2021-02-09T11:41:36Z</time>
      </trkpt>
      <trkpt lat="44.40957" lon="1.17513">
        <ele>269</ele>
        <time>2021-02-09T11:41:40Z</time>
      </trkpt>
      <trkpt lat="44.40957" lon="1.17546">
        <ele>265</ele>
        <time>2021-02-09T11:42:11Z</time>
      </trkpt>
      <trkpt lat="44.40957" lon="1.17552">
        <ele>264</ele>
        <time>2021-02-09T11:42:14Z</time>
      </trkpt>
      <trkpt lat="44.40963" lon="1.17571">
        <ele>261</ele>
        <time>2021-02-09T11:42:24Z</time>
      </trkpt>
      <trkpt lat="44.40963" lon="1.1758">
        <ele>260</ele>
        <time>2021-02-09T11:42:26Z</time>
      </trkpt>
      <trkpt lat="44.40964" lon="1.17587">
        <ele>260</ele>
        <time>2021-02-09T11:42:28Z</time>
      </trkpt>
      <trkpt lat="44.40966" lon="1.17594">
        <ele>259</ele>
        <time>2021-02-09T11:42:30Z</time>
      </trkpt>
      <trkpt lat="44.40979" lon="1.1761">
        <ele>258</ele>
        <time>2021-02-09T11:42:38Z</time>
      </trkpt>
      <trkpt lat="44.40983" lon="1.17617">
        <ele>256</ele>
        <time>2021-02-09T11:42:40Z</time>
      </trkpt>
      <trkpt lat="44.40994" lon="1.17633">
        <ele>257</ele>
        <time>2021-02-09T11:42:48Z</time>
      </trkpt>
      <trkpt lat="44.41022" lon="1.17658">
        <ele>260</ele>
        <time>2021-02-09T11:43:20Z</time>
      </trkpt>
      <trkpt lat="44.41032" lon="1.17664">
        <ele>259</ele>
        <time>2021-02-09T11:43:29Z</time>
      </trkpt>
      <trkpt lat="44.41033" lon="1.17665">
        <ele>259</ele>
        <time>2021-02-09T11:43:31Z</time>
      </trkpt>
      <trkpt lat="44.41036" lon="1.17666">
        <ele>258</ele>
        <time>2021-02-09T11:43:33Z</time>
      </trkpt>
      <trkpt lat="44.41044" lon="1.1767">
        <ele>258</ele>
        <time>2021-02-09T11:43:39Z</time>
      </trkpt>
      <trkpt lat="44.41046" lon="1.1767">
        <ele>258</ele>
        <time>2021-02-09T11:43:41Z</time>
      </trkpt>
      <trkpt lat="44.41058" lon="1.17665">
        <ele>257</ele>
        <time>2021-02-09T11:43:49Z</time>
      </trkpt>
      <trkpt lat="44.41066" lon="1.17669">
        <ele>257</ele>
        <time>2021-02-09T11:43:55Z</time>
      </trkpt>
      <trkpt lat="44.41072" lon="1.17676">
        <ele>257</ele>
        <time>2021-02-09T11:44:01Z</time>
      </trkpt>
      <trkpt lat="44.41076" lon="1.17686">
        <ele>258</ele>
        <time>2021-02-09T11:44:07Z</time>
      </trkpt>
      <trkpt lat="44.41084" lon="1.17695">
        <ele>258</ele>
        <time>2021-02-09T11:44:15Z</time>
      </trkpt>
      <trkpt lat="44.41089" lon="1.177">
        <ele>258</ele>
        <time>2021-02-09T11:44:19Z</time>
      </trkpt>
      <trkpt lat="44.41091" lon="1.17701">
        <ele>259</ele>
        <time>2021-02-09T11:44:21Z</time>
      </trkpt>
      <trkpt lat="44.4109" lon="1.17704">
        <ele>259</ele>
        <time>2021-02-09T11:44:31Z</time>
      </trkpt>
      <trkpt lat="44.41093" lon="1.17704">
        <ele>259</ele>
        <time>2021-02-09T11:44:42Z</time>
      </trkpt>
      <trkpt lat="44.41115" lon="1.1771">
        <ele>260</ele>
        <time>2021-02-09T11:45:00Z</time>
      </trkpt>
      <trkpt lat="44.41122" lon="1.17714">
        <ele>259</ele>
        <time>2021-02-09T11:45:06Z</time>
      </trkpt>
      <trkpt lat="44.41125" lon="1.17715">
        <ele>259</ele>
        <time>2021-02-09T11:45:08Z</time>
      </trkpt>
      <trkpt lat="44.4113" lon="1.17715">
        <ele>260</ele>
        <time>2021-02-09T11:45:12Z</time>
      </trkpt>
      <trkpt lat="44.41135" lon="1.17711">
        <ele>260</ele>
        <time>2021-02-09T11:45:17Z</time>
      </trkpt>
      <trkpt lat="44.41143" lon="1.1771">
        <ele>261</ele>
        <time>2021-02-09T11:45:23Z</time>
      </trkpt>
      <trkpt lat="44.41146" lon="1.17708">
        <ele>261</ele>
        <time>2021-02-09T11:45:25Z</time>
      </trkpt>
      <trkpt lat="44.41151" lon="1.17706">
        <ele>262</ele>
        <time>2021-02-09T11:45:30Z</time>
      </trkpt>
      <trkpt lat="44.41154" lon="1.17703">
        <ele>263</ele>
        <time>2021-02-09T11:45:34Z</time>
      </trkpt>
      <trkpt lat="44.41162" lon="1.177">
        <ele>263</ele>
        <time>2021-02-09T11:45:41Z</time>
      </trkpt>
      <trkpt lat="44.41164" lon="1.17699">
        <ele>263</ele>
        <time>2021-02-09T11:45:43Z</time>
      </trkpt>
      <trkpt lat="44.41171" lon="1.1769">
        <ele>264</ele>
        <time>2021-02-09T11:45:51Z</time>
      </trkpt>
      <trkpt lat="44.41203" lon="1.17671">
        <ele>267</ele>
        <time>2021-02-09T11:46:21Z</time>
      </trkpt>
      <trkpt lat="44.41211" lon="1.17667">
        <ele>267</ele>
        <time>2021-02-09T11:46:28Z</time>
      </trkpt>
      <trkpt lat="44.41222" lon="1.1767">
        <ele>266</ele>
        <time>2021-02-09T11:46:36Z</time>
      </trkpt>
      <trkpt lat="44.41226" lon="1.17672">
        <ele>266</ele>
        <time>2021-02-09T11:46:40Z</time>
      </trkpt>
      <trkpt lat="44.41229" lon="1.17673">
        <ele>266</ele>
        <time>2021-02-09T11:46:42Z</time>
      </trkpt>
      <trkpt lat="44.41231" lon="1.17674">
        <ele>266</ele>
        <time>2021-02-09T11:46:44Z</time>
      </trkpt>
      <trkpt lat="44.4124" lon="1.17668">
        <ele>266</ele>
        <time>2021-02-09T11:46:52Z</time>
      </trkpt>
      <trkpt lat="44.41248" lon="1.17661">
        <ele>267</ele>
        <time>2021-02-09T11:47:00Z</time>
      </trkpt>
      <trkpt lat="44.4125" lon="1.17657">
        <ele>266</ele>
        <time>2021-02-09T11:47:04Z</time>
      </trkpt>
      <trkpt lat="44.41255" lon="1.17645">
        <ele>268</ele>
        <time>2021-02-09T11:47:12Z</time>
      </trkpt>
      <trkpt lat="44.41258" lon="1.17641">
        <ele>268</ele>
        <time>2021-02-09T11:47:16Z</time>
      </trkpt>
      <trkpt lat="44.41264" lon="1.1764">
        <ele>268</ele>
        <time>2021-02-09T11:47:20Z</time>
      </trkpt>
      <trkpt lat="44.41266" lon="1.1764">
        <ele>267</ele>
        <time>2021-02-09T11:47:22Z</time>
      </trkpt>
      <trkpt lat="44.41268" lon="1.17637">
        <ele>266</ele>
        <time>2021-02-09T11:47:25Z</time>
      </trkpt>
      <trkpt lat="44.4127" lon="1.17634">
        <ele>266</ele>
        <time>2021-02-09T11:47:28Z</time>
      </trkpt>
      <trkpt lat="44.41272" lon="1.17632">
        <ele>266</ele>
        <time>2021-02-09T11:47:30Z</time>
      </trkpt>
      <trkpt lat="44.41275" lon="1.17634">
        <ele>266</ele>
        <time>2021-02-09T11:47:33Z</time>
      </trkpt>
      <trkpt lat="44.41278" lon="1.17637">
        <ele>266</ele>
        <time>2021-02-09T11:47:36Z</time>
      </trkpt>
      <trkpt lat="44.41279" lon="1.17641">
        <ele>266</ele>
        <time>2021-02-09T11:47:38Z</time>
      </trkpt>
      <trkpt lat="44.41279" lon="1.17644">
        <ele>266</ele>
        <time>2021-02-09T11:47:40Z</time>
      </trkpt>
      <trkpt lat="44.41289" lon="1.17649">
        <ele>264</ele>
        <time>2021-02-09T11:47:50Z</time>
      </trkpt>
      <trkpt lat="44.41292" lon="1.17653">
        <ele>263</ele>
        <time>2021-02-09T11:47:53Z</time>
      </trkpt>
      <trkpt lat="44.41296" lon="1.17662">
        <ele>263</ele>
        <time>2021-02-09T11:47:59Z</time>
      </trkpt>
      <trkpt lat="44.41298" lon="1.17668">
        <ele>263</ele>
        <time>2021-02-09T11:48:02Z</time>
      </trkpt>
      <trkpt lat="44.41298" lon="1.17674">
        <ele>262</ele>
        <time>2021-02-09T11:48:05Z</time>
      </trkpt>
      <trkpt lat="44.41295" lon="1.17689">
        <ele>263</ele>
        <time>2021-02-09T11:48:15Z</time>
      </trkpt>
      <trkpt lat="44.41295" lon="1.17694">
        <ele>263</ele>
        <time>2021-02-09T11:48:18Z</time>
      </trkpt>
      <trkpt lat="44.41311" lon="1.17708">
        <ele>260</ele>
        <time>2021-02-09T11:48:27Z</time>
      </trkpt>
      <trkpt lat="44.41315" lon="1.17709">
        <ele>260</ele>
        <time>2021-02-09T11:48:29Z</time>
      </trkpt>
      <trkpt lat="44.41327" lon="1.17704">
        <ele>257</ele>
        <time>2021-02-09T11:48:35Z</time>
      </trkpt>
      <trkpt lat="44.41349" lon="1.17703">
        <ele>254</ele>
        <time>2021-02-09T11:48:42Z</time>
      </trkpt>
      <trkpt lat="44.41355" lon="1.17701">
        <ele>254</ele>
        <time>2021-02-09T11:48:44Z</time>
      </trkpt>
      <trkpt lat="44.4137" lon="1.17686">
        <ele>254</ele>
        <time>2021-02-09T11:48:50Z</time>
      </trkpt>
      <trkpt lat="44.41381" lon="1.17669">
        <ele>254</ele>
        <time>2021-02-09T11:48:56Z</time>
      </trkpt>
      <trkpt lat="44.41384" lon="1.17666">
        <ele>256</ele>
        <time>2021-02-09T11:49:09Z</time>
      </trkpt>
      <trkpt lat="44.41389" lon="1.17661">
        <ele>259</ele>
        <time>2021-02-09T11:49:41Z</time>
      </trkpt>
      <trkpt lat="44.41392" lon="1.17651">
        <ele>260</ele>
        <time>2021-02-09T11:49:48Z</time>
      </trkpt>
      <trkpt lat="44.41396" lon="1.17642">
        <ele>260</ele>
        <time>2021-02-09T11:49:54Z</time>
      </trkpt>
      <trkpt lat="44.414" lon="1.17626">
        <ele>259</ele>
        <time>2021-02-09T11:50:04Z</time>
      </trkpt>
      <trkpt lat="44.41409" lon="1.17581">
        <ele>260</ele>
        <time>2021-02-09T11:50:29Z</time>
      </trkpt>
      <trkpt lat="44.41418" lon="1.17557">
        <ele>261</ele>
        <time>2021-02-09T11:50:45Z</time>
      </trkpt>
      <trkpt lat="44.4142" lon="1.17551">
        <ele>260</ele>
        <time>2021-02-09T11:50:49Z</time>
      </trkpt>
      <trkpt lat="44.41424" lon="1.17541">
        <ele>259</ele>
        <time>2021-02-09T11:51:03Z</time>
      </trkpt>
      <trkpt lat="44.41426" lon="1.17539">
        <ele>259</ele>
        <time>2021-02-09T11:51:05Z</time>
      </trkpt>
      <trkpt lat="44.4143" lon="1.1753">
        <ele>258</ele>
        <time>2021-02-09T11:51:12Z</time>
      </trkpt>
      <trkpt lat="44.41434" lon="1.17523">
        <ele>257</ele>
        <time>2021-02-09T11:51:17Z</time>
      </trkpt>
      <trkpt lat="44.41437" lon="1.17518">
        <ele>256</ele>
        <time>2021-02-09T11:51:30Z</time>
      </trkpt>
      <trkpt lat="44.41439" lon="1.17517">
        <ele>256</ele>
        <time>2021-02-09T11:51:35Z</time>
      </trkpt>
      <trkpt lat="44.41445" lon="1.17514">
        <ele>258</ele>
        <time>2021-02-09T11:51:43Z</time>
      </trkpt>
      <trkpt lat="44.41447" lon="1.17514">
        <ele>257</ele>
        <time>2021-02-09T11:51:45Z</time>
      </trkpt>
      <trkpt lat="44.41449" lon="1.17516">
        <ele>258</ele>
        <time>2021-02-09T11:51:47Z</time>
      </trkpt>
      <trkpt lat="44.41457" lon="1.17535">
        <ele>255</ele>
        <time>2021-02-09T11:51:59Z</time>
      </trkpt>
      <trkpt lat="44.4146" lon="1.17545">
        <ele>253</ele>
        <time>2021-02-09T11:52:02Z</time>
      </trkpt>
      <trkpt lat="44.41465" lon="1.17558">
        <ele>253</ele>
        <time>2021-02-09T11:52:08Z</time>
      </trkpt>
      <trkpt lat="44.41485" lon="1.17578">
        <ele>252</ele>
        <time>2021-02-09T11:52:26Z</time>
      </trkpt>
      <trkpt lat="44.41489" lon="1.17579">
        <ele>251</ele>
        <time>2021-02-09T11:52:29Z</time>
      </trkpt>
      <trkpt lat="44.41491" lon="1.1758">
        <ele>250</ele>
        <time>2021-02-09T11:52:31Z</time>
      </trkpt>
      <trkpt lat="44.41519" lon="1.17592">
        <ele>248</ele>
        <time>2021-02-09T11:52:53Z</time>
      </trkpt>
      <trkpt lat="44.41532" lon="1.17596">
        <ele>247</ele>
        <time>2021-02-09T11:53:03Z</time>
      </trkpt>
      <trkpt lat="44.41537" lon="1.17596">
        <ele>248</ele>
        <time>2021-02-09T11:53:10Z</time>
      </trkpt>
      <trkpt lat="44.41541" lon="1.17595">
        <ele>248</ele>
        <time>2021-02-09T11:53:14Z</time>
      </trkpt>
      <trkpt lat="44.41543" lon="1.17595">
        <ele>249</ele>
        <time>2021-02-09T11:53:16Z</time>
      </trkpt>
      <trkpt lat="44.41548" lon="1.17596">
        <ele>249</ele>
        <time>2021-02-09T11:53:20Z</time>
      </trkpt>
      <trkpt lat="44.41552" lon="1.17594">
        <ele>250</ele>
        <time>2021-02-09T11:53:24Z</time>
      </trkpt>
      <trkpt lat="44.41569" lon="1.17581">
        <ele>253</ele>
        <time>2021-02-09T11:53:38Z</time>
      </trkpt>
      <trkpt lat="44.41581" lon="1.17578">
        <ele>253</ele>
        <time>2021-02-09T11:53:48Z</time>
      </trkpt>
      <trkpt lat="44.41589" lon="1.1758">
        <ele>253</ele>
        <time>2021-02-09T11:53:54Z</time>
      </trkpt>
      <trkpt lat="44.41612" lon="1.17589">
        <ele>251</ele>
        <time>2021-02-09T11:54:11Z</time>
      </trkpt>
      <trkpt lat="44.41615" lon="1.1759">
        <ele>251</ele>
        <time>2021-02-09T11:54:12Z</time>
      </trkpt>
      <trkpt lat="44.41621" lon="1.17588">
        <ele>250</ele>
        <time>2021-02-09T11:54:14Z</time>
      </trkpt>
      <trkpt lat="44.41645" lon="1.17573">
        <ele>249</ele>
        <time>2021-02-09T11:54:22Z</time>
      </trkpt>
      <trkpt lat="44.41704" lon="1.17512">
        <ele>248</ele>
        <time>2021-02-09T11:54:45Z</time>
      </trkpt>
      <trkpt lat="44.41711" lon="1.17495">
        <ele>249</ele>
        <time>2021-02-09T11:54:50Z</time>
      </trkpt>
      <trkpt lat="44.41717" lon="1.17486">
        <ele>250</ele>
        <time>2021-02-09T11:54:52Z</time>
      </trkpt>
      <trkpt lat="44.41732" lon="1.17471">
        <ele>251</ele>
        <time>2021-02-09T11:54:59Z</time>
      </trkpt>
      <trkpt lat="44.41749" lon="1.17444">
        <ele>254</ele>
        <time>2021-02-09T11:55:09Z</time>
      </trkpt>
      <trkpt lat="44.41778" lon="1.17412">
        <ele>255</ele>
        <time>2021-02-09T11:55:19Z</time>
      </trkpt>
      <trkpt lat="44.41844" lon="1.17349">
        <ele>254</ele>
        <time>2021-02-09T11:55:47Z</time>
      </trkpt>
      <trkpt lat="44.41911" lon="1.17269">
        <ele>248</ele>
        <time>2021-02-09T11:56:14Z</time>
      </trkpt>
      <trkpt lat="44.4193" lon="1.17246">
        <ele>249</ele>
        <time>2021-02-09T11:56:22Z</time>
      </trkpt>
      <trkpt lat="44.41931" lon="1.17242">
        <ele>249</ele>
        <time>2021-02-09T11:56:24Z</time>
      </trkpt>
      <trkpt lat="44.41933" lon="1.17241">
        <ele>248</ele>
        <time>2021-02-09T11:56:32Z</time>
      </trkpt>
      <trkpt lat="44.41933" lon="1.17244">
        <ele>249</ele>
        <time>2021-02-09T11:56:36Z</time>
      </trkpt>
      <trkpt lat="44.41924" lon="1.17249">
        <ele>250</ele>
        <time>2021-02-09T11:56:45Z</time>
      </trkpt>
      <trkpt lat="44.4192" lon="1.1725">
        <ele>251</ele>
        <time>2021-02-09T11:56:52Z</time>
      </trkpt>
      <trkpt lat="44.41918" lon="1.17251">
        <ele>251</ele>
        <time>2021-02-09T11:56:54Z</time>
      </trkpt>
      <trkpt lat="44.41917" lon="1.17252">
        <ele>252</ele>
        <time>2021-02-09T11:56:56Z</time>
      </trkpt>
      <trkpt lat="44.41915" lon="1.17252">
        <ele>251</ele>
        <time>2021-02-09T11:56:58Z</time>
      </trkpt>
      <trkpt lat="44.41912" lon="1.17252">
        <ele>250</ele>
        <time>2021-02-09T11:57:01Z</time>
      </trkpt>
      <trkpt lat="44.41888" lon="1.17263">
        <ele>247</ele>
        <time>2021-02-09T11:57:25Z</time>
      </trkpt>
      <trkpt lat="44.4187" lon="1.17275">
        <ele>244</ele>
        <time>2021-02-09T11:57:39Z</time>
      </trkpt>
      <trkpt lat="44.41869" lon="1.17277">
        <ele>243</ele>
        <time>2021-02-09T11:57:41Z</time>
      </trkpt>
      <trkpt lat="44.41848" lon="1.17291">
        <ele>239</ele>
        <time>2021-02-09T11:58:01Z</time>
      </trkpt>
      <trkpt lat="44.41841" lon="1.17296">
        <ele>238</ele>
        <time>2021-02-09T11:58:07Z</time>
      </trkpt>
      <trkpt lat="44.41823" lon="1.17308">
        <ele>237</ele>
        <time>2021-02-09T11:58:39Z</time>
      </trkpt>
      <trkpt lat="44.41778" lon="1.17344">
        <ele>231</ele>
        <time>2021-02-09T11:59:09Z</time>
      </trkpt>
      <trkpt lat="44.41759" lon="1.17362">
        <ele>227</ele>
        <time>2021-02-09T11:59:17Z</time>
      </trkpt>
      <trkpt lat="44.41749" lon="1.17371">
        <ele>227</ele>
        <time>2021-02-09T11:59:25Z</time>
      </trkpt>
      <trkpt lat="44.41719" lon="1.17394">
        <ele>220</ele>
        <time>2021-02-09T11:59:50Z</time>
      </trkpt>
      <trkpt lat="44.41709" lon="1.17398">
        <ele>217</ele>
        <time>2021-02-09T11:59:59Z</time>
      </trkpt>
      <trkpt lat="44.41706" lon="1.17398">
        <ele>217</ele>
        <time>2021-02-09T12:00:02Z</time>
      </trkpt>
      <trkpt lat="44.417" lon="1.17392">
        <ele>215</ele>
        <time>2021-02-09T12:00:10Z</time>
      </trkpt>
      <trkpt lat="44.41697" lon="1.17386">
        <ele>214</ele>
        <time>2021-02-09T12:00:13Z</time>
      </trkpt>
      <trkpt lat="44.41695" lon="1.17381">
        <ele>212</ele>
        <time>2021-02-09T12:00:16Z</time>
      </trkpt>
      <trkpt lat="44.41694" lon="1.17375">
        <ele>211</ele>
        <time>2021-02-09T12:00:21Z</time>
      </trkpt>
      <trkpt lat="44.41683" lon="1.17346">
        <ele>206</ele>
        <time>2021-02-09T12:00:35Z</time>
      </trkpt>
      <trkpt lat="44.4168" lon="1.17342">
        <ele>205</ele>
        <time>2021-02-09T12:00:46Z</time>
      </trkpt>
      <trkpt lat="44.41676" lon="1.17339">
        <ele>204</ele>
        <time>2021-02-09T12:00:49Z</time>
      </trkpt>
      <trkpt lat="44.41674" lon="1.17335">
        <ele>203</ele>
        <time>2021-02-09T12:00:53Z</time>
      </trkpt>
      <trkpt lat="44.41671" lon="1.17329">
        <ele>202</ele>
        <time>2021-02-09T12:00:56Z</time>
      </trkpt>
      <trkpt lat="44.41646" lon="1.17297">
        <ele>194</ele>
        <time>2021-02-09T12:01:26Z</time>
      </trkpt>
      <trkpt lat="44.41638" lon="1.17283">
        <ele>192</ele>
        <time>2021-02-09T12:01:37Z</time>
      </trkpt>
      <trkpt lat="44.41634" lon="1.17277">
        <ele>192</ele>
        <time>2021-02-09T12:01:42Z</time>
      </trkpt>
      <trkpt lat="44.4163" lon="1.17273">
        <ele>190</ele>
        <time>2021-02-09T12:01:46Z</time>
      </trkpt>
      <trkpt lat="44.41618" lon="1.17239">
        <ele>187</ele>
        <time>2021-02-09T12:02:02Z</time>
      </trkpt>
      <trkpt lat="44.41612" lon="1.17233">
        <ele>187</ele>
        <time>2021-02-09T12:02:06Z</time>
      </trkpt>
      <trkpt lat="44.41602" lon="1.17229">
        <ele>189</ele>
        <time>2021-02-09T12:02:14Z</time>
      </trkpt>
      <trkpt lat="44.41596" lon="1.17228">
        <ele>189</ele>
        <time>2021-02-09T12:02:18Z</time>
      </trkpt>
      <trkpt lat="44.41592" lon="1.17222">
        <ele>188</ele>
        <time>2021-02-09T12:02:22Z</time>
      </trkpt>
      <trkpt lat="44.41572" lon="1.17195">
        <ele>186</ele>
        <time>2021-02-09T12:02:37Z</time>
      </trkpt>
      <trkpt lat="44.41566" lon="1.17183">
        <ele>184</ele>
        <time>2021-02-09T12:02:41Z</time>
      </trkpt>
      <trkpt lat="44.41547" lon="1.17153">
        <ele>182</ele>
        <time>2021-02-09T12:02:51Z</time>
      </trkpt>
      <trkpt lat="44.41544" lon="1.17147">
        <ele>182</ele>
        <time>2021-02-09T12:02:53Z</time>
      </trkpt>
      <trkpt lat="44.41543" lon="1.1714">
        <ele>182</ele>
        <time>2021-02-09T12:02:56Z</time>
      </trkpt>
      <trkpt lat="44.41563" lon="1.17118">
        <ele>183</ele>
        <time>2021-02-09T12:03:06Z</time>
      </trkpt>
      <trkpt lat="44.4159" lon="1.17098">
        <ele>185</ele>
        <time>2021-02-09T12:03:16Z</time>
      </trkpt>
      <trkpt lat="44.41649" lon="1.1705">
        <ele>183</ele>
        <time>2021-02-09T12:03:39Z</time>
      </trkpt>
      <trkpt lat="44.41703" lon="1.17025">
        <ele>179</ele>
        <time>2021-02-09T12:04:10Z</time>
      </trkpt>
      <trkpt lat="44.41709" lon="1.17012">
        <ele>178</ele>
        <time>2021-02-09T12:04:13Z</time>
      </trkpt>
      <trkpt lat="44.41712" lon="1.17001">
        <ele>177</ele>
        <time>2021-02-09T12:04:15Z</time>
      </trkpt>
      <trkpt lat="44.41706" lon="1.16934">
        <ele>180</ele>
        <time>2021-02-09T12:04:29Z</time>
      </trkpt>
      <trkpt lat="44.41695" lon="1.16852">
        <ele>178</ele>
        <time>2021-02-09T12:04:48Z</time>
      </trkpt>
      <trkpt lat="44.41685" lon="1.16791">
        <ele>178</ele>
        <time>2021-02-09T12:05:02Z</time>
      </trkpt>
      <trkpt lat="44.41678" lon="1.16763">
        <ele>174</ele>
        <time>2021-02-09T12:07:04Z</time>
      </trkpt>
      <trkpt lat="44.41684" lon="1.16761">
        <ele>173</ele>
        <time>2021-02-09T12:07:07Z</time>
      </trkpt>
      <trkpt lat="44.4173" lon="1.1675">
        <ele>174</ele>
        <time>2021-02-09T12:07:39Z</time>
      </trkpt>
      <trkpt lat="44.41774" lon="1.16736">
        <ele>171</ele>
        <time>2021-02-09T12:08:11Z</time>
      </trkpt>
      <trkpt lat="44.41792" lon="1.16732">
        <ele>170</ele>
        <time>2021-02-09T12:08:25Z</time>
      </trkpt>
      <trkpt lat="44.41801" lon="1.16726">
        <ele>170</ele>
        <time>2021-02-09T12:08:33Z</time>
      </trkpt>
      <trkpt lat="44.41802" lon="1.16723">
        <ele>169</ele>
        <time>2021-02-09T12:08:35Z</time>
      </trkpt>
      <trkpt lat="44.41803" lon="1.1672">
        <ele>169</ele>
        <time>2021-02-09T12:08:38Z</time>
      </trkpt>
      <trkpt lat="44.41805" lon="1.16714">
        <ele>170</ele>
        <time>2021-02-09T12:08:50Z</time>
      </trkpt>
      <trkpt lat="44.41806" lon="1.16709">
        <ele>170</ele>
        <time>2021-02-09T12:08:54Z</time>
      </trkpt>
      <trkpt lat="44.41798" lon="1.16696">
        <ele>168</ele>
        <time>2021-02-09T12:09:03Z</time>
      </trkpt>
      <trkpt lat="44.41792" lon="1.16684">
        <ele>165</ele>
        <time>2021-02-09T12:09:12Z</time>
      </trkpt>
      <trkpt lat="44.4179" lon="1.16678">
        <ele>164</ele>
        <time>2021-02-09T12:09:15Z</time>
      </trkpt>
      <trkpt lat="44.41783" lon="1.16652">
        <ele>161</ele>
        <time>2021-02-09T12:09:31Z</time>
      </trkpt>
      <trkpt lat="44.41783" lon="1.16647">
        <ele>161</ele>
        <time>2021-02-09T12:09:34Z</time>
      </trkpt>
      <trkpt lat="44.41783" lon="1.16643">
        <ele>161</ele>
        <time>2021-02-09T12:09:37Z</time>
      </trkpt>
      <trkpt lat="44.41789" lon="1.16637">
        <ele>162</ele>
        <time>2021-02-09T12:09:44Z</time>
      </trkpt>
      <trkpt lat="44.41794" lon="1.16627">
        <ele>164</ele>
        <time>2021-02-09T12:09:50Z</time>
      </trkpt>
      <trkpt lat="44.41796" lon="1.16622">
        <ele>164</ele>
        <time>2021-02-09T12:09:52Z</time>
      </trkpt>
      <trkpt lat="44.41796" lon="1.16587">
        <ele>171</ele>
        <time>2021-02-09T12:10:09Z</time>
      </trkpt>
      <trkpt lat="44.41789" lon="1.16523">
        <ele>167</ele>
        <time>2021-02-09T12:10:23Z</time>
      </trkpt>
      <trkpt lat="44.41791" lon="1.16486">
        <ele>165</ele>
        <time>2021-02-09T12:10:32Z</time>
      </trkpt>
      <trkpt lat="44.41792" lon="1.16482">
        <ele>165</ele>
        <time>2021-02-09T12:10:39Z</time>
      </trkpt>
      <trkpt lat="44.41794" lon="1.16476">
        <ele>165</ele>
        <time>2021-02-09T12:10:49Z</time>
      </trkpt>
      <trkpt lat="44.41804" lon="1.16413">
        <ele>164</ele>
        <time>2021-02-09T12:11:20Z</time>
      </trkpt>
      <trkpt lat="44.41812" lon="1.16375">
        <ele>166</ele>
        <time>2021-02-09T12:11:30Z</time>
      </trkpt>
      <trkpt lat="44.41852" lon="1.1629">
        <ele>162</ele>
        <time>2021-02-09T12:11:50Z</time>
      </trkpt>
      <trkpt lat="44.41856" lon="1.16279">
        <ele>161</ele>
        <time>2021-02-09T12:11:56Z</time>
      </trkpt>
      <trkpt lat="44.41861" lon="1.1627">
        <ele>161</ele>
        <time>2021-02-09T12:12:01Z</time>
      </trkpt>
      <trkpt lat="44.41872" lon="1.16245">
        <ele>164</ele>
        <time>2021-02-09T12:12:21Z</time>
      </trkpt>
      <trkpt lat="44.41891" lon="1.16215">
        <ele>165</ele>
        <time>2021-02-09T12:12:48Z</time>
      </trkpt>
      <trkpt lat="44.41899" lon="1.16205">
        <ele>164</ele>
        <time>2021-02-09T12:13:33Z</time>
      </trkpt>
      <trkpt lat="44.41907" lon="1.16199">
        <ele>165</ele>
        <time>2021-02-09T12:13:42Z</time>
      </trkpt>
      <trkpt lat="44.41908" lon="1.16195">
        <ele>164</ele>
        <time>2021-02-09T12:13:45Z</time>
      </trkpt>
      <trkpt lat="44.41916" lon="1.16186">
        <ele>163</ele>
        <time>2021-02-09T12:13:51Z</time>
      </trkpt>
      <trkpt lat="44.41918" lon="1.16182">
        <ele>163</ele>
        <time>2021-02-09T12:13:53Z</time>
      </trkpt>
      <trkpt lat="44.41918" lon="1.16179">
        <ele>162</ele>
        <time>2021-02-09T12:13:55Z</time>
      </trkpt>
      <trkpt lat="44.41922" lon="1.16169">
        <ele>164</ele>
        <time>2021-02-09T12:14:02Z</time>
      </trkpt>
      <trkpt lat="44.41933" lon="1.16142">
        <ele>163</ele>
        <time>2021-02-09T12:14:10Z</time>
      </trkpt>
      <trkpt lat="44.41937" lon="1.1613">
        <ele>163</ele>
        <time>2021-02-09T12:14:13Z</time>
      </trkpt>
      <trkpt lat="44.41939" lon="1.16126">
        <ele>163</ele>
        <time>2021-02-09T12:14:15Z</time>
      </trkpt>
      <trkpt lat="44.41951" lon="1.16098">
        <ele>163</ele>
        <time>2021-02-09T12:14:24Z</time>
      </trkpt>
      <trkpt lat="44.41955" lon="1.16086">
        <ele>161</ele>
        <time>2021-02-09T12:14:28Z</time>
      </trkpt>
      <trkpt lat="44.41971" lon="1.16055">
        <ele>155</ele>
        <time>2021-02-09T12:14:38Z</time>
      </trkpt>
      <trkpt lat="44.41974" lon="1.16048">
        <ele>154</ele>
        <time>2021-02-09T12:14:40Z</time>
      </trkpt>
      <trkpt lat="44.4198" lon="1.16025">
        <ele>153</ele>
        <time>2021-02-09T12:14:52Z</time>
      </trkpt>
      <trkpt lat="44.4198" lon="1.16011">
        <ele>154</ele>
        <time>2021-02-09T12:14:59Z</time>
      </trkpt>
      <trkpt lat="44.41976" lon="1.15991">
        <ele>156</ele>
        <time>2021-02-09T12:16:06Z</time>
      </trkpt>
      <trkpt lat="44.41973" lon="1.15986">
        <ele>157</ele>
        <time>2021-02-09T12:16:10Z</time>
      </trkpt>
      <trkpt lat="44.41972" lon="1.15983">
        <ele>158</ele>
        <time>2021-02-09T12:16:33Z</time>
      </trkpt>
      <trkpt lat="44.4197" lon="1.15979">
        <ele>159</ele>
        <time>2021-02-09T12:17:55Z</time>
      </trkpt>
      <trkpt lat="44.41968" lon="1.15977">
        <ele>160</ele>
        <time>2021-02-09T12:17:57Z</time>
      </trkpt>
      <trkpt lat="44.41965" lon="1.15976">
        <ele>161</ele>
        <time>2021-02-09T12:17:59Z</time>
      </trkpt>
      <trkpt lat="44.41959" lon="1.15975">
        <ele>161</ele>
        <time>2021-02-09T12:18:02Z</time>
      </trkpt>
      <trkpt lat="44.41933" lon="1.1596">
        <ele>161</ele>
        <time>2021-02-09T12:18:09Z</time>
      </trkpt>
      <trkpt lat="44.41927" lon="1.15953">
        <ele>161</ele>
        <time>2021-02-09T12:18:11Z</time>
      </trkpt>
      <trkpt lat="44.41926" lon="1.15949">
        <ele>161</ele>
        <time>2021-02-09T12:18:12Z</time>
      </trkpt>
      <trkpt lat="44.41925" lon="1.15946">
        <ele>161</ele>
        <time>2021-02-09T12:18:13Z</time>
      </trkpt>
      <trkpt lat="44.41926" lon="1.15941">
        <ele>161</ele>
        <time>2021-02-09T12:18:15Z</time>
      </trkpt>
      <trkpt lat="44.41927" lon="1.15934">
        <ele>160</ele>
        <time>2021-02-09T12:18:45Z</time>
      </trkpt>
      <trkpt lat="44.41928" lon="1.15919">
        <ele>160</ele>
        <time>2021-02-09T12:18:52Z</time>
      </trkpt>
      <trkpt lat="44.41929" lon="1.15916">
        <ele>160</ele>
        <time>2021-02-09T12:19:35Z</time>
      </trkpt>
      <trkpt lat="44.41929" lon="1.15904">
        <ele>160</ele>
        <time>2021-02-09T12:19:41Z</time>
      </trkpt>
      <trkpt lat="44.4193" lon="1.15901">
        <ele>159</ele>
        <time>2021-02-09T12:19:44Z</time>
      </trkpt>
      <trkpt lat="44.41931" lon="1.15892">
        <ele>158</ele>
        <time>2021-02-09T12:19:56Z</time>
      </trkpt>
      <trkpt lat="44.4193" lon="1.1589">
        <ele>158</ele>
        <time>2021-02-09T12:19:58Z</time>
      </trkpt>
      <trkpt lat="44.41933" lon="1.15884">
        <ele>154</ele>
        <time>2021-02-09T12:20:07Z</time>
      </trkpt>
      <trkpt lat="44.41933" lon="1.15811">
        <ele>154</ele>
        <time>2021-02-09T12:20:10Z</time>
      </trkpt>
      <trkpt lat="44.41941" lon="1.15756">
        <ele>157</ele>
        <time>2021-02-09T12:20:23Z</time>
      </trkpt>
      <trkpt lat="44.41954" lon="1.15682">
        <ele>157</ele>
        <time>2021-02-09T12:20:25Z</time>
      </trkpt>
      <trkpt lat="44.41952" lon="1.15629">
        <ele>160</ele>
        <time>2021-02-09T12:20:34Z</time>
      </trkpt>
      <trkpt lat="44.41961" lon="1.15567">
        <ele>160</ele>
        <time>2021-02-09T12:20:36Z</time>
      </trkpt>
      <trkpt lat="44.41955" lon="1.15559">
        <ele>155</ele>
        <time>2021-02-09T08:26:07Z</time>
      </trkpt>
      <trkpt lat="44.41948" lon="1.15553">
        <ele>154.9</ele>
        <time>2021-02-09T08:26:07Z</time>
      </trkpt>
      <trkpt lat="44.41944" lon="1.15544">
        <ele>154.7</ele>
        <time>2021-02-09T08:26:07Z</time>
      </trkpt>
      <trkpt lat="44.41948" lon="1.15506">
        <ele>154.1</ele>
        <time>2021-02-09T08:26:07Z</time>
      </trkpt>
      <trkpt lat="44.41958" lon="1.15482">
        <ele>160</ele>
        <time>2021-02-09T12:20:36Z</time>
      </trkpt>
      <trkpt lat="44.41963" lon="1.15473">
        <ele>154.1</ele>
        <time>2021-02-09T08:26:07Z</time>
      </trkpt>
      <trkpt lat="44.41994" lon="1.15399">
        <ele>153.7</ele>
        <time>2021-02-09T08:26:07Z</time>
      </trkpt>
      <trkpt lat="44.42006" lon="1.15351">
        <ele>160</ele>
        <time>2021-02-09T12:20:36Z</time>
      </trkpt>
      <trkpt lat="44.42008" lon="1.15342">
        <ele>152.6</ele>
        <time>2021-02-09T08:26:07Z</time>
      </trkpt>
      <trkpt lat="44.42008" lon="1.15323">
        <ele>152.3</ele>
        <time>2021-02-09T08:26:07Z</time>
      </trkpt>
      <trkpt lat="44.41993" lon="1.15276">
        <ele>151.6</ele>
        <time>2021-02-09T08:26:07Z</time>
      </trkpt>
      <trkpt lat="44.41994" lon="1.15257">
        <ele>151.3</ele>
        <time>2021-02-09T08:26:07Z</time>
      </trkpt>
      <trkpt lat="44.41993" lon="1.15237">
        <ele>151.3</ele>
        <time>2021-02-09T08:26:07Z</time>
      </trkpt>
      <trkpt lat="44.41988" lon="1.15217">
        <ele>160</ele>
        <time>2021-02-09T12:20:36Z</time>
      </trkpt>
      <trkpt lat="44.41987" lon="1.15207">
        <ele>151.6</ele>
        <time>2021-02-09T08:26:07Z</time>
      </trkpt>
      <trkpt lat="44.41985" lon="1.15189">
        <ele>151.7</ele>
        <time>2021-02-09T08:26:07Z</time>
      </trkpt>
      <trkpt lat="44.41978" lon="1.1514">
        <ele>151.8</ele>
        <time>2021-02-09T08:26:07Z</time>
      </trkpt>
      <trkpt lat="44.41934" lon="1.15069">
        <ele>160</ele>
        <time>2021-02-09T12:20:36Z</time>
      </trkpt>
      <trkpt lat="44.41932" lon="1.15059">
        <ele>154.2</ele>
        <time>2021-02-09T08:26:07Z</time>
      </trkpt>
      <trkpt lat="44.41931" lon="1.15041">
        <ele>154.2</ele>
        <time>2021-02-09T08:26:07Z</time>
      </trkpt>
      <trkpt lat="44.41936" lon="1.15011">
        <ele>154.1</ele>
        <time>2021-02-09T08:26:07Z</time>
      </trkpt>
      <trkpt lat="44.41873" lon="1.15073">
        <ele>160</ele>
        <time>2021-02-09T12:20:36Z</time>
      </trkpt>
      <trkpt lat="44.41866" lon="1.15077">
        <ele>157.9</ele>
        <time>2021-02-09T08:26:07Z</time>
      </trkpt>
      <trkpt lat="44.41853" lon="1.15094">
        <ele>159</ele>
        <time>2021-02-09T08:26:07Z</time>
      </trkpt>
      <trkpt lat="44.41817" lon="1.15172">
        <ele>160</ele>
        <time>2021-02-09T12:20:36Z</time>
      </trkpt>
      <trkpt lat="44.4181" lon="1.15179">
        <ele>162.6</ele>
        <time>2021-02-09T08:26:07Z</time>
      </trkpt>
      <trkpt lat="44.4179" lon="1.15228">
        <ele>164.2</ele>
        <time>2021-02-09T08:26:07Z</time>
      </trkpt>
      <trkpt lat="44.41761" lon="1.15279">
        <ele>160</ele>
        <time>2021-02-09T12:20:36Z</time>
      </trkpt>
      <trkpt lat="44.41755" lon="1.15282">
        <ele>168</ele>
        <time>2021-02-09T08:26:07Z</time>
      </trkpt>
      <trkpt lat="44.4174" lon="1.15295">
        <ele>169.5</ele>
        <time>2021-02-09T08:26:07Z</time>
      </trkpt>
      <trkpt lat="44.41727" lon="1.15299">
        <ele>170.9</ele>
        <time>2021-02-09T08:26:07Z</time>
      </trkpt>
      <trkpt lat="44.41635" lon="1.15358">
        <ele>160</ele>
        <time>2021-02-09T12:20:36Z</time>
      </trkpt>
      <trkpt lat="44.41628" lon="1.15365">
        <ele>181.2</ele>
        <time>2021-02-09T08:26:07Z</time>
      </trkpt>
      <trkpt lat="44.41587" lon="1.15421">
        <ele>160</ele>
        <time>2021-02-09T12:20:36Z</time>
      </trkpt>
      <trkpt lat="44.41589" lon="1.1543">
        <ele>189</ele>
        <time>2021-02-09T08:26:07Z</time>
      </trkpt>
      <trkpt lat="44.41605" lon="1.15483">
        <ele>185.9</ele>
        <time>2021-02-09T08:26:07Z</time>
      </trkpt>
      <trkpt lat="44.41612" lon="1.15524">
        <ele>160</ele>
        <time>2021-02-09T12:20:36Z</time>
      </trkpt>
      <trkpt lat="44.41616" lon="1.15533">
        <ele>184.2</ele>
        <time>2021-02-09T08:26:07Z</time>
      </trkpt>
      <trkpt lat="44.41624" lon="1.15571">
        <ele>183.1</ele>
        <time>2021-02-09T08:26:07Z</time>
      </trkpt>
      <trkpt lat="44.41627" lon="1.1558">
        <ele>182.5</ele>
        <time>2021-02-09T08:26:07Z</time>
      </trkpt>
      <trkpt lat="44.41636" lon="1.15629">
        <ele>180.3</ele>
        <time>2021-02-09T08:26:07Z</time>
      </trkpt>
      <trkpt lat="44.41636" lon="1.15639">
        <ele>180.1</ele>
        <time>2021-02-09T08:26:07Z</time>
      </trkpt>
      <trkpt lat="44.41643" lon="1.15645">
        <ele>160</ele>
        <time>2021-02-09T12:20:36Z</time>
      </trkpt>
      <trkpt lat="44.41648" lon="1.15654">
        <ele>178</ele>
        <time>2021-02-09T08:26:07Z</time>
      </trkpt>
      <trkpt lat="44.41665" lon="1.15727">
        <ele>160</ele>
        <time>2021-02-09T12:20:36Z</time>
      </trkpt>
      <trkpt lat="44.41668" lon="1.15736">
        <ele>174.9</ele>
        <time>2021-02-09T08:26:07Z</time>
      </trkpt>
      <trkpt lat="44.41666" lon="1.15746">
        <ele>175.1</ele>
        <time>2021-02-09T08:26:07Z</time>
      </trkpt>
      <trkpt lat="44.41652" lon="1.1576">
        <ele>175.6</ele>
        <time>2021-02-09T08:26:07Z</time>
      </trkpt>
      <trkpt lat="44.41645" lon="1.15778">
        <ele>175.5</ele>
        <time>2021-02-09T08:26:07Z</time>
      </trkpt>
      <trkpt lat="44.41632" lon="1.15782">
        <ele>176</ele>
        <time>2021-02-09T08:26:07Z</time>
      </trkpt>
    </trkseg>
  </trk>
  <trk>
    <name><![CDATA[46 - Porte-du-Quercy : Les Terres Blanches : boucle nord - grande 21 km]]></name>
    <trkseg>
      <trkpt lat="44.416" lon="1.16087">
        <ele>186</ele>
        <time>2021-01-20T18:29:12Z</time>
      </trkpt>
      <trkpt lat="44.41628" lon="1.15838">
        <ele>175</ele>
        <time>2021-01-20T18:31:36Z</time>
      </trkpt>
      <trkpt lat="44.41623" lon="1.15881">
        <ele>176</ele>
        <time>2021-01-20T18:32:01Z</time>
      </trkpt>
      <trkpt lat="44.41631" lon="1.15723">
        <ele>178</ele>
        <time>2021-01-20T18:33:32Z</time>
      </trkpt>
      <trkpt lat="44.4161" lon="1.15513">
        <ele>185</ele>
        <time>2021-01-20T18:35:33Z</time>
      </trkpt>
      <trkpt lat="44.41582" lon="1.15441">
        <ele>190</ele>
        <time>2021-01-20T18:36:20Z</time>
      </trkpt>
      <trkpt lat="44.41603" lon="1.15382">
        <ele>184</ele>
        <time>2021-01-20T18:36:58Z</time>
      </trkpt>
      <trkpt lat="44.41636" lon="1.1535">
        <ele>180</ele>
        <time>2021-01-20T18:37:30Z</time>
      </trkpt>
      <trkpt lat="44.41752" lon="1.15297">
        <ele>168</ele>
        <time>2021-01-20T18:39:07Z</time>
      </trkpt>
      <trkpt lat="44.4193" lon="1.15004">
        <ele>154</ele>
        <time>2021-01-20T18:42:47Z</time>
      </trkpt>
      <trkpt lat="44.41953" lon="1.14853">
        <ele>154</ele>
        <time>2021-01-20T18:44:16Z</time>
      </trkpt>
      <trkpt lat="44.41984" lon="1.14723">
        <ele>152</ele>
        <time>2021-01-20T18:45:34Z</time>
      </trkpt>
      <trkpt lat="44.42159" lon="1.1473">
        <ele>147</ele>
        <time>2021-01-20T18:47:54Z</time>
      </trkpt>
      <trkpt lat="44.42255" lon="1.14626">
        <ele>148</ele>
        <time>2021-01-20T18:49:31Z</time>
      </trkpt>
      <trkpt lat="44.4244" lon="1.14553">
        <ele>165</ele>
        <time>2021-01-20T18:52:05Z</time>
      </trkpt>
      <trkpt lat="44.42693" lon="1.14423">
        <ele>186</ele>
        <time>2021-01-20T18:55:41Z</time>
      </trkpt>
      <trkpt lat="44.42847" lon="1.1436">
        <ele>192</ele>
        <time>2021-01-20T18:57:50Z</time>
      </trkpt>
      <trkpt lat="44.43012" lon="1.14214">
        <ele>194</ele>
        <time>2021-01-20T19:00:26Z</time>
      </trkpt>
      <trkpt lat="44.4309" lon="1.14205">
        <ele>197</ele>
        <time>2021-01-20T19:01:28Z</time>
      </trkpt>
      <trkpt lat="44.43149" lon="1.14091">
        <ele>192</ele>
        <time>2021-01-20T19:02:49Z</time>
      </trkpt>
      <trkpt lat="44.43249" lon="1.13987">
        <ele>187</ele>
        <time>2021-01-20T19:04:29Z</time>
      </trkpt>
      <trkpt lat="44.43345" lon="1.1398">
        <ele>182</ele>
        <time>2021-01-20T19:05:46Z</time>
      </trkpt>
      <trkpt lat="44.43448" lon="1.1394">
        <ele>176</ele>
        <time>2021-01-20T19:07:11Z</time>
      </trkpt>
      <trkpt lat="44.43468" lon="1.13875">
        <ele>173</ele>
        <time>2021-01-20T19:07:52Z</time>
      </trkpt>
      <trkpt lat="44.43486" lon="1.13738">
        <ele>160</ele>
        <time>2021-01-20T19:09:11Z</time>
      </trkpt>
      <trkpt lat="44.43517" lon="1.1368">
        <ele>157</ele>
        <time>2021-01-20T19:09:53Z</time>
      </trkpt>
      <trkpt lat="44.43587" lon="1.13633">
        <ele>155</ele>
        <time>2021-01-20T19:10:55Z</time>
      </trkpt>
      <trkpt lat="44.43589" lon="1.1359">
        <ele>146</ele>
        <time>2021-01-20T19:11:20Z</time>
      </trkpt>
      <trkpt lat="44.4357" lon="1.13589">
        <ele>145</ele>
        <time>2021-01-20T19:11:35Z</time>
      </trkpt>
      <trkpt lat="44.43554" lon="1.13594">
        <ele>145</ele>
        <time>2021-01-20T19:11:48Z</time>
      </trkpt>
      <trkpt lat="44.43527" lon="1.13602">
        <ele>144</ele>
        <time>2021-01-20T19:12:10Z</time>
      </trkpt>
      <trkpt lat="44.43508" lon="1.13602">
        <ele>142</ele>
        <time>2021-01-20T19:12:25Z</time>
      </trkpt>
      <trkpt lat="44.43496" lon="1.13591">
        <ele>139</ele>
        <time>2021-01-20T19:12:37Z</time>
      </trkpt>
      <trkpt lat="44.43491" lon="1.13555">
        <ele>135</ele>
        <time>2021-01-20T19:12:58Z</time>
      </trkpt>
      <trkpt lat="44.4349" lon="1.13494">
        <ele>130</ele>
        <time>2021-01-20T19:13:33Z</time>
      </trkpt>
      <trkpt lat="44.43501" lon="1.1341">
        <ele>130</ele>
        <time>2021-01-20T19:14:21Z</time>
      </trkpt>
      <trkpt lat="44.43522" lon="1.13346">
        <ele>132</ele>
        <time>2021-01-20T19:15:02Z</time>
      </trkpt>
      <trkpt lat="44.43545" lon="1.13299">
        <ele>137</ele>
        <time>2021-01-20T19:15:34Z</time>
      </trkpt>
      <trkpt lat="44.43598" lon="1.13326">
        <ele>134</ele>
        <time>2021-01-20T19:16:19Z</time>
      </trkpt>
      <trkpt lat="44.43659" lon="1.13347">
        <ele>135</ele>
        <time>2021-01-20T19:17:10Z</time>
      </trkpt>
      <trkpt lat="44.43719" lon="1.13353">
        <ele>136</ele>
        <time>2021-01-20T19:17:58Z</time>
      </trkpt>
      <trkpt lat="44.43766" lon="1.1336">
        <ele>136</ele>
        <time>2021-01-20T19:18:36Z</time>
      </trkpt>
      <trkpt lat="44.4383" lon="1.13376">
        <ele>133</ele>
        <time>2021-01-20T19:19:28Z</time>
      </trkpt>
      <trkpt lat="44.43856" lon="1.13409">
        <ele>133</ele>
        <time>2021-01-20T19:19:56Z</time>
      </trkpt>
      <trkpt lat="44.43873" lon="1.13439">
        <ele>134</ele>
        <time>2021-01-20T19:20:18Z</time>
      </trkpt>
      <trkpt lat="44.4389" lon="1.13461">
        <ele>135</ele>
        <time>2021-01-20T19:20:36Z</time>
      </trkpt>
      <trkpt lat="44.43884" lon="1.13491">
        <ele>132</ele>
        <time>2021-01-20T19:20:54Z</time>
      </trkpt>
      <trkpt lat="44.43864" lon="1.13529">
        <ele>129</ele>
        <time>2021-01-20T19:21:21Z</time>
      </trkpt>
      <trkpt lat="44.43846" lon="1.13566">
        <ele>127</ele>
        <time>2021-01-20T19:21:47Z</time>
      </trkpt>
      <trkpt lat="44.43833" lon="1.13588">
        <ele>127</ele>
        <time>2021-01-20T19:22:03Z</time>
      </trkpt>
      <trkpt lat="44.4384" lon="1.13639">
        <ele>129</ele>
        <time>2021-01-20T19:22:33Z</time>
      </trkpt>
      <trkpt lat="44.43849" lon="1.13655">
        <ele>129</ele>
        <time>2021-01-20T19:22:44Z</time>
      </trkpt>
      <trkpt lat="44.43859" lon="1.13681">
        <ele>130</ele>
        <time>2021-01-20T19:23:01Z</time>
      </trkpt>
      <trkpt lat="44.43887" lon="1.1372">
        <ele>129</ele>
        <time>2021-01-20T19:23:33Z</time>
      </trkpt>
      <trkpt lat="44.43908" lon="1.13773">
        <ele>129</ele>
        <time>2021-01-20T19:24:07Z</time>
      </trkpt>
      <trkpt lat="44.43944" lon="1.13852">
        <ele>129</ele>
        <time>2021-01-20T19:25:01Z</time>
      </trkpt>
      <trkpt lat="44.43943" lon="1.13921">
        <ele>132</ele>
        <time>2021-01-20T19:25:40Z</time>
      </trkpt>
      <trkpt lat="44.43924" lon="1.13972">
        <ele>139</ele>
        <time>2021-01-20T19:26:13Z</time>
      </trkpt>
      <trkpt lat="44.43987" lon="1.14031">
        <ele>145</ele>
        <time>2021-01-20T19:27:14Z</time>
      </trkpt>
      <trkpt lat="44.44018" lon="1.14094">
        <ele>148</ele>
        <time>2021-01-20T19:27:58Z</time>
      </trkpt>
      <trkpt lat="44.44028" lon="1.14153">
        <ele>149</ele>
        <time>2021-01-20T19:28:32Z</time>
      </trkpt>
      <trkpt lat="44.44019" lon="1.1422">
        <ele>154</ele>
        <time>2021-01-20T19:29:11Z</time>
      </trkpt>
      <trkpt lat="44.44018" lon="1.14293">
        <ele>156</ele>
        <time>2021-01-20T19:29:53Z</time>
      </trkpt>
      <trkpt lat="44.4402" lon="1.14342">
        <ele>156</ele>
        <time>2021-01-20T19:30:21Z</time>
      </trkpt>
      <trkpt lat="44.44041" lon="1.14388">
        <ele>156</ele>
        <time>2021-01-20T19:30:52Z</time>
      </trkpt>
      <trkpt lat="44.44032" lon="1.14468">
        <ele>162</ele>
        <time>2021-01-20T19:31:39Z</time>
      </trkpt>
      <trkpt lat="44.44014" lon="1.14517">
        <ele>165</ele>
        <time>2021-01-20T19:32:10Z</time>
      </trkpt>
      <trkpt lat="44.44008" lon="1.14566">
        <ele>167</ele>
        <time>2021-01-20T19:32:39Z</time>
      </trkpt>
      <trkpt lat="44.44018" lon="1.1464">
        <ele>165</ele>
        <time>2021-01-20T19:33:22Z</time>
      </trkpt>
      <trkpt lat="44.44019" lon="1.14698">
        <ele>165</ele>
        <time>2021-01-20T19:33:55Z</time>
      </trkpt>
      <trkpt lat="44.4402" lon="1.14702">
        <ele>165</ele>
        <time>2021-01-20T19:33:57Z</time>
      </trkpt>
      <trkpt lat="44.44003" lon="1.14779">
        <ele>170</ele>
        <time>2021-01-20T19:34:43Z</time>
      </trkpt>
      <trkpt lat="44.4399" lon="1.14852">
        <ele>178</ele>
        <time>2021-01-20T19:35:26Z</time>
      </trkpt>
      <trkpt lat="44.43971" lon="1.14952">
        <ele>185</ele>
        <time>2021-01-20T19:36:26Z</time>
      </trkpt>
      <trkpt lat="44.4406" lon="1.14983">
        <ele>192</ele>
        <time>2021-01-20T19:37:39Z</time>
      </trkpt>
      <trkpt lat="44.44151" lon="1.15046">
        <ele>208</ele>
        <time>2021-01-20T19:39:00Z</time>
      </trkpt>
      <trkpt lat="44.44229" lon="1.15128">
        <ele>224</ele>
        <time>2021-01-20T19:40:18Z</time>
      </trkpt>
      <trkpt lat="44.44244" lon="1.15286">
        <ele>215</ele>
        <time>2021-01-20T19:41:49Z</time>
      </trkpt>
      <trkpt lat="44.44263" lon="1.15471">
        <ele>202</ele>
        <time>2021-01-20T19:43:36Z</time>
      </trkpt>
      <trkpt lat="44.44289" lon="1.15711">
        <ele>224</ele>
        <time>2021-01-20T19:45:55Z</time>
      </trkpt>
      <trkpt lat="44.44287" lon="1.15917">
        <ele>244</ele>
        <time>2021-01-20T19:47:53Z</time>
      </trkpt>
      <trkpt lat="44.4425" lon="1.16084">
        <ele>246</ele>
        <time>2021-01-20T19:49:33Z</time>
      </trkpt>
      <trkpt lat="44.44263" lon="1.16272">
        <ele>239</ele>
        <time>2021-01-20T19:51:21Z</time>
      </trkpt>
      <trkpt lat="44.44268" lon="1.16467">
        <ele>255</ele>
        <time>2021-01-20T19:53:12Z</time>
      </trkpt>
      <trkpt lat="44.44289" lon="1.16621">
        <ele>260</ele>
        <time>2021-01-20T19:54:42Z</time>
      </trkpt>
      <trkpt lat="44.44302" lon="1.16679">
        <ele>260</ele>
        <time>2021-01-20T19:55:17Z</time>
      </trkpt>
      <trkpt lat="44.44313" lon="1.16776">
        <ele>258</ele>
        <time>2021-01-20T19:56:13Z</time>
      </trkpt>
      <trkpt lat="44.44391" lon="1.16694">
        <ele>252</ele>
        <time>2021-01-20T19:57:31Z</time>
      </trkpt>
      <trkpt lat="44.44465" lon="1.16643">
        <ele>244</ele>
        <time>2021-01-20T19:58:37Z</time>
      </trkpt>
      <trkpt lat="44.44549" lon="1.16646">
        <ele>232</ele>
        <time>2021-01-20T19:59:44Z</time>
      </trkpt>
      <trkpt lat="44.44619" lon="1.16646">
        <ele>226</ele>
        <time>2021-01-20T20:00:40Z</time>
      </trkpt>
      <trkpt lat="44.44599" lon="1.16737">
        <ele>222</ele>
        <time>2021-01-20T20:01:35Z</time>
      </trkpt>
      <trkpt lat="44.44621" lon="1.1684">
        <ele>218</ele>
        <time>2021-01-20T20:02:36Z</time>
      </trkpt>
      <trkpt lat="44.44636" lon="1.16907">
        <ele>220</ele>
        <time>2021-01-20T20:03:16Z</time>
      </trkpt>
      <trkpt lat="44.44699" lon="1.17004">
        <ele>226</ele>
        <time>2021-01-20T20:04:31Z</time>
      </trkpt>
      <trkpt lat="44.44703" lon="1.17101">
        <ele>234</ele>
        <time>2021-01-20T20:05:27Z</time>
      </trkpt>
      <trkpt lat="44.44701" lon="1.17158">
        <ele>236</ele>
        <time>2021-01-20T20:05:59Z</time>
      </trkpt>
      <trkpt lat="44.44807" lon="1.17093">
        <ele>229</ele>
        <time>2021-01-20T20:07:32Z</time>
      </trkpt>
      <trkpt lat="44.44972" lon="1.17061">
        <ele>227</ele>
        <time>2021-01-20T20:09:45Z</time>
      </trkpt>
      <trkpt lat="44.45037" lon="1.17051">
        <ele>226</ele>
        <time>2021-01-20T20:10:38Z</time>
      </trkpt>
      <trkpt lat="44.45058" lon="1.17007">
        <ele>225</ele>
        <time>2021-01-20T20:11:08Z</time>
      </trkpt>
      <trkpt lat="44.45201" lon="1.16986">
        <ele>225</ele>
        <time>2021-01-20T20:13:03Z</time>
      </trkpt>
      <trkpt lat="44.45355" lon="1.16843">
        <ele>233</ele>
        <time>2021-01-20T20:15:31Z</time>
      </trkpt>
      <trkpt lat="44.45494" lon="1.16743">
        <ele>233</ele>
        <time>2021-01-20T20:17:36Z</time>
      </trkpt>
      <trkpt lat="44.45641" lon="1.16618">
        <ele>218</ele>
        <time>2021-01-20T20:19:54Z</time>
      </trkpt>
      <trkpt lat="44.45877" lon="1.16461">
        <ele>216</ele>
        <time>2021-01-20T20:23:23Z</time>
      </trkpt>
      <trkpt lat="44.45996" lon="1.16354">
        <ele>215</ele>
        <time>2021-01-20T20:25:16Z</time>
      </trkpt>
      <trkpt lat="44.46211" lon="1.16275">
        <ele>214</ele>
        <time>2021-01-20T20:28:14Z</time>
      </trkpt>
      <trkpt lat="44.46248" lon="1.16184">
        <ele>215</ele>
        <time>2021-01-20T20:29:14Z</time>
      </trkpt>
      <trkpt lat="44.46206" lon="1.15933">
        <ele>198</ele>
        <time>2021-01-20T20:31:41Z</time>
      </trkpt>
      <trkpt lat="44.4617" lon="1.1582">
        <ele>196</ele>
        <time>2021-01-20T20:32:52Z</time>
      </trkpt>
      <trkpt lat="44.46176" lon="1.15687">
        <ele>191</ele>
        <time>2021-01-20T20:34:08Z</time>
      </trkpt>
      <trkpt lat="44.46222" lon="1.15547">
        <ele>187</ele>
        <time>2021-01-20T20:35:36Z</time>
      </trkpt>
      <trkpt lat="44.46304" lon="1.15474">
        <ele>178</ele>
        <time>2021-01-20T20:36:54Z</time>
      </trkpt>
      <trkpt lat="44.46304" lon="1.15332">
        <ele>167</ele>
        <time>2021-01-20T20:38:15Z</time>
      </trkpt>
      <trkpt lat="44.46317" lon="1.15241">
        <ele>151</ele>
        <time>2021-01-20T20:39:08Z</time>
      </trkpt>
      <trkpt lat="44.46287" lon="1.15147">
        <ele>141</ele>
        <time>2021-01-20T20:40:07Z</time>
      </trkpt>
      <trkpt lat="44.46287" lon="1.15049">
        <ele>122</ele>
        <time>2021-01-20T20:41:03Z</time>
      </trkpt>
      <trkpt lat="44.46254" lon="1.14968">
        <ele>112</ele>
        <time>2021-01-20T20:41:56Z</time>
      </trkpt>
      <trkpt lat="44.46217" lon="1.14916">
        <ele>104</ele>
        <time>2021-01-20T20:42:38Z</time>
      </trkpt>
      <trkpt lat="44.46224" lon="1.14858">
        <ele>101</ele>
        <time>2021-01-20T20:43:12Z</time>
      </trkpt>
      <trkpt lat="44.46243" lon="1.14798">
        <ele>100</ele>
        <time>2021-01-20T20:43:50Z</time>
      </trkpt>
      <trkpt lat="44.46271" lon="1.14734">
        <ele>105</ele>
        <time>2021-01-20T20:44:32Z</time>
      </trkpt>
      <trkpt lat="44.46267" lon="1.14675">
        <ele>111</ele>
        <time>2021-01-20T20:45:06Z</time>
      </trkpt>
      <trkpt lat="44.46254" lon="1.14654">
        <ele>112</ele>
        <time>2021-01-20T20:45:22Z</time>
      </trkpt>
      <trkpt lat="44.46236" lon="1.14644">
        <ele>115</ele>
        <time>2021-01-20T20:45:38Z</time>
      </trkpt>
      <trkpt lat="44.46188" lon="1.14631">
        <ele>126</ele>
        <time>2021-01-20T20:46:17Z</time>
      </trkpt>
      <trkpt lat="44.4614" lon="1.1462">
        <ele>136</ele>
        <time>2021-01-20T20:46:56Z</time>
      </trkpt>
      <trkpt lat="44.46102" lon="1.14615">
        <ele>142</ele>
        <time>2021-01-20T20:47:26Z</time>
      </trkpt>
      <trkpt lat="44.46065" lon="1.14604">
        <ele>147</ele>
        <time>2021-01-20T20:47:57Z</time>
      </trkpt>
      <trkpt lat="44.4604" lon="1.14592">
        <ele>151</ele>
        <time>2021-01-20T20:48:18Z</time>
      </trkpt>
      <trkpt lat="44.46009" lon="1.14566">
        <ele>158</ele>
        <time>2021-01-20T20:48:47Z</time>
      </trkpt>
      <trkpt lat="44.45979" lon="1.14546">
        <ele>164</ele>
        <time>2021-01-20T20:49:13Z</time>
      </trkpt>
      <trkpt lat="44.45943" lon="1.14543">
        <ele>167</ele>
        <time>2021-01-20T20:49:42Z</time>
      </trkpt>
      <trkpt lat="44.4592" lon="1.14541">
        <ele>169</ele>
        <time>2021-01-20T20:50:01Z</time>
      </trkpt>
      <trkpt lat="44.45919" lon="1.14515">
        <ele>174</ele>
        <time>2021-01-20T20:50:16Z</time>
      </trkpt>
      <trkpt lat="44.45908" lon="1.14487">
        <ele>179</ele>
        <time>2021-01-20T20:50:34Z</time>
      </trkpt>
      <trkpt lat="44.45899" lon="1.14468">
        <ele>182</ele>
        <time>2021-01-20T20:50:47Z</time>
      </trkpt>
      <trkpt lat="44.45885" lon="1.14433">
        <ele>186</ele>
        <time>2021-01-20T20:51:10Z</time>
      </trkpt>
      <trkpt lat="44.45872" lon="1.14408">
        <ele>190</ele>
        <time>2021-01-20T20:51:27Z</time>
      </trkpt>
      <trkpt lat="44.45858" lon="1.14386">
        <ele>192</ele>
        <time>2021-01-20T20:51:44Z</time>
      </trkpt>
      <trkpt lat="44.45844" lon="1.14348">
        <ele>197</ele>
        <time>2021-01-20T20:52:09Z</time>
      </trkpt>
      <trkpt lat="44.45836" lon="1.14326">
        <ele>200</ele>
        <time>2021-01-20T20:52:23Z</time>
      </trkpt>
      <trkpt lat="44.4582" lon="1.14298">
        <ele>203</ele>
        <time>2021-01-20T20:52:43Z</time>
      </trkpt>
      <trkpt lat="44.4581" lon="1.14287">
        <ele>204</ele>
        <time>2021-01-20T20:52:54Z</time>
      </trkpt>
      <trkpt lat="44.45787" lon="1.14268">
        <ele>207</ele>
        <time>2021-01-20T20:53:15Z</time>
      </trkpt>
      <trkpt lat="44.45753" lon="1.14246">
        <ele>210</ele>
        <time>2021-01-20T20:53:45Z</time>
      </trkpt>
      <trkpt lat="44.45729" lon="1.14231">
        <ele>211</ele>
        <time>2021-01-20T20:54:06Z</time>
      </trkpt>
      <trkpt lat="44.45702" lon="1.1421">
        <ele>213</ele>
        <time>2021-01-20T20:54:31Z</time>
      </trkpt>
      <trkpt lat="44.45682" lon="1.14188">
        <ele>216</ele>
        <time>2021-01-20T20:54:51Z</time>
      </trkpt>
      <trkpt lat="44.45665" lon="1.14177">
        <ele>219</ele>
        <time>2021-01-20T20:55:06Z</time>
      </trkpt>
      <trkpt lat="44.4564" lon="1.14162">
        <ele>221</ele>
        <time>2021-01-20T20:55:28Z</time>
      </trkpt>
      <trkpt lat="44.45594" lon="1.14147">
        <ele>225</ele>
        <time>2021-01-20T20:56:06Z</time>
      </trkpt>
      <trkpt lat="44.45477" lon="1.14056">
        <ele>235</ele>
        <time>2021-01-20T20:57:53Z</time>
      </trkpt>
      <trkpt lat="44.45438" lon="1.13977">
        <ele>236</ele>
        <time>2021-01-20T20:58:48Z</time>
      </trkpt>
      <trkpt lat="44.45399" lon="1.13849">
        <ele>231</ele>
        <time>2021-01-20T21:00:07Z</time>
      </trkpt>
      <trkpt lat="44.45386" lon="1.1374">
        <ele>231</ele>
        <time>2021-01-20T21:01:10Z</time>
      </trkpt>
      <trkpt lat="44.45367" lon="1.13698">
        <ele>230</ele>
        <time>2021-01-20T21:01:39Z</time>
      </trkpt>
      <trkpt lat="44.45344" lon="1.13694">
        <ele>229</ele>
        <time>2021-01-20T21:01:57Z</time>
      </trkpt>
      <trkpt lat="44.45282" lon="1.13669">
        <ele>230</ele>
        <time>2021-01-20T21:02:49Z</time>
      </trkpt>
      <trkpt lat="44.45236" lon="1.13669">
        <ele>230</ele>
        <time>2021-01-20T21:03:26Z</time>
      </trkpt>
      <trkpt lat="44.45195" lon="1.13673">
        <ele>229</ele>
        <time>2021-01-20T21:03:59Z</time>
      </trkpt>
      <trkpt lat="44.45148" lon="1.13655">
        <ele>231</ele>
        <time>2021-01-20T21:04:38Z</time>
      </trkpt>
      <trkpt lat="44.45099" lon="1.13655">
        <ele>232</ele>
        <time>2021-01-20T21:05:17Z</time>
      </trkpt>
      <trkpt lat="44.4505" lon="1.13655">
        <ele>232</ele>
        <time>2021-01-20T21:05:56Z</time>
      </trkpt>
      <trkpt lat="44.45004" lon="1.13633">
        <ele>231</ele>
        <time>2021-01-20T21:06:35Z</time>
      </trkpt>
      <trkpt lat="44.44963" lon="1.13619">
        <ele>231</ele>
        <time>2021-01-20T21:07:09Z</time>
      </trkpt>
      <trkpt lat="44.44924" lon="1.13611">
        <ele>232</ele>
        <time>2021-01-20T21:07:40Z</time>
      </trkpt>
      <trkpt lat="44.44883" lon="1.13586">
        <ele>233</ele>
        <time>2021-01-20T21:08:16Z</time>
      </trkpt>
      <trkpt lat="44.44821" lon="1.13518">
        <ele>237</ele>
        <time>2021-01-20T21:09:19Z</time>
      </trkpt>
      <trkpt lat="44.448" lon="1.1338">
        <ele>239</ele>
        <time>2021-01-20T21:10:40Z</time>
      </trkpt>
      <trkpt lat="44.44764" lon="1.13261">
        <ele>238</ele>
        <time>2021-01-20T21:11:54Z</time>
      </trkpt>
      <trkpt lat="44.44718" lon="1.13204">
        <ele>232</ele>
        <time>2021-01-20T21:12:43Z</time>
      </trkpt>
      <trkpt lat="44.44654" lon="1.13092">
        <ele>228</ele>
        <time>2021-01-20T21:14:05Z</time>
      </trkpt>
      <trkpt lat="44.4462" lon="1.13016">
        <ele>228</ele>
        <time>2021-01-20T21:14:56Z</time>
      </trkpt>
      <trkpt lat="44.44574" lon="1.12868">
        <ele>237</ele>
        <time>2021-01-20T21:16:29Z</time>
      </trkpt>
      <trkpt lat="44.44538" lon="1.12745">
        <ele>241</ele>
        <time>2021-01-20T21:17:45Z</time>
      </trkpt>
      <trkpt lat="44.44502" lon="1.12605">
        <ele>239</ele>
        <time>2021-01-20T21:19:10Z</time>
      </trkpt>
      <trkpt lat="44.44486" lon="1.12475">
        <ele>239</ele>
        <time>2021-01-20T21:20:25Z</time>
      </trkpt>
      <trkpt lat="44.44478" lon="1.1233">
        <ele>245</ele>
        <time>2021-01-20T21:21:48Z</time>
      </trkpt>
      <trkpt lat="44.4444" lon="1.12226">
        <ele>251</ele>
        <time>2021-01-20T21:22:55Z</time>
      </trkpt>
      <trkpt lat="44.44414" lon="1.12175">
        <ele>253</ele>
        <time>2021-01-20T21:23:31Z</time>
      </trkpt>
      <trkpt lat="44.44391" lon="1.12197">
        <ele>250</ele>
        <time>2021-01-20T21:23:53Z</time>
      </trkpt>
      <trkpt lat="44.44362" lon="1.12161">
        <ele>251</ele>
        <time>2021-01-20T21:24:24Z</time>
      </trkpt>
      <trkpt lat="44.44339" lon="1.12132">
        <ele>253</ele>
        <time>2021-01-20T21:24:49Z</time>
      </trkpt>
      <trkpt lat="44.44265" lon="1.12117">
        <ele>249</ele>
        <time>2021-01-20T21:25:49Z</time>
      </trkpt>
      <trkpt lat="44.44223" lon="1.12154">
        <ele>242</ele>
        <time>2021-01-20T21:26:28Z</time>
      </trkpt>
      <trkpt lat="44.44192" lon="1.12193">
        <ele>237</ele>
        <time>2021-01-20T21:27:02Z</time>
      </trkpt>
      <trkpt lat="44.44136" lon="1.12211">
        <ele>233</ele>
        <time>2021-01-20T21:27:48Z</time>
      </trkpt>
      <trkpt lat="44.44097" lon="1.12218">
        <ele>231</ele>
        <time>2021-01-20T21:28:19Z</time>
      </trkpt>
      <trkpt lat="44.44061" lon="1.12233">
        <ele>230</ele>
        <time>2021-01-20T21:28:49Z</time>
      </trkpt>
      <trkpt lat="44.44015" lon="1.12215">
        <ele>233</ele>
        <time>2021-01-20T21:29:28Z</time>
      </trkpt>
      <trkpt lat="44.43955" lon="1.12237">
        <ele>232</ele>
        <time>2021-01-20T21:30:17Z</time>
      </trkpt>
      <trkpt lat="44.4393" lon="1.1225">
        <ele>232</ele>
        <time>2021-01-20T21:30:39Z</time>
      </trkpt>
      <trkpt lat="44.43909" lon="1.12278">
        <ele>230</ele>
        <time>2021-01-20T21:31:02Z</time>
      </trkpt>
      <trkpt lat="44.4389" lon="1.12295">
        <ele>228</ele>
        <time>2021-01-20T21:31:20Z</time>
      </trkpt>
      <trkpt lat="44.4386" lon="1.12314">
        <ele>227</ele>
        <time>2021-01-20T21:31:46Z</time>
      </trkpt>
      <trkpt lat="44.43832" lon="1.12324">
        <ele>227</ele>
        <time>2021-01-20T21:32:09Z</time>
      </trkpt>
      <trkpt lat="44.43808" lon="1.12332">
        <ele>228</ele>
        <time>2021-01-20T21:32:29Z</time>
      </trkpt>
      <trkpt lat="44.43779" lon="1.12335">
        <ele>228</ele>
        <time>2021-01-20T21:32:52Z</time>
      </trkpt>
      <trkpt lat="44.43759" lon="1.12341">
        <ele>227</ele>
        <time>2021-01-20T21:33:09Z</time>
      </trkpt>
      <trkpt lat="44.4372" lon="1.12351">
        <ele>226</ele>
        <time>2021-01-20T21:33:41Z</time>
      </trkpt>
      <trkpt lat="44.43701" lon="1.12363">
        <ele>225</ele>
        <time>2021-01-20T21:33:57Z</time>
      </trkpt>
      <trkpt lat="44.43681" lon="1.12392">
        <ele>229</ele>
        <time>2021-01-20T21:34:20Z</time>
      </trkpt>
      <trkpt lat="44.43662" lon="1.12416">
        <ele>233</ele>
        <time>2021-01-20T21:34:41Z</time>
      </trkpt>
      <trkpt lat="44.43645" lon="1.12426">
        <ele>230</ele>
        <time>2021-01-20T21:34:56Z</time>
      </trkpt>
      <trkpt lat="44.43617" lon="1.12463">
        <ele>228</ele>
        <time>2021-01-20T21:35:26Z</time>
      </trkpt>
      <trkpt lat="44.43596" lon="1.12479">
        <ele>228</ele>
        <time>2021-01-20T21:35:45Z</time>
      </trkpt>
      <trkpt lat="44.43583" lon="1.12521">
        <ele>230</ele>
        <time>2021-01-20T21:36:12Z</time>
      </trkpt>
      <trkpt lat="44.43581" lon="1.12562">
        <ele>230</ele>
        <time>2021-01-20T21:36:35Z</time>
      </trkpt>
      <trkpt lat="44.43579" lon="1.12615">
        <ele>227</ele>
        <time>2021-01-20T21:37:06Z</time>
      </trkpt>
      <trkpt lat="44.43551" lon="1.12706">
        <ele>208</ele>
        <time>2021-01-20T21:38:02Z</time>
      </trkpt>
      <trkpt lat="44.43534" lon="1.12731">
        <ele>200</ele>
        <time>2021-01-20T21:38:22Z</time>
      </trkpt>
      <trkpt lat="44.43515" lon="1.12773">
        <ele>191</ele>
        <time>2021-01-20T21:38:50Z</time>
      </trkpt>
      <trkpt lat="44.43498" lon="1.12817">
        <ele>185</ele>
        <time>2021-01-20T21:39:19Z</time>
      </trkpt>
      <trkpt lat="44.43487" lon="1.12847">
        <ele>180</ele>
        <time>2021-01-20T21:39:38Z</time>
      </trkpt>
      <trkpt lat="44.43484" lon="1.12882">
        <ele>177</ele>
        <time>2021-01-20T21:39:58Z</time>
      </trkpt>
      <trkpt lat="44.43465" lon="1.12891">
        <ele>173</ele>
        <time>2021-01-20T21:40:14Z</time>
      </trkpt>
      <trkpt lat="44.43457" lon="1.12872">
        <ele>173</ele>
        <time>2021-01-20T21:40:27Z</time>
      </trkpt>
      <trkpt lat="44.43445" lon="1.12876">
        <ele>170</ele>
        <time>2021-01-20T21:40:37Z</time>
      </trkpt>
      <trkpt lat="44.43436" lon="1.12898">
        <ele>168</ele>
        <time>2021-01-20T21:40:51Z</time>
      </trkpt>
      <trkpt lat="44.43423" lon="1.12902">
        <ele>166</ele>
        <time>2021-01-20T21:41:02Z</time>
      </trkpt>
      <trkpt lat="44.43418" lon="1.1293">
        <ele>165</ele>
        <time>2021-01-20T21:41:19Z</time>
      </trkpt>
      <trkpt lat="44.43417" lon="1.12965">
        <ele>163</ele>
        <time>2021-01-20T21:41:39Z</time>
      </trkpt>
      <trkpt lat="44.43415" lon="1.12993">
        <ele>162</ele>
        <time>2021-01-20T21:41:55Z</time>
      </trkpt>
      <trkpt lat="44.4341" lon="1.13013">
        <ele>160</ele>
        <time>2021-01-20T21:42:07Z</time>
      </trkpt>
      <trkpt lat="44.43408" lon="1.13029">
        <ele>158</ele>
        <time>2021-01-20T21:42:16Z</time>
      </trkpt>
      <trkpt lat="44.43395" lon="1.13041">
        <ele>156</ele>
        <time>2021-01-20T21:42:29Z</time>
      </trkpt>
      <trkpt lat="44.43372" lon="1.13073">
        <ele>152</ele>
        <time>2021-01-20T21:42:55Z</time>
      </trkpt>
      <trkpt lat="44.43358" lon="1.13091">
        <ele>149</ele>
        <time>2021-01-20T21:43:10Z</time>
      </trkpt>
      <trkpt lat="44.43348" lon="1.13112">
        <ele>147</ele>
        <time>2021-01-20T21:43:24Z</time>
      </trkpt>
      <trkpt lat="44.43339" lon="1.13118">
        <ele>146</ele>
        <time>2021-01-20T21:43:32Z</time>
      </trkpt>
      <trkpt lat="44.43369" lon="1.13138">
        <ele>146</ele>
        <time>2021-01-20T21:43:59Z</time>
      </trkpt>
      <trkpt lat="44.43394" lon="1.13179">
        <ele>145</ele>
        <time>2021-01-20T21:44:30Z</time>
      </trkpt>
      <trkpt lat="44.43413" lon="1.13228">
        <ele>142</ele>
        <time>2021-01-20T21:45:01Z</time>
      </trkpt>
      <trkpt lat="44.4344" lon="1.13257">
        <ele>141</ele>
        <time>2021-01-20T21:45:29Z</time>
      </trkpt>
      <trkpt lat="44.43467" lon="1.13283">
        <ele>138</ele>
        <time>2021-01-20T21:45:55Z</time>
      </trkpt>
      <trkpt lat="44.43502" lon="1.13294">
        <ele>137</ele>
        <time>2021-01-20T21:46:24Z</time>
      </trkpt>
      <trkpt lat="44.43525" lon="1.13318">
        <ele>134</ele>
        <time>2021-01-20T21:46:47Z</time>
      </trkpt>
      <trkpt lat="44.43513" lon="1.13391">
        <ele>130</ele>
        <time>2021-01-20T21:47:29Z</time>
      </trkpt>
      <trkpt lat="44.43494" lon="1.13447">
        <ele>130</ele>
        <time>2021-01-20T21:48:05Z</time>
      </trkpt>
      <trkpt lat="44.4349" lon="1.1347">
        <ele>130</ele>
        <time>2021-01-20T21:48:18Z</time>
      </trkpt>
      <trkpt lat="44.43466" lon="1.13454">
        <ele>132</ele>
        <time>2021-01-20T21:48:40Z</time>
      </trkpt>
      <trkpt lat="44.43447" lon="1.13446">
        <ele>133</ele>
        <time>2021-01-20T21:48:56Z</time>
      </trkpt>
      <trkpt lat="44.4342" lon="1.1348">
        <ele>134</ele>
        <time>2021-01-20T21:49:25Z</time>
      </trkpt>
      <trkpt lat="44.43392" lon="1.13492">
        <ele>135</ele>
        <time>2021-01-20T21:49:48Z</time>
      </trkpt>
      <trkpt lat="44.43353" lon="1.13513">
        <ele>137</ele>
        <time>2021-01-20T21:50:22Z</time>
      </trkpt>
      <trkpt lat="44.43315" lon="1.1352">
        <ele>139</ele>
        <time>2021-01-20T21:50:52Z</time>
      </trkpt>
      <trkpt lat="44.4326" lon="1.13544">
        <ele>140</ele>
        <time>2021-01-20T21:51:38Z</time>
      </trkpt>
      <trkpt lat="44.43216" lon="1.13579">
        <ele>140</ele>
        <time>2021-01-20T21:52:19Z</time>
      </trkpt>
      <trkpt lat="44.4317" lon="1.13633">
        <ele>138</ele>
        <time>2021-01-20T21:53:07Z</time>
      </trkpt>
      <trkpt lat="44.43133" lon="1.13693">
        <ele>138</ele>
        <time>2021-01-20T21:53:52Z</time>
      </trkpt>
      <trkpt lat="44.43109" lon="1.13723">
        <ele>138</ele>
        <time>2021-01-20T21:54:18Z</time>
      </trkpt>
      <trkpt lat="44.43008" lon="1.13771">
        <ele>144</ele>
        <time>2021-01-20T21:55:43Z</time>
      </trkpt>
      <trkpt lat="44.42986" lon="1.1379">
        <ele>144</ele>
        <time>2021-01-20T21:56:04Z</time>
      </trkpt>
      <trkpt lat="44.42909" lon="1.13865">
        <ele>143</ele>
        <time>2021-01-20T21:57:19Z</time>
      </trkpt>
      <trkpt lat="44.42832" lon="1.13992">
        <ele>141</ele>
        <time>2021-01-20T21:58:54Z</time>
      </trkpt>
      <trkpt lat="44.42799" lon="1.1404">
        <ele>142</ele>
        <time>2021-01-20T21:59:33Z</time>
      </trkpt>
      <trkpt lat="44.42777" lon="1.14056">
        <ele>142</ele>
        <time>2021-01-20T21:59:52Z</time>
      </trkpt>
      <trkpt lat="44.42733" lon="1.1407">
        <ele>144</ele>
        <time>2021-01-20T22:00:29Z</time>
      </trkpt>
      <trkpt lat="44.42672" lon="1.14084">
        <ele>145</ele>
        <time>2021-01-20T22:01:18Z</time>
      </trkpt>
      <trkpt lat="44.42643" lon="1.1409">
        <ele>146</ele>
        <time>2021-01-20T22:01:42Z</time>
      </trkpt>
      <trkpt lat="44.42605" lon="1.14096">
        <ele>149</ele>
        <time>2021-01-20T22:02:12Z</time>
      </trkpt>
      <trkpt lat="44.42562" lon="1.14108">
        <ele>150</ele>
        <time>2021-01-20T22:02:47Z</time>
      </trkpt>
      <trkpt lat="44.42529" lon="1.14115">
        <ele>151</ele>
        <time>2021-01-20T22:03:14Z</time>
      </trkpt>
      <trkpt lat="44.42412" lon="1.14117">
        <ele>154</ele>
        <time>2021-01-20T22:04:48Z</time>
      </trkpt>
      <trkpt lat="44.42349" lon="1.14134">
        <ele>155</ele>
        <time>2021-01-20T22:05:39Z</time>
      </trkpt>
      <trkpt lat="44.42274" lon="1.14178">
        <ele>152</ele>
        <time>2021-01-20T22:06:44Z</time>
      </trkpt>
      <trkpt lat="44.42255" lon="1.14208">
        <ele>150</ele>
        <time>2021-01-20T22:07:07Z</time>
      </trkpt>
      <trkpt lat="44.42251" lon="1.1428">
        <ele>146</ele>
        <time>2021-01-20T22:07:48Z</time>
      </trkpt>
      <trkpt lat="44.42206" lon="1.14325">
        <ele>146</ele>
        <time>2021-01-20T22:08:33Z</time>
      </trkpt>
      <trkpt lat="44.42147" lon="1.14357">
        <ele>147</ele>
        <time>2021-01-20T22:09:23Z</time>
      </trkpt>
      <trkpt lat="44.42087" lon="1.14368">
        <ele>148</ele>
        <time>2021-01-20T22:10:12Z</time>
      </trkpt>
      <trkpt lat="44.42058" lon="1.14366">
        <ele>149</ele>
        <time>2021-01-20T22:10:35Z</time>
      </trkpt>
      <trkpt lat="44.42023" lon="1.14356">
        <ele>150</ele>
        <time>2021-01-20T22:11:04Z</time>
      </trkpt>
      <trkpt lat="44.42015" lon="1.14356">
        <ele>150</ele>
        <time>2021-01-20T22:11:10Z</time>
      </trkpt>
      <trkpt lat="44.42004" lon="1.14354">
        <ele>151</ele>
        <time>2021-01-20T22:11:19Z</time>
      </trkpt>
      <trkpt lat="44.41971" lon="1.14366">
        <ele>150</ele>
        <time>2021-01-20T22:11:46Z</time>
      </trkpt>
      <trkpt lat="44.41924" lon="1.14457">
        <ele>150</ele>
        <time>2021-01-20T22:12:50Z</time>
      </trkpt>
      <trkpt lat="44.41869" lon="1.14421">
        <ele>149</ele>
        <time>2021-01-20T22:13:39Z</time>
      </trkpt>
      <trkpt lat="44.41802" lon="1.14289">
        <ele>152</ele>
        <time>2021-01-20T22:15:12Z</time>
      </trkpt>
      <trkpt lat="44.41691" lon="1.14083">
        <ele>160</ele>
        <time>2021-01-20T22:17:39Z</time>
      </trkpt>
      <trkpt lat="44.41474" lon="1.14174">
        <ele>156</ele>
        <time>2021-01-20T22:20:41Z</time>
      </trkpt>
      <trkpt lat="44.41296" lon="1.14203">
        <ele>159</ele>
        <time>2021-01-20T22:23:04Z</time>
      </trkpt>
      <trkpt lat="44.41193" lon="1.14272">
        <ele>160</ele>
        <time>2021-01-20T22:24:35Z</time>
      </trkpt>
      <trkpt lat="44.41126" lon="1.14358">
        <ele>161</ele>
        <time>2021-01-20T22:25:48Z</time>
      </trkpt>
      <trkpt lat="44.4111" lon="1.14416">
        <ele>162</ele>
        <time>2021-01-20T22:26:24Z</time>
      </trkpt>
      <trkpt lat="44.41105" lon="1.14492">
        <ele>164</ele>
        <time>2021-01-20T22:27:07Z</time>
      </trkpt>
      <trkpt lat="44.41133" lon="1.14528">
        <ele>167</ele>
        <time>2021-01-20T22:27:38Z</time>
      </trkpt>
      <trkpt lat="44.41224" lon="1.14514">
        <ele>170</ele>
        <time>2021-01-20T22:28:51Z</time>
      </trkpt>
      <trkpt lat="44.41301" lon="1.14535">
        <ele>172</ele>
        <time>2021-01-20T22:29:54Z</time>
      </trkpt>
      <trkpt lat="44.41378" lon="1.14582">
        <ele>173</ele>
        <time>2021-01-20T22:31:01Z</time>
      </trkpt>
      <trkpt lat="44.4144" lon="1.14719">
        <ele>176</ele>
        <time>2021-01-20T22:32:34Z</time>
      </trkpt>
      <trkpt lat="44.41474" lon="1.14882">
        <ele>179</ele>
        <time>2021-01-20T22:34:11Z</time>
      </trkpt>
      <trkpt lat="44.41499" lon="1.14976">
        <ele>178</ele>
        <time>2021-01-20T22:35:09Z</time>
      </trkpt>
      <trkpt lat="44.41461" lon="1.1499">
        <ele>180</ele>
        <time>2021-01-20T22:35:40Z</time>
      </trkpt>
      <trkpt lat="44.41432" lon="1.15062">
        <ele>177</ele>
        <time>2021-01-20T22:36:27Z</time>
      </trkpt>
      <trkpt lat="44.41432" lon="1.15116">
        <ele>176</ele>
        <time>2021-01-20T22:36:58Z</time>
      </trkpt>
      <trkpt lat="44.41425" lon="1.15145">
        <ele>177</ele>
        <time>2021-01-20T22:37:16Z</time>
      </trkpt>
      <trkpt lat="44.41502" lon="1.15253">
        <ele>185</ele>
        <time>2021-01-20T22:38:43Z</time>
      </trkpt>
      <trkpt lat="44.4155" lon="1.15361">
        <ele>193</ele>
        <time>2021-01-20T22:39:56Z</time>
      </trkpt>
      <trkpt lat="44.4158" lon="1.15422">
        <ele>191</ele>
        <time>2021-01-20T22:40:38Z</time>
      </trkpt>
      <trkpt lat="44.41608" lon="1.15512">
        <ele>185</ele>
        <time>2021-01-20T22:41:34Z</time>
      </trkpt>
      <trkpt lat="44.41629" lon="1.15723">
        <ele>178</ele>
        <time>2021-01-20T22:43:36Z</time>
      </trkpt>
      <trkpt lat="44.41629" lon="1.15723">
        <ele>178</ele>
        <time>2021-01-20T22:43:36Z</time>
      </trkpt>
    </trkseg>
  </trk>
  <trk>
    <name><![CDATA[46 - Porte-du-Quercy : Les Terres Blanches : boucle nord - petite 11 km]]></name>
    <trkseg>
      <trkpt lat="44.42153" lon="1.14723">
        <ele>147</ele>
        <time>2021-01-20T18:28:14Z</time>
      </trkpt>
      <trkpt lat="44.42257" lon="1.14881">
        <ele>159</ele>
        <time>2021-01-20T18:30:17Z</time>
      </trkpt>
      <trkpt lat="44.42361" lon="1.15015">
        <ele>167</ele>
        <time>2021-01-20T18:32:10Z</time>
      </trkpt>
      <trkpt lat="44.42465" lon="1.15093">
        <ele>171</ele>
        <time>2021-01-20T18:33:44Z</time>
      </trkpt>
      <trkpt lat="44.42682" lon="1.15075">
        <ele>205</ele>
        <time>2021-01-20T18:36:39Z</time>
      </trkpt>
      <trkpt lat="44.42725" lon="1.15227">
        <ele>196</ele>
        <time>2021-01-20T18:38:12Z</time>
      </trkpt>
      <trkpt lat="44.42725" lon="1.15373">
        <ele>194</ele>
        <time>2021-01-20T18:39:36Z</time>
      </trkpt>
      <trkpt lat="44.42777" lon="1.15567">
        <ele>186</ele>
        <time>2021-01-20T18:41:34Z</time>
      </trkpt>
      <trkpt lat="44.42885" lon="1.15464">
        <ele>175</ele>
        <time>2021-01-20T18:43:19Z</time>
      </trkpt>
      <trkpt lat="44.42989" lon="1.15367">
        <ele>168</ele>
        <time>2021-01-20T18:44:59Z</time>
      </trkpt>
      <trkpt lat="44.43032" lon="1.15482">
        <ele>173</ele>
        <time>2021-01-20T18:46:13Z</time>
      </trkpt>
      <trkpt lat="44.43053" lon="1.15551">
        <ele>176</ele>
        <time>2021-01-20T18:46:56Z</time>
      </trkpt>
      <trkpt lat="44.43058" lon="1.1557">
        <ele>176</ele>
        <time>2021-01-20T18:47:07Z</time>
      </trkpt>
      <trkpt lat="44.43168" lon="1.15673">
        <ele>188</ele>
        <time>2021-01-20T18:48:53Z</time>
      </trkpt>
      <trkpt lat="44.43254" lon="1.1575">
        <ele>203</ele>
        <time>2021-01-20T18:50:15Z</time>
      </trkpt>
      <trkpt lat="44.43297" lon="1.15778">
        <ele>209</ele>
        <time>2021-01-20T18:50:53Z</time>
      </trkpt>
      <trkpt lat="44.43277" lon="1.15905">
        <ele>214</ele>
        <time>2021-01-20T18:52:07Z</time>
      </trkpt>
      <trkpt lat="44.43268" lon="1.15988">
        <ele>218</ele>
        <time>2021-01-20T18:52:55Z</time>
      </trkpt>
      <trkpt lat="44.43265" lon="1.16024">
        <ele>220</ele>
        <time>2021-01-20T18:53:16Z</time>
      </trkpt>
      <trkpt lat="44.43312" lon="1.16031">
        <ele>219</ele>
        <time>2021-01-20T18:53:54Z</time>
      </trkpt>
      <trkpt lat="44.43344" lon="1.16113">
        <ele>223</ele>
        <time>2021-01-20T18:54:47Z</time>
      </trkpt>
      <trkpt lat="44.43412" lon="1.16162">
        <ele>215</ele>
        <time>2021-01-20T18:55:49Z</time>
      </trkpt>
      <trkpt lat="44.4349" lon="1.1631">
        <ele>199</ele>
        <time>2021-01-20T18:57:34Z</time>
      </trkpt>
      <trkpt lat="44.43514" lon="1.16403">
        <ele>199</ele>
        <time>2021-01-20T18:58:30Z</time>
      </trkpt>
      <trkpt lat="44.43588" lon="1.16315">
        <ele>199</ele>
        <time>2021-01-20T18:59:48Z</time>
      </trkpt>
      <trkpt lat="44.43674" lon="1.16203">
        <ele>199</ele>
        <time>2021-01-20T19:01:22Z</time>
      </trkpt>
      <trkpt lat="44.43818" lon="1.16295">
        <ele>200</ele>
        <time>2021-01-20T19:03:29Z</time>
      </trkpt>
      <trkpt lat="44.43887" lon="1.16323">
        <ele>200</ele>
        <time>2021-01-20T19:04:26Z</time>
      </trkpt>
      <trkpt lat="44.43914" lon="1.16297">
        <ele>200</ele>
        <time>2021-01-20T19:04:53Z</time>
      </trkpt>
      <trkpt lat="44.43954" lon="1.16381">
        <ele>207</ele>
        <time>2021-01-20T19:05:50Z</time>
      </trkpt>
      <trkpt lat="44.43939" lon="1.16456">
        <ele>208</ele>
        <time>2021-01-20T19:06:35Z</time>
      </trkpt>
      <trkpt lat="44.43922" lon="1.16559">
        <ele>215</ele>
        <time>2021-01-20T19:07:35Z</time>
      </trkpt>
      <trkpt lat="44.43922" lon="1.16659">
        <ele>223</ele>
        <time>2021-01-20T19:08:32Z</time>
      </trkpt>
      <trkpt lat="44.44005" lon="1.16817">
        <ele>241</ele>
        <time>2021-01-20T19:10:25Z</time>
      </trkpt>
      <trkpt lat="44.44052" lon="1.16896">
        <ele>250</ele>
        <time>2021-01-20T19:11:23Z</time>
      </trkpt>
      <trkpt lat="44.44087" lon="1.16993">
        <ele>257</ele>
        <time>2021-01-20T19:12:25Z</time>
      </trkpt>
      <trkpt lat="44.44107" lon="1.17126">
        <ele>261</ele>
        <time>2021-01-20T19:13:43Z</time>
      </trkpt>
      <trkpt lat="44.44149" lon="1.17203">
        <ele>264</ele>
        <time>2021-01-20T19:14:39Z</time>
      </trkpt>
      <trkpt lat="44.44185" lon="1.17162">
        <ele>265</ele>
        <time>2021-01-20T19:15:16Z</time>
      </trkpt>
      <trkpt lat="44.44181" lon="1.17102">
        <ele>266</ele>
        <time>2021-01-20T19:15:50Z</time>
      </trkpt>
      <trkpt lat="44.44192" lon="1.17033">
        <ele>265</ele>
        <time>2021-01-20T19:16:31Z</time>
      </trkpt>
      <trkpt lat="44.44193" lon="1.16975">
        <ele>264</ele>
        <time>2021-01-20T19:17:04Z</time>
      </trkpt>
      <trkpt lat="44.44244" lon="1.16926">
        <ele>262</ele>
        <time>2021-01-20T19:17:53Z</time>
      </trkpt>
      <trkpt lat="44.44268" lon="1.16881">
        <ele>259</ele>
        <time>2021-01-20T19:18:25Z</time>
      </trkpt>
      <trkpt lat="44.44287" lon="1.16834">
        <ele>257</ele>
        <time>2021-01-20T19:18:56Z</time>
      </trkpt>
      <trkpt lat="44.44306" lon="1.16795">
        <ele>257</ele>
        <time>2021-01-20T19:19:23Z</time>
      </trkpt>
      <trkpt lat="44.44275" lon="1.16451">
        <ele>254</ele>
        <time>2021-01-20T19:22:41Z</time>
      </trkpt>
      <trkpt lat="44.44267" lon="1.16196">
        <ele>237</ele>
        <time>2021-01-20T19:25:07Z</time>
      </trkpt>
      <trkpt lat="44.44289" lon="1.15829">
        <ele>236</ele>
        <time>2021-01-20T19:28:38Z</time>
      </trkpt>
      <trkpt lat="44.44275" lon="1.15543">
        <ele>205</ele>
        <time>2021-01-20T19:31:22Z</time>
      </trkpt>
      <trkpt lat="44.44231" lon="1.15186">
        <ele>223</ele>
        <time>2021-01-20T19:34:49Z</time>
      </trkpt>
      <trkpt lat="44.44114" lon="1.15012">
        <ele>200</ele>
        <time>2021-01-20T19:37:05Z</time>
      </trkpt>
      <trkpt lat="44.44034" lon="1.14971">
        <ele>189</ele>
        <time>2021-01-20T19:38:14Z</time>
      </trkpt>
      <trkpt lat="44.43978" lon="1.14948">
        <ele>185</ele>
        <time>2021-01-20T19:39:00Z</time>
      </trkpt>
      <trkpt lat="44.4399" lon="1.14828">
        <ele>175</ele>
        <time>2021-01-20T19:40:10Z</time>
      </trkpt>
      <trkpt lat="44.44025" lon="1.14683">
        <ele>164</ele>
        <time>2021-01-20T19:41:37Z</time>
      </trkpt>
      <trkpt lat="44.44018" lon="1.14583">
        <ele>166</ele>
        <time>2021-01-20T19:42:35Z</time>
      </trkpt>
      <trkpt lat="44.44034" lon="1.144">
        <ele>158</ele>
        <time>2021-01-20T19:44:20Z</time>
      </trkpt>
      <trkpt lat="44.4402" lon="1.1434">
        <ele>156</ele>
        <time>2021-01-20T19:44:56Z</time>
      </trkpt>
      <trkpt lat="44.44018" lon="1.1423">
        <ele>154</ele>
        <time>2021-01-20T19:45:59Z</time>
      </trkpt>
      <trkpt lat="44.4403" lon="1.14156">
        <ele>149</ele>
        <time>2021-01-20T19:46:42Z</time>
      </trkpt>
      <trkpt lat="44.4401" lon="1.14084">
        <ele>149</ele>
        <time>2021-01-20T19:47:27Z</time>
      </trkpt>
      <trkpt lat="44.43952" lon="1.14008">
        <ele>143</ele>
        <time>2021-01-20T19:48:30Z</time>
      </trkpt>
      <trkpt lat="44.43928" lon="1.13957">
        <ele>137</ele>
        <time>2021-01-20T19:49:05Z</time>
      </trkpt>
      <trkpt lat="44.43948" lon="1.13847">
        <ele>129</ele>
        <time>2021-01-20T19:50:10Z</time>
      </trkpt>
      <trkpt lat="44.43903" lon="1.13788">
        <ele>130</ele>
        <time>2021-01-20T19:50:59Z</time>
      </trkpt>
      <trkpt lat="44.43863" lon="1.13794">
        <ele>134</ele>
        <time>2021-01-20T19:51:32Z</time>
      </trkpt>
      <trkpt lat="44.4381" lon="1.13801">
        <ele>139</ele>
        <time>2021-01-20T19:52:14Z</time>
      </trkpt>
      <trkpt lat="44.43754" lon="1.13814">
        <ele>144</ele>
        <time>2021-01-20T19:53:00Z</time>
      </trkpt>
      <trkpt lat="44.43672" lon="1.13857">
        <ele>155</ele>
        <time>2021-01-20T19:54:10Z</time>
      </trkpt>
      <trkpt lat="44.43662" lon="1.13799">
        <ele>159</ele>
        <time>2021-01-20T19:54:44Z</time>
      </trkpt>
      <trkpt lat="44.43648" lon="1.13722">
        <ele>160</ele>
        <time>2021-01-20T19:55:29Z</time>
      </trkpt>
      <trkpt lat="44.43639" lon="1.13638">
        <ele>154</ele>
        <time>2021-01-20T19:56:18Z</time>
      </trkpt>
      <trkpt lat="44.4363" lon="1.13612">
        <ele>150</ele>
        <time>2021-01-20T19:56:34Z</time>
      </trkpt>
      <trkpt lat="44.43591" lon="1.1363">
        <ele>154</ele>
        <time>2021-01-20T19:57:07Z</time>
      </trkpt>
      <trkpt lat="44.43559" lon="1.13643">
        <ele>155</ele>
        <time>2021-01-20T19:57:34Z</time>
      </trkpt>
      <trkpt lat="44.43511" lon="1.13689">
        <ele>157</ele>
        <time>2021-01-20T19:58:20Z</time>
      </trkpt>
      <trkpt lat="44.43473" lon="1.13796">
        <ele>166</ele>
        <time>2021-01-20T19:59:29Z</time>
      </trkpt>
      <trkpt lat="44.43462" lon="1.13888">
        <ele>174</ele>
        <time>2021-01-20T20:00:22Z</time>
      </trkpt>
      <trkpt lat="44.43435" lon="1.13952">
        <ele>176</ele>
        <time>2021-01-20T20:01:05Z</time>
      </trkpt>
      <trkpt lat="44.43347" lon="1.13982">
        <ele>182</ele>
        <time>2021-01-20T20:02:17Z</time>
      </trkpt>
      <trkpt lat="44.43276" lon="1.13982">
        <ele>186</ele>
        <time>2021-01-20T20:03:14Z</time>
      </trkpt>
      <trkpt lat="44.43159" lon="1.14075">
        <ele>192</ele>
        <time>2021-01-20T20:05:02Z</time>
      </trkpt>
      <trkpt lat="44.43072" lon="1.14212">
        <ele>197</ele>
        <time>2021-01-20T20:06:46Z</time>
      </trkpt>
      <trkpt lat="44.42865" lon="1.14335">
        <ele>193</ele>
        <time>2021-01-20T20:09:47Z</time>
      </trkpt>
      <trkpt lat="44.42597" lon="1.14479">
        <ele>182</ele>
        <time>2021-01-20T20:13:36Z</time>
      </trkpt>
      <trkpt lat="44.42376" lon="1.14566">
        <ele>158</ele>
        <time>2021-01-20T20:16:40Z</time>
      </trkpt>
      <trkpt lat="44.4219" lon="1.14703">
        <ele>148</ele>
        <time>2021-01-20T20:19:28Z</time>
      </trkpt>
      <trkpt lat="44.42045" lon="1.14741">
        <ele>150</ele>
        <time>2021-01-20T20:21:27Z</time>
      </trkpt>
      <trkpt lat="44.4199" lon="1.14728">
        <ele>153</ele>
        <time>2021-01-20T20:22:11Z</time>
      </trkpt>
      <trkpt lat="44.41962" lon="1.14736">
        <ele>152</ele>
        <time>2021-01-20T20:22:34Z</time>
      </trkpt>
      <trkpt lat="44.41941" lon="1.14869">
        <ele>155</ele>
        <time>2021-01-20T20:23:52Z</time>
      </trkpt>
      <trkpt lat="44.41922" lon="1.15041">
        <ele>155</ele>
        <time>2021-01-20T20:25:32Z</time>
      </trkpt>
      <trkpt lat="44.41879" lon="1.15071">
        <ele>157</ele>
        <time>2021-01-20T20:26:10Z</time>
      </trkpt>
      <trkpt lat="44.4183" lon="1.15161">
        <ele>162</ele>
        <time>2021-01-20T20:27:15Z</time>
      </trkpt>
      <trkpt lat="44.41769" lon="1.15268">
        <ele>167</ele>
        <time>2021-01-20T20:28:33Z</time>
      </trkpt>
      <trkpt lat="44.41692" lon="1.15333">
        <ele>176</ele>
        <time>2021-01-20T20:29:45Z</time>
      </trkpt>
      <trkpt lat="44.4163" lon="1.15356">
        <ele>181</ele>
        <time>2021-01-20T20:30:36Z</time>
      </trkpt>
      <trkpt lat="44.41583" lon="1.1545">
        <ele>190</ele>
        <time>2021-01-20T20:31:42Z</time>
      </trkpt>
      <trkpt lat="44.41626" lon="1.15574">
        <ele>183</ele>
        <time>2021-01-20T20:33:01Z</time>
      </trkpt>
      <trkpt lat="44.41641" lon="1.15699">
        <ele>178</ele>
        <time>2021-01-20T20:34:13Z</time>
      </trkpt>
      <trkpt lat="44.41656" lon="1.15781">
        <ele>175</ele>
        <time>2021-01-20T20:35:02Z</time>
      </trkpt>
      <trkpt lat="44.41656" lon="1.15854">
        <ele>174</ele>
        <time>2021-01-20T20:35:43Z</time>
      </trkpt>
      <trkpt lat="44.41656" lon="1.15854">
        <ele>174</ele>
        <time>2021-01-20T20:35:43Z</time>
      </trkpt>
    </trkseg>
  </trk>
  <trk>
    <name><![CDATA[46 - Porte-du-Quercy : Les Terres Blanches : boucle nord-ouest 18 km]]></name>
    <trkseg>
      <trkpt lat="44.41672" lon="1.15852">
        <ele>174</ele>
        <time>2021-01-20T18:32:40Z</time>
      </trkpt>
      <trkpt lat="44.41633" lon="1.1564">
        <ele>181</ele>
        <time>2021-01-20T18:34:45Z</time>
      </trkpt>
      <trkpt lat="44.41585" lon="1.15427">
        <ele>190</ele>
        <time>2021-01-20T18:36:53Z</time>
      </trkpt>
      <trkpt lat="44.4152" lon="1.15288">
        <ele>189</ele>
        <time>2021-01-20T18:38:28Z</time>
      </trkpt>
      <trkpt lat="44.41459" lon="1.15203">
        <ele>182</ele>
        <time>2021-01-20T18:39:37Z</time>
      </trkpt>
      <trkpt lat="44.41425" lon="1.1513">
        <ele>177</ele>
        <time>2021-01-20T18:40:27Z</time>
      </trkpt>
      <trkpt lat="44.41468" lon="1.15002">
        <ele>179</ele>
        <time>2021-01-20T18:41:48Z</time>
      </trkpt>
      <trkpt lat="44.41481" lon="1.14899">
        <ele>180</ele>
        <time>2021-01-20T18:42:47Z</time>
      </trkpt>
      <trkpt lat="44.41451" lon="1.14796">
        <ele>178</ele>
        <time>2021-01-20T18:43:51Z</time>
      </trkpt>
      <trkpt lat="44.41416" lon="1.14656">
        <ele>175</ele>
        <time>2021-01-20T18:45:16Z</time>
      </trkpt>
      <trkpt lat="44.41394" lon="1.14572">
        <ele>171</ele>
        <time>2021-01-20T18:46:07Z</time>
      </trkpt>
      <trkpt lat="44.41334" lon="1.14572">
        <ele>175</ele>
        <time>2021-01-20T18:46:55Z</time>
      </trkpt>
      <trkpt lat="44.41264" lon="1.14511">
        <ele>171</ele>
        <time>2021-01-20T18:48:01Z</time>
      </trkpt>
      <trkpt lat="44.41147" lon="1.14553">
        <ele>170</ele>
        <time>2021-01-20T18:49:38Z</time>
      </trkpt>
      <trkpt lat="44.41108" lon="1.14456">
        <ele>163</ele>
        <time>2021-01-20T18:50:41Z</time>
      </trkpt>
      <trkpt lat="44.41104" lon="1.14353">
        <ele>162</ele>
        <time>2021-01-20T18:51:40Z</time>
      </trkpt>
      <trkpt lat="44.41277" lon="1.14189">
        <ele>160</ele>
        <time>2021-01-20T18:54:28Z</time>
      </trkpt>
      <trkpt lat="44.41494" lon="1.14159">
        <ele>157</ele>
        <time>2021-01-20T18:57:22Z</time>
      </trkpt>
      <trkpt lat="44.41688" lon="1.14075">
        <ele>160</ele>
        <time>2021-01-20T19:00:05Z</time>
      </trkpt>
      <trkpt lat="44.41615" lon="1.13952">
        <ele>166</ele>
        <time>2021-01-20T19:01:36Z</time>
      </trkpt>
      <trkpt lat="44.41533" lon="1.13958">
        <ele>171</ele>
        <time>2021-01-20T19:02:42Z</time>
      </trkpt>
      <trkpt lat="44.41435" lon="1.13879">
        <ele>180</ele>
        <time>2021-01-20T19:04:13Z</time>
      </trkpt>
      <trkpt lat="44.41374" lon="1.13758">
        <ele>189</ele>
        <time>2021-01-20T19:05:37Z</time>
      </trkpt>
      <trkpt lat="44.41271" lon="1.13677">
        <ele>197</ele>
        <time>2021-01-20T19:07:12Z</time>
      </trkpt>
      <trkpt lat="44.41147" lon="1.13594">
        <ele>183</ele>
        <time>2021-01-20T19:09:02Z</time>
      </trkpt>
      <trkpt lat="44.4103" lon="1.13625">
        <ele>187</ele>
        <time>2021-01-20T19:10:37Z</time>
      </trkpt>
      <trkpt lat="44.40939" lon="1.13625">
        <ele>188</ele>
        <time>2021-01-20T19:11:50Z</time>
      </trkpt>
      <trkpt lat="44.41004" lon="1.13491">
        <ele>194</ele>
        <time>2021-01-20T19:13:23Z</time>
      </trkpt>
      <trkpt lat="44.41151" lon="1.13309">
        <ele>214</ele>
        <time>2021-01-20T19:16:00Z</time>
      </trkpt>
      <trkpt lat="44.41277" lon="1.13133">
        <ele>241</ele>
        <time>2021-01-20T19:18:23Z</time>
      </trkpt>
      <trkpt lat="44.41641" lon="1.13">
        <ele>236</ele>
        <time>2021-01-20T19:23:24Z</time>
      </trkpt>
      <trkpt lat="44.41767" lon="1.13151">
        <ele>232</ele>
        <time>2021-01-20T19:25:37Z</time>
      </trkpt>
      <trkpt lat="44.41875" lon="1.13212">
        <ele>241</ele>
        <time>2021-01-20T19:27:10Z</time>
      </trkpt>
      <trkpt lat="44.41923" lon="1.13085">
        <ele>234</ele>
        <time>2021-01-20T19:28:32Z</time>
      </trkpt>
      <trkpt lat="44.41875" lon="1.12909">
        <ele>218</ele>
        <time>2021-01-20T19:30:20Z</time>
      </trkpt>
      <trkpt lat="44.41793" lon="1.12805">
        <ele>197</ele>
        <time>2021-01-20T19:31:48Z</time>
      </trkpt>
      <trkpt lat="44.41771" lon="1.12405">
        <ele>177</ele>
        <time>2021-01-20T19:35:38Z</time>
      </trkpt>
      <trkpt lat="44.41702" lon="1.12016">
        <ele>168</ele>
        <time>2021-01-20T19:39:27Z</time>
      </trkpt>
      <trkpt lat="44.41728" lon="1.11901">
        <ele>165</ele>
        <time>2021-01-20T19:40:36Z</time>
      </trkpt>
      <trkpt lat="44.41607" lon="1.1167">
        <ele>164</ele>
        <time>2021-01-20T19:43:20Z</time>
      </trkpt>
      <trkpt lat="44.41932" lon="1.11385">
        <ele>160</ele>
        <time>2021-01-20T19:48:27Z</time>
      </trkpt>
      <trkpt lat="44.42157" lon="1.11294">
        <ele>168</ele>
        <time>2021-01-20T19:51:34Z</time>
      </trkpt>
      <trkpt lat="44.42461" lon="1.11452">
        <ele>166</ele>
        <time>2021-01-20T19:55:54Z</time>
      </trkpt>
      <trkpt lat="44.42565" lon="1.10973">
        <ele>216</ele>
        <time>2021-01-20T20:00:40Z</time>
      </trkpt>
      <trkpt lat="44.42638" lon="1.11051">
        <ele>235</ele>
        <time>2021-01-20T20:01:54Z</time>
      </trkpt>
      <trkpt lat="44.42617" lon="1.11246">
        <ele>215</ele>
        <time>2021-01-20T20:03:47Z</time>
      </trkpt>
      <trkpt lat="44.4269" lon="1.1147">
        <ele>221</ele>
        <time>2021-01-20T20:06:07Z</time>
      </trkpt>
      <trkpt lat="44.42708" lon="1.11039">
        <ele>247</ele>
        <time>2021-01-20T20:10:14Z</time>
      </trkpt>
      <trkpt lat="44.42734" lon="1.10548">
        <ele>263</ele>
        <time>2021-01-20T20:14:56Z</time>
      </trkpt>
      <trkpt lat="44.42929" lon="1.10414">
        <ele>252</ele>
        <time>2021-01-20T20:17:50Z</time>
      </trkpt>
      <trkpt lat="44.43171" lon="1.10396">
        <ele>252</ele>
        <time>2021-01-20T20:21:04Z</time>
      </trkpt>
      <trkpt lat="44.43277" lon="1.10536">
        <ele>253</ele>
        <time>2021-01-20T20:23:00Z</time>
      </trkpt>
      <trkpt lat="44.4335" lon="1.10536">
        <ele>255</ele>
        <time>2021-01-20T20:23:59Z</time>
      </trkpt>
      <trkpt lat="44.43376" lon="1.10615">
        <ele>251</ele>
        <time>2021-01-20T20:24:48Z</time>
      </trkpt>
      <trkpt lat="44.43389" lon="1.10663">
        <ele>248</ele>
        <time>2021-01-20T20:25:18Z</time>
      </trkpt>
      <trkpt lat="44.43364" lon="1.10708">
        <ele>237</ele>
        <time>2021-01-20T20:25:50Z</time>
      </trkpt>
      <trkpt lat="44.43361" lon="1.10712">
        <ele>236</ele>
        <time>2021-01-20T20:25:54Z</time>
      </trkpt>
      <trkpt lat="44.43448" lon="1.10839">
        <ele>224</ele>
        <time>2021-01-20T20:27:34Z</time>
      </trkpt>
      <trkpt lat="44.43615" lon="1.10723">
        <ele>254</ele>
        <time>2021-01-20T20:30:04Z</time>
      </trkpt>
      <trkpt lat="44.43677" lon="1.10731">
        <ele>261</ele>
        <time>2021-01-20T20:30:53Z</time>
      </trkpt>
      <trkpt lat="44.43861" lon="1.10836">
        <ele>263</ele>
        <time>2021-01-20T20:33:33Z</time>
      </trkpt>
      <trkpt lat="44.44038" lon="1.10845">
        <ele>262</ele>
        <time>2021-01-20T20:35:54Z</time>
      </trkpt>
      <trkpt lat="44.44237" lon="1.10888">
        <ele>259</ele>
        <time>2021-01-20T20:38:36Z</time>
      </trkpt>
      <trkpt lat="44.44289" lon="1.10979">
        <ele>257</ele>
        <time>2021-01-20T20:39:42Z</time>
      </trkpt>
      <trkpt lat="44.4434" lon="1.11034">
        <ele>257</ele>
        <time>2021-01-20T20:40:34Z</time>
      </trkpt>
      <trkpt lat="44.44439" lon="1.11046">
        <ele>254</ele>
        <time>2021-01-20T20:41:53Z</time>
      </trkpt>
      <trkpt lat="44.44441" lon="1.11187">
        <ele>254</ele>
        <time>2021-01-20T20:43:14Z</time>
      </trkpt>
      <trkpt lat="44.44429" lon="1.11316">
        <ele>255</ele>
        <time>2021-01-20T20:44:28Z</time>
      </trkpt>
      <trkpt lat="44.44493" lon="1.11462">
        <ele>249</ele>
        <time>2021-01-20T20:46:06Z</time>
      </trkpt>
      <trkpt lat="44.44499" lon="1.11479">
        <ele>248</ele>
        <time>2021-01-20T20:46:17Z</time>
      </trkpt>
      <trkpt lat="44.44441" lon="1.11595">
        <ele>249</ele>
        <time>2021-01-20T20:47:38Z</time>
      </trkpt>
      <trkpt lat="44.44355" lon="1.11698">
        <ele>253</ele>
        <time>2021-01-20T20:49:09Z</time>
      </trkpt>
      <trkpt lat="44.44236" lon="1.11719">
        <ele>256</ele>
        <time>2021-01-20T20:50:45Z</time>
      </trkpt>
      <trkpt lat="44.44138" lon="1.11797">
        <ele>255</ele>
        <time>2021-01-20T20:52:15Z</time>
      </trkpt>
      <trkpt lat="44.44089" lon="1.11894">
        <ele>249</ele>
        <time>2021-01-20T20:53:23Z</time>
      </trkpt>
      <trkpt lat="44.44087" lon="1.11998">
        <ele>245</ele>
        <time>2021-01-20T20:54:22Z</time>
      </trkpt>
      <trkpt lat="44.44043" lon="1.12071">
        <ele>241</ele>
        <time>2021-01-20T20:55:17Z</time>
      </trkpt>
      <trkpt lat="44.44007" lon="1.12121">
        <ele>239</ele>
        <time>2021-01-20T20:55:58Z</time>
      </trkpt>
      <trkpt lat="44.43971" lon="1.12168">
        <ele>235</ele>
        <time>2021-01-20T20:56:37Z</time>
      </trkpt>
      <trkpt lat="44.43945" lon="1.1224">
        <ele>232</ele>
        <time>2021-01-20T20:57:23Z</time>
      </trkpt>
      <trkpt lat="44.44038" lon="1.12218">
        <ele>232</ele>
        <time>2021-01-20T20:58:39Z</time>
      </trkpt>
      <trkpt lat="44.44033" lon="1.12269">
        <ele>227</ele>
        <time>2021-01-20T20:59:08Z</time>
      </trkpt>
      <trkpt lat="44.44004" lon="1.12301">
        <ele>224</ele>
        <time>2021-01-20T20:59:38Z</time>
      </trkpt>
      <trkpt lat="44.43994" lon="1.12359">
        <ele>219</ele>
        <time>2021-01-20T21:00:12Z</time>
      </trkpt>
      <trkpt lat="44.44004" lon="1.12453">
        <ele>212</ele>
        <time>2021-01-20T21:01:06Z</time>
      </trkpt>
      <trkpt lat="44.44012" lon="1.12514">
        <ele>210</ele>
        <time>2021-01-20T21:01:41Z</time>
      </trkpt>
      <trkpt lat="44.44025" lon="1.12644">
        <ele>202</ele>
        <time>2021-01-20T21:02:57Z</time>
      </trkpt>
      <trkpt lat="44.44046" lon="1.12796">
        <ele>201</ele>
        <time>2021-01-20T21:04:25Z</time>
      </trkpt>
      <trkpt lat="44.44056" lon="1.12922">
        <ele>196</ele>
        <time>2021-01-20T21:05:37Z</time>
      </trkpt>
      <trkpt lat="44.44082" lon="1.13048">
        <ele>188</ele>
        <time>2021-01-20T21:06:52Z</time>
      </trkpt>
      <trkpt lat="44.44105" lon="1.13189">
        <ele>175</ele>
        <time>2021-01-20T21:08:15Z</time>
      </trkpt>
      <trkpt lat="44.44146" lon="1.13124">
        <ele>172</ele>
        <time>2021-01-20T21:09:05Z</time>
      </trkpt>
      <trkpt lat="44.44159" lon="1.13196">
        <ele>167</ele>
        <time>2021-01-20T21:09:47Z</time>
      </trkpt>
      <trkpt lat="44.44195" lon="1.13135">
        <ele>167</ele>
        <time>2021-01-20T21:10:32Z</time>
      </trkpt>
      <trkpt lat="44.44198" lon="1.13305">
        <ele>161</ele>
        <time>2021-01-20T21:12:10Z</time>
      </trkpt>
      <trkpt lat="44.44203" lon="1.13402">
        <ele>157</ele>
        <time>2021-01-20T21:13:05Z</time>
      </trkpt>
      <trkpt lat="44.44182" lon="1.13482">
        <ele>155</ele>
        <time>2021-01-20T21:13:54Z</time>
      </trkpt>
      <trkpt lat="44.44143" lon="1.13583">
        <ele>146</ele>
        <time>2021-01-20T21:15:00Z</time>
      </trkpt>
      <trkpt lat="44.4412" lon="1.13662">
        <ele>138</ele>
        <time>2021-01-20T21:15:48Z</time>
      </trkpt>
      <trkpt lat="44.44092" lon="1.13705">
        <ele>133</ele>
        <time>2021-01-20T21:16:22Z</time>
      </trkpt>
      <trkpt lat="44.44087" lon="1.13716">
        <ele>132</ele>
        <time>2021-01-20T21:16:29Z</time>
      </trkpt>
      <trkpt lat="44.44038" lon="1.13637">
        <ele>135</ele>
        <time>2021-01-20T21:17:29Z</time>
      </trkpt>
      <trkpt lat="44.43989" lon="1.13579">
        <ele>138</ele>
        <time>2021-01-20T21:18:20Z</time>
      </trkpt>
      <trkpt lat="44.43961" lon="1.13536">
        <ele>139</ele>
        <time>2021-01-20T21:18:54Z</time>
      </trkpt>
      <trkpt lat="44.43883" lon="1.13445">
        <ele>135</ele>
        <time>2021-01-20T21:20:15Z</time>
      </trkpt>
      <trkpt lat="44.43847" lon="1.13391">
        <ele>134</ele>
        <time>2021-01-20T21:20:57Z</time>
      </trkpt>
      <trkpt lat="44.43788" lon="1.13362">
        <ele>135</ele>
        <time>2021-01-20T21:21:47Z</time>
      </trkpt>
      <trkpt lat="44.43713" lon="1.13359">
        <ele>135</ele>
        <time>2021-01-20T21:22:47Z</time>
      </trkpt>
      <trkpt lat="44.43636" lon="1.13344">
        <ele>134</ele>
        <time>2021-01-20T21:23:49Z</time>
      </trkpt>
      <trkpt lat="44.43577" lon="1.13312">
        <ele>135</ele>
        <time>2021-01-20T21:24:40Z</time>
      </trkpt>
      <trkpt lat="44.43533" lon="1.13323">
        <ele>133</ele>
        <time>2021-01-20T21:25:16Z</time>
      </trkpt>
      <trkpt lat="44.43507" lon="1.13377">
        <ele>131</ele>
        <time>2021-01-20T21:25:53Z</time>
      </trkpt>
      <trkpt lat="44.43494" lon="1.13445">
        <ele>130</ele>
        <time>2021-01-20T21:26:33Z</time>
      </trkpt>
      <trkpt lat="44.4345" lon="1.13456">
        <ele>133</ele>
        <time>2021-01-20T21:27:09Z</time>
      </trkpt>
      <trkpt lat="44.43397" lon="1.13509">
        <ele>134</ele>
        <time>2021-01-20T21:28:01Z</time>
      </trkpt>
      <trkpt lat="44.43288" lon="1.13534">
        <ele>139</ele>
        <time>2021-01-20T21:29:30Z</time>
      </trkpt>
      <trkpt lat="44.43202" lon="1.13576">
        <ele>142</ele>
        <time>2021-01-20T21:30:43Z</time>
      </trkpt>
      <trkpt lat="44.43141" lon="1.13679">
        <ele>137</ele>
        <time>2021-01-20T21:31:59Z</time>
      </trkpt>
      <trkpt lat="44.43093" lon="1.13728">
        <ele>138</ele>
        <time>2021-01-20T21:32:47Z</time>
      </trkpt>
      <trkpt lat="44.42968" lon="1.13813">
        <ele>143</ele>
        <time>2021-01-20T21:34:38Z</time>
      </trkpt>
      <trkpt lat="44.4292" lon="1.13886">
        <ele>140</ele>
        <time>2021-01-20T21:35:35Z</time>
      </trkpt>
      <trkpt lat="44.42855" lon="1.13965">
        <ele>141</ele>
        <time>2021-01-20T21:36:44Z</time>
      </trkpt>
      <trkpt lat="44.42768" lon="1.14068">
        <ele>142</ele>
        <time>2021-01-20T21:38:15Z</time>
      </trkpt>
      <trkpt lat="44.42569" lon="1.14116">
        <ele>149</ele>
        <time>2021-01-20T21:40:57Z</time>
      </trkpt>
      <trkpt lat="44.424" lon="1.14135">
        <ele>152</ele>
        <time>2021-01-20T21:43:12Z</time>
      </trkpt>
      <trkpt lat="44.42253" lon="1.14195">
        <ele>151</ele>
        <time>2021-01-20T21:45:15Z</time>
      </trkpt>
      <trkpt lat="44.4224" lon="1.14311">
        <ele>145</ele>
        <time>2021-01-20T21:46:22Z</time>
      </trkpt>
      <trkpt lat="44.4204" lon="1.14377">
        <ele>149</ele>
        <time>2021-01-20T21:49:07Z</time>
      </trkpt>
      <trkpt lat="44.41945" lon="1.14396">
        <ele>150</ele>
        <time>2021-01-20T21:50:23Z</time>
      </trkpt>
      <trkpt lat="44.41923" lon="1.1448">
        <ele>151</ele>
        <time>2021-01-20T21:51:15Z</time>
      </trkpt>
      <trkpt lat="44.41953" lon="1.14693">
        <ele>152</ele>
        <time>2021-01-20T21:53:19Z</time>
      </trkpt>
      <trkpt lat="44.41971" lon="1.14808">
        <ele>154</ele>
        <time>2021-01-20T21:54:26Z</time>
      </trkpt>
      <trkpt lat="44.41945" lon="1.14893">
        <ele>154</ele>
        <time>2021-01-20T21:55:19Z</time>
      </trkpt>
      <trkpt lat="44.41923" lon="1.14984">
        <ele>155</ele>
        <time>2021-01-20T21:56:14Z</time>
      </trkpt>
      <trkpt lat="44.41867" lon="1.15063">
        <ele>158</ele>
        <time>2021-01-20T21:57:18Z</time>
      </trkpt>
      <trkpt lat="44.41815" lon="1.15154">
        <ele>162</ele>
        <time>2021-01-20T21:58:24Z</time>
      </trkpt>
      <trkpt lat="44.41754" lon="1.15251">
        <ele>168</ele>
        <time>2021-01-20T21:59:38Z</time>
      </trkpt>
      <trkpt lat="44.41689" lon="1.15324">
        <ele>176</ele>
        <time>2021-01-20T22:00:45Z</time>
      </trkpt>
      <trkpt lat="44.41723" lon="1.15312">
        <ele>172</ele>
        <time>2021-01-20T22:01:13Z</time>
      </trkpt>
      <trkpt lat="44.41656" lon="1.1537">
        <ele>179</ele>
        <time>2021-01-20T22:02:16Z</time>
      </trkpt>
      <trkpt lat="44.41613" lon="1.15407">
        <ele>185</ele>
        <time>2021-01-20T22:02:56Z</time>
      </trkpt>
      <trkpt lat="44.41617" lon="1.15583">
        <ele>185</ele>
        <time>2021-01-20T22:04:37Z</time>
      </trkpt>
      <trkpt lat="44.41645" lon="1.15701">
        <ele>178</ele>
        <time>2021-01-20T22:05:48Z</time>
      </trkpt>
      <trkpt lat="44.41671" lon="1.1584">
        <ele>173</ele>
        <time>2021-01-20T22:07:10Z</time>
      </trkpt>
      <trkpt lat="44.41671" lon="1.1584">
        <ele>173</ele>
        <time>2021-01-20T22:07:10Z</time>
      </trkpt>
    </trkseg>
  </trk>
  <trk>
    <name><![CDATA[Les Terres blanches boucle ouest 30 km]]></name>
    <trkseg>
      <trkpt lat="44.4168" lon="1.15863">
        <ele>174</ele>
        <time>2021-01-20T18:25:30Z</time>
      </trkpt>
      <trkpt lat="44.41639" lon="1.15647">
        <ele>180</ele>
        <time>2021-01-20T18:27:38Z</time>
      </trkpt>
      <trkpt lat="44.41583" lon="1.15417">
        <ele>190</ele>
        <time>2021-01-20T18:29:57Z</time>
      </trkpt>
      <trkpt lat="44.41754" lon="1.15289">
        <ele>168</ele>
        <time>2021-01-20T18:32:32Z</time>
      </trkpt>
      <trkpt lat="44.41869" lon="1.1508">
        <ele>158</ele>
        <time>2021-01-20T18:35:03Z</time>
      </trkpt>
      <trkpt lat="44.41934" lon="1.1501">
        <ele>154</ele>
        <time>2021-01-20T18:36:09Z</time>
      </trkpt>
      <trkpt lat="44.41958" lon="1.14834">
        <ele>155</ele>
        <time>2021-01-20T18:37:51Z</time>
      </trkpt>
      <trkpt lat="44.41982" lon="1.14728">
        <ele>153</ele>
        <time>2021-01-20T18:38:55Z</time>
      </trkpt>
      <trkpt lat="44.41927" lon="1.147">
        <ele>152</ele>
        <time>2021-01-20T18:39:42Z</time>
      </trkpt>
      <trkpt lat="44.41927" lon="1.14543">
        <ele>151</ele>
        <time>2021-01-20T18:41:11Z</time>
      </trkpt>
      <trkpt lat="44.4191" lon="1.14461">
        <ele>150</ele>
        <time>2021-01-20T18:42:00Z</time>
      </trkpt>
      <trkpt lat="44.41832" lon="1.14367">
        <ele>150</ele>
        <time>2021-01-20T18:43:23Z</time>
      </trkpt>
      <trkpt lat="44.41754" lon="1.14194">
        <ele>157</ele>
        <time>2021-01-20T18:45:20Z</time>
      </trkpt>
      <trkpt lat="44.41689" lon="1.14078">
        <ele>160</ele>
        <time>2021-01-20T18:46:44Z</time>
      </trkpt>
      <trkpt lat="44.41617" lon="1.13945">
        <ele>166</ele>
        <time>2021-01-20T18:48:19Z</time>
      </trkpt>
      <trkpt lat="44.41533" lon="1.13954">
        <ele>171</ele>
        <time>2021-01-20T18:49:27Z</time>
      </trkpt>
      <trkpt lat="44.41433" lon="1.13872">
        <ele>181</ele>
        <time>2021-01-20T18:51:00Z</time>
      </trkpt>
      <trkpt lat="44.41375" lon="1.13755">
        <ele>188</ele>
        <time>2021-01-20T18:52:21Z</time>
      </trkpt>
      <trkpt lat="44.41277" lon="1.13684">
        <ele>197</ele>
        <time>2021-01-20T18:53:49Z</time>
      </trkpt>
      <trkpt lat="44.4124" lon="1.13634">
        <ele>192</ele>
        <time>2021-01-20T18:54:30Z</time>
      </trkpt>
      <trkpt lat="44.41132" lon="1.13596">
        <ele>184</ele>
        <time>2021-01-20T18:56:00Z</time>
      </trkpt>
      <trkpt lat="44.40939" lon="1.13638">
        <ele>188</ele>
        <time>2021-01-20T18:58:36Z</time>
      </trkpt>
      <trkpt lat="44.40952" lon="1.13541">
        <ele>191</ele>
        <time>2021-01-20T18:59:32Z</time>
      </trkpt>
      <trkpt lat="44.4106" lon="1.13438">
        <ele>198</ele>
        <time>2021-01-20T19:01:17Z</time>
      </trkpt>
      <trkpt lat="44.41147" lon="1.1332">
        <ele>212</ele>
        <time>2021-01-20T19:02:54Z</time>
      </trkpt>
      <trkpt lat="44.41214" lon="1.13238">
        <ele>225</ele>
        <time>2021-01-20T19:04:05Z</time>
      </trkpt>
      <trkpt lat="44.41294" lon="1.13217">
        <ele>226</ele>
        <time>2021-01-20T19:05:11Z</time>
      </trkpt>
      <trkpt lat="44.41383" lon="1.13165">
        <ele>231</ele>
        <time>2021-01-20T19:06:28Z</time>
      </trkpt>
      <trkpt lat="44.41448" lon="1.13092">
        <ele>233</ele>
        <time>2021-01-20T19:07:34Z</time>
      </trkpt>
      <trkpt lat="44.41559" lon="1.1305">
        <ele>236</ele>
        <time>2021-01-20T19:09:07Z</time>
      </trkpt>
      <trkpt lat="44.4163" lon="1.13004">
        <ele>237</ele>
        <time>2021-01-20T19:10:09Z</time>
      </trkpt>
      <trkpt lat="44.41787" lon="1.13171">
        <ele>233</ele>
        <time>2021-01-20T19:12:47Z</time>
      </trkpt>
      <trkpt lat="44.41867" lon="1.1322">
        <ele>240</ele>
        <time>2021-01-20T19:13:57Z</time>
      </trkpt>
      <trkpt lat="44.41917" lon="1.13098">
        <ele>234</ele>
        <time>2021-01-20T19:15:17Z</time>
      </trkpt>
      <trkpt lat="44.41899" lon="1.1301">
        <ele>227</ele>
        <time>2021-01-20T19:16:10Z</time>
      </trkpt>
      <trkpt lat="44.41867" lon="1.12877">
        <ele>214</ele>
        <time>2021-01-20T19:17:30Z</time>
      </trkpt>
      <trkpt lat="44.41867" lon="1.12755">
        <ele>209</ele>
        <time>2021-01-20T19:18:40Z</time>
      </trkpt>
      <trkpt lat="44.41778" lon="1.12558">
        <ele>184</ele>
        <time>2021-01-20T19:20:53Z</time>
      </trkpt>
      <trkpt lat="44.41739" lon="1.12227">
        <ele>172</ele>
        <time>2021-01-20T19:24:05Z</time>
      </trkpt>
      <trkpt lat="44.41691" lon="1.11991">
        <ele>165</ele>
        <time>2021-01-20T19:26:25Z</time>
      </trkpt>
      <trkpt lat="44.41698" lon="1.11863">
        <ele>159</ele>
        <time>2021-01-20T19:27:39Z</time>
      </trkpt>
      <trkpt lat="44.41654" lon="1.11778">
        <ele>157</ele>
        <time>2021-01-20T19:28:39Z</time>
      </trkpt>
      <trkpt lat="44.41585" lon="1.11687">
        <ele>165</ele>
        <time>2021-01-20T19:29:55Z</time>
      </trkpt>
      <trkpt lat="44.41687" lon="1.11602">
        <ele>159</ele>
        <time>2021-01-20T19:31:30Z</time>
      </trkpt>
      <trkpt lat="44.41793" lon="1.11517">
        <ele>159</ele>
        <time>2021-01-20T19:33:07Z</time>
      </trkpt>
      <trkpt lat="44.41888" lon="1.11417">
        <ele>159</ele>
        <time>2021-01-20T19:34:43Z</time>
      </trkpt>
      <trkpt lat="44.41973" lon="1.11329">
        <ele>162</ele>
        <time>2021-01-20T19:36:07Z</time>
      </trkpt>
      <trkpt lat="44.42062" lon="1.11284">
        <ele>165</ele>
        <time>2021-01-20T19:37:23Z</time>
      </trkpt>
      <trkpt lat="44.42018" lon="1.1122">
        <ele>170</ele>
        <time>2021-01-20T19:38:14Z</time>
      </trkpt>
      <trkpt lat="44.41962" lon="1.11138">
        <ele>173</ele>
        <time>2021-01-20T19:39:19Z</time>
      </trkpt>
      <trkpt lat="44.41867" lon="1.11023">
        <ele>176</ele>
        <time>2021-01-20T19:40:59Z</time>
      </trkpt>
      <trkpt lat="44.41819" lon="1.10734">
        <ele>181</ele>
        <time>2021-01-20T19:43:49Z</time>
      </trkpt>
      <trkpt lat="44.41895" lon="1.10495">
        <ele>197</ele>
        <time>2021-01-20T19:46:19Z</time>
      </trkpt>
      <trkpt lat="44.4201" lon="1.10394">
        <ele>213</ele>
        <time>2021-01-20T19:48:07Z</time>
      </trkpt>
      <trkpt lat="44.4206" lon="1.10316">
        <ele>228</ele>
        <time>2021-01-20T19:49:07Z</time>
      </trkpt>
      <trkpt lat="44.4206" lon="1.10218">
        <ele>238</ele>
        <time>2021-01-20T19:50:03Z</time>
      </trkpt>
      <trkpt lat="44.42068" lon="1.10173">
        <ele>247</ele>
        <time>2021-01-20T19:50:30Z</time>
      </trkpt>
      <trkpt lat="44.42053" lon="1.10115">
        <ele>254</ele>
        <time>2021-01-20T19:51:05Z</time>
      </trkpt>
      <trkpt lat="44.42044" lon="1.10061">
        <ele>260</ele>
        <time>2021-01-20T19:51:37Z</time>
      </trkpt>
      <trkpt lat="44.4206" lon="1.10003">
        <ele>265</ele>
        <time>2021-01-20T19:52:12Z</time>
      </trkpt>
      <trkpt lat="44.42086" lon="1.09945">
        <ele>267</ele>
        <time>2021-01-20T19:52:51Z</time>
      </trkpt>
      <trkpt lat="44.42107" lon="1.09891">
        <ele>266</ele>
        <time>2021-01-20T19:53:27Z</time>
      </trkpt>
      <trkpt lat="44.42077" lon="1.09803">
        <ele>264</ele>
        <time>2021-01-20T19:54:22Z</time>
      </trkpt>
      <trkpt lat="44.42064" lon="1.09745">
        <ele>263</ele>
        <time>2021-01-20T19:54:57Z</time>
      </trkpt>
      <trkpt lat="44.42044" lon="1.09675">
        <ele>265</ele>
        <time>2021-01-20T19:55:40Z</time>
      </trkpt>
      <trkpt lat="44.42036" lon="1.09608">
        <ele>264</ele>
        <time>2021-01-20T19:56:19Z</time>
      </trkpt>
      <trkpt lat="44.42073" lon="1.09575">
        <ele>262</ele>
        <time>2021-01-20T19:56:54Z</time>
      </trkpt>
      <trkpt lat="44.42283" lon="1.0939">
        <ele>251</ele>
        <time>2021-01-20T20:00:13Z</time>
      </trkpt>
      <trkpt lat="44.42164" lon="1.09123">
        <ele>255</ele>
        <time>2021-01-20T20:03:13Z</time>
      </trkpt>
      <trkpt lat="44.42066" lon="1.08956">
        <ele>249</ele>
        <time>2021-01-20T20:05:16Z</time>
      </trkpt>
      <trkpt lat="44.4196" lon="1.08628">
        <ele>239</ele>
        <time>2021-01-20T20:08:42Z</time>
      </trkpt>
      <trkpt lat="44.41906" lon="1.08647">
        <ele>239</ele>
        <time>2021-01-20T20:09:27Z</time>
      </trkpt>
      <trkpt lat="44.41793" lon="1.08565">
        <ele>233</ele>
        <time>2021-01-20T20:11:09Z</time>
      </trkpt>
      <trkpt lat="44.41795" lon="1.08428">
        <ele>230</ele>
        <time>2021-01-20T20:12:27Z</time>
      </trkpt>
      <trkpt lat="44.41711" lon="1.08328">
        <ele>230</ele>
        <time>2021-01-20T20:13:56Z</time>
      </trkpt>
      <trkpt lat="44.41646" lon="1.08188">
        <ele>229</ele>
        <time>2021-01-20T20:15:31Z</time>
      </trkpt>
      <trkpt lat="44.41563" lon="1.07982">
        <ele>222</ele>
        <time>2021-01-20T20:17:46Z</time>
      </trkpt>
      <trkpt lat="44.41587" lon="1.0778">
        <ele>227</ele>
        <time>2021-01-20T20:19:43Z</time>
      </trkpt>
      <trkpt lat="44.41615" lon="1.07601">
        <ele>228</ele>
        <time>2021-01-20T20:21:28Z</time>
      </trkpt>
      <trkpt lat="44.41669" lon="1.07539">
        <ele>232</ele>
        <time>2021-01-20T20:22:24Z</time>
      </trkpt>
      <trkpt lat="44.41841" lon="1.07408">
        <ele>233</ele>
        <time>2021-01-20T20:25:01Z</time>
      </trkpt>
      <trkpt lat="44.41901" lon="1.07351">
        <ele>236</ele>
        <time>2021-01-20T20:25:59Z</time>
      </trkpt>
      <trkpt lat="44.41986" lon="1.07289">
        <ele>246</ele>
        <time>2021-01-20T20:27:16Z</time>
      </trkpt>
      <trkpt lat="44.42057" lon="1.07319">
        <ele>247</ele>
        <time>2021-01-20T20:28:15Z</time>
      </trkpt>
      <trkpt lat="44.42116" lon="1.07254">
        <ele>251</ele>
        <time>2021-01-20T20:29:15Z</time>
      </trkpt>
      <trkpt lat="44.42227" lon="1.07226">
        <ele>250</ele>
        <time>2021-01-20T20:30:45Z</time>
      </trkpt>
      <trkpt lat="44.42257" lon="1.07169">
        <ele>255</ele>
        <time>2021-01-20T20:31:26Z</time>
      </trkpt>
      <trkpt lat="44.42331" lon="1.07166">
        <ele>258</ele>
        <time>2021-01-20T20:32:25Z</time>
      </trkpt>
      <trkpt lat="44.42432" lon="1.07154">
        <ele>260</ele>
        <time>2021-01-20T20:33:46Z</time>
      </trkpt>
      <trkpt lat="44.425" lon="1.07147">
        <ele>259</ele>
        <time>2021-01-20T20:34:41Z</time>
      </trkpt>
      <trkpt lat="44.42493" lon="1.07029">
        <ele>263</ele>
        <time>2021-01-20T20:35:49Z</time>
      </trkpt>
      <trkpt lat="44.42604" lon="1.06929">
        <ele>263</ele>
        <time>2021-01-20T20:37:34Z</time>
      </trkpt>
      <trkpt lat="44.42712" lon="1.06826">
        <ele>266</ele>
        <time>2021-01-20T20:39:19Z</time>
      </trkpt>
      <trkpt lat="44.42781" lon="1.06726">
        <ele>265</ele>
        <time>2021-01-20T20:40:38Z</time>
      </trkpt>
      <trkpt lat="44.4287" lon="1.06519">
        <ele>256</ele>
        <time>2021-01-20T20:42:57Z</time>
      </trkpt>
      <trkpt lat="44.42955" lon="1.06377">
        <ele>253</ele>
        <time>2021-01-20T20:44:43Z</time>
      </trkpt>
      <trkpt lat="44.43104" lon="1.06243">
        <ele>253</ele>
        <time>2021-01-20T20:47:04Z</time>
      </trkpt>
      <trkpt lat="44.42983" lon="1.06002">
        <ele>247</ele>
        <time>2021-01-20T20:49:53Z</time>
      </trkpt>
      <trkpt lat="44.42796" lon="1.05767">
        <ele>240</ele>
        <time>2021-01-20T20:53:14Z</time>
      </trkpt>
      <trkpt lat="44.42736" lon="1.05494">
        <ele>239</ele>
        <time>2021-01-20T20:55:57Z</time>
      </trkpt>
      <trkpt lat="44.42712" lon="1.05374">
        <ele>239</ele>
        <time>2021-01-20T20:57:09Z</time>
      </trkpt>
      <trkpt lat="44.42647" lon="1.0529">
        <ele>243</ele>
        <time>2021-01-20T20:58:19Z</time>
      </trkpt>
      <trkpt lat="44.42595" lon="1.05169">
        <ele>249</ele>
        <time>2021-01-20T20:59:40Z</time>
      </trkpt>
      <trkpt lat="44.4253" lon="1.05072">
        <ele>247</ele>
        <time>2021-01-20T21:00:56Z</time>
      </trkpt>
      <trkpt lat="44.4251" lon="1.05011">
        <ele>246</ele>
        <time>2021-01-20T21:01:35Z</time>
      </trkpt>
      <trkpt lat="44.4251" lon="1.04938">
        <ele>247</ele>
        <time>2021-01-20T21:02:16Z</time>
      </trkpt>
      <trkpt lat="44.42645" lon="1.04929">
        <ele>248</ele>
        <time>2021-01-20T21:04:05Z</time>
      </trkpt>
      <trkpt lat="44.42701" lon="1.04932">
        <ele>245</ele>
        <time>2021-01-20T21:04:49Z</time>
      </trkpt>
      <trkpt lat="44.42827" lon="1.0495">
        <ele>241</ele>
        <time>2021-01-20T21:06:31Z</time>
      </trkpt>
      <trkpt lat="44.42931" lon="1.04893">
        <ele>237</ele>
        <time>2021-01-20T21:08:00Z</time>
      </trkpt>
      <trkpt lat="44.43011" lon="1.0479">
        <ele>234</ele>
        <time>2021-01-20T21:09:27Z</time>
      </trkpt>
      <trkpt lat="44.43093" lon="1.04692">
        <ele>234</ele>
        <time>2021-01-20T21:10:54Z</time>
      </trkpt>
      <trkpt lat="44.43039" lon="1.04595">
        <ele>242</ele>
        <time>2021-01-20T21:12:04Z</time>
      </trkpt>
      <trkpt lat="44.43089" lon="1.04483">
        <ele>240</ele>
        <time>2021-01-20T21:13:19Z</time>
      </trkpt>
      <trkpt lat="44.431" lon="1.04413">
        <ele>240</ele>
        <time>2021-01-20T21:14:00Z</time>
      </trkpt>
      <trkpt lat="44.43165" lon="1.04343">
        <ele>238</ele>
        <time>2021-01-20T21:15:06Z</time>
      </trkpt>
      <trkpt lat="44.43278" lon="1.04243">
        <ele>232</ele>
        <time>2021-01-20T21:16:53Z</time>
      </trkpt>
      <trkpt lat="44.43306" lon="1.04171">
        <ele>227</ele>
        <time>2021-01-20T21:17:40Z</time>
      </trkpt>
      <trkpt lat="44.4341" lon="1.04101">
        <ele>224</ele>
        <time>2021-01-20T21:19:12Z</time>
      </trkpt>
      <trkpt lat="44.43525" lon="1.04237">
        <ele>232</ele>
        <time>2021-01-20T21:21:13Z</time>
      </trkpt>
      <trkpt lat="44.43687" lon="1.0435">
        <ele>235</ele>
        <time>2021-01-20T21:23:38Z</time>
      </trkpt>
      <trkpt lat="44.43908" lon="1.04395">
        <ele>221</ele>
        <time>2021-01-20T21:26:37Z</time>
      </trkpt>
      <trkpt lat="44.44127" lon="1.04395">
        <ele>218</ele>
        <time>2021-01-20T21:29:32Z</time>
      </trkpt>
      <trkpt lat="44.44309" lon="1.044">
        <ele>217</ele>
        <time>2021-01-20T21:31:58Z</time>
      </trkpt>
      <trkpt lat="44.44426" lon="1.04459">
        <ele>220</ele>
        <time>2021-01-20T21:33:37Z</time>
      </trkpt>
      <trkpt lat="44.44692" lon="1.04398">
        <ele>219</ele>
        <time>2021-01-20T21:37:13Z</time>
      </trkpt>
      <trkpt lat="44.44985" lon="1.04362">
        <ele>210</ele>
        <time>2021-01-20T21:41:09Z</time>
      </trkpt>
      <trkpt lat="44.45091" lon="1.04337">
        <ele>210</ele>
        <time>2021-01-20T21:42:35Z</time>
      </trkpt>
      <trkpt lat="44.45223" lon="1.04398">
        <ele>206</ele>
        <time>2021-01-20T21:44:26Z</time>
      </trkpt>
      <trkpt lat="44.45139" lon="1.04607">
        <ele>209</ele>
        <time>2021-01-20T21:46:43Z</time>
      </trkpt>
      <trkpt lat="44.45141" lon="1.04796">
        <ele>209</ele>
        <time>2021-01-20T21:48:31Z</time>
      </trkpt>
      <trkpt lat="44.45201" lon="1.04768">
        <ele>211</ele>
        <time>2021-01-20T21:49:22Z</time>
      </trkpt>
      <trkpt lat="44.45262" lon="1.04756">
        <ele>211</ele>
        <time>2021-01-20T21:50:11Z</time>
      </trkpt>
      <trkpt lat="44.45273" lon="1.04811">
        <ele>212</ele>
        <time>2021-01-20T21:50:44Z</time>
      </trkpt>
      <trkpt lat="44.45297" lon="1.04865">
        <ele>212</ele>
        <time>2021-01-20T21:51:20Z</time>
      </trkpt>
      <trkpt lat="44.45282" lon="1.04911">
        <ele>212</ele>
        <time>2021-01-20T21:51:49Z</time>
      </trkpt>
      <trkpt lat="44.45266" lon="1.04944">
        <ele>213</ele>
        <time>2021-01-20T21:52:12Z</time>
      </trkpt>
      <trkpt lat="44.45217" lon="1.05051">
        <ele>213</ele>
        <time>2021-01-20T21:53:24Z</time>
      </trkpt>
      <trkpt lat="44.45167" lon="1.05184">
        <ele>209</ele>
        <time>2021-01-20T21:54:50Z</time>
      </trkpt>
      <trkpt lat="44.45132" lon="1.05281">
        <ele>207</ele>
        <time>2021-01-20T21:55:52Z</time>
      </trkpt>
      <trkpt lat="44.45104" lon="1.0536">
        <ele>206</ele>
        <time>2021-01-20T21:56:43Z</time>
      </trkpt>
      <trkpt lat="44.45063" lon="1.05396">
        <ele>205</ele>
        <time>2021-01-20T21:57:22Z</time>
      </trkpt>
      <trkpt lat="44.45015" lon="1.05415">
        <ele>204</ele>
        <time>2021-01-20T21:58:02Z</time>
      </trkpt>
      <trkpt lat="44.44961" lon="1.05442">
        <ele>205</ele>
        <time>2021-01-20T21:58:47Z</time>
      </trkpt>
      <trkpt lat="44.44954" lon="1.05588">
        <ele>212</ele>
        <time>2021-01-20T22:00:11Z</time>
      </trkpt>
      <trkpt lat="44.44985" lon="1.05752">
        <ele>208</ele>
        <time>2021-01-20T22:01:48Z</time>
      </trkpt>
      <trkpt lat="44.45006" lon="1.05852">
        <ele>207</ele>
        <time>2021-01-20T22:02:48Z</time>
      </trkpt>
      <trkpt lat="44.45011" lon="1.05897">
        <ele>206</ele>
        <time>2021-01-20T22:03:14Z</time>
      </trkpt>
      <trkpt lat="44.45043" lon="1.0611">
        <ele>214</ele>
        <time>2021-01-20T22:05:18Z</time>
      </trkpt>
      <trkpt lat="44.45145" lon="1.06343">
        <ele>213</ele>
        <time>2021-01-20T22:07:54Z</time>
      </trkpt>
      <trkpt lat="44.44941" lon="1.06704">
        <ele>219</ele>
        <time>2021-01-20T22:12:17Z</time>
      </trkpt>
      <trkpt lat="44.44818" lon="1.06601">
        <ele>224</ele>
        <time>2021-01-20T22:14:12Z</time>
      </trkpt>
      <trkpt lat="44.44781" lon="1.06782">
        <ele>228</ele>
        <time>2021-01-20T22:16:00Z</time>
      </trkpt>
      <trkpt lat="44.44686" lon="1.06926">
        <ele>227</ele>
        <time>2021-01-20T22:17:52Z</time>
      </trkpt>
      <trkpt lat="44.44569" lon="1.0729">
        <ele>239</ele>
        <time>2021-01-20T22:21:40Z</time>
      </trkpt>
      <trkpt lat="44.44614" lon="1.07442">
        <ele>240</ele>
        <time>2021-01-20T22:23:14Z</time>
      </trkpt>
      <trkpt lat="44.44523" lon="1.0746">
        <ele>239</ele>
        <time>2021-01-20T22:24:28Z</time>
      </trkpt>
      <trkpt lat="44.44471" lon="1.07457">
        <ele>241</ele>
        <time>2021-01-20T22:25:09Z</time>
      </trkpt>
      <trkpt lat="44.44398" lon="1.07472">
        <ele>245</ele>
        <time>2021-01-20T22:26:08Z</time>
      </trkpt>
      <trkpt lat="44.44307" lon="1.07484">
        <ele>250</ele>
        <time>2021-01-20T22:27:22Z</time>
      </trkpt>
      <trkpt lat="44.44246" lon="1.07484">
        <ele>252</ele>
        <time>2021-01-20T22:28:10Z</time>
      </trkpt>
      <trkpt lat="44.44216" lon="1.0749">
        <ele>250</ele>
        <time>2021-01-20T22:28:35Z</time>
      </trkpt>
      <trkpt lat="44.44185" lon="1.07545">
        <ele>248</ele>
        <time>2021-01-20T22:29:15Z</time>
      </trkpt>
      <trkpt lat="44.44164" lon="1.07557">
        <ele>247</ele>
        <time>2021-01-20T22:29:33Z</time>
      </trkpt>
      <trkpt lat="44.44123" lon="1.07572">
        <ele>244</ele>
        <time>2021-01-20T22:30:07Z</time>
      </trkpt>
      <trkpt lat="44.44101" lon="1.07621">
        <ele>240</ele>
        <time>2021-01-20T22:30:40Z</time>
      </trkpt>
      <trkpt lat="44.44051" lon="1.07712">
        <ele>236</ele>
        <time>2021-01-20T22:31:46Z</time>
      </trkpt>
      <trkpt lat="44.44027" lon="1.0776">
        <ele>236</ele>
        <time>2021-01-20T22:32:19Z</time>
      </trkpt>
      <trkpt lat="44.43997" lon="1.07803">
        <ele>235</ele>
        <time>2021-01-20T22:32:53Z</time>
      </trkpt>
      <trkpt lat="44.43982" lon="1.07827">
        <ele>236</ele>
        <time>2021-01-20T22:33:12Z</time>
      </trkpt>
      <trkpt lat="44.44023" lon="1.07867">
        <ele>234</ele>
        <time>2021-01-20T22:33:52Z</time>
      </trkpt>
      <trkpt lat="44.44051" lon="1.07912">
        <ele>232</ele>
        <time>2021-01-20T22:34:26Z</time>
      </trkpt>
      <trkpt lat="44.4404" lon="1.07946">
        <ele>233</ele>
        <time>2021-01-20T22:34:47Z</time>
      </trkpt>
      <trkpt lat="44.44027" lon="1.07994">
        <ele>234</ele>
        <time>2021-01-20T22:35:17Z</time>
      </trkpt>
      <trkpt lat="44.44006" lon="1.08061">
        <ele>239</ele>
        <time>2021-01-20T22:35:58Z</time>
      </trkpt>
      <trkpt lat="44.43984" lon="1.08106">
        <ele>242</ele>
        <time>2021-01-20T22:36:30Z</time>
      </trkpt>
      <trkpt lat="44.43975" lon="1.08194">
        <ele>243</ele>
        <time>2021-01-20T22:37:20Z</time>
      </trkpt>
      <trkpt lat="44.43956" lon="1.0827">
        <ele>241</ele>
        <time>2021-01-20T22:38:06Z</time>
      </trkpt>
      <trkpt lat="44.43934" lon="1.08328">
        <ele>239</ele>
        <time>2021-01-20T22:38:44Z</time>
      </trkpt>
      <trkpt lat="44.43919" lon="1.08358">
        <ele>237</ele>
        <time>2021-01-20T22:39:05Z</time>
      </trkpt>
      <trkpt lat="44.43884" lon="1.08398">
        <ele>233</ele>
        <time>2021-01-20T22:39:41Z</time>
      </trkpt>
      <trkpt lat="44.43858" lon="1.08434">
        <ele>232</ele>
        <time>2021-01-20T22:40:10Z</time>
      </trkpt>
      <trkpt lat="44.4385" lon="1.08495">
        <ele>231</ele>
        <time>2021-01-20T22:40:46Z</time>
      </trkpt>
      <trkpt lat="44.43941" lon="1.08486">
        <ele>230</ele>
        <time>2021-01-20T22:41:59Z</time>
      </trkpt>
      <trkpt lat="44.44021" lon="1.08501">
        <ele>229</ele>
        <time>2021-01-20T22:43:03Z</time>
      </trkpt>
      <trkpt lat="44.44105" lon="1.08562">
        <ele>229</ele>
        <time>2021-01-20T22:44:19Z</time>
      </trkpt>
      <trkpt lat="44.44214" lon="1.08631">
        <ele>229</ele>
        <time>2021-01-20T22:45:55Z</time>
      </trkpt>
      <trkpt lat="44.44413" lon="1.08668">
        <ele>221</ele>
        <time>2021-01-20T22:48:36Z</time>
      </trkpt>
      <trkpt lat="44.44474" lon="1.08689">
        <ele>223</ele>
        <time>2021-01-20T22:49:26Z</time>
      </trkpt>
      <trkpt lat="44.44536" lon="1.08768">
        <ele>228</ele>
        <time>2021-01-20T22:50:33Z</time>
      </trkpt>
      <trkpt lat="44.44571" lon="1.08883">
        <ele>232</ele>
        <time>2021-01-20T22:51:45Z</time>
      </trkpt>
      <trkpt lat="44.44569" lon="1.08995">
        <ele>236</ele>
        <time>2021-01-20T22:52:49Z</time>
      </trkpt>
      <trkpt lat="44.44569" lon="1.09035">
        <ele>237</ele>
        <time>2021-01-20T22:53:11Z</time>
      </trkpt>
      <trkpt lat="44.44575" lon="1.09178">
        <ele>235</ele>
        <time>2021-01-20T22:54:33Z</time>
      </trkpt>
      <trkpt lat="44.44549" lon="1.09253">
        <ele>233</ele>
        <time>2021-01-20T22:55:21Z</time>
      </trkpt>
      <trkpt lat="44.4453" lon="1.09335">
        <ele>229</ele>
        <time>2021-01-20T22:56:10Z</time>
      </trkpt>
      <trkpt lat="44.445" lon="1.09411">
        <ele>229</ele>
        <time>2021-01-20T22:57:00Z</time>
      </trkpt>
      <trkpt lat="44.44487" lon="1.09451">
        <ele>231</ele>
        <time>2021-01-20T22:57:25Z</time>
      </trkpt>
      <trkpt lat="44.44456" lon="1.09457">
        <ele>232</ele>
        <time>2021-01-20T22:57:50Z</time>
      </trkpt>
      <trkpt lat="44.44406" lon="1.0949">
        <ele>233</ele>
        <time>2021-01-20T22:58:34Z</time>
      </trkpt>
      <trkpt lat="44.44363" lon="1.09554">
        <ele>235</ele>
        <time>2021-01-20T22:59:25Z</time>
      </trkpt>
      <trkpt lat="44.44309" lon="1.09608">
        <ele>236</ele>
        <time>2021-01-20T23:00:18Z</time>
      </trkpt>
      <trkpt lat="44.44268" lon="1.0966">
        <ele>237</ele>
        <time>2021-01-20T23:01:02Z</time>
      </trkpt>
      <trkpt lat="44.44207" lon="1.09721">
        <ele>238</ele>
        <time>2021-01-20T23:02:02Z</time>
      </trkpt>
      <trkpt lat="44.44162" lon="1.09748">
        <ele>238</ele>
        <time>2021-01-20T23:02:41Z</time>
      </trkpt>
      <trkpt lat="44.44129" lon="1.09784">
        <ele>241</ele>
        <time>2021-01-20T23:03:15Z</time>
      </trkpt>
      <trkpt lat="44.44114" lon="1.09836">
        <ele>243</ele>
        <time>2021-01-20T23:03:47Z</time>
      </trkpt>
      <trkpt lat="44.44077" lon="1.09906">
        <ele>243</ele>
        <time>2021-01-20T23:04:37Z</time>
      </trkpt>
      <trkpt lat="44.4404" lon="1.09942">
        <ele>245</ele>
        <time>2021-01-20T23:05:13Z</time>
      </trkpt>
      <trkpt lat="44.44006" lon="1.10061">
        <ele>247</ele>
        <time>2021-01-20T23:06:26Z</time>
      </trkpt>
      <trkpt lat="44.43973" lon="1.10106">
        <ele>249</ele>
        <time>2021-01-20T23:07:03Z</time>
      </trkpt>
      <trkpt lat="44.43928" lon="1.10155">
        <ele>249</ele>
        <time>2021-01-20T23:07:48Z</time>
      </trkpt>
      <trkpt lat="44.43876" lon="1.10197">
        <ele>248</ele>
        <time>2021-01-20T23:08:36Z</time>
      </trkpt>
      <trkpt lat="44.43821" lon="1.10258">
        <ele>249</ele>
        <time>2021-01-20T23:09:33Z</time>
      </trkpt>
      <trkpt lat="44.43754" lon="1.10346">
        <ele>251</ele>
        <time>2021-01-20T23:10:46Z</time>
      </trkpt>
      <trkpt lat="44.43683" lon="1.10367">
        <ele>253</ele>
        <time>2021-01-20T23:11:44Z</time>
      </trkpt>
      <trkpt lat="44.43629" lon="1.10416">
        <ele>256</ele>
        <time>2021-01-20T23:12:36Z</time>
      </trkpt>
      <trkpt lat="44.43579" lon="1.10449">
        <ele>257</ele>
        <time>2021-01-20T23:13:20Z</time>
      </trkpt>
      <trkpt lat="44.43542" lon="1.10446">
        <ele>256</ele>
        <time>2021-01-20T23:13:50Z</time>
      </trkpt>
      <trkpt lat="44.43505" lon="1.10482">
        <ele>255</ele>
        <time>2021-01-20T23:14:26Z</time>
      </trkpt>
      <trkpt lat="44.43457" lon="1.10534">
        <ele>254</ele>
        <time>2021-01-20T23:15:14Z</time>
      </trkpt>
      <trkpt lat="44.43425" lon="1.10583">
        <ele>254</ele>
        <time>2021-01-20T23:15:52Z</time>
      </trkpt>
      <trkpt lat="44.43386" lon="1.10625">
        <ele>251</ele>
        <time>2021-01-20T23:16:32Z</time>
      </trkpt>
      <trkpt lat="44.43384" lon="1.10671">
        <ele>247</ele>
        <time>2021-01-20T23:16:58Z</time>
      </trkpt>
      <trkpt lat="44.43358" lon="1.1071">
        <ele>236</ele>
        <time>2021-01-20T23:17:29Z</time>
      </trkpt>
      <trkpt lat="44.43364" lon="1.10743">
        <ele>229</ele>
        <time>2021-01-20T23:17:48Z</time>
      </trkpt>
      <trkpt lat="44.4341" lon="1.10801">
        <ele>224</ele>
        <time>2021-01-20T23:18:38Z</time>
      </trkpt>
      <trkpt lat="44.43447" lon="1.10865">
        <ele>223</ele>
        <time>2021-01-20T23:19:25Z</time>
      </trkpt>
      <trkpt lat="44.43473" lon="1.10925">
        <ele>226</ele>
        <time>2021-01-20T23:20:05Z</time>
      </trkpt>
      <trkpt lat="44.43481" lon="1.1098">
        <ele>223</ele>
        <time>2021-01-20T23:20:37Z</time>
      </trkpt>
      <trkpt lat="44.43431" lon="1.11029">
        <ele>213</ele>
        <time>2021-01-20T23:21:26Z</time>
      </trkpt>
      <trkpt lat="44.43425" lon="1.11101">
        <ele>207</ele>
        <time>2021-01-20T23:22:07Z</time>
      </trkpt>
      <trkpt lat="44.43421" lon="1.1118">
        <ele>199</ele>
        <time>2021-01-20T23:22:53Z</time>
      </trkpt>
      <trkpt lat="44.43466" lon="1.11317">
        <ele>192</ele>
        <time>2021-01-20T23:24:19Z</time>
      </trkpt>
      <trkpt lat="44.43488" lon="1.11399">
        <ele>186</ele>
        <time>2021-01-20T23:25:09Z</time>
      </trkpt>
      <trkpt lat="44.43509" lon="1.11463">
        <ele>183</ele>
        <time>2021-01-20T23:25:49Z</time>
      </trkpt>
      <trkpt lat="44.43583" lon="1.1149">
        <ele>189</ele>
        <time>2021-01-20T23:26:50Z</time>
      </trkpt>
      <trkpt lat="44.43574" lon="1.11599">
        <ele>188</ele>
        <time>2021-01-20T23:27:53Z</time>
      </trkpt>
      <trkpt lat="44.4359" lon="1.11675">
        <ele>189</ele>
        <time>2021-01-20T23:28:38Z</time>
      </trkpt>
      <trkpt lat="44.43568" lon="1.11745">
        <ele>184</ele>
        <time>2021-01-20T23:29:22Z</time>
      </trkpt>
      <trkpt lat="44.43566" lon="1.11833">
        <ele>181</ele>
        <time>2021-01-20T23:30:12Z</time>
      </trkpt>
      <trkpt lat="44.43548" lon="1.11924">
        <ele>176</ele>
        <time>2021-01-20T23:31:06Z</time>
      </trkpt>
      <trkpt lat="44.43548" lon="1.12018">
        <ele>173</ele>
        <time>2021-01-20T23:32:00Z</time>
      </trkpt>
      <trkpt lat="44.43531" lon="1.12091">
        <ele>169</ele>
        <time>2021-01-20T23:32:44Z</time>
      </trkpt>
      <trkpt lat="44.4349" lon="1.12121">
        <ele>169</ele>
        <time>2021-01-20T23:33:21Z</time>
      </trkpt>
      <trkpt lat="44.43451" lon="1.12203">
        <ele>168</ele>
        <time>2021-01-20T23:34:17Z</time>
      </trkpt>
      <trkpt lat="44.43423" lon="1.12324">
        <ele>166</ele>
        <time>2021-01-20T23:35:30Z</time>
      </trkpt>
      <trkpt lat="44.43423" lon="1.1244">
        <ele>167</ele>
        <time>2021-01-20T23:36:36Z</time>
      </trkpt>
      <trkpt lat="44.43414" lon="1.12582">
        <ele>165</ele>
        <time>2021-01-20T23:37:58Z</time>
      </trkpt>
      <trkpt lat="44.4341" lon="1.12646">
        <ele>163</ele>
        <time>2021-01-20T23:38:35Z</time>
      </trkpt>
      <trkpt lat="44.43405" lon="1.12731">
        <ele>161</ele>
        <time>2021-01-20T23:39:23Z</time>
      </trkpt>
      <trkpt lat="44.43408" lon="1.12868">
        <ele>163</ele>
        <time>2021-01-20T23:40:42Z</time>
      </trkpt>
      <trkpt lat="44.43408" lon="1.12977">
        <ele>161</ele>
        <time>2021-01-20T23:41:44Z</time>
      </trkpt>
      <trkpt lat="44.43403" lon="1.13053">
        <ele>156</ele>
        <time>2021-01-20T23:42:28Z</time>
      </trkpt>
      <trkpt lat="44.43345" lon="1.13116">
        <ele>147</ele>
        <time>2021-01-20T23:43:27Z</time>
      </trkpt>
      <trkpt lat="44.43388" lon="1.13177">
        <ele>144</ele>
        <time>2021-01-20T23:44:16Z</time>
      </trkpt>
      <trkpt lat="44.4344" lon="1.13277">
        <ele>139</ele>
        <time>2021-01-20T23:45:26Z</time>
      </trkpt>
      <trkpt lat="44.43501" lon="1.13302">
        <ele>136</ele>
        <time>2021-01-20T23:46:17Z</time>
      </trkpt>
      <trkpt lat="44.43525" lon="1.13368">
        <ele>131</ele>
        <time>2021-01-20T23:47:00Z</time>
      </trkpt>
      <trkpt lat="44.43505" lon="1.13435">
        <ele>130</ele>
        <time>2021-01-20T23:47:41Z</time>
      </trkpt>
      <trkpt lat="44.43486" lon="1.13456">
        <ele>131</ele>
        <time>2021-01-20T23:48:00Z</time>
      </trkpt>
      <trkpt lat="44.43444" lon="1.13444">
        <ele>133</ele>
        <time>2021-01-20T23:48:35Z</time>
      </trkpt>
      <trkpt lat="44.43418" lon="1.13468">
        <ele>134</ele>
        <time>2021-01-20T23:49:00Z</time>
      </trkpt>
      <trkpt lat="44.43384" lon="1.13505">
        <ele>135</ele>
        <time>2021-01-20T23:49:34Z</time>
      </trkpt>
      <trkpt lat="44.43321" lon="1.13529">
        <ele>137</ele>
        <time>2021-01-20T23:50:26Z</time>
      </trkpt>
      <trkpt lat="44.43256" lon="1.13556">
        <ele>139</ele>
        <time>2021-01-20T23:51:21Z</time>
      </trkpt>
      <trkpt lat="44.4318" lon="1.13608">
        <ele>141</ele>
        <time>2021-01-20T23:52:28Z</time>
      </trkpt>
      <trkpt lat="44.43117" lon="1.13711">
        <ele>138</ele>
        <time>2021-01-20T23:53:46Z</time>
      </trkpt>
      <trkpt lat="44.43024" lon="1.13763">
        <ele>143</ele>
        <time>2021-01-20T23:55:06Z</time>
      </trkpt>
      <trkpt lat="44.42924" lon="1.13857">
        <ele>142</ele>
        <time>2021-01-20T23:56:43Z</time>
      </trkpt>
      <trkpt lat="44.4284" lon="1.13963">
        <ele>142</ele>
        <time>2021-01-20T23:58:13Z</time>
      </trkpt>
      <trkpt lat="44.4279" lon="1.14048">
        <ele>142</ele>
        <time>2021-01-20T23:59:16Z</time>
      </trkpt>
      <trkpt lat="44.42662" lon="1.14097">
        <ele>145</ele>
        <time>2021-01-21T00:01:02Z</time>
      </trkpt>
      <trkpt lat="44.42528" lon="1.14121">
        <ele>150</ele>
        <time>2021-01-21T00:02:51Z</time>
      </trkpt>
      <trkpt lat="44.42391" lon="1.14115">
        <ele>155</ele>
        <time>2021-01-21T00:04:40Z</time>
      </trkpt>
      <trkpt lat="44.42318" lon="1.14151">
        <ele>154</ele>
        <time>2021-01-21T00:05:42Z</time>
      </trkpt>
      <trkpt lat="44.42257" lon="1.14203">
        <ele>150</ele>
        <time>2021-01-21T00:06:39Z</time>
      </trkpt>
      <trkpt lat="44.42246" lon="1.14294">
        <ele>146</ele>
        <time>2021-01-21T00:07:32Z</time>
      </trkpt>
      <trkpt lat="44.42179" lon="1.14333">
        <ele>147</ele>
        <time>2021-01-21T00:08:30Z</time>
      </trkpt>
      <trkpt lat="44.42122" lon="1.1437">
        <ele>147</ele>
        <time>2021-01-21T00:09:21Z</time>
      </trkpt>
      <trkpt lat="44.42053" lon="1.1437">
        <ele>149</ele>
        <time>2021-01-21T00:10:16Z</time>
      </trkpt>
      <trkpt lat="44.42012" lon="1.14358">
        <ele>150</ele>
        <time>2021-01-21T00:10:49Z</time>
      </trkpt>
      <trkpt lat="44.41971" lon="1.14373">
        <ele>150</ele>
        <time>2021-01-21T00:11:23Z</time>
      </trkpt>
      <trkpt lat="44.4194" lon="1.14412">
        <ele>150</ele>
        <time>2021-01-21T00:11:57Z</time>
      </trkpt>
      <trkpt lat="44.41932" lon="1.1457">
        <ele>151</ele>
        <time>2021-01-21T00:13:27Z</time>
      </trkpt>
      <trkpt lat="44.41932" lon="1.14646">
        <ele>151</ele>
        <time>2021-01-21T00:14:11Z</time>
      </trkpt>
      <trkpt lat="44.41964" lon="1.14807">
        <ele>154</ele>
        <time>2021-01-21T00:15:46Z</time>
      </trkpt>
      <trkpt lat="44.41956" lon="1.14876">
        <ele>154</ele>
        <time>2021-01-21T00:16:26Z</time>
      </trkpt>
      <trkpt lat="44.41949" lon="1.14958">
        <ele>154</ele>
        <time>2021-01-21T00:17:13Z</time>
      </trkpt>
      <trkpt lat="44.41904" lon="1.15156">
        <ele>156</ele>
        <time>2021-01-21T00:19:12Z</time>
      </trkpt>
      <trkpt lat="44.41882" lon="1.15265">
        <ele>157</ele>
        <time>2021-01-21T00:20:17Z</time>
      </trkpt>
      <trkpt lat="44.41867" lon="1.15398">
        <ele>160</ele>
        <time>2021-01-21T00:21:34Z</time>
      </trkpt>
      <trkpt lat="44.41852" lon="1.15571">
        <ele>156</ele>
        <time>2021-01-21T00:23:14Z</time>
      </trkpt>
      <trkpt lat="44.41823" lon="1.15699">
        <ele>160</ele>
        <time>2021-01-21T00:24:31Z</time>
      </trkpt>
      <trkpt lat="44.41804" lon="1.15787">
        <ele>164</ele>
        <time>2021-01-21T00:25:23Z</time>
      </trkpt>
      <trkpt lat="44.4178" lon="1.15869">
        <ele>167</ele>
        <time>2021-01-21T00:26:14Z</time>
      </trkpt>
      <trkpt lat="44.41761" lon="1.15893">
        <ele>169</ele>
        <time>2021-01-21T00:26:34Z</time>
      </trkpt>
      <trkpt lat="44.41739" lon="1.15893">
        <ele>170</ele>
        <time>2021-01-21T00:26:52Z</time>
      </trkpt>
      <trkpt lat="44.41739" lon="1.15893">
        <ele>170</ele>
        <time>2021-01-21T00:26:52Z</time>
      </trkpt>
    </trkseg>
  </trk>
  <trk>
    <name><![CDATA[46 - Porte-du-Quercy : Les Terres Blanches : boucle sud-ouest 29 km]]></name>
    <trkseg>
      <trkpt lat="44.41668" lon="1.15844">
        <ele>173</ele>
        <time>2021-01-20T18:26:54Z</time>
      </trkpt>
      <trkpt lat="44.41579" lon="1.1544">
        <ele>191</ele>
        <time>2021-01-20T18:30:56Z</time>
      </trkpt>
      <trkpt lat="44.41429" lon="1.15144">
        <ele>177</ele>
        <time>2021-01-20T18:34:23Z</time>
      </trkpt>
      <trkpt lat="44.41441" lon="1.1505">
        <ele>178</ele>
        <time>2021-01-20T18:35:18Z</time>
      </trkpt>
      <trkpt lat="44.41481" lon="1.14998">
        <ele>178</ele>
        <time>2021-01-20T18:36:02Z</time>
      </trkpt>
      <trkpt lat="44.4149" lon="1.14985">
        <ele>178</ele>
        <time>2021-01-20T18:36:12Z</time>
      </trkpt>
      <trkpt lat="44.41511" lon="1.14951">
        <ele>177</ele>
        <time>2021-01-20T18:36:38Z</time>
      </trkpt>
      <trkpt lat="44.41487" lon="1.14908">
        <ele>180</ele>
        <time>2021-01-20T18:37:09Z</time>
      </trkpt>
      <trkpt lat="44.41453" lon="1.14784">
        <ele>177</ele>
        <time>2021-01-20T18:38:25Z</time>
      </trkpt>
      <trkpt lat="44.41435" lon="1.14711">
        <ele>176</ele>
        <time>2021-01-20T18:39:09Z</time>
      </trkpt>
      <trkpt lat="44.41386" lon="1.14552">
        <ele>170</ele>
        <time>2021-01-20T18:40:48Z</time>
      </trkpt>
      <trkpt lat="44.41263" lon="1.145">
        <ele>170</ele>
        <time>2021-01-20T18:42:31Z</time>
      </trkpt>
      <trkpt lat="44.4119" lon="1.14526">
        <ele>169</ele>
        <time>2021-01-20T18:43:31Z</time>
      </trkpt>
      <trkpt lat="44.41125" lon="1.14543">
        <ele>168</ele>
        <time>2021-01-20T18:44:24Z</time>
      </trkpt>
      <trkpt lat="44.41107" lon="1.14427">
        <ele>162</ele>
        <time>2021-01-20T18:45:32Z</time>
      </trkpt>
      <trkpt lat="44.41027" lon="1.14337">
        <ele>164</ele>
        <time>2021-01-20T18:46:54Z</time>
      </trkpt>
      <trkpt lat="44.40996" lon="1.14217">
        <ele>170</ele>
        <time>2021-01-20T18:48:07Z</time>
      </trkpt>
      <trkpt lat="44.40886" lon="1.14131">
        <ele>181</ele>
        <time>2021-01-20T18:49:48Z</time>
      </trkpt>
      <trkpt lat="44.40904" lon="1.1405">
        <ele>187</ele>
        <time>2021-01-20T18:50:37Z</time>
      </trkpt>
      <trkpt lat="44.40878" lon="1.13922">
        <ele>206</ele>
        <time>2021-01-20T18:51:53Z</time>
      </trkpt>
      <trkpt lat="44.40779" lon="1.13882">
        <ele>208</ele>
        <time>2021-01-20T18:53:15Z</time>
      </trkpt>
      <trkpt lat="44.40808" lon="1.13683">
        <ele>193</ele>
        <time>2021-01-20T18:55:11Z</time>
      </trkpt>
      <trkpt lat="44.4079" lon="1.13535">
        <ele>214</ele>
        <time>2021-01-20T18:56:37Z</time>
      </trkpt>
      <trkpt lat="44.40688" lon="1.13514">
        <ele>242</ele>
        <time>2021-01-20T18:58:00Z</time>
      </trkpt>
      <trkpt lat="44.40674" lon="1.13458">
        <ele>255</ele>
        <time>2021-01-20T18:58:34Z</time>
      </trkpt>
      <trkpt lat="44.4067" lon="1.13387">
        <ele>262</ele>
        <time>2021-01-20T18:59:15Z</time>
      </trkpt>
      <trkpt lat="44.4067" lon="1.1331">
        <ele>262</ele>
        <time>2021-01-20T18:59:59Z</time>
      </trkpt>
      <trkpt lat="44.40681" lon="1.13279">
        <ele>261</ele>
        <time>2021-01-20T19:00:18Z</time>
      </trkpt>
      <trkpt lat="44.40657" lon="1.13223">
        <ele>258</ele>
        <time>2021-01-20T19:00:56Z</time>
      </trkpt>
      <trkpt lat="44.40609" lon="1.13223">
        <ele>258</ele>
        <time>2021-01-20T19:01:34Z</time>
      </trkpt>
      <trkpt lat="44.4056" lon="1.13217">
        <ele>257</ele>
        <time>2021-01-20T19:02:14Z</time>
      </trkpt>
      <trkpt lat="44.40497" lon="1.13198">
        <ele>255</ele>
        <time>2021-01-20T19:03:05Z</time>
      </trkpt>
      <trkpt lat="44.40469" lon="1.13171">
        <ele>255</ele>
        <time>2021-01-20T19:03:32Z</time>
      </trkpt>
      <trkpt lat="44.40588" lon="1.13113">
        <ele>251</ele>
        <time>2021-01-20T19:05:13Z</time>
      </trkpt>
      <trkpt lat="44.40646" lon="1.13056">
        <ele>245</ele>
        <time>2021-01-20T19:06:10Z</time>
      </trkpt>
      <trkpt lat="44.40759" lon="1.13059">
        <ele>233</ele>
        <time>2021-01-20T19:07:41Z</time>
      </trkpt>
      <trkpt lat="44.40878" lon="1.12904">
        <ele>223</ele>
        <time>2021-01-20T19:09:51Z</time>
      </trkpt>
      <trkpt lat="44.40935" lon="1.12798">
        <ele>209</ele>
        <time>2021-01-20T19:11:07Z</time>
      </trkpt>
      <trkpt lat="44.41063" lon="1.12774">
        <ele>200</ele>
        <time>2021-01-20T19:12:50Z</time>
      </trkpt>
      <trkpt lat="44.41151" lon="1.12767">
        <ele>193</ele>
        <time>2021-01-20T19:14:01Z</time>
      </trkpt>
      <trkpt lat="44.4129" lon="1.12707">
        <ele>190</ele>
        <time>2021-01-20T19:15:57Z</time>
      </trkpt>
      <trkpt lat="44.4134" lon="1.12625">
        <ele>189</ele>
        <time>2021-01-20T19:16:59Z</time>
      </trkpt>
      <trkpt lat="44.4134" lon="1.12516">
        <ele>189</ele>
        <time>2021-01-20T19:18:01Z</time>
      </trkpt>
      <trkpt lat="44.41394" lon="1.12506">
        <ele>185</ele>
        <time>2021-01-20T19:18:45Z</time>
      </trkpt>
      <trkpt lat="44.41448" lon="1.12485">
        <ele>180</ele>
        <time>2021-01-20T19:19:30Z</time>
      </trkpt>
      <trkpt lat="44.4152" lon="1.12412">
        <ele>176</ele>
        <time>2021-01-20T19:20:41Z</time>
      </trkpt>
      <trkpt lat="44.41533" lon="1.12318">
        <ele>174</ele>
        <time>2021-01-20T19:21:35Z</time>
      </trkpt>
      <trkpt lat="44.41533" lon="1.12255">
        <ele>170</ele>
        <time>2021-01-20T19:22:11Z</time>
      </trkpt>
      <trkpt lat="44.41529" lon="1.12198">
        <ele>166</ele>
        <time>2021-01-20T19:22:44Z</time>
      </trkpt>
      <trkpt lat="44.41565" lon="1.12164">
        <ele>164</ele>
        <time>2021-01-20T19:23:19Z</time>
      </trkpt>
      <trkpt lat="44.41635" lon="1.12039">
        <ele>160</ele>
        <time>2021-01-20T19:24:50Z</time>
      </trkpt>
      <trkpt lat="44.41713" lon="1.11894">
        <ele>163</ele>
        <time>2021-01-20T19:26:34Z</time>
      </trkpt>
      <trkpt lat="44.41652" lon="1.11781">
        <ele>157</ele>
        <time>2021-01-20T19:27:55Z</time>
      </trkpt>
      <trkpt lat="44.41594" lon="1.11699">
        <ele>163</ele>
        <time>2021-01-20T19:29:01Z</time>
      </trkpt>
      <trkpt lat="44.41555" lon="1.11666">
        <ele>167</ele>
        <time>2021-01-20T19:29:37Z</time>
      </trkpt>
      <trkpt lat="44.415" lon="1.11566">
        <ele>170</ele>
        <time>2021-01-20T19:30:49Z</time>
      </trkpt>
      <trkpt lat="44.41448" lon="1.11463">
        <ele>176</ele>
        <time>2021-01-20T19:32:01Z</time>
      </trkpt>
      <trkpt lat="44.41373" lon="1.11344">
        <ele>188</ele>
        <time>2021-01-20T19:33:32Z</time>
      </trkpt>
      <trkpt lat="44.41377" lon="1.11244">
        <ele>185</ele>
        <time>2021-01-20T19:34:30Z</time>
      </trkpt>
      <trkpt lat="44.41472" lon="1.11174">
        <ele>177</ele>
        <time>2021-01-20T19:35:55Z</time>
      </trkpt>
      <trkpt lat="44.41433" lon="1.11126">
        <ele>180</ele>
        <time>2021-01-20T19:36:37Z</time>
      </trkpt>
      <trkpt lat="44.41375" lon="1.11047">
        <ele>186</ele>
        <time>2021-01-20T19:37:42Z</time>
      </trkpt>
      <trkpt lat="44.41334" lon="1.10847">
        <ele>196</ele>
        <time>2021-01-20T19:39:41Z</time>
      </trkpt>
      <trkpt lat="44.41264" lon="1.10753">
        <ele>205</ele>
        <time>2021-01-20T19:40:59Z</time>
      </trkpt>
      <trkpt lat="44.4118" lon="1.10689">
        <ele>219</ele>
        <time>2021-01-20T19:42:15Z</time>
      </trkpt>
      <trkpt lat="44.41076" lon="1.10722">
        <ele>232</ele>
        <time>2021-01-20T19:43:40Z</time>
      </trkpt>
      <trkpt lat="44.41024" lon="1.10777">
        <ele>239</ele>
        <time>2021-01-20T19:44:33Z</time>
      </trkpt>
      <trkpt lat="44.40995" lon="1.10877">
        <ele>240</ele>
        <time>2021-01-20T19:45:34Z</time>
      </trkpt>
      <trkpt lat="44.40995" lon="1.10935">
        <ele>240</ele>
        <time>2021-01-20T19:46:08Z</time>
      </trkpt>
      <trkpt lat="44.41004" lon="1.10965">
        <ele>240</ele>
        <time>2021-01-20T19:46:26Z</time>
      </trkpt>
      <trkpt lat="44.41021" lon="1.11095">
        <ele>240</ele>
        <time>2021-01-20T19:47:42Z</time>
      </trkpt>
      <trkpt lat="44.41002" lon="1.11171">
        <ele>242</ele>
        <time>2021-01-20T19:48:28Z</time>
      </trkpt>
      <trkpt lat="44.40974" lon="1.11293">
        <ele>245</ele>
        <time>2021-01-20T19:49:41Z</time>
      </trkpt>
      <trkpt lat="44.40928" lon="1.11399">
        <ele>248</ele>
        <time>2021-01-20T19:50:52Z</time>
      </trkpt>
      <trkpt lat="44.4088" lon="1.11475">
        <ele>247</ele>
        <time>2021-01-20T19:51:50Z</time>
      </trkpt>
      <trkpt lat="44.40854" lon="1.11541">
        <ele>246</ele>
        <time>2021-01-20T19:52:33Z</time>
      </trkpt>
      <trkpt lat="44.40809" lon="1.11578">
        <ele>248</ele>
        <time>2021-01-20T19:53:15Z</time>
      </trkpt>
      <trkpt lat="44.40755" lon="1.11629">
        <ele>250</ele>
        <time>2021-01-20T19:54:07Z</time>
      </trkpt>
      <trkpt lat="44.4072" lon="1.11678">
        <ele>251</ele>
        <time>2021-01-20T19:54:47Z</time>
      </trkpt>
      <trkpt lat="44.40679" lon="1.11702">
        <ele>251</ele>
        <time>2021-01-20T19:55:22Z</time>
      </trkpt>
      <trkpt lat="44.40625" lon="1.11781">
        <ele>254</ele>
        <time>2021-01-20T19:56:25Z</time>
      </trkpt>
      <trkpt lat="44.40573" lon="1.11836">
        <ele>257</ele>
        <time>2021-01-20T19:57:17Z</time>
      </trkpt>
      <trkpt lat="44.40542" lon="1.11875">
        <ele>258</ele>
        <time>2021-01-20T19:57:50Z</time>
      </trkpt>
      <trkpt lat="44.40486" lon="1.11833">
        <ele>256</ele>
        <time>2021-01-20T19:58:41Z</time>
      </trkpt>
      <trkpt lat="44.40414" lon="1.11793">
        <ele>250</ele>
        <time>2021-01-20T19:59:43Z</time>
      </trkpt>
      <trkpt lat="44.40341" lon="1.11751">
        <ele>247</ele>
        <time>2021-01-20T20:00:47Z</time>
      </trkpt>
      <trkpt lat="44.40278" lon="1.11754">
        <ele>250</ele>
        <time>2021-01-20T20:01:37Z</time>
      </trkpt>
      <trkpt lat="44.40228" lon="1.11781">
        <ele>251</ele>
        <time>2021-01-20T20:02:20Z</time>
      </trkpt>
      <trkpt lat="44.40176" lon="1.11766">
        <ele>257</ele>
        <time>2021-01-20T20:03:02Z</time>
      </trkpt>
      <trkpt lat="44.4015" lon="1.11754">
        <ele>258</ele>
        <time>2021-01-20T20:03:24Z</time>
      </trkpt>
      <trkpt lat="44.40163" lon="1.1169">
        <ele>257</ele>
        <time>2021-01-20T20:04:02Z</time>
      </trkpt>
      <trkpt lat="44.40159" lon="1.11496">
        <ele>256</ele>
        <time>2021-01-20T20:05:53Z</time>
      </trkpt>
      <trkpt lat="44.40191" lon="1.11247">
        <ele>246</ele>
        <time>2021-01-20T20:08:18Z</time>
      </trkpt>
      <trkpt lat="44.40286" lon="1.1095">
        <ele>244</ele>
        <time>2021-01-20T20:11:24Z</time>
      </trkpt>
      <trkpt lat="44.40378" lon="1.10841">
        <ele>244</ele>
        <time>2021-01-20T20:13:01Z</time>
      </trkpt>
      <trkpt lat="44.40521" lon="1.10567">
        <ele>239</ele>
        <time>2021-01-20T20:16:15Z</time>
      </trkpt>
      <trkpt lat="44.40612" lon="1.1027">
        <ele>243</ele>
        <time>2021-01-20T20:19:20Z</time>
      </trkpt>
      <trkpt lat="44.40651" lon="1.10048">
        <ele>246</ele>
        <time>2021-01-20T20:21:31Z</time>
      </trkpt>
      <trkpt lat="44.4069" lon="1.09839">
        <ele>244</ele>
        <time>2021-01-20T20:23:34Z</time>
      </trkpt>
      <trkpt lat="44.40517" lon="1.09937">
        <ele>247</ele>
        <time>2021-01-20T20:26:03Z</time>
      </trkpt>
      <trkpt lat="44.40393" lon="1.10008">
        <ele>245</ele>
        <time>2021-01-20T20:27:51Z</time>
      </trkpt>
      <trkpt lat="44.40316" lon="1.09998">
        <ele>243</ele>
        <time>2021-01-20T20:28:53Z</time>
      </trkpt>
      <trkpt lat="44.40254" lon="1.10095">
        <ele>248</ele>
        <time>2021-01-20T20:30:07Z</time>
      </trkpt>
      <trkpt lat="44.40159" lon="1.10171">
        <ele>250</ele>
        <time>2021-01-20T20:31:35Z</time>
      </trkpt>
      <trkpt lat="44.40057" lon="1.10253">
        <ele>258</ele>
        <time>2021-01-20T20:33:09Z</time>
      </trkpt>
      <trkpt lat="44.39912" lon="1.10345">
        <ele>256</ele>
        <time>2021-01-20T20:35:16Z</time>
      </trkpt>
      <trkpt lat="44.39795" lon="1.10375">
        <ele>260</ele>
        <time>2021-01-20T20:36:52Z</time>
      </trkpt>
      <trkpt lat="44.3962" lon="1.10381">
        <ele>261</ele>
        <time>2021-01-20T20:39:12Z</time>
      </trkpt>
      <trkpt lat="44.39572" lon="1.10396">
        <ele>261</ele>
        <time>2021-01-20T20:39:51Z</time>
      </trkpt>
      <trkpt lat="44.39529" lon="1.10437">
        <ele>260</ele>
        <time>2021-01-20T20:40:33Z</time>
      </trkpt>
      <trkpt lat="44.39502" lon="1.1044">
        <ele>260</ele>
        <time>2021-01-20T20:40:55Z</time>
      </trkpt>
      <trkpt lat="44.39471" lon="1.10422">
        <ele>259</ele>
        <time>2021-01-20T20:41:21Z</time>
      </trkpt>
      <trkpt lat="44.39411" lon="1.1041">
        <ele>255</ele>
        <time>2021-01-20T20:42:10Z</time>
      </trkpt>
      <trkpt lat="44.39367" lon="1.10437">
        <ele>247</ele>
        <time>2021-01-20T20:42:48Z</time>
      </trkpt>
      <trkpt lat="44.39337" lon="1.10434">
        <ele>242</ele>
        <time>2021-01-20T20:43:12Z</time>
      </trkpt>
      <trkpt lat="44.39348" lon="1.10382">
        <ele>243</ele>
        <time>2021-01-20T20:43:44Z</time>
      </trkpt>
      <trkpt lat="44.39335" lon="1.10355">
        <ele>241</ele>
        <time>2021-01-20T20:44:02Z</time>
      </trkpt>
      <trkpt lat="44.39311" lon="1.1034">
        <ele>236</ele>
        <time>2021-01-20T20:44:23Z</time>
      </trkpt>
      <trkpt lat="44.39291" lon="1.10273">
        <ele>237</ele>
        <time>2021-01-20T20:45:05Z</time>
      </trkpt>
      <trkpt lat="44.39252" lon="1.1024">
        <ele>231</ele>
        <time>2021-01-20T20:45:41Z</time>
      </trkpt>
      <trkpt lat="44.39228" lon="1.10215">
        <ele>229</ele>
        <time>2021-01-20T20:46:05Z</time>
      </trkpt>
      <trkpt lat="44.39207" lon="1.102">
        <ele>227</ele>
        <time>2021-01-20T20:46:24Z</time>
      </trkpt>
      <trkpt lat="44.39172" lon="1.10136">
        <ele>221</ele>
        <time>2021-01-20T20:47:10Z</time>
      </trkpt>
      <trkpt lat="44.39148" lon="1.10085">
        <ele>223</ele>
        <time>2021-01-20T20:47:45Z</time>
      </trkpt>
      <trkpt lat="44.39131" lon="1.10018">
        <ele>224</ele>
        <time>2021-01-20T20:48:26Z</time>
      </trkpt>
      <trkpt lat="44.39051" lon="1.09706">
        <ele>218</ele>
        <time>2021-01-20T20:51:35Z</time>
      </trkpt>
      <trkpt lat="44.39009" lon="1.09593">
        <ele>213</ele>
        <time>2021-01-20T20:52:48Z</time>
      </trkpt>
      <trkpt lat="44.3897" lon="1.09505">
        <ele>214</ele>
        <time>2021-01-20T20:53:48Z</time>
      </trkpt>
      <trkpt lat="44.38892" lon="1.09396">
        <ele>208</ele>
        <time>2021-01-20T20:55:16Z</time>
      </trkpt>
      <trkpt lat="44.38855" lon="1.0932">
        <ele>209</ele>
        <time>2021-01-20T20:56:08Z</time>
      </trkpt>
      <trkpt lat="44.38829" lon="1.09281">
        <ele>208</ele>
        <time>2021-01-20T20:56:39Z</time>
      </trkpt>
      <trkpt lat="44.38764" lon="1.09272">
        <ele>206</ele>
        <time>2021-01-20T20:57:31Z</time>
      </trkpt>
      <trkpt lat="44.38721" lon="1.09235">
        <ele>207</ele>
        <time>2021-01-20T20:58:12Z</time>
      </trkpt>
      <trkpt lat="44.38699" lon="1.09184">
        <ele>205</ele>
        <time>2021-01-20T20:58:46Z</time>
      </trkpt>
      <trkpt lat="44.38645" lon="1.0909">
        <ele>200</ele>
        <time>2021-01-20T20:59:55Z</time>
      </trkpt>
      <trkpt lat="44.38599" lon="1.09026">
        <ele>198</ele>
        <time>2021-01-20T21:00:47Z</time>
      </trkpt>
      <trkpt lat="44.38556" lon="1.08941">
        <ele>202</ele>
        <time>2021-01-20T21:01:46Z</time>
      </trkpt>
      <trkpt lat="44.38511" lon="1.08883">
        <ele>201</ele>
        <time>2021-01-20T21:02:35Z</time>
      </trkpt>
      <trkpt lat="44.38485" lon="1.08826">
        <ele>200</ele>
        <time>2021-01-20T21:03:14Z</time>
      </trkpt>
      <trkpt lat="44.38452" lon="1.08741">
        <ele>200</ele>
        <time>2021-01-20T21:04:09Z</time>
      </trkpt>
      <trkpt lat="44.38409" lon="1.08674">
        <ele>195</ele>
        <time>2021-01-20T21:05:01Z</time>
      </trkpt>
      <trkpt lat="44.3838" lon="1.0858">
        <ele>196</ele>
        <time>2021-01-20T21:05:59Z</time>
      </trkpt>
      <trkpt lat="44.38348" lon="1.0854">
        <ele>196</ele>
        <time>2021-01-20T21:06:34Z</time>
      </trkpt>
      <trkpt lat="44.38305" lon="1.08495">
        <ele>194</ele>
        <time>2021-01-20T21:07:17Z</time>
      </trkpt>
      <trkpt lat="44.38257" lon="1.08492">
        <ele>189</ele>
        <time>2021-01-20T21:07:55Z</time>
      </trkpt>
      <trkpt lat="44.38213" lon="1.08483">
        <ele>187</ele>
        <time>2021-01-20T21:08:31Z</time>
      </trkpt>
      <trkpt lat="44.38179" lon="1.08471">
        <ele>186</ele>
        <time>2021-01-20T21:08:59Z</time>
      </trkpt>
      <trkpt lat="44.38125" lon="1.0844">
        <ele>185</ele>
        <time>2021-01-20T21:09:46Z</time>
      </trkpt>
      <trkpt lat="44.38072" lon="1.08507">
        <ele>186</ele>
        <time>2021-01-20T21:10:43Z</time>
      </trkpt>
      <trkpt lat="44.38088" lon="1.08613">
        <ele>186</ele>
        <time>2021-01-20T21:11:45Z</time>
      </trkpt>
      <trkpt lat="44.38109" lon="1.08807">
        <ele>190</ele>
        <time>2021-01-20T21:13:37Z</time>
      </trkpt>
      <trkpt lat="44.38064" lon="1.08832">
        <ele>191</ele>
        <time>2021-01-20T21:14:16Z</time>
      </trkpt>
      <trkpt lat="44.38003" lon="1.08865">
        <ele>195</ele>
        <time>2021-01-20T21:15:08Z</time>
      </trkpt>
      <trkpt lat="44.37962" lon="1.08871">
        <ele>200</ele>
        <time>2021-01-20T21:15:41Z</time>
      </trkpt>
      <trkpt lat="44.37925" lon="1.08892">
        <ele>203</ele>
        <time>2021-01-20T21:16:13Z</time>
      </trkpt>
      <trkpt lat="44.3789" lon="1.0892">
        <ele>205</ele>
        <time>2021-01-20T21:16:46Z</time>
      </trkpt>
      <trkpt lat="44.37858" lon="1.08941">
        <ele>209</ele>
        <time>2021-01-20T21:17:14Z</time>
      </trkpt>
      <trkpt lat="44.37849" lon="1.08795">
        <ele>231</ele>
        <time>2021-01-20T21:18:38Z</time>
      </trkpt>
      <trkpt lat="44.37821" lon="1.08713">
        <ele>241</ele>
        <time>2021-01-20T21:19:30Z</time>
      </trkpt>
      <trkpt lat="44.37793" lon="1.0865">
        <ele>241</ele>
        <time>2021-01-20T21:20:12Z</time>
      </trkpt>
      <trkpt lat="44.37751" lon="1.08613">
        <ele>239</ele>
        <time>2021-01-20T21:20:52Z</time>
      </trkpt>
      <trkpt lat="44.37702" lon="1.08619">
        <ele>242</ele>
        <time>2021-01-20T21:21:31Z</time>
      </trkpt>
      <trkpt lat="44.3765" lon="1.08631">
        <ele>244</ele>
        <time>2021-01-20T21:22:13Z</time>
      </trkpt>
      <trkpt lat="44.37615" lon="1.08659">
        <ele>246</ele>
        <time>2021-01-20T21:22:46Z</time>
      </trkpt>
      <trkpt lat="44.37589" lon="1.08662">
        <ele>248</ele>
        <time>2021-01-20T21:23:07Z</time>
      </trkpt>
      <trkpt lat="44.37556" lon="1.08689">
        <ele>249</ele>
        <time>2021-01-20T21:23:37Z</time>
      </trkpt>
      <trkpt lat="44.37496" lon="1.08762">
        <ele>249</ele>
        <time>2021-01-20T21:24:41Z</time>
      </trkpt>
      <trkpt lat="44.37363" lon="1.08898">
        <ele>246</ele>
        <time>2021-01-20T21:26:53Z</time>
      </trkpt>
      <trkpt lat="44.37335" lon="1.09035">
        <ele>247</ele>
        <time>2021-01-20T21:28:14Z</time>
      </trkpt>
      <trkpt lat="44.37246" lon="1.09241">
        <ele>249</ele>
        <time>2021-01-20T21:30:32Z</time>
      </trkpt>
      <trkpt lat="44.37224" lon="1.09366">
        <ele>250</ele>
        <time>2021-01-20T21:31:46Z</time>
      </trkpt>
      <trkpt lat="44.37224" lon="1.09487">
        <ele>248</ele>
        <time>2021-01-20T21:32:55Z</time>
      </trkpt>
      <trkpt lat="44.3724" lon="1.09557">
        <ele>251</ele>
        <time>2021-01-20T21:33:37Z</time>
      </trkpt>
      <trkpt lat="44.37263" lon="1.09748">
        <ele>256</ele>
        <time>2021-01-20T21:35:28Z</time>
      </trkpt>
      <trkpt lat="44.373" lon="1.09833">
        <ele>258</ele>
        <time>2021-01-20T21:36:25Z</time>
      </trkpt>
      <trkpt lat="44.37324" lon="1.09918">
        <ele>258</ele>
        <time>2021-01-20T21:37:17Z</time>
      </trkpt>
      <trkpt lat="44.37244" lon="1.09985">
        <ele>263</ele>
        <time>2021-01-20T21:38:32Z</time>
      </trkpt>
      <trkpt lat="44.37105" lon="1.10052">
        <ele>270</ele>
        <time>2021-01-20T21:40:30Z</time>
      </trkpt>
      <trkpt lat="44.37042" lon="1.1007">
        <ele>274</ele>
        <time>2021-01-20T21:41:21Z</time>
      </trkpt>
      <trkpt lat="44.36981" lon="1.10143">
        <ele>275</ele>
        <time>2021-01-20T21:42:25Z</time>
      </trkpt>
      <trkpt lat="44.36858" lon="1.10188">
        <ele>284</ele>
        <time>2021-01-20T21:44:07Z</time>
      </trkpt>
      <trkpt lat="44.36893" lon="1.10361">
        <ele>277</ele>
        <time>2021-01-20T21:45:50Z</time>
      </trkpt>
      <trkpt lat="44.36921" lon="1.10495">
        <ele>273</ele>
        <time>2021-01-20T21:47:10Z</time>
      </trkpt>
      <trkpt lat="44.37001" lon="1.10549">
        <ele>272</ele>
        <time>2021-01-20T21:48:21Z</time>
      </trkpt>
      <trkpt lat="44.37016" lon="1.10734">
        <ele>268</ele>
        <time>2021-01-20T21:50:08Z</time>
      </trkpt>
      <trkpt lat="44.37007" lon="1.1081">
        <ele>269</ele>
        <time>2021-01-20T21:50:52Z</time>
      </trkpt>
      <trkpt lat="44.36942" lon="1.10822">
        <ele>263</ele>
        <time>2021-01-20T21:51:44Z</time>
      </trkpt>
      <trkpt lat="44.36908" lon="1.10917">
        <ele>262</ele>
        <time>2021-01-20T21:52:45Z</time>
      </trkpt>
      <trkpt lat="44.36918" lon="1.10981">
        <ele>263</ele>
        <time>2021-01-20T21:53:23Z</time>
      </trkpt>
      <trkpt lat="44.3689" lon="1.10981">
        <ele>259</ele>
        <time>2021-01-20T21:53:45Z</time>
      </trkpt>
      <trkpt lat="44.36853" lon="1.11153">
        <ele>255</ele>
        <time>2021-01-20T21:55:28Z</time>
      </trkpt>
      <trkpt lat="44.36853" lon="1.11217">
        <ele>257</ele>
        <time>2021-01-20T21:56:04Z</time>
      </trkpt>
      <trkpt lat="44.3681" lon="1.11239">
        <ele>251</ele>
        <time>2021-01-20T21:56:41Z</time>
      </trkpt>
      <trkpt lat="44.36783" lon="1.1123">
        <ele>247</ele>
        <time>2021-01-20T21:57:03Z</time>
      </trkpt>
      <trkpt lat="44.36777" lon="1.11273">
        <ele>247</ele>
        <time>2021-01-20T21:57:28Z</time>
      </trkpt>
      <trkpt lat="44.36734" lon="1.11316">
        <ele>244</ele>
        <time>2021-01-20T21:58:11Z</time>
      </trkpt>
      <trkpt lat="44.36681" lon="1.11419">
        <ele>246</ele>
        <time>2021-01-20T21:59:23Z</time>
      </trkpt>
      <trkpt lat="44.3666" lon="1.11505">
        <ele>247</ele>
        <time>2021-01-20T22:00:15Z</time>
      </trkpt>
      <trkpt lat="44.36648" lon="1.11616">
        <ele>254</ele>
        <time>2021-01-20T22:01:20Z</time>
      </trkpt>
      <trkpt lat="44.36678" lon="1.11681">
        <ele>256</ele>
        <time>2021-01-20T22:02:04Z</time>
      </trkpt>
      <trkpt lat="44.36881" lon="1.11664">
        <ele>260</ele>
        <time>2021-01-20T22:04:47Z</time>
      </trkpt>
      <trkpt lat="44.36918" lon="1.11784">
        <ele>256</ele>
        <time>2021-01-20T22:06:02Z</time>
      </trkpt>
      <trkpt lat="44.36985" lon="1.11865">
        <ele>257</ele>
        <time>2021-01-20T22:07:12Z</time>
      </trkpt>
      <trkpt lat="44.37019" lon="1.11985">
        <ele>253</ele>
        <time>2021-01-20T22:08:26Z</time>
      </trkpt>
      <trkpt lat="44.37034" lon="1.1205">
        <ele>250</ele>
        <time>2021-01-20T22:09:05Z</time>
      </trkpt>
      <trkpt lat="44.37074" lon="1.11985">
        <ele>252</ele>
        <time>2021-01-20T22:09:55Z</time>
      </trkpt>
      <trkpt lat="44.37172" lon="1.12114">
        <ele>256</ele>
        <time>2021-01-20T22:11:42Z</time>
      </trkpt>
      <trkpt lat="44.37243" lon="1.12204">
        <ele>266</ele>
        <time>2021-01-20T22:12:59Z</time>
      </trkpt>
      <trkpt lat="44.37258" lon="1.12346">
        <ele>267</ele>
        <time>2021-01-20T22:14:21Z</time>
      </trkpt>
      <trkpt lat="44.3728" lon="1.12539">
        <ele>265</ele>
        <time>2021-01-20T22:16:13Z</time>
      </trkpt>
      <trkpt lat="44.37301" lon="1.12681">
        <ele>266</ele>
        <time>2021-01-20T22:17:36Z</time>
      </trkpt>
      <trkpt lat="44.37292" lon="1.12827">
        <ele>269</ele>
        <time>2021-01-20T22:19:00Z</time>
      </trkpt>
      <trkpt lat="44.37261" lon="1.12951">
        <ele>274</ele>
        <time>2021-01-20T22:20:15Z</time>
      </trkpt>
      <trkpt lat="44.37215" lon="1.13084">
        <ele>271</ele>
        <time>2021-01-20T22:21:40Z</time>
      </trkpt>
      <trkpt lat="44.37335" lon="1.12998">
        <ele>272</ele>
        <time>2021-01-20T22:23:28Z</time>
      </trkpt>
      <trkpt lat="44.37497" lon="1.12947">
        <ele>265</ele>
        <time>2021-01-20T22:25:40Z</time>
      </trkpt>
      <trkpt lat="44.37574" lon="1.12797">
        <ele>261</ele>
        <time>2021-01-20T22:27:26Z</time>
      </trkpt>
      <trkpt lat="44.37651" lon="1.12719">
        <ele>257</ele>
        <time>2021-01-20T22:28:42Z</time>
      </trkpt>
      <trkpt lat="44.37688" lon="1.12792">
        <ele>255</ele>
        <time>2021-01-20T22:29:34Z</time>
      </trkpt>
      <trkpt lat="44.37703" lon="1.12844">
        <ele>252</ele>
        <time>2021-01-20T22:30:06Z</time>
      </trkpt>
      <trkpt lat="44.37783" lon="1.12719">
        <ele>246</ele>
        <time>2021-01-20T22:31:42Z</time>
      </trkpt>
      <trkpt lat="44.37801" lon="1.12651">
        <ele>245</ele>
        <time>2021-01-20T22:32:23Z</time>
      </trkpt>
      <trkpt lat="44.37807" lon="1.12775">
        <ele>247</ele>
        <time>2021-01-20T22:33:34Z</time>
      </trkpt>
      <trkpt lat="44.37813" lon="1.1287">
        <ele>247</ele>
        <time>2021-01-20T22:34:29Z</time>
      </trkpt>
      <trkpt lat="44.37807" lon="1.12968">
        <ele>248</ele>
        <time>2021-01-20T22:35:25Z</time>
      </trkpt>
      <trkpt lat="44.37801" lon="1.13041">
        <ele>248</ele>
        <time>2021-01-20T22:36:07Z</time>
      </trkpt>
      <trkpt lat="44.37936" lon="1.13093">
        <ele>255</ele>
        <time>2021-01-20T22:37:59Z</time>
      </trkpt>
      <trkpt lat="44.38065" lon="1.13123">
        <ele>264</ele>
        <time>2021-01-20T22:39:44Z</time>
      </trkpt>
      <trkpt lat="44.38065" lon="1.13123">
        <ele>264</ele>
        <time>2021-01-20T22:39:44Z</time>
      </trkpt>
      <trkpt lat="44.38089" lon="1.13063">
        <ele>268</ele>
        <time>2021-01-20T22:40:23Z</time>
      </trkpt>
      <trkpt lat="44.38135" lon="1.13065">
        <ele>269</ele>
        <time>2021-01-20T22:41:00Z</time>
      </trkpt>
      <trkpt lat="44.38145" lon="1.13144">
        <ele>271</ele>
        <time>2021-01-20T22:41:46Z</time>
      </trkpt>
      <trkpt lat="44.38157" lon="1.13166">
        <ele>273</ele>
        <time>2021-01-20T22:42:02Z</time>
      </trkpt>
      <trkpt lat="44.38203" lon="1.13239">
        <ele>279</ele>
        <time>2021-01-20T22:42:58Z</time>
      </trkpt>
      <trkpt lat="44.38338" lon="1.13329">
        <ele>284</ele>
        <time>2021-01-20T22:44:57Z</time>
      </trkpt>
      <trkpt lat="44.38439" lon="1.13277">
        <ele>289</ele>
        <time>2021-01-20T22:46:24Z</time>
      </trkpt>
      <trkpt lat="44.38531" lon="1.13239">
        <ele>291</ele>
        <time>2021-01-20T22:47:40Z</time>
      </trkpt>
      <trkpt lat="44.3854" lon="1.13453">
        <ele>291</ele>
        <time>2021-01-20T22:49:43Z</time>
      </trkpt>
      <trkpt lat="44.38571" lon="1.1359">
        <ele>294</ele>
        <time>2021-01-20T22:51:05Z</time>
      </trkpt>
      <trkpt lat="44.38599" lon="1.13732">
        <ele>292</ele>
        <time>2021-01-20T22:52:30Z</time>
      </trkpt>
      <trkpt lat="44.3862" lon="1.13792">
        <ele>289</ele>
        <time>2021-01-20T22:53:08Z</time>
      </trkpt>
      <trkpt lat="44.38721" lon="1.13899">
        <ele>288</ele>
        <time>2021-01-20T22:54:49Z</time>
      </trkpt>
      <trkpt lat="44.38829" lon="1.13938">
        <ele>286</ele>
        <time>2021-01-20T22:56:19Z</time>
      </trkpt>
      <trkpt lat="44.38841" lon="1.14067">
        <ele>288</ele>
        <time>2021-01-20T22:57:33Z</time>
      </trkpt>
      <trkpt lat="44.38875" lon="1.14221">
        <ele>289</ele>
        <time>2021-01-20T22:59:05Z</time>
      </trkpt>
      <trkpt lat="44.38865" lon="1.14372">
        <ele>289</ele>
        <time>2021-01-20T23:00:32Z</time>
      </trkpt>
      <trkpt lat="44.38865" lon="1.1447">
        <ele>289</ele>
        <time>2021-01-20T23:01:28Z</time>
      </trkpt>
      <trkpt lat="44.38865" lon="1.14573">
        <ele>289</ele>
        <time>2021-01-20T23:02:27Z</time>
      </trkpt>
      <trkpt lat="44.38887" lon="1.14612">
        <ele>290</ele>
        <time>2021-01-20T23:02:55Z</time>
      </trkpt>
      <trkpt lat="44.38942" lon="1.14638">
        <ele>291</ele>
        <time>2021-01-20T23:03:42Z</time>
      </trkpt>
      <trkpt lat="44.38957" lon="1.14771">
        <ele>288</ele>
        <time>2021-01-20T23:04:59Z</time>
      </trkpt>
      <trkpt lat="44.38964" lon="1.14874">
        <ele>287</ele>
        <time>2021-01-20T23:05:58Z</time>
      </trkpt>
      <trkpt lat="44.3897" lon="1.14998">
        <ele>285</ele>
        <time>2021-01-20T23:07:09Z</time>
      </trkpt>
      <trkpt lat="44.38829" lon="1.15453">
        <ele>264</ele>
        <time>2021-01-20T23:11:53Z</time>
      </trkpt>
      <trkpt lat="44.38715" lon="1.15685">
        <ele>256</ele>
        <time>2021-01-20T23:14:34Z</time>
      </trkpt>
      <trkpt lat="44.38642" lon="1.15835">
        <ele>249</ele>
        <time>2021-01-20T23:16:18Z</time>
      </trkpt>
      <trkpt lat="44.38626" lon="1.15916">
        <ele>250</ele>
        <time>2021-01-20T23:17:06Z</time>
      </trkpt>
      <trkpt lat="44.38697" lon="1.16015">
        <ele>258</ele>
        <time>2021-01-20T23:18:26Z</time>
      </trkpt>
      <trkpt lat="44.38807" lon="1.1617">
        <ele>264</ele>
        <time>2021-01-20T23:20:31Z</time>
      </trkpt>
      <trkpt lat="44.38985" lon="1.16333">
        <ele>261</ele>
        <time>2021-01-20T23:23:22Z</time>
      </trkpt>
      <trkpt lat="44.39123" lon="1.16376">
        <ele>260</ele>
        <time>2021-01-20T23:25:15Z</time>
      </trkpt>
      <trkpt lat="44.39194" lon="1.16565">
        <ele>264</ele>
        <time>2021-01-20T23:27:17Z</time>
      </trkpt>
      <trkpt lat="44.39307" lon="1.16668">
        <ele>270</ele>
        <time>2021-01-20T23:29:05Z</time>
      </trkpt>
      <trkpt lat="44.39488" lon="1.16492">
        <ele>281</ele>
        <time>2021-01-20T23:32:01Z</time>
      </trkpt>
      <trkpt lat="44.39604" lon="1.16384">
        <ele>282</ele>
        <time>2021-01-20T23:33:53Z</time>
      </trkpt>
      <trkpt lat="44.39672" lon="1.1632">
        <ele>280</ele>
        <time>2021-01-20T23:34:59Z</time>
      </trkpt>
      <trkpt lat="44.39712" lon="1.16294">
        <ele>277</ele>
        <time>2021-01-20T23:35:34Z</time>
      </trkpt>
      <trkpt lat="44.39724" lon="1.16251">
        <ele>277</ele>
        <time>2021-01-20T23:36:00Z</time>
      </trkpt>
      <trkpt lat="44.39779" lon="1.16213">
        <ele>272</ele>
        <time>2021-01-20T23:36:49Z</time>
      </trkpt>
      <trkpt lat="44.39905" lon="1.16217">
        <ele>260</ele>
        <time>2021-01-20T23:38:30Z</time>
      </trkpt>
      <trkpt lat="44.40043" lon="1.16118">
        <ele>243</ele>
        <time>2021-01-20T23:40:34Z</time>
      </trkpt>
      <trkpt lat="44.40193" lon="1.16084">
        <ele>221</ele>
        <time>2021-01-20T23:42:36Z</time>
      </trkpt>
      <trkpt lat="44.40202" lon="1.16127">
        <ele>216</ele>
        <time>2021-01-20T23:43:02Z</time>
      </trkpt>
      <trkpt lat="44.40196" lon="1.16183">
        <ele>217</ele>
        <time>2021-01-20T23:43:34Z</time>
      </trkpt>
      <trkpt lat="44.40144" lon="1.16225">
        <ele>227</ele>
        <time>2021-01-20T23:44:22Z</time>
      </trkpt>
      <trkpt lat="44.40086" lon="1.16324">
        <ele>235</ele>
        <time>2021-01-20T23:45:35Z</time>
      </trkpt>
      <trkpt lat="44.4004" lon="1.16419">
        <ele>248</ele>
        <time>2021-01-20T23:46:41Z</time>
      </trkpt>
      <trkpt lat="44.40025" lon="1.165">
        <ele>255</ele>
        <time>2021-01-20T23:47:29Z</time>
      </trkpt>
      <trkpt lat="44.40043" lon="1.16603">
        <ele>263</ele>
        <time>2021-01-20T23:48:30Z</time>
      </trkpt>
      <trkpt lat="44.40083" lon="1.16762">
        <ele>267</ele>
        <time>2021-01-20T23:50:06Z</time>
      </trkpt>
      <trkpt lat="44.40095" lon="1.16843">
        <ele>269</ele>
        <time>2021-01-20T23:50:53Z</time>
      </trkpt>
      <trkpt lat="44.40126" lon="1.16912">
        <ele>271</ele>
        <time>2021-01-20T23:51:40Z</time>
      </trkpt>
      <trkpt lat="44.4027" lon="1.16843">
        <ele>272</ele>
        <time>2021-01-20T23:53:42Z</time>
      </trkpt>
      <trkpt lat="44.40374" lon="1.16779">
        <ele>269</ele>
        <time>2021-01-20T23:55:13Z</time>
      </trkpt>
      <trkpt lat="44.40399" lon="1.16865">
        <ele>270</ele>
        <time>2021-01-20T23:56:06Z</time>
      </trkpt>
      <trkpt lat="44.40442" lon="1.16899">
        <ele>271</ele>
        <time>2021-01-20T23:56:46Z</time>
      </trkpt>
      <trkpt lat="44.40544" lon="1.1683">
        <ele>268</ele>
        <time>2021-01-20T23:58:16Z</time>
      </trkpt>
      <trkpt lat="44.40679" lon="1.16802">
        <ele>254</ele>
        <time>2021-01-21T00:00:05Z</time>
      </trkpt>
      <trkpt lat="44.40828" lon="1.16509">
        <ele>215</ele>
        <time>2021-01-21T00:03:31Z</time>
      </trkpt>
      <trkpt lat="44.40978" lon="1.16251">
        <ele>201</ele>
        <time>2021-01-21T00:06:41Z</time>
      </trkpt>
      <trkpt lat="44.41177" lon="1.16178">
        <ele>195</ele>
        <time>2021-01-21T00:09:26Z</time>
      </trkpt>
      <trkpt lat="44.41364" lon="1.16221">
        <ele>185</ele>
        <time>2021-01-21T00:11:58Z</time>
      </trkpt>
      <trkpt lat="44.41493" lon="1.16161">
        <ele>186</ele>
        <time>2021-01-21T00:13:47Z</time>
      </trkpt>
      <trkpt lat="44.41579" lon="1.16054">
        <ele>187</ele>
        <time>2021-01-21T00:15:19Z</time>
      </trkpt>
      <trkpt lat="44.41671" lon="1.15942">
        <ele>177</ele>
        <time>2021-01-21T00:16:57Z</time>
      </trkpt>
      <trkpt lat="44.41683" lon="1.15912">
        <ele>175</ele>
        <time>2021-01-21T00:17:16Z</time>
      </trkpt>
      <trkpt lat="44.41668" lon="1.15852">
        <ele>174</ele>
        <time>2021-01-21T00:17:53Z</time>
      </trkpt>
      <trkpt lat="44.41668" lon="1.15852">
        <ele>174</ele>
        <time>2021-01-21T00:17:53Z</time>
      </trkpt>
    </trkseg>
  </trk>
</gpx>